<?xml version="1.0" encoding="UTF-8" standalone="no" ?>
<gpx xmlns="http://www.topografix.com/GPX/1/1" xmlns:xsi="http://www.w3.org/2001/XMLSchema-instance" xsi:schemaLocation="http://www.topografix.com/GPX/1/1 http://www.topografix.com/GPX/1/1/gpx.xsd" version="1.1" creator="VisuGPX - https://www.visugpx.com">
  <metadata>
    <name>SO-E-St Léger St Pazanne St Lumine St Philbert La Chevrolière Pont St Martin St Aignan</name>
    <desc><![CDATA[SO-E-St Léger St Pazanne St Lumine St Philbert La Chevrolière Pont St Martin St Aignan]]></desc>
  </metadata>
  <trk>
    <name><![CDATA[2021-09-26 15:10 +02:00]]></name>
    <trkseg>
      <trkpt lat="47.16787" lon="-1.62651">
        <ele>73</ele>
        <time>2021-09-26T13:10:03.000Z</time>
      </trkpt>
      <trkpt lat="47.16779" lon="-1.62647">
        <ele>67</ele>
        <time>2021-09-26T13:10:26.000Z</time>
      </trkpt>
      <trkpt lat="47.16771" lon="-1.62649">
        <ele>66</ele>
        <time>2021-09-26T13:12:27.000Z</time>
      </trkpt>
      <trkpt lat="47.16776" lon="-1.62665">
        <ele>66</ele>
        <time>2021-09-26T13:12:33.000Z</time>
      </trkpt>
      <trkpt lat="47.16765" lon="-1.62675">
        <ele>66</ele>
        <time>2021-09-26T13:12:36.000Z</time>
      </trkpt>
      <trkpt lat="47.16753" lon="-1.62669">
        <ele>66</ele>
        <time>2021-09-26T13:12:38.000Z</time>
      </trkpt>
      <trkpt lat="47.16742" lon="-1.62669">
        <ele>65</ele>
        <time>2021-09-26T13:12:40.000Z</time>
      </trkpt>
      <trkpt lat="47.16731" lon="-1.62678">
        <ele>66</ele>
        <time>2021-09-26T13:12:42.000Z</time>
      </trkpt>
      <trkpt lat="47.1672" lon="-1.62686">
        <ele>66</ele>
        <time>2021-09-26T13:12:44.000Z</time>
      </trkpt>
      <trkpt lat="47.16713" lon="-1.627">
        <ele>64</ele>
        <time>2021-09-26T13:12:46.000Z</time>
      </trkpt>
      <trkpt lat="47.16718" lon="-1.62718">
        <ele>64</ele>
        <time>2021-09-26T13:12:48.000Z</time>
      </trkpt>
      <trkpt lat="47.16727" lon="-1.62734">
        <ele>64</ele>
        <time>2021-09-26T13:12:50.000Z</time>
      </trkpt>
      <trkpt lat="47.16737" lon="-1.62747">
        <ele>64</ele>
        <time>2021-09-26T13:12:52.000Z</time>
      </trkpt>
      <trkpt lat="47.16747" lon="-1.6276">
        <ele>63</ele>
        <time>2021-09-26T13:12:54.000Z</time>
      </trkpt>
      <trkpt lat="47.16759" lon="-1.62772">
        <ele>63</ele>
        <time>2021-09-26T13:12:56.000Z</time>
      </trkpt>
      <trkpt lat="47.1677" lon="-1.62783">
        <ele>63</ele>
        <time>2021-09-26T13:12:58.000Z</time>
      </trkpt>
      <trkpt lat="47.16782" lon="-1.62793">
        <ele>63</ele>
        <time>2021-09-26T13:13:00.000Z</time>
      </trkpt>
      <trkpt lat="47.16794" lon="-1.62803">
        <ele>63</ele>
        <time>2021-09-26T13:13:02.000Z</time>
      </trkpt>
      <trkpt lat="47.16805" lon="-1.62813">
        <ele>63</ele>
        <time>2021-09-26T13:13:04.000Z</time>
      </trkpt>
      <trkpt lat="47.16816" lon="-1.62823">
        <ele>63</ele>
        <time>2021-09-26T13:13:06.000Z</time>
      </trkpt>
      <trkpt lat="47.16827" lon="-1.62833">
        <ele>64</ele>
        <time>2021-09-26T13:13:08.000Z</time>
      </trkpt>
      <trkpt lat="47.16838" lon="-1.62844">
        <ele>64</ele>
        <time>2021-09-26T13:13:10.000Z</time>
      </trkpt>
      <trkpt lat="47.16848" lon="-1.62854">
        <ele>64</ele>
        <time>2021-09-26T13:13:12.000Z</time>
      </trkpt>
      <trkpt lat="47.16858" lon="-1.62865">
        <ele>64</ele>
        <time>2021-09-26T13:13:14.000Z</time>
      </trkpt>
      <trkpt lat="47.16868" lon="-1.62876">
        <ele>64</ele>
        <time>2021-09-26T13:13:16.000Z</time>
      </trkpt>
      <trkpt lat="47.16876" lon="-1.6289">
        <ele>64</ele>
        <time>2021-09-26T13:13:18.000Z</time>
      </trkpt>
      <trkpt lat="47.16882" lon="-1.62905">
        <ele>64</ele>
        <time>2021-09-26T13:13:20.000Z</time>
      </trkpt>
      <trkpt lat="47.16886" lon="-1.62921">
        <ele>64</ele>
        <time>2021-09-26T13:13:22.000Z</time>
      </trkpt>
      <trkpt lat="47.16888" lon="-1.62938">
        <ele>65</ele>
        <time>2021-09-26T13:13:24.000Z</time>
      </trkpt>
      <trkpt lat="47.16889" lon="-1.62955">
        <ele>65</ele>
        <time>2021-09-26T13:13:26.000Z</time>
      </trkpt>
      <trkpt lat="47.16889" lon="-1.62972">
        <ele>65</ele>
        <time>2021-09-26T13:13:28.000Z</time>
      </trkpt>
      <trkpt lat="47.16887" lon="-1.62989">
        <ele>66</ele>
        <time>2021-09-26T13:13:30.000Z</time>
      </trkpt>
      <trkpt lat="47.16885" lon="-1.63006">
        <ele>66</ele>
        <time>2021-09-26T13:13:32.000Z</time>
      </trkpt>
      <trkpt lat="47.16884" lon="-1.63023">
        <ele>66</ele>
        <time>2021-09-26T13:13:34.000Z</time>
      </trkpt>
      <trkpt lat="47.16883" lon="-1.6304">
        <ele>67</ele>
        <time>2021-09-26T13:13:36.000Z</time>
      </trkpt>
      <trkpt lat="47.16883" lon="-1.63058">
        <ele>67</ele>
        <time>2021-09-26T13:13:38.000Z</time>
      </trkpt>
      <trkpt lat="47.16885" lon="-1.63074">
        <ele>67</ele>
        <time>2021-09-26T13:13:40.000Z</time>
      </trkpt>
      <trkpt lat="47.16888" lon="-1.63092">
        <ele>67</ele>
        <time>2021-09-26T13:13:42.000Z</time>
      </trkpt>
      <trkpt lat="47.16892" lon="-1.63108">
        <ele>68</ele>
        <time>2021-09-26T13:13:44.000Z</time>
      </trkpt>
      <trkpt lat="47.16896" lon="-1.63124">
        <ele>68</ele>
        <time>2021-09-26T13:13:46.000Z</time>
      </trkpt>
      <trkpt lat="47.16901" lon="-1.63139">
        <ele>69</ele>
        <time>2021-09-26T13:13:48.000Z</time>
      </trkpt>
      <trkpt lat="47.16906" lon="-1.63154">
        <ele>68</ele>
        <time>2021-09-26T13:13:50.000Z</time>
      </trkpt>
      <trkpt lat="47.16912" lon="-1.63168">
        <ele>68</ele>
        <time>2021-09-26T13:13:52.000Z</time>
      </trkpt>
      <trkpt lat="47.16919" lon="-1.63182">
        <ele>68</ele>
        <time>2021-09-26T13:13:54.000Z</time>
      </trkpt>
      <trkpt lat="47.16926" lon="-1.63195">
        <ele>68</ele>
        <time>2021-09-26T13:13:56.000Z</time>
      </trkpt>
      <trkpt lat="47.16933" lon="-1.63207">
        <ele>69</ele>
        <time>2021-09-26T13:13:58.000Z</time>
      </trkpt>
      <trkpt lat="47.16941" lon="-1.6322">
        <ele>69</ele>
        <time>2021-09-26T13:14:00.000Z</time>
      </trkpt>
      <trkpt lat="47.16949" lon="-1.6323">
        <ele>69</ele>
        <time>2021-09-26T13:14:02.000Z</time>
      </trkpt>
      <trkpt lat="47.16956" lon="-1.6324">
        <ele>69</ele>
        <time>2021-09-26T13:14:04.000Z</time>
      </trkpt>
      <trkpt lat="47.16964" lon="-1.6325">
        <ele>69</ele>
        <time>2021-09-26T13:14:07.000Z</time>
      </trkpt>
      <trkpt lat="47.1696" lon="-1.63265">
        <ele>70</ele>
        <time>2021-09-26T13:14:17.000Z</time>
      </trkpt>
      <trkpt lat="47.16951" lon="-1.63282">
        <ele>71</ele>
        <time>2021-09-26T13:14:20.000Z</time>
      </trkpt>
      <trkpt lat="47.16943" lon="-1.63296">
        <ele>71</ele>
        <time>2021-09-26T13:14:22.000Z</time>
      </trkpt>
      <trkpt lat="47.16934" lon="-1.63309">
        <ele>71</ele>
        <time>2021-09-26T13:14:24.000Z</time>
      </trkpt>
      <trkpt lat="47.16925" lon="-1.63322">
        <ele>72</ele>
        <time>2021-09-26T13:14:26.000Z</time>
      </trkpt>
      <trkpt lat="47.16916" lon="-1.63335">
        <ele>72</ele>
        <time>2021-09-26T13:14:28.000Z</time>
      </trkpt>
      <trkpt lat="47.16907" lon="-1.63349">
        <ele>73</ele>
        <time>2021-09-26T13:14:30.000Z</time>
      </trkpt>
      <trkpt lat="47.16898" lon="-1.63362">
        <ele>72</ele>
        <time>2021-09-26T13:14:32.000Z</time>
      </trkpt>
      <trkpt lat="47.1689" lon="-1.63374">
        <ele>72</ele>
        <time>2021-09-26T13:14:34.000Z</time>
      </trkpt>
      <trkpt lat="47.16881" lon="-1.63387">
        <ele>72</ele>
        <time>2021-09-26T13:14:36.000Z</time>
      </trkpt>
      <trkpt lat="47.16872" lon="-1.63401">
        <ele>72</ele>
        <time>2021-09-26T13:14:38.000Z</time>
      </trkpt>
      <trkpt lat="47.16864" lon="-1.63415">
        <ele>72</ele>
        <time>2021-09-26T13:14:40.000Z</time>
      </trkpt>
      <trkpt lat="47.16856" lon="-1.63429">
        <ele>72</ele>
        <time>2021-09-26T13:14:42.000Z</time>
      </trkpt>
      <trkpt lat="47.16848" lon="-1.63443">
        <ele>72</ele>
        <time>2021-09-26T13:14:44.000Z</time>
      </trkpt>
      <trkpt lat="47.1684" lon="-1.63456">
        <ele>71</ele>
        <time>2021-09-26T13:14:46.000Z</time>
      </trkpt>
      <trkpt lat="47.16831" lon="-1.6347">
        <ele>71</ele>
        <time>2021-09-26T13:14:48.000Z</time>
      </trkpt>
      <trkpt lat="47.16823" lon="-1.63484">
        <ele>71</ele>
        <time>2021-09-26T13:14:50.000Z</time>
      </trkpt>
      <trkpt lat="47.16815" lon="-1.63497">
        <ele>71</ele>
        <time>2021-09-26T13:14:52.000Z</time>
      </trkpt>
      <trkpt lat="47.16808" lon="-1.63511">
        <ele>71</ele>
        <time>2021-09-26T13:14:54.000Z</time>
      </trkpt>
      <trkpt lat="47.168" lon="-1.63524">
        <ele>71</ele>
        <time>2021-09-26T13:14:56.000Z</time>
      </trkpt>
      <trkpt lat="47.16791" lon="-1.63538">
        <ele>71</ele>
        <time>2021-09-26T13:14:58.000Z</time>
      </trkpt>
      <trkpt lat="47.16783" lon="-1.63552">
        <ele>71</ele>
        <time>2021-09-26T13:15:00.000Z</time>
      </trkpt>
      <trkpt lat="47.16775" lon="-1.63567">
        <ele>72</ele>
        <time>2021-09-26T13:15:02.000Z</time>
      </trkpt>
      <trkpt lat="47.16768" lon="-1.63581">
        <ele>72</ele>
        <time>2021-09-26T13:15:04.000Z</time>
      </trkpt>
      <trkpt lat="47.1676" lon="-1.63594">
        <ele>72</ele>
        <time>2021-09-26T13:15:06.000Z</time>
      </trkpt>
      <trkpt lat="47.16752" lon="-1.63609">
        <ele>72</ele>
        <time>2021-09-26T13:15:08.000Z</time>
      </trkpt>
      <trkpt lat="47.16744" lon="-1.63622">
        <ele>72</ele>
        <time>2021-09-26T13:15:10.000Z</time>
      </trkpt>
      <trkpt lat="47.16741" lon="-1.63638">
        <ele>71</ele>
        <time>2021-09-26T13:15:12.000Z</time>
      </trkpt>
      <trkpt lat="47.16747" lon="-1.6365">
        <ele>70</ele>
        <time>2021-09-26T13:15:14.000Z</time>
      </trkpt>
      <trkpt lat="47.16762" lon="-1.63654">
        <ele>70</ele>
        <time>2021-09-26T13:15:16.000Z</time>
      </trkpt>
      <trkpt lat="47.16776" lon="-1.63658">
        <ele>70</ele>
        <time>2021-09-26T13:15:18.000Z</time>
      </trkpt>
      <trkpt lat="47.16789" lon="-1.63663">
        <ele>70</ele>
        <time>2021-09-26T13:15:20.000Z</time>
      </trkpt>
      <trkpt lat="47.16801" lon="-1.63667">
        <ele>70</ele>
        <time>2021-09-26T13:15:22.000Z</time>
      </trkpt>
      <trkpt lat="47.16815" lon="-1.63671">
        <ele>69</ele>
        <time>2021-09-26T13:15:24.000Z</time>
      </trkpt>
      <trkpt lat="47.16827" lon="-1.63676">
        <ele>69</ele>
        <time>2021-09-26T13:15:26.000Z</time>
      </trkpt>
      <trkpt lat="47.1684" lon="-1.63681">
        <ele>70</ele>
        <time>2021-09-26T13:15:28.000Z</time>
      </trkpt>
      <trkpt lat="47.16853" lon="-1.63685">
        <ele>70</ele>
        <time>2021-09-26T13:15:30.000Z</time>
      </trkpt>
      <trkpt lat="47.16866" lon="-1.6369">
        <ele>70</ele>
        <time>2021-09-26T13:15:32.000Z</time>
      </trkpt>
      <trkpt lat="47.16879" lon="-1.63694">
        <ele>70</ele>
        <time>2021-09-26T13:15:34.000Z</time>
      </trkpt>
      <trkpt lat="47.16892" lon="-1.63699">
        <ele>70</ele>
        <time>2021-09-26T13:15:36.000Z</time>
      </trkpt>
      <trkpt lat="47.16905" lon="-1.63704">
        <ele>70</ele>
        <time>2021-09-26T13:15:38.000Z</time>
      </trkpt>
      <trkpt lat="47.16918" lon="-1.63708">
        <ele>70</ele>
        <time>2021-09-26T13:15:40.000Z</time>
      </trkpt>
      <trkpt lat="47.16932" lon="-1.63713">
        <ele>70</ele>
        <time>2021-09-26T13:15:42.000Z</time>
      </trkpt>
      <trkpt lat="47.16945" lon="-1.63717">
        <ele>70</ele>
        <time>2021-09-26T13:15:44.000Z</time>
      </trkpt>
      <trkpt lat="47.16958" lon="-1.63723">
        <ele>70</ele>
        <time>2021-09-26T13:15:46.000Z</time>
      </trkpt>
      <trkpt lat="47.16971" lon="-1.63728">
        <ele>70</ele>
        <time>2021-09-26T13:15:48.000Z</time>
      </trkpt>
      <trkpt lat="47.16984" lon="-1.63732">
        <ele>70</ele>
        <time>2021-09-26T13:15:50.000Z</time>
      </trkpt>
      <trkpt lat="47.16997" lon="-1.63737">
        <ele>71</ele>
        <time>2021-09-26T13:15:52.000Z</time>
      </trkpt>
      <trkpt lat="47.17009" lon="-1.63741">
        <ele>71</ele>
        <time>2021-09-26T13:15:54.000Z</time>
      </trkpt>
      <trkpt lat="47.17022" lon="-1.63746">
        <ele>71</ele>
        <time>2021-09-26T13:15:56.000Z</time>
      </trkpt>
      <trkpt lat="47.17034" lon="-1.63751">
        <ele>71</ele>
        <time>2021-09-26T13:15:58.000Z</time>
      </trkpt>
      <trkpt lat="47.17045" lon="-1.63758">
        <ele>71</ele>
        <time>2021-09-26T13:16:00.000Z</time>
      </trkpt>
      <trkpt lat="47.17055" lon="-1.6377">
        <ele>72</ele>
        <time>2021-09-26T13:16:02.000Z</time>
      </trkpt>
      <trkpt lat="47.17062" lon="-1.63787">
        <ele>72</ele>
        <time>2021-09-26T13:16:04.000Z</time>
      </trkpt>
      <trkpt lat="47.17068" lon="-1.63804">
        <ele>72</ele>
        <time>2021-09-26T13:16:06.000Z</time>
      </trkpt>
      <trkpt lat="47.17073" lon="-1.63821">
        <ele>72</ele>
        <time>2021-09-26T13:16:08.000Z</time>
      </trkpt>
      <trkpt lat="47.1708" lon="-1.63839">
        <ele>72</ele>
        <time>2021-09-26T13:16:10.000Z</time>
      </trkpt>
      <trkpt lat="47.17086" lon="-1.63856">
        <ele>71</ele>
        <time>2021-09-26T13:16:12.000Z</time>
      </trkpt>
      <trkpt lat="47.17092" lon="-1.63873">
        <ele>70</ele>
        <time>2021-09-26T13:16:14.000Z</time>
      </trkpt>
      <trkpt lat="47.17099" lon="-1.6389">
        <ele>70</ele>
        <time>2021-09-26T13:16:16.000Z</time>
      </trkpt>
      <trkpt lat="47.17105" lon="-1.63906">
        <ele>70</ele>
        <time>2021-09-26T13:16:18.000Z</time>
      </trkpt>
      <trkpt lat="47.17111" lon="-1.63921">
        <ele>69</ele>
        <time>2021-09-26T13:16:20.000Z</time>
      </trkpt>
      <trkpt lat="47.17117" lon="-1.63935">
        <ele>69</ele>
        <time>2021-09-26T13:16:22.000Z</time>
      </trkpt>
      <trkpt lat="47.17125" lon="-1.63942">
        <ele>68</ele>
        <time>2021-09-26T13:16:24.000Z</time>
      </trkpt>
      <trkpt lat="47.17134" lon="-1.63954">
        <ele>69</ele>
        <time>2021-09-26T13:16:27.000Z</time>
      </trkpt>
      <trkpt lat="47.17137" lon="-1.63968">
        <ele>70</ele>
        <time>2021-09-26T13:16:29.000Z</time>
      </trkpt>
      <trkpt lat="47.17137" lon="-1.63985">
        <ele>70</ele>
        <time>2021-09-26T13:16:31.000Z</time>
      </trkpt>
      <trkpt lat="47.17135" lon="-1.64004">
        <ele>71</ele>
        <time>2021-09-26T13:16:33.000Z</time>
      </trkpt>
      <trkpt lat="47.17133" lon="-1.64022">
        <ele>71</ele>
        <time>2021-09-26T13:16:35.000Z</time>
      </trkpt>
      <trkpt lat="47.17131" lon="-1.64041">
        <ele>71</ele>
        <time>2021-09-26T13:16:37.000Z</time>
      </trkpt>
      <trkpt lat="47.17128" lon="-1.6406">
        <ele>70</ele>
        <time>2021-09-26T13:16:39.000Z</time>
      </trkpt>
      <trkpt lat="47.17125" lon="-1.64078">
        <ele>71</ele>
        <time>2021-09-26T13:16:41.000Z</time>
      </trkpt>
      <trkpt lat="47.17123" lon="-1.64097">
        <ele>71</ele>
        <time>2021-09-26T13:16:43.000Z</time>
      </trkpt>
      <trkpt lat="47.17121" lon="-1.64115">
        <ele>71</ele>
        <time>2021-09-26T13:16:45.000Z</time>
      </trkpt>
      <trkpt lat="47.17119" lon="-1.64133">
        <ele>71</ele>
        <time>2021-09-26T13:16:47.000Z</time>
      </trkpt>
      <trkpt lat="47.17117" lon="-1.6415">
        <ele>71</ele>
        <time>2021-09-26T13:16:49.000Z</time>
      </trkpt>
      <trkpt lat="47.17116" lon="-1.64168">
        <ele>71</ele>
        <time>2021-09-26T13:16:51.000Z</time>
      </trkpt>
      <trkpt lat="47.17114" lon="-1.64187">
        <ele>72</ele>
        <time>2021-09-26T13:16:53.000Z</time>
      </trkpt>
      <trkpt lat="47.17111" lon="-1.64205">
        <ele>71</ele>
        <time>2021-09-26T13:16:55.000Z</time>
      </trkpt>
      <trkpt lat="47.17109" lon="-1.64224">
        <ele>70</ele>
        <time>2021-09-26T13:16:57.000Z</time>
      </trkpt>
      <trkpt lat="47.17107" lon="-1.64243">
        <ele>71</ele>
        <time>2021-09-26T13:16:59.000Z</time>
      </trkpt>
      <trkpt lat="47.17105" lon="-1.64261">
        <ele>70</ele>
        <time>2021-09-26T13:17:01.000Z</time>
      </trkpt>
      <trkpt lat="47.17103" lon="-1.6428">
        <ele>70</ele>
        <time>2021-09-26T13:17:03.000Z</time>
      </trkpt>
      <trkpt lat="47.17101" lon="-1.64299">
        <ele>70</ele>
        <time>2021-09-26T13:17:05.000Z</time>
      </trkpt>
      <trkpt lat="47.17099" lon="-1.64317">
        <ele>71</ele>
        <time>2021-09-26T13:17:07.000Z</time>
      </trkpt>
      <trkpt lat="47.17097" lon="-1.64336">
        <ele>71</ele>
        <time>2021-09-26T13:17:09.000Z</time>
      </trkpt>
      <trkpt lat="47.17095" lon="-1.64354">
        <ele>71</ele>
        <time>2021-09-26T13:17:11.000Z</time>
      </trkpt>
      <trkpt lat="47.17093" lon="-1.64374">
        <ele>71</ele>
        <time>2021-09-26T13:17:13.000Z</time>
      </trkpt>
      <trkpt lat="47.17092" lon="-1.64393">
        <ele>71</ele>
        <time>2021-09-26T13:17:15.000Z</time>
      </trkpt>
      <trkpt lat="47.17091" lon="-1.64412">
        <ele>71</ele>
        <time>2021-09-26T13:17:17.000Z</time>
      </trkpt>
      <trkpt lat="47.17089" lon="-1.64431">
        <ele>71</ele>
        <time>2021-09-26T13:17:19.000Z</time>
      </trkpt>
      <trkpt lat="47.17087" lon="-1.6445">
        <ele>71</ele>
        <time>2021-09-26T13:17:21.000Z</time>
      </trkpt>
      <trkpt lat="47.17086" lon="-1.64469">
        <ele>71</ele>
        <time>2021-09-26T13:17:23.000Z</time>
      </trkpt>
      <trkpt lat="47.17085" lon="-1.64489">
        <ele>71</ele>
        <time>2021-09-26T13:17:25.000Z</time>
      </trkpt>
      <trkpt lat="47.17084" lon="-1.64509">
        <ele>71</ele>
        <time>2021-09-26T13:17:27.000Z</time>
      </trkpt>
      <trkpt lat="47.17084" lon="-1.64528">
        <ele>71</ele>
        <time>2021-09-26T13:17:29.000Z</time>
      </trkpt>
      <trkpt lat="47.17084" lon="-1.64549">
        <ele>71</ele>
        <time>2021-09-26T13:17:31.000Z</time>
      </trkpt>
      <trkpt lat="47.17084" lon="-1.64569">
        <ele>70</ele>
        <time>2021-09-26T13:17:33.000Z</time>
      </trkpt>
      <trkpt lat="47.17083" lon="-1.6459">
        <ele>70</ele>
        <time>2021-09-26T13:17:35.000Z</time>
      </trkpt>
      <trkpt lat="47.17083" lon="-1.6461">
        <ele>70</ele>
        <time>2021-09-26T13:17:37.000Z</time>
      </trkpt>
      <trkpt lat="47.17084" lon="-1.64629">
        <ele>70</ele>
        <time>2021-09-26T13:17:39.000Z</time>
      </trkpt>
      <trkpt lat="47.17084" lon="-1.64649">
        <ele>70</ele>
        <time>2021-09-26T13:17:41.000Z</time>
      </trkpt>
      <trkpt lat="47.17084" lon="-1.64668">
        <ele>70</ele>
        <time>2021-09-26T13:17:43.000Z</time>
      </trkpt>
      <trkpt lat="47.17084" lon="-1.64687">
        <ele>70</ele>
        <time>2021-09-26T13:17:45.000Z</time>
      </trkpt>
      <trkpt lat="47.17085" lon="-1.64706">
        <ele>71</ele>
        <time>2021-09-26T13:17:47.000Z</time>
      </trkpt>
      <trkpt lat="47.17086" lon="-1.64725">
        <ele>71</ele>
        <time>2021-09-26T13:17:49.000Z</time>
      </trkpt>
      <trkpt lat="47.17087" lon="-1.64743">
        <ele>71</ele>
        <time>2021-09-26T13:17:51.000Z</time>
      </trkpt>
      <trkpt lat="47.17089" lon="-1.64761">
        <ele>71</ele>
        <time>2021-09-26T13:17:53.000Z</time>
      </trkpt>
      <trkpt lat="47.17091" lon="-1.6478">
        <ele>71</ele>
        <time>2021-09-26T13:17:55.000Z</time>
      </trkpt>
      <trkpt lat="47.17092" lon="-1.64798">
        <ele>71</ele>
        <time>2021-09-26T13:17:57.000Z</time>
      </trkpt>
      <trkpt lat="47.17094" lon="-1.64817">
        <ele>71</ele>
        <time>2021-09-26T13:17:59.000Z</time>
      </trkpt>
      <trkpt lat="47.17095" lon="-1.64838">
        <ele>71</ele>
        <time>2021-09-26T13:18:01.000Z</time>
      </trkpt>
      <trkpt lat="47.17096" lon="-1.64858">
        <ele>71</ele>
        <time>2021-09-26T13:18:03.000Z</time>
      </trkpt>
      <trkpt lat="47.17097" lon="-1.64876">
        <ele>72</ele>
        <time>2021-09-26T13:18:05.000Z</time>
      </trkpt>
      <trkpt lat="47.17098" lon="-1.64895">
        <ele>71</ele>
        <time>2021-09-26T13:18:07.000Z</time>
      </trkpt>
      <trkpt lat="47.17099" lon="-1.64913">
        <ele>71</ele>
        <time>2021-09-26T13:18:09.000Z</time>
      </trkpt>
      <trkpt lat="47.171" lon="-1.64931">
        <ele>71</ele>
        <time>2021-09-26T13:18:11.000Z</time>
      </trkpt>
      <trkpt lat="47.17101" lon="-1.64949">
        <ele>70</ele>
        <time>2021-09-26T13:18:13.000Z</time>
      </trkpt>
      <trkpt lat="47.17101" lon="-1.64966">
        <ele>70</ele>
        <time>2021-09-26T13:18:15.000Z</time>
      </trkpt>
      <trkpt lat="47.17103" lon="-1.64984">
        <ele>70</ele>
        <time>2021-09-26T13:18:17.000Z</time>
      </trkpt>
      <trkpt lat="47.17104" lon="-1.65002">
        <ele>71</ele>
        <time>2021-09-26T13:18:19.000Z</time>
      </trkpt>
      <trkpt lat="47.17106" lon="-1.65019">
        <ele>70</ele>
        <time>2021-09-26T13:18:21.000Z</time>
      </trkpt>
      <trkpt lat="47.17107" lon="-1.65037">
        <ele>71</ele>
        <time>2021-09-26T13:18:23.000Z</time>
      </trkpt>
      <trkpt lat="47.17108" lon="-1.65054">
        <ele>71</ele>
        <time>2021-09-26T13:18:25.000Z</time>
      </trkpt>
      <trkpt lat="47.17109" lon="-1.65072">
        <ele>71</ele>
        <time>2021-09-26T13:18:27.000Z</time>
      </trkpt>
      <trkpt lat="47.17109" lon="-1.65088">
        <ele>71</ele>
        <time>2021-09-26T13:18:29.000Z</time>
      </trkpt>
      <trkpt lat="47.17111" lon="-1.65105">
        <ele>71</ele>
        <time>2021-09-26T13:18:31.000Z</time>
      </trkpt>
      <trkpt lat="47.17113" lon="-1.65122">
        <ele>71</ele>
        <time>2021-09-26T13:18:33.000Z</time>
      </trkpt>
      <trkpt lat="47.17114" lon="-1.6514">
        <ele>71</ele>
        <time>2021-09-26T13:18:35.000Z</time>
      </trkpt>
      <trkpt lat="47.17116" lon="-1.65157">
        <ele>71</ele>
        <time>2021-09-26T13:18:37.000Z</time>
      </trkpt>
      <trkpt lat="47.17117" lon="-1.65174">
        <ele>70</ele>
        <time>2021-09-26T13:18:39.000Z</time>
      </trkpt>
      <trkpt lat="47.17118" lon="-1.6519">
        <ele>71</ele>
        <time>2021-09-26T13:18:41.000Z</time>
      </trkpt>
      <trkpt lat="47.17119" lon="-1.65206">
        <ele>71</ele>
        <time>2021-09-26T13:18:43.000Z</time>
      </trkpt>
      <trkpt lat="47.1712" lon="-1.65222">
        <ele>71</ele>
        <time>2021-09-26T13:18:45.000Z</time>
      </trkpt>
      <trkpt lat="47.17121" lon="-1.65237">
        <ele>71</ele>
        <time>2021-09-26T13:18:47.000Z</time>
      </trkpt>
      <trkpt lat="47.17122" lon="-1.65253">
        <ele>72</ele>
        <time>2021-09-26T13:18:49.000Z</time>
      </trkpt>
      <trkpt lat="47.17125" lon="-1.65267">
        <ele>72</ele>
        <time>2021-09-26T13:18:51.000Z</time>
      </trkpt>
      <trkpt lat="47.1713" lon="-1.65282">
        <ele>72</ele>
        <time>2021-09-26T13:18:53.000Z</time>
      </trkpt>
      <trkpt lat="47.17133" lon="-1.65297">
        <ele>72</ele>
        <time>2021-09-26T13:18:55.000Z</time>
      </trkpt>
      <trkpt lat="47.17132" lon="-1.65313">
        <ele>72</ele>
        <time>2021-09-26T13:18:57.000Z</time>
      </trkpt>
      <trkpt lat="47.17127" lon="-1.65326">
        <ele>72</ele>
        <time>2021-09-26T13:18:59.000Z</time>
      </trkpt>
      <trkpt lat="47.1712" lon="-1.65338">
        <ele>73</ele>
        <time>2021-09-26T13:19:01.000Z</time>
      </trkpt>
      <trkpt lat="47.17114" lon="-1.65352">
        <ele>72</ele>
        <time>2021-09-26T13:19:03.000Z</time>
      </trkpt>
      <trkpt lat="47.17114" lon="-1.65368">
        <ele>73</ele>
        <time>2021-09-26T13:19:05.000Z</time>
      </trkpt>
      <trkpt lat="47.17115" lon="-1.65385">
        <ele>73</ele>
        <time>2021-09-26T13:19:07.000Z</time>
      </trkpt>
      <trkpt lat="47.17116" lon="-1.65401">
        <ele>74</ele>
        <time>2021-09-26T13:19:09.000Z</time>
      </trkpt>
      <trkpt lat="47.17116" lon="-1.65417">
        <ele>74</ele>
        <time>2021-09-26T13:19:11.000Z</time>
      </trkpt>
      <trkpt lat="47.17116" lon="-1.65432">
        <ele>75</ele>
        <time>2021-09-26T13:19:13.000Z</time>
      </trkpt>
      <trkpt lat="47.17116" lon="-1.65448">
        <ele>75</ele>
        <time>2021-09-26T13:19:15.000Z</time>
      </trkpt>
      <trkpt lat="47.17115" lon="-1.65463">
        <ele>76</ele>
        <time>2021-09-26T13:19:17.000Z</time>
      </trkpt>
      <trkpt lat="47.17114" lon="-1.65478">
        <ele>77</ele>
        <time>2021-09-26T13:19:19.000Z</time>
      </trkpt>
      <trkpt lat="47.17111" lon="-1.65493">
        <ele>77</ele>
        <time>2021-09-26T13:19:21.000Z</time>
      </trkpt>
      <trkpt lat="47.17108" lon="-1.65507">
        <ele>77</ele>
        <time>2021-09-26T13:19:23.000Z</time>
      </trkpt>
      <trkpt lat="47.17103" lon="-1.6552">
        <ele>78</ele>
        <time>2021-09-26T13:19:25.000Z</time>
      </trkpt>
      <trkpt lat="47.17097" lon="-1.65533">
        <ele>78</ele>
        <time>2021-09-26T13:19:27.000Z</time>
      </trkpt>
      <trkpt lat="47.1709" lon="-1.65545">
        <ele>78</ele>
        <time>2021-09-26T13:19:29.000Z</time>
      </trkpt>
      <trkpt lat="47.17082" lon="-1.65558">
        <ele>78</ele>
        <time>2021-09-26T13:19:31.000Z</time>
      </trkpt>
      <trkpt lat="47.17076" lon="-1.65573">
        <ele>79</ele>
        <time>2021-09-26T13:19:33.000Z</time>
      </trkpt>
      <trkpt lat="47.17069" lon="-1.65587">
        <ele>79</ele>
        <time>2021-09-26T13:19:35.000Z</time>
      </trkpt>
      <trkpt lat="47.17061" lon="-1.656">
        <ele>79</ele>
        <time>2021-09-26T13:19:37.000Z</time>
      </trkpt>
      <trkpt lat="47.17053" lon="-1.65614">
        <ele>79</ele>
        <time>2021-09-26T13:19:39.000Z</time>
      </trkpt>
      <trkpt lat="47.17044" lon="-1.65628">
        <ele>79</ele>
        <time>2021-09-26T13:19:41.000Z</time>
      </trkpt>
      <trkpt lat="47.17036" lon="-1.65643">
        <ele>78</ele>
        <time>2021-09-26T13:19:43.000Z</time>
      </trkpt>
      <trkpt lat="47.17028" lon="-1.65659">
        <ele>78</ele>
        <time>2021-09-26T13:19:45.000Z</time>
      </trkpt>
      <trkpt lat="47.17019" lon="-1.65676">
        <ele>77</ele>
        <time>2021-09-26T13:19:47.000Z</time>
      </trkpt>
      <trkpt lat="47.17011" lon="-1.65692">
        <ele>77</ele>
        <time>2021-09-26T13:19:49.000Z</time>
      </trkpt>
      <trkpt lat="47.17005" lon="-1.6571">
        <ele>77</ele>
        <time>2021-09-26T13:19:51.000Z</time>
      </trkpt>
      <trkpt lat="47.17" lon="-1.6573">
        <ele>77</ele>
        <time>2021-09-26T13:19:53.000Z</time>
      </trkpt>
      <trkpt lat="47.16998" lon="-1.65749">
        <ele>77</ele>
        <time>2021-09-26T13:19:55.000Z</time>
      </trkpt>
      <trkpt lat="47.16989" lon="-1.65764">
        <ele>77</ele>
        <time>2021-09-26T13:19:57.000Z</time>
      </trkpt>
      <trkpt lat="47.16976" lon="-1.65773">
        <ele>77</ele>
        <time>2021-09-26T13:19:59.000Z</time>
      </trkpt>
      <trkpt lat="47.16965" lon="-1.6578">
        <ele>77</ele>
        <time>2021-09-26T13:20:01.000Z</time>
      </trkpt>
      <trkpt lat="47.16955" lon="-1.65794">
        <ele>76</ele>
        <time>2021-09-26T13:20:03.000Z</time>
      </trkpt>
      <trkpt lat="47.16947" lon="-1.65809">
        <ele>76</ele>
        <time>2021-09-26T13:20:05.000Z</time>
      </trkpt>
      <trkpt lat="47.16939" lon="-1.65826">
        <ele>76</ele>
        <time>2021-09-26T13:20:07.000Z</time>
      </trkpt>
      <trkpt lat="47.1693" lon="-1.65842">
        <ele>76</ele>
        <time>2021-09-26T13:20:09.000Z</time>
      </trkpt>
      <trkpt lat="47.16922" lon="-1.65858">
        <ele>76</ele>
        <time>2021-09-26T13:20:11.000Z</time>
      </trkpt>
      <trkpt lat="47.16914" lon="-1.65875">
        <ele>75</ele>
        <time>2021-09-26T13:20:13.000Z</time>
      </trkpt>
      <trkpt lat="47.16906" lon="-1.65891">
        <ele>75</ele>
        <time>2021-09-26T13:20:15.000Z</time>
      </trkpt>
      <trkpt lat="47.16898" lon="-1.65908">
        <ele>75</ele>
        <time>2021-09-26T13:20:17.000Z</time>
      </trkpt>
      <trkpt lat="47.1689" lon="-1.65925">
        <ele>75</ele>
        <time>2021-09-26T13:20:19.000Z</time>
      </trkpt>
      <trkpt lat="47.16882" lon="-1.65941">
        <ele>75</ele>
        <time>2021-09-26T13:20:21.000Z</time>
      </trkpt>
      <trkpt lat="47.16874" lon="-1.65959">
        <ele>75</ele>
        <time>2021-09-26T13:20:23.000Z</time>
      </trkpt>
      <trkpt lat="47.16868" lon="-1.65976">
        <ele>74</ele>
        <time>2021-09-26T13:20:25.000Z</time>
      </trkpt>
      <trkpt lat="47.16862" lon="-1.65994">
        <ele>74</ele>
        <time>2021-09-26T13:20:27.000Z</time>
      </trkpt>
      <trkpt lat="47.16857" lon="-1.66012">
        <ele>74</ele>
        <time>2021-09-26T13:20:29.000Z</time>
      </trkpt>
      <trkpt lat="47.16852" lon="-1.66031">
        <ele>74</ele>
        <time>2021-09-26T13:20:31.000Z</time>
      </trkpt>
      <trkpt lat="47.16849" lon="-1.66049">
        <ele>74</ele>
        <time>2021-09-26T13:20:33.000Z</time>
      </trkpt>
      <trkpt lat="47.16847" lon="-1.66068">
        <ele>73</ele>
        <time>2021-09-26T13:20:35.000Z</time>
      </trkpt>
      <trkpt lat="47.16844" lon="-1.66086">
        <ele>73</ele>
        <time>2021-09-26T13:20:37.000Z</time>
      </trkpt>
      <trkpt lat="47.16842" lon="-1.66105">
        <ele>73</ele>
        <time>2021-09-26T13:20:39.000Z</time>
      </trkpt>
      <trkpt lat="47.16842" lon="-1.66124">
        <ele>74</ele>
        <time>2021-09-26T13:20:41.000Z</time>
      </trkpt>
      <trkpt lat="47.16842" lon="-1.66143">
        <ele>73</ele>
        <time>2021-09-26T13:20:43.000Z</time>
      </trkpt>
      <trkpt lat="47.16842" lon="-1.66162">
        <ele>73</ele>
        <time>2021-09-26T13:20:45.000Z</time>
      </trkpt>
      <trkpt lat="47.16843" lon="-1.66181">
        <ele>73</ele>
        <time>2021-09-26T13:20:47.000Z</time>
      </trkpt>
      <trkpt lat="47.16844" lon="-1.662">
        <ele>73</ele>
        <time>2021-09-26T13:20:49.000Z</time>
      </trkpt>
      <trkpt lat="47.16846" lon="-1.66219">
        <ele>73</ele>
        <time>2021-09-26T13:20:51.000Z</time>
      </trkpt>
      <trkpt lat="47.16846" lon="-1.66238">
        <ele>73</ele>
        <time>2021-09-26T13:20:53.000Z</time>
      </trkpt>
      <trkpt lat="47.16846" lon="-1.66255">
        <ele>73</ele>
        <time>2021-09-26T13:20:55.000Z</time>
      </trkpt>
      <trkpt lat="47.16848" lon="-1.66273">
        <ele>73</ele>
        <time>2021-09-26T13:20:57.000Z</time>
      </trkpt>
      <trkpt lat="47.16851" lon="-1.66292">
        <ele>73</ele>
        <time>2021-09-26T13:20:59.000Z</time>
      </trkpt>
      <trkpt lat="47.16852" lon="-1.66311">
        <ele>73</ele>
        <time>2021-09-26T13:21:01.000Z</time>
      </trkpt>
      <trkpt lat="47.16853" lon="-1.6633">
        <ele>72</ele>
        <time>2021-09-26T13:21:03.000Z</time>
      </trkpt>
      <trkpt lat="47.16855" lon="-1.66349">
        <ele>73</ele>
        <time>2021-09-26T13:21:05.000Z</time>
      </trkpt>
      <trkpt lat="47.16857" lon="-1.66367">
        <ele>73</ele>
        <time>2021-09-26T13:21:07.000Z</time>
      </trkpt>
      <trkpt lat="47.16859" lon="-1.66386">
        <ele>73</ele>
        <time>2021-09-26T13:21:09.000Z</time>
      </trkpt>
      <trkpt lat="47.16861" lon="-1.66406">
        <ele>73</ele>
        <time>2021-09-26T13:21:11.000Z</time>
      </trkpt>
      <trkpt lat="47.16863" lon="-1.66425">
        <ele>73</ele>
        <time>2021-09-26T13:21:13.000Z</time>
      </trkpt>
      <trkpt lat="47.16865" lon="-1.66445">
        <ele>73</ele>
        <time>2021-09-26T13:21:15.000Z</time>
      </trkpt>
      <trkpt lat="47.16867" lon="-1.66464">
        <ele>73</ele>
        <time>2021-09-26T13:21:17.000Z</time>
      </trkpt>
      <trkpt lat="47.16869" lon="-1.66483">
        <ele>73</ele>
        <time>2021-09-26T13:21:19.000Z</time>
      </trkpt>
      <trkpt lat="47.16871" lon="-1.66501">
        <ele>74</ele>
        <time>2021-09-26T13:21:21.000Z</time>
      </trkpt>
      <trkpt lat="47.16874" lon="-1.6652">
        <ele>74</ele>
        <time>2021-09-26T13:21:23.000Z</time>
      </trkpt>
      <trkpt lat="47.16877" lon="-1.6654">
        <ele>74</ele>
        <time>2021-09-26T13:21:25.000Z</time>
      </trkpt>
      <trkpt lat="47.16879" lon="-1.6656">
        <ele>75</ele>
        <time>2021-09-26T13:21:27.000Z</time>
      </trkpt>
      <trkpt lat="47.16881" lon="-1.6658">
        <ele>75</ele>
        <time>2021-09-26T13:21:29.000Z</time>
      </trkpt>
      <trkpt lat="47.16884" lon="-1.66598">
        <ele>75</ele>
        <time>2021-09-26T13:21:31.000Z</time>
      </trkpt>
      <trkpt lat="47.16886" lon="-1.66617">
        <ele>75</ele>
        <time>2021-09-26T13:21:33.000Z</time>
      </trkpt>
      <trkpt lat="47.16888" lon="-1.66635">
        <ele>75</ele>
        <time>2021-09-26T13:21:35.000Z</time>
      </trkpt>
      <trkpt lat="47.16889" lon="-1.66653">
        <ele>75</ele>
        <time>2021-09-26T13:21:37.000Z</time>
      </trkpt>
      <trkpt lat="47.16888" lon="-1.66672">
        <ele>75</ele>
        <time>2021-09-26T13:21:39.000Z</time>
      </trkpt>
      <trkpt lat="47.16886" lon="-1.66689">
        <ele>75</ele>
        <time>2021-09-26T13:21:41.000Z</time>
      </trkpt>
      <trkpt lat="47.16883" lon="-1.66707">
        <ele>74</ele>
        <time>2021-09-26T13:21:43.000Z</time>
      </trkpt>
      <trkpt lat="47.16877" lon="-1.66725">
        <ele>75</ele>
        <time>2021-09-26T13:21:45.000Z</time>
      </trkpt>
      <trkpt lat="47.1687" lon="-1.66741">
        <ele>74</ele>
        <time>2021-09-26T13:21:47.000Z</time>
      </trkpt>
      <trkpt lat="47.16862" lon="-1.66757">
        <ele>74</ele>
        <time>2021-09-26T13:21:49.000Z</time>
      </trkpt>
      <trkpt lat="47.16855" lon="-1.66773">
        <ele>74</ele>
        <time>2021-09-26T13:21:51.000Z</time>
      </trkpt>
      <trkpt lat="47.16846" lon="-1.66788">
        <ele>74</ele>
        <time>2021-09-26T13:21:53.000Z</time>
      </trkpt>
      <trkpt lat="47.16839" lon="-1.66804">
        <ele>74</ele>
        <time>2021-09-26T13:21:55.000Z</time>
      </trkpt>
      <trkpt lat="47.16831" lon="-1.66819">
        <ele>74</ele>
        <time>2021-09-26T13:21:57.000Z</time>
      </trkpt>
      <trkpt lat="47.16823" lon="-1.66835">
        <ele>74</ele>
        <time>2021-09-26T13:21:59.000Z</time>
      </trkpt>
      <trkpt lat="47.16815" lon="-1.6685">
        <ele>74</ele>
        <time>2021-09-26T13:22:01.000Z</time>
      </trkpt>
      <trkpt lat="47.16807" lon="-1.66864">
        <ele>74</ele>
        <time>2021-09-26T13:22:03.000Z</time>
      </trkpt>
      <trkpt lat="47.16799" lon="-1.66879">
        <ele>73</ele>
        <time>2021-09-26T13:22:05.000Z</time>
      </trkpt>
      <trkpt lat="47.16788" lon="-1.66892">
        <ele>73</ele>
        <time>2021-09-26T13:22:07.000Z</time>
      </trkpt>
      <trkpt lat="47.16777" lon="-1.66902">
        <ele>73</ele>
        <time>2021-09-26T13:22:09.000Z</time>
      </trkpt>
      <trkpt lat="47.16764" lon="-1.66909">
        <ele>72</ele>
        <time>2021-09-26T13:22:11.000Z</time>
      </trkpt>
      <trkpt lat="47.16752" lon="-1.66913">
        <ele>72</ele>
        <time>2021-09-26T13:22:13.000Z</time>
      </trkpt>
      <trkpt lat="47.16739" lon="-1.66916">
        <ele>72</ele>
        <time>2021-09-26T13:22:15.000Z</time>
      </trkpt>
      <trkpt lat="47.16727" lon="-1.6692">
        <ele>72</ele>
        <time>2021-09-26T13:22:17.000Z</time>
      </trkpt>
      <trkpt lat="47.16714" lon="-1.66925">
        <ele>72</ele>
        <time>2021-09-26T13:22:19.000Z</time>
      </trkpt>
      <trkpt lat="47.16702" lon="-1.6693">
        <ele>72</ele>
        <time>2021-09-26T13:22:21.000Z</time>
      </trkpt>
      <trkpt lat="47.16691" lon="-1.66936">
        <ele>72</ele>
        <time>2021-09-26T13:22:23.000Z</time>
      </trkpt>
      <trkpt lat="47.16681" lon="-1.66946">
        <ele>72</ele>
        <time>2021-09-26T13:22:25.000Z</time>
      </trkpt>
      <trkpt lat="47.16671" lon="-1.6696">
        <ele>72</ele>
        <time>2021-09-26T13:22:27.000Z</time>
      </trkpt>
      <trkpt lat="47.16663" lon="-1.66977">
        <ele>72</ele>
        <time>2021-09-26T13:22:29.000Z</time>
      </trkpt>
      <trkpt lat="47.16657" lon="-1.66996">
        <ele>73</ele>
        <time>2021-09-26T13:22:31.000Z</time>
      </trkpt>
      <trkpt lat="47.16653" lon="-1.67014">
        <ele>73</ele>
        <time>2021-09-26T13:22:33.000Z</time>
      </trkpt>
      <trkpt lat="47.1665" lon="-1.67032">
        <ele>73</ele>
        <time>2021-09-26T13:22:35.000Z</time>
      </trkpt>
      <trkpt lat="47.16647" lon="-1.6705">
        <ele>72</ele>
        <time>2021-09-26T13:22:37.000Z</time>
      </trkpt>
      <trkpt lat="47.16644" lon="-1.67069">
        <ele>71</ele>
        <time>2021-09-26T13:22:39.000Z</time>
      </trkpt>
      <trkpt lat="47.16639" lon="-1.67087">
        <ele>71</ele>
        <time>2021-09-26T13:22:41.000Z</time>
      </trkpt>
      <trkpt lat="47.16635" lon="-1.67105">
        <ele>71</ele>
        <time>2021-09-26T13:22:43.000Z</time>
      </trkpt>
      <trkpt lat="47.16631" lon="-1.67123">
        <ele>71</ele>
        <time>2021-09-26T13:22:45.000Z</time>
      </trkpt>
      <trkpt lat="47.16628" lon="-1.6714">
        <ele>72</ele>
        <time>2021-09-26T13:22:47.000Z</time>
      </trkpt>
      <trkpt lat="47.16626" lon="-1.67158">
        <ele>72</ele>
        <time>2021-09-26T13:22:49.000Z</time>
      </trkpt>
      <trkpt lat="47.16623" lon="-1.67176">
        <ele>72</ele>
        <time>2021-09-26T13:22:51.000Z</time>
      </trkpt>
      <trkpt lat="47.1662" lon="-1.67193">
        <ele>73</ele>
        <time>2021-09-26T13:22:53.000Z</time>
      </trkpt>
      <trkpt lat="47.16616" lon="-1.67211">
        <ele>73</ele>
        <time>2021-09-26T13:22:55.000Z</time>
      </trkpt>
      <trkpt lat="47.16612" lon="-1.67227">
        <ele>72</ele>
        <time>2021-09-26T13:22:57.000Z</time>
      </trkpt>
      <trkpt lat="47.16609" lon="-1.67243">
        <ele>72</ele>
        <time>2021-09-26T13:22:59.000Z</time>
      </trkpt>
      <trkpt lat="47.16607" lon="-1.67257">
        <ele>72</ele>
        <time>2021-09-26T13:23:01.000Z</time>
      </trkpt>
      <trkpt lat="47.16602" lon="-1.67269">
        <ele>72</ele>
        <time>2021-09-26T13:23:03.000Z</time>
      </trkpt>
      <trkpt lat="47.16596" lon="-1.67283">
        <ele>72</ele>
        <time>2021-09-26T13:23:05.000Z</time>
      </trkpt>
      <trkpt lat="47.16589" lon="-1.67298">
        <ele>72</ele>
        <time>2021-09-26T13:23:07.000Z</time>
      </trkpt>
      <trkpt lat="47.16582" lon="-1.67313">
        <ele>72</ele>
        <time>2021-09-26T13:23:09.000Z</time>
      </trkpt>
      <trkpt lat="47.16575" lon="-1.67328">
        <ele>72</ele>
        <time>2021-09-26T13:23:11.000Z</time>
      </trkpt>
      <trkpt lat="47.16568" lon="-1.67342">
        <ele>72</ele>
        <time>2021-09-26T13:23:13.000Z</time>
      </trkpt>
      <trkpt lat="47.16561" lon="-1.67357">
        <ele>71</ele>
        <time>2021-09-26T13:23:15.000Z</time>
      </trkpt>
      <trkpt lat="47.16552" lon="-1.6737">
        <ele>70</ele>
        <time>2021-09-26T13:23:17.000Z</time>
      </trkpt>
      <trkpt lat="47.16544" lon="-1.67383">
        <ele>70</ele>
        <time>2021-09-26T13:23:19.000Z</time>
      </trkpt>
      <trkpt lat="47.16535" lon="-1.67396">
        <ele>70</ele>
        <time>2021-09-26T13:23:21.000Z</time>
      </trkpt>
      <trkpt lat="47.16527" lon="-1.67409">
        <ele>71</ele>
        <time>2021-09-26T13:23:23.000Z</time>
      </trkpt>
      <trkpt lat="47.16518" lon="-1.67421">
        <ele>71</ele>
        <time>2021-09-26T13:23:25.000Z</time>
      </trkpt>
      <trkpt lat="47.1651" lon="-1.67434">
        <ele>71</ele>
        <time>2021-09-26T13:23:27.000Z</time>
      </trkpt>
      <trkpt lat="47.16502" lon="-1.67449">
        <ele>71</ele>
        <time>2021-09-26T13:23:29.000Z</time>
      </trkpt>
      <trkpt lat="47.16495" lon="-1.67463">
        <ele>71</ele>
        <time>2021-09-26T13:23:31.000Z</time>
      </trkpt>
      <trkpt lat="47.16487" lon="-1.67477">
        <ele>71</ele>
        <time>2021-09-26T13:23:33.000Z</time>
      </trkpt>
      <trkpt lat="47.16479" lon="-1.67491">
        <ele>71</ele>
        <time>2021-09-26T13:23:35.000Z</time>
      </trkpt>
      <trkpt lat="47.16471" lon="-1.67505">
        <ele>71</ele>
        <time>2021-09-26T13:23:37.000Z</time>
      </trkpt>
      <trkpt lat="47.16464" lon="-1.67518">
        <ele>71</ele>
        <time>2021-09-26T13:23:39.000Z</time>
      </trkpt>
      <trkpt lat="47.16456" lon="-1.67532">
        <ele>72</ele>
        <time>2021-09-26T13:23:41.000Z</time>
      </trkpt>
      <trkpt lat="47.16448" lon="-1.67544">
        <ele>72</ele>
        <time>2021-09-26T13:23:43.000Z</time>
      </trkpt>
      <trkpt lat="47.16441" lon="-1.67558">
        <ele>71</ele>
        <time>2021-09-26T13:23:45.000Z</time>
      </trkpt>
      <trkpt lat="47.16434" lon="-1.67571">
        <ele>71</ele>
        <time>2021-09-26T13:23:47.000Z</time>
      </trkpt>
      <trkpt lat="47.16427" lon="-1.67587">
        <ele>71</ele>
        <time>2021-09-26T13:23:49.000Z</time>
      </trkpt>
      <trkpt lat="47.1642" lon="-1.67602">
        <ele>71</ele>
        <time>2021-09-26T13:23:51.000Z</time>
      </trkpt>
      <trkpt lat="47.16412" lon="-1.67616">
        <ele>70</ele>
        <time>2021-09-26T13:23:53.000Z</time>
      </trkpt>
      <trkpt lat="47.16405" lon="-1.67631">
        <ele>70</ele>
        <time>2021-09-26T13:23:55.000Z</time>
      </trkpt>
      <trkpt lat="47.16398" lon="-1.67646">
        <ele>70</ele>
        <time>2021-09-26T13:23:57.000Z</time>
      </trkpt>
      <trkpt lat="47.16391" lon="-1.6766">
        <ele>69</ele>
        <time>2021-09-26T13:23:59.000Z</time>
      </trkpt>
      <trkpt lat="47.16384" lon="-1.67673">
        <ele>69</ele>
        <time>2021-09-26T13:24:01.000Z</time>
      </trkpt>
      <trkpt lat="47.16377" lon="-1.67687">
        <ele>69</ele>
        <time>2021-09-26T13:24:03.000Z</time>
      </trkpt>
      <trkpt lat="47.1637" lon="-1.67699">
        <ele>69</ele>
        <time>2021-09-26T13:24:05.000Z</time>
      </trkpt>
      <trkpt lat="47.16363" lon="-1.67712">
        <ele>69</ele>
        <time>2021-09-26T13:24:07.000Z</time>
      </trkpt>
      <trkpt lat="47.16356" lon="-1.67726">
        <ele>69</ele>
        <time>2021-09-26T13:24:09.000Z</time>
      </trkpt>
      <trkpt lat="47.16349" lon="-1.6774">
        <ele>70</ele>
        <time>2021-09-26T13:24:11.000Z</time>
      </trkpt>
      <trkpt lat="47.16342" lon="-1.67755">
        <ele>71</ele>
        <time>2021-09-26T13:24:13.000Z</time>
      </trkpt>
      <trkpt lat="47.16335" lon="-1.67769">
        <ele>72</ele>
        <time>2021-09-26T13:24:15.000Z</time>
      </trkpt>
      <trkpt lat="47.16327" lon="-1.67782">
        <ele>72</ele>
        <time>2021-09-26T13:24:17.000Z</time>
      </trkpt>
      <trkpt lat="47.1632" lon="-1.67796">
        <ele>72</ele>
        <time>2021-09-26T13:24:19.000Z</time>
      </trkpt>
      <trkpt lat="47.16312" lon="-1.67809">
        <ele>73</ele>
        <time>2021-09-26T13:24:21.000Z</time>
      </trkpt>
      <trkpt lat="47.16305" lon="-1.67822">
        <ele>72</ele>
        <time>2021-09-26T13:24:23.000Z</time>
      </trkpt>
      <trkpt lat="47.16297" lon="-1.67835">
        <ele>72</ele>
        <time>2021-09-26T13:24:25.000Z</time>
      </trkpt>
      <trkpt lat="47.1629" lon="-1.67848">
        <ele>72</ele>
        <time>2021-09-26T13:24:27.000Z</time>
      </trkpt>
      <trkpt lat="47.16283" lon="-1.67862">
        <ele>72</ele>
        <time>2021-09-26T13:24:29.000Z</time>
      </trkpt>
      <trkpt lat="47.16276" lon="-1.67875">
        <ele>72</ele>
        <time>2021-09-26T13:24:31.000Z</time>
      </trkpt>
      <trkpt lat="47.16268" lon="-1.67888">
        <ele>72</ele>
        <time>2021-09-26T13:24:33.000Z</time>
      </trkpt>
      <trkpt lat="47.16261" lon="-1.679">
        <ele>72</ele>
        <time>2021-09-26T13:24:35.000Z</time>
      </trkpt>
      <trkpt lat="47.16254" lon="-1.67913">
        <ele>72</ele>
        <time>2021-09-26T13:24:37.000Z</time>
      </trkpt>
      <trkpt lat="47.16247" lon="-1.67926">
        <ele>72</ele>
        <time>2021-09-26T13:24:39.000Z</time>
      </trkpt>
      <trkpt lat="47.16239" lon="-1.67939">
        <ele>73</ele>
        <time>2021-09-26T13:24:41.000Z</time>
      </trkpt>
      <trkpt lat="47.16231" lon="-1.67951">
        <ele>73</ele>
        <time>2021-09-26T13:24:43.000Z</time>
      </trkpt>
      <trkpt lat="47.16224" lon="-1.67964">
        <ele>73</ele>
        <time>2021-09-26T13:24:45.000Z</time>
      </trkpt>
      <trkpt lat="47.1622" lon="-1.6798">
        <ele>73</ele>
        <time>2021-09-26T13:24:47.000Z</time>
      </trkpt>
      <trkpt lat="47.16213" lon="-1.67993">
        <ele>73</ele>
        <time>2021-09-26T13:24:49.000Z</time>
      </trkpt>
      <trkpt lat="47.16201" lon="-1.67998">
        <ele>72</ele>
        <time>2021-09-26T13:24:51.000Z</time>
      </trkpt>
      <trkpt lat="47.16191" lon="-1.68007">
        <ele>71</ele>
        <time>2021-09-26T13:24:53.000Z</time>
      </trkpt>
      <trkpt lat="47.16182" lon="-1.6802">
        <ele>71</ele>
        <time>2021-09-26T13:24:55.000Z</time>
      </trkpt>
      <trkpt lat="47.16173" lon="-1.68032">
        <ele>71</ele>
        <time>2021-09-26T13:24:57.000Z</time>
      </trkpt>
      <trkpt lat="47.16164" lon="-1.68044">
        <ele>71</ele>
        <time>2021-09-26T13:24:59.000Z</time>
      </trkpt>
      <trkpt lat="47.16156" lon="-1.68057">
        <ele>71</ele>
        <time>2021-09-26T13:25:01.000Z</time>
      </trkpt>
      <trkpt lat="47.16149" lon="-1.6807">
        <ele>71</ele>
        <time>2021-09-26T13:25:03.000Z</time>
      </trkpt>
      <trkpt lat="47.16143" lon="-1.68085">
        <ele>72</ele>
        <time>2021-09-26T13:25:05.000Z</time>
      </trkpt>
      <trkpt lat="47.16139" lon="-1.681">
        <ele>72</ele>
        <time>2021-09-26T13:25:07.000Z</time>
      </trkpt>
      <trkpt lat="47.16135" lon="-1.68116">
        <ele>72</ele>
        <time>2021-09-26T13:25:09.000Z</time>
      </trkpt>
      <trkpt lat="47.16131" lon="-1.68133">
        <ele>71</ele>
        <time>2021-09-26T13:25:11.000Z</time>
      </trkpt>
      <trkpt lat="47.16127" lon="-1.68149">
        <ele>71</ele>
        <time>2021-09-26T13:25:13.000Z</time>
      </trkpt>
      <trkpt lat="47.16124" lon="-1.68165">
        <ele>70</ele>
        <time>2021-09-26T13:25:15.000Z</time>
      </trkpt>
      <trkpt lat="47.16121" lon="-1.68179">
        <ele>70</ele>
        <time>2021-09-26T13:25:17.000Z</time>
      </trkpt>
      <trkpt lat="47.16119" lon="-1.68194">
        <ele>71</ele>
        <time>2021-09-26T13:25:19.000Z</time>
      </trkpt>
      <trkpt lat="47.16118" lon="-1.68209">
        <ele>72</ele>
        <time>2021-09-26T13:25:21.000Z</time>
      </trkpt>
      <trkpt lat="47.16116" lon="-1.68224">
        <ele>72</ele>
        <time>2021-09-26T13:25:23.000Z</time>
      </trkpt>
      <trkpt lat="47.16113" lon="-1.68239">
        <ele>71</ele>
        <time>2021-09-26T13:25:25.000Z</time>
      </trkpt>
      <trkpt lat="47.1611" lon="-1.68256">
        <ele>72</ele>
        <time>2021-09-26T13:25:27.000Z</time>
      </trkpt>
      <trkpt lat="47.16105" lon="-1.6828">
        <ele>70</ele>
        <time>2021-09-26T13:25:29.000Z</time>
      </trkpt>
      <trkpt lat="47.16102" lon="-1.68293">
        <ele>70</ele>
        <time>2021-09-26T13:25:30.000Z</time>
      </trkpt>
      <trkpt lat="47.16096" lon="-1.68317">
        <ele>71</ele>
        <time>2021-09-26T13:25:32.000Z</time>
      </trkpt>
      <trkpt lat="47.16092" lon="-1.68336">
        <ele>70</ele>
        <time>2021-09-26T13:25:34.000Z</time>
      </trkpt>
      <trkpt lat="47.16087" lon="-1.68355">
        <ele>69</ele>
        <time>2021-09-26T13:25:36.000Z</time>
      </trkpt>
      <trkpt lat="47.16083" lon="-1.68373">
        <ele>69</ele>
        <time>2021-09-26T13:25:38.000Z</time>
      </trkpt>
      <trkpt lat="47.16079" lon="-1.68391">
        <ele>68</ele>
        <time>2021-09-26T13:25:40.000Z</time>
      </trkpt>
      <trkpt lat="47.16076" lon="-1.68407">
        <ele>68</ele>
        <time>2021-09-26T13:25:42.000Z</time>
      </trkpt>
      <trkpt lat="47.16072" lon="-1.68424">
        <ele>68</ele>
        <time>2021-09-26T13:25:44.000Z</time>
      </trkpt>
      <trkpt lat="47.16068" lon="-1.68441">
        <ele>68</ele>
        <time>2021-09-26T13:25:46.000Z</time>
      </trkpt>
      <trkpt lat="47.16064" lon="-1.68458">
        <ele>67</ele>
        <time>2021-09-26T13:25:48.000Z</time>
      </trkpt>
      <trkpt lat="47.16061" lon="-1.68474">
        <ele>67</ele>
        <time>2021-09-26T13:25:50.000Z</time>
      </trkpt>
      <trkpt lat="47.16059" lon="-1.6849">
        <ele>67</ele>
        <time>2021-09-26T13:25:52.000Z</time>
      </trkpt>
      <trkpt lat="47.16056" lon="-1.68507">
        <ele>67</ele>
        <time>2021-09-26T13:25:54.000Z</time>
      </trkpt>
      <trkpt lat="47.16054" lon="-1.68524">
        <ele>67</ele>
        <time>2021-09-26T13:25:56.000Z</time>
      </trkpt>
      <trkpt lat="47.16051" lon="-1.68541">
        <ele>67</ele>
        <time>2021-09-26T13:25:58.000Z</time>
      </trkpt>
      <trkpt lat="47.16049" lon="-1.68558">
        <ele>67</ele>
        <time>2021-09-26T13:26:00.000Z</time>
      </trkpt>
      <trkpt lat="47.16047" lon="-1.68575">
        <ele>67</ele>
        <time>2021-09-26T13:26:02.000Z</time>
      </trkpt>
      <trkpt lat="47.16045" lon="-1.68593">
        <ele>67</ele>
        <time>2021-09-26T13:26:04.000Z</time>
      </trkpt>
      <trkpt lat="47.16042" lon="-1.6861">
        <ele>66</ele>
        <time>2021-09-26T13:26:06.000Z</time>
      </trkpt>
      <trkpt lat="47.16041" lon="-1.68627">
        <ele>66</ele>
        <time>2021-09-26T13:26:08.000Z</time>
      </trkpt>
      <trkpt lat="47.1604" lon="-1.68644">
        <ele>66</ele>
        <time>2021-09-26T13:26:10.000Z</time>
      </trkpt>
      <trkpt lat="47.16039" lon="-1.68661">
        <ele>67</ele>
        <time>2021-09-26T13:26:12.000Z</time>
      </trkpt>
      <trkpt lat="47.16039" lon="-1.68678">
        <ele>66</ele>
        <time>2021-09-26T13:26:14.000Z</time>
      </trkpt>
      <trkpt lat="47.1604" lon="-1.68694">
        <ele>67</ele>
        <time>2021-09-26T13:26:16.000Z</time>
      </trkpt>
      <trkpt lat="47.16042" lon="-1.68711">
        <ele>67</ele>
        <time>2021-09-26T13:26:18.000Z</time>
      </trkpt>
      <trkpt lat="47.16044" lon="-1.68726">
        <ele>67</ele>
        <time>2021-09-26T13:26:20.000Z</time>
      </trkpt>
      <trkpt lat="47.16047" lon="-1.68742">
        <ele>68</ele>
        <time>2021-09-26T13:26:22.000Z</time>
      </trkpt>
      <trkpt lat="47.1605" lon="-1.68757">
        <ele>68</ele>
        <time>2021-09-26T13:26:24.000Z</time>
      </trkpt>
      <trkpt lat="47.16054" lon="-1.68771">
        <ele>69</ele>
        <time>2021-09-26T13:26:26.000Z</time>
      </trkpt>
      <trkpt lat="47.16058" lon="-1.68785">
        <ele>69</ele>
        <time>2021-09-26T13:26:28.000Z</time>
      </trkpt>
      <trkpt lat="47.16062" lon="-1.688">
        <ele>69</ele>
        <time>2021-09-26T13:26:30.000Z</time>
      </trkpt>
      <trkpt lat="47.16065" lon="-1.68814">
        <ele>69</ele>
        <time>2021-09-26T13:26:32.000Z</time>
      </trkpt>
      <trkpt lat="47.16069" lon="-1.68828">
        <ele>69</ele>
        <time>2021-09-26T13:26:34.000Z</time>
      </trkpt>
      <trkpt lat="47.16074" lon="-1.68843">
        <ele>69</ele>
        <time>2021-09-26T13:26:36.000Z</time>
      </trkpt>
      <trkpt lat="47.16079" lon="-1.68857">
        <ele>69</ele>
        <time>2021-09-26T13:26:38.000Z</time>
      </trkpt>
      <trkpt lat="47.16083" lon="-1.68872">
        <ele>69</ele>
        <time>2021-09-26T13:26:40.000Z</time>
      </trkpt>
      <trkpt lat="47.16088" lon="-1.68887">
        <ele>69</ele>
        <time>2021-09-26T13:26:42.000Z</time>
      </trkpt>
      <trkpt lat="47.16092" lon="-1.68902">
        <ele>69</ele>
        <time>2021-09-26T13:26:44.000Z</time>
      </trkpt>
      <trkpt lat="47.16097" lon="-1.68917">
        <ele>69</ele>
        <time>2021-09-26T13:26:46.000Z</time>
      </trkpt>
      <trkpt lat="47.16102" lon="-1.68934">
        <ele>69</ele>
        <time>2021-09-26T13:26:48.000Z</time>
      </trkpt>
      <trkpt lat="47.16107" lon="-1.6895">
        <ele>68</ele>
        <time>2021-09-26T13:26:50.000Z</time>
      </trkpt>
      <trkpt lat="47.16111" lon="-1.68965">
        <ele>68</ele>
        <time>2021-09-26T13:26:52.000Z</time>
      </trkpt>
      <trkpt lat="47.16116" lon="-1.68981">
        <ele>68</ele>
        <time>2021-09-26T13:26:54.000Z</time>
      </trkpt>
      <trkpt lat="47.16121" lon="-1.68998">
        <ele>68</ele>
        <time>2021-09-26T13:26:56.000Z</time>
      </trkpt>
      <trkpt lat="47.16126" lon="-1.69015">
        <ele>67</ele>
        <time>2021-09-26T13:26:58.000Z</time>
      </trkpt>
      <trkpt lat="47.1613" lon="-1.69032">
        <ele>67</ele>
        <time>2021-09-26T13:27:00.000Z</time>
      </trkpt>
      <trkpt lat="47.16134" lon="-1.6905">
        <ele>67</ele>
        <time>2021-09-26T13:27:02.000Z</time>
      </trkpt>
      <trkpt lat="47.16137" lon="-1.69069">
        <ele>66</ele>
        <time>2021-09-26T13:27:04.000Z</time>
      </trkpt>
      <trkpt lat="47.16139" lon="-1.69087">
        <ele>66</ele>
        <time>2021-09-26T13:27:06.000Z</time>
      </trkpt>
      <trkpt lat="47.16141" lon="-1.69106">
        <ele>66</ele>
        <time>2021-09-26T13:27:08.000Z</time>
      </trkpt>
      <trkpt lat="47.16143" lon="-1.69124">
        <ele>67</ele>
        <time>2021-09-26T13:27:10.000Z</time>
      </trkpt>
      <trkpt lat="47.16143" lon="-1.69142">
        <ele>66</ele>
        <time>2021-09-26T13:27:12.000Z</time>
      </trkpt>
      <trkpt lat="47.16143" lon="-1.6916">
        <ele>66</ele>
        <time>2021-09-26T13:27:14.000Z</time>
      </trkpt>
      <trkpt lat="47.16143" lon="-1.69179">
        <ele>66</ele>
        <time>2021-09-26T13:27:16.000Z</time>
      </trkpt>
      <trkpt lat="47.16141" lon="-1.69198">
        <ele>65</ele>
        <time>2021-09-26T13:27:18.000Z</time>
      </trkpt>
      <trkpt lat="47.1614" lon="-1.69217">
        <ele>65</ele>
        <time>2021-09-26T13:27:20.000Z</time>
      </trkpt>
      <trkpt lat="47.16138" lon="-1.69235">
        <ele>65</ele>
        <time>2021-09-26T13:27:22.000Z</time>
      </trkpt>
      <trkpt lat="47.16136" lon="-1.69253">
        <ele>65</ele>
        <time>2021-09-26T13:27:24.000Z</time>
      </trkpt>
      <trkpt lat="47.16133" lon="-1.69271">
        <ele>64</ele>
        <time>2021-09-26T13:27:26.000Z</time>
      </trkpt>
      <trkpt lat="47.1613" lon="-1.69288">
        <ele>65</ele>
        <time>2021-09-26T13:27:28.000Z</time>
      </trkpt>
      <trkpt lat="47.16128" lon="-1.69305">
        <ele>65</ele>
        <time>2021-09-26T13:27:30.000Z</time>
      </trkpt>
      <trkpt lat="47.16126" lon="-1.69322">
        <ele>64</ele>
        <time>2021-09-26T13:27:32.000Z</time>
      </trkpt>
      <trkpt lat="47.16123" lon="-1.69339">
        <ele>64</ele>
        <time>2021-09-26T13:27:34.000Z</time>
      </trkpt>
      <trkpt lat="47.16121" lon="-1.69357">
        <ele>64</ele>
        <time>2021-09-26T13:27:36.000Z</time>
      </trkpt>
      <trkpt lat="47.16119" lon="-1.69374">
        <ele>64</ele>
        <time>2021-09-26T13:27:38.000Z</time>
      </trkpt>
      <trkpt lat="47.16116" lon="-1.69391">
        <ele>64</ele>
        <time>2021-09-26T13:27:40.000Z</time>
      </trkpt>
      <trkpt lat="47.16115" lon="-1.69407">
        <ele>64</ele>
        <time>2021-09-26T13:27:42.000Z</time>
      </trkpt>
      <trkpt lat="47.16114" lon="-1.69423">
        <ele>64</ele>
        <time>2021-09-26T13:27:44.000Z</time>
      </trkpt>
      <trkpt lat="47.16113" lon="-1.69439">
        <ele>64</ele>
        <time>2021-09-26T13:27:46.000Z</time>
      </trkpt>
      <trkpt lat="47.16112" lon="-1.69455">
        <ele>64</ele>
        <time>2021-09-26T13:27:48.000Z</time>
      </trkpt>
      <trkpt lat="47.1611" lon="-1.69472">
        <ele>64</ele>
        <time>2021-09-26T13:27:50.000Z</time>
      </trkpt>
      <trkpt lat="47.16109" lon="-1.69488">
        <ele>64</ele>
        <time>2021-09-26T13:27:52.000Z</time>
      </trkpt>
      <trkpt lat="47.16108" lon="-1.69504">
        <ele>64</ele>
        <time>2021-09-26T13:27:54.000Z</time>
      </trkpt>
      <trkpt lat="47.16107" lon="-1.69521">
        <ele>64</ele>
        <time>2021-09-26T13:27:56.000Z</time>
      </trkpt>
      <trkpt lat="47.16106" lon="-1.69537">
        <ele>64</ele>
        <time>2021-09-26T13:27:58.000Z</time>
      </trkpt>
      <trkpt lat="47.16104" lon="-1.69554">
        <ele>64</ele>
        <time>2021-09-26T13:28:00.000Z</time>
      </trkpt>
      <trkpt lat="47.16103" lon="-1.69571">
        <ele>64</ele>
        <time>2021-09-26T13:28:02.000Z</time>
      </trkpt>
      <trkpt lat="47.16102" lon="-1.69587">
        <ele>65</ele>
        <time>2021-09-26T13:28:04.000Z</time>
      </trkpt>
      <trkpt lat="47.161" lon="-1.69604">
        <ele>65</ele>
        <time>2021-09-26T13:28:06.000Z</time>
      </trkpt>
      <trkpt lat="47.16099" lon="-1.6962">
        <ele>65</ele>
        <time>2021-09-26T13:28:08.000Z</time>
      </trkpt>
      <trkpt lat="47.16098" lon="-1.69636">
        <ele>65</ele>
        <time>2021-09-26T13:28:10.000Z</time>
      </trkpt>
      <trkpt lat="47.16097" lon="-1.69652">
        <ele>65</ele>
        <time>2021-09-26T13:28:12.000Z</time>
      </trkpt>
      <trkpt lat="47.16096" lon="-1.69669">
        <ele>66</ele>
        <time>2021-09-26T13:28:14.000Z</time>
      </trkpt>
      <trkpt lat="47.16095" lon="-1.69685">
        <ele>66</ele>
        <time>2021-09-26T13:28:16.000Z</time>
      </trkpt>
      <trkpt lat="47.16094" lon="-1.69702">
        <ele>66</ele>
        <time>2021-09-26T13:28:18.000Z</time>
      </trkpt>
      <trkpt lat="47.16092" lon="-1.69719">
        <ele>66</ele>
        <time>2021-09-26T13:28:20.000Z</time>
      </trkpt>
      <trkpt lat="47.16091" lon="-1.69736">
        <ele>66</ele>
        <time>2021-09-26T13:28:22.000Z</time>
      </trkpt>
      <trkpt lat="47.1609" lon="-1.69753">
        <ele>66</ele>
        <time>2021-09-26T13:28:24.000Z</time>
      </trkpt>
      <trkpt lat="47.16088" lon="-1.69769">
        <ele>66</ele>
        <time>2021-09-26T13:28:26.000Z</time>
      </trkpt>
      <trkpt lat="47.16088" lon="-1.69785">
        <ele>66</ele>
        <time>2021-09-26T13:28:28.000Z</time>
      </trkpt>
      <trkpt lat="47.16087" lon="-1.69803">
        <ele>66</ele>
        <time>2021-09-26T13:28:30.000Z</time>
      </trkpt>
      <trkpt lat="47.16086" lon="-1.6982">
        <ele>66</ele>
        <time>2021-09-26T13:28:32.000Z</time>
      </trkpt>
      <trkpt lat="47.16084" lon="-1.69838">
        <ele>65</ele>
        <time>2021-09-26T13:28:34.000Z</time>
      </trkpt>
      <trkpt lat="47.16083" lon="-1.69855">
        <ele>65</ele>
        <time>2021-09-26T13:28:36.000Z</time>
      </trkpt>
      <trkpt lat="47.16082" lon="-1.69871">
        <ele>66</ele>
        <time>2021-09-26T13:28:38.000Z</time>
      </trkpt>
      <trkpt lat="47.16081" lon="-1.69888">
        <ele>66</ele>
        <time>2021-09-26T13:28:40.000Z</time>
      </trkpt>
      <trkpt lat="47.1608" lon="-1.69906">
        <ele>66</ele>
        <time>2021-09-26T13:28:42.000Z</time>
      </trkpt>
      <trkpt lat="47.16079" lon="-1.69924">
        <ele>67</ele>
        <time>2021-09-26T13:28:44.000Z</time>
      </trkpt>
      <trkpt lat="47.16078" lon="-1.69941">
        <ele>67</ele>
        <time>2021-09-26T13:28:46.000Z</time>
      </trkpt>
      <trkpt lat="47.16078" lon="-1.69959">
        <ele>67</ele>
        <time>2021-09-26T13:28:48.000Z</time>
      </trkpt>
      <trkpt lat="47.16077" lon="-1.69977">
        <ele>67</ele>
        <time>2021-09-26T13:28:50.000Z</time>
      </trkpt>
      <trkpt lat="47.16075" lon="-1.69995">
        <ele>67</ele>
        <time>2021-09-26T13:28:52.000Z</time>
      </trkpt>
      <trkpt lat="47.16074" lon="-1.70012">
        <ele>67</ele>
        <time>2021-09-26T13:28:54.000Z</time>
      </trkpt>
      <trkpt lat="47.16072" lon="-1.70029">
        <ele>67</ele>
        <time>2021-09-26T13:28:56.000Z</time>
      </trkpt>
      <trkpt lat="47.16071" lon="-1.70046">
        <ele>67</ele>
        <time>2021-09-26T13:28:58.000Z</time>
      </trkpt>
      <trkpt lat="47.1607" lon="-1.70064">
        <ele>66</ele>
        <time>2021-09-26T13:29:00.000Z</time>
      </trkpt>
      <trkpt lat="47.16068" lon="-1.70081">
        <ele>66</ele>
        <time>2021-09-26T13:29:02.000Z</time>
      </trkpt>
      <trkpt lat="47.16066" lon="-1.70098">
        <ele>66</ele>
        <time>2021-09-26T13:29:04.000Z</time>
      </trkpt>
      <trkpt lat="47.16063" lon="-1.70115">
        <ele>66</ele>
        <time>2021-09-26T13:29:06.000Z</time>
      </trkpt>
      <trkpt lat="47.16059" lon="-1.70132">
        <ele>66</ele>
        <time>2021-09-26T13:29:08.000Z</time>
      </trkpt>
      <trkpt lat="47.16054" lon="-1.70147">
        <ele>66</ele>
        <time>2021-09-26T13:29:10.000Z</time>
      </trkpt>
      <trkpt lat="47.16048" lon="-1.70162">
        <ele>66</ele>
        <time>2021-09-26T13:29:12.000Z</time>
      </trkpt>
      <trkpt lat="47.16042" lon="-1.70177">
        <ele>65</ele>
        <time>2021-09-26T13:29:14.000Z</time>
      </trkpt>
      <trkpt lat="47.16036" lon="-1.70191">
        <ele>65</ele>
        <time>2021-09-26T13:29:16.000Z</time>
      </trkpt>
      <trkpt lat="47.16029" lon="-1.70207">
        <ele>66</ele>
        <time>2021-09-26T13:29:18.000Z</time>
      </trkpt>
      <trkpt lat="47.16022" lon="-1.70221">
        <ele>66</ele>
        <time>2021-09-26T13:29:20.000Z</time>
      </trkpt>
      <trkpt lat="47.16016" lon="-1.70236">
        <ele>66</ele>
        <time>2021-09-26T13:29:22.000Z</time>
      </trkpt>
      <trkpt lat="47.16009" lon="-1.70251">
        <ele>66</ele>
        <time>2021-09-26T13:29:24.000Z</time>
      </trkpt>
      <trkpt lat="47.16002" lon="-1.70267">
        <ele>67</ele>
        <time>2021-09-26T13:29:26.000Z</time>
      </trkpt>
      <trkpt lat="47.15995" lon="-1.70281">
        <ele>67</ele>
        <time>2021-09-26T13:29:28.000Z</time>
      </trkpt>
      <trkpt lat="47.15989" lon="-1.70297">
        <ele>68</ele>
        <time>2021-09-26T13:29:30.000Z</time>
      </trkpt>
      <trkpt lat="47.15982" lon="-1.70312">
        <ele>67</ele>
        <time>2021-09-26T13:29:32.000Z</time>
      </trkpt>
      <trkpt lat="47.15976" lon="-1.70328">
        <ele>68</ele>
        <time>2021-09-26T13:29:34.000Z</time>
      </trkpt>
      <trkpt lat="47.15969" lon="-1.70344">
        <ele>68</ele>
        <time>2021-09-26T13:29:36.000Z</time>
      </trkpt>
      <trkpt lat="47.15963" lon="-1.70362">
        <ele>68</ele>
        <time>2021-09-26T13:29:38.000Z</time>
      </trkpt>
      <trkpt lat="47.15956" lon="-1.70379">
        <ele>69</ele>
        <time>2021-09-26T13:29:40.000Z</time>
      </trkpt>
      <trkpt lat="47.15949" lon="-1.70397">
        <ele>69</ele>
        <time>2021-09-26T13:29:42.000Z</time>
      </trkpt>
      <trkpt lat="47.15941" lon="-1.70414">
        <ele>69</ele>
        <time>2021-09-26T13:29:44.000Z</time>
      </trkpt>
      <trkpt lat="47.15933" lon="-1.70431">
        <ele>69</ele>
        <time>2021-09-26T13:29:46.000Z</time>
      </trkpt>
      <trkpt lat="47.15926" lon="-1.70447">
        <ele>69</ele>
        <time>2021-09-26T13:29:48.000Z</time>
      </trkpt>
      <trkpt lat="47.15918" lon="-1.70462">
        <ele>69</ele>
        <time>2021-09-26T13:29:50.000Z</time>
      </trkpt>
      <trkpt lat="47.1591" lon="-1.70479">
        <ele>68</ele>
        <time>2021-09-26T13:29:52.000Z</time>
      </trkpt>
      <trkpt lat="47.15902" lon="-1.70494">
        <ele>68</ele>
        <time>2021-09-26T13:29:54.000Z</time>
      </trkpt>
      <trkpt lat="47.15895" lon="-1.70508">
        <ele>67</ele>
        <time>2021-09-26T13:29:56.000Z</time>
      </trkpt>
      <trkpt lat="47.15889" lon="-1.70524">
        <ele>67</ele>
        <time>2021-09-26T13:29:58.000Z</time>
      </trkpt>
      <trkpt lat="47.15884" lon="-1.7054">
        <ele>66</ele>
        <time>2021-09-26T13:30:00.000Z</time>
      </trkpt>
      <trkpt lat="47.15878" lon="-1.70556">
        <ele>66</ele>
        <time>2021-09-26T13:30:02.000Z</time>
      </trkpt>
      <trkpt lat="47.15875" lon="-1.70571">
        <ele>66</ele>
        <time>2021-09-26T13:30:04.000Z</time>
      </trkpt>
      <trkpt lat="47.1587" lon="-1.70586">
        <ele>66</ele>
        <time>2021-09-26T13:30:06.000Z</time>
      </trkpt>
      <trkpt lat="47.15866" lon="-1.70602">
        <ele>66</ele>
        <time>2021-09-26T13:30:08.000Z</time>
      </trkpt>
      <trkpt lat="47.15861" lon="-1.70617">
        <ele>66</ele>
        <time>2021-09-26T13:30:10.000Z</time>
      </trkpt>
      <trkpt lat="47.15856" lon="-1.70632">
        <ele>66</ele>
        <time>2021-09-26T13:30:12.000Z</time>
      </trkpt>
      <trkpt lat="47.15851" lon="-1.70647">
        <ele>65</ele>
        <time>2021-09-26T13:30:14.000Z</time>
      </trkpt>
      <trkpt lat="47.15846" lon="-1.70662">
        <ele>66</ele>
        <time>2021-09-26T13:30:16.000Z</time>
      </trkpt>
      <trkpt lat="47.15839" lon="-1.70677">
        <ele>66</ele>
        <time>2021-09-26T13:30:18.000Z</time>
      </trkpt>
      <trkpt lat="47.15833" lon="-1.70691">
        <ele>66</ele>
        <time>2021-09-26T13:30:20.000Z</time>
      </trkpt>
      <trkpt lat="47.15827" lon="-1.70705">
        <ele>66</ele>
        <time>2021-09-26T13:30:22.000Z</time>
      </trkpt>
      <trkpt lat="47.1582" lon="-1.70719">
        <ele>66</ele>
        <time>2021-09-26T13:30:24.000Z</time>
      </trkpt>
      <trkpt lat="47.15814" lon="-1.70733">
        <ele>66</ele>
        <time>2021-09-26T13:30:26.000Z</time>
      </trkpt>
      <trkpt lat="47.15808" lon="-1.70747">
        <ele>66</ele>
        <time>2021-09-26T13:30:28.000Z</time>
      </trkpt>
      <trkpt lat="47.15801" lon="-1.7076">
        <ele>66</ele>
        <time>2021-09-26T13:30:30.000Z</time>
      </trkpt>
      <trkpt lat="47.15795" lon="-1.70773">
        <ele>66</ele>
        <time>2021-09-26T13:30:32.000Z</time>
      </trkpt>
      <trkpt lat="47.15789" lon="-1.70787">
        <ele>66</ele>
        <time>2021-09-26T13:30:34.000Z</time>
      </trkpt>
      <trkpt lat="47.15782" lon="-1.708">
        <ele>66</ele>
        <time>2021-09-26T13:30:36.000Z</time>
      </trkpt>
      <trkpt lat="47.15775" lon="-1.70814">
        <ele>66</ele>
        <time>2021-09-26T13:30:38.000Z</time>
      </trkpt>
      <trkpt lat="47.15768" lon="-1.70828">
        <ele>66</ele>
        <time>2021-09-26T13:30:40.000Z</time>
      </trkpt>
      <trkpt lat="47.15761" lon="-1.7084">
        <ele>66</ele>
        <time>2021-09-26T13:30:42.000Z</time>
      </trkpt>
      <trkpt lat="47.15755" lon="-1.70853">
        <ele>66</ele>
        <time>2021-09-26T13:30:44.000Z</time>
      </trkpt>
      <trkpt lat="47.15748" lon="-1.70867">
        <ele>66</ele>
        <time>2021-09-26T13:30:46.000Z</time>
      </trkpt>
      <trkpt lat="47.15741" lon="-1.70879">
        <ele>66</ele>
        <time>2021-09-26T13:30:48.000Z</time>
      </trkpt>
      <trkpt lat="47.15734" lon="-1.70891">
        <ele>66</ele>
        <time>2021-09-26T13:30:50.000Z</time>
      </trkpt>
      <trkpt lat="47.15727" lon="-1.70904">
        <ele>66</ele>
        <time>2021-09-26T13:30:52.000Z</time>
      </trkpt>
      <trkpt lat="47.1572" lon="-1.70918">
        <ele>67</ele>
        <time>2021-09-26T13:30:54.000Z</time>
      </trkpt>
      <trkpt lat="47.15713" lon="-1.70931">
        <ele>67</ele>
        <time>2021-09-26T13:30:56.000Z</time>
      </trkpt>
      <trkpt lat="47.15706" lon="-1.70945">
        <ele>67</ele>
        <time>2021-09-26T13:30:58.000Z</time>
      </trkpt>
      <trkpt lat="47.15699" lon="-1.70957">
        <ele>67</ele>
        <time>2021-09-26T13:31:00.000Z</time>
      </trkpt>
      <trkpt lat="47.15693" lon="-1.70971">
        <ele>67</ele>
        <time>2021-09-26T13:31:02.000Z</time>
      </trkpt>
      <trkpt lat="47.15687" lon="-1.70984">
        <ele>67</ele>
        <time>2021-09-26T13:31:04.000Z</time>
      </trkpt>
      <trkpt lat="47.15681" lon="-1.70997">
        <ele>67</ele>
        <time>2021-09-26T13:31:06.000Z</time>
      </trkpt>
      <trkpt lat="47.15674" lon="-1.71011">
        <ele>67</ele>
        <time>2021-09-26T13:31:08.000Z</time>
      </trkpt>
      <trkpt lat="47.15668" lon="-1.71024">
        <ele>67</ele>
        <time>2021-09-26T13:31:10.000Z</time>
      </trkpt>
      <trkpt lat="47.15662" lon="-1.71035">
        <ele>66</ele>
        <time>2021-09-26T13:31:12.000Z</time>
      </trkpt>
      <trkpt lat="47.15657" lon="-1.71047">
        <ele>66</ele>
        <time>2021-09-26T13:31:14.000Z</time>
      </trkpt>
      <trkpt lat="47.1565" lon="-1.71062">
        <ele>67</ele>
        <time>2021-09-26T13:31:17.000Z</time>
      </trkpt>
      <trkpt lat="47.15637" lon="-1.7107">
        <ele>67</ele>
        <time>2021-09-26T13:31:20.000Z</time>
      </trkpt>
      <trkpt lat="47.15628" lon="-1.71079">
        <ele>67</ele>
        <time>2021-09-26T13:31:22.000Z</time>
      </trkpt>
      <trkpt lat="47.15621" lon="-1.71091">
        <ele>66</ele>
        <time>2021-09-26T13:31:24.000Z</time>
      </trkpt>
      <trkpt lat="47.15614" lon="-1.71104">
        <ele>66</ele>
        <time>2021-09-26T13:31:26.000Z</time>
      </trkpt>
      <trkpt lat="47.15606" lon="-1.71118">
        <ele>66</ele>
        <time>2021-09-26T13:31:28.000Z</time>
      </trkpt>
      <trkpt lat="47.15599" lon="-1.71131">
        <ele>66</ele>
        <time>2021-09-26T13:31:30.000Z</time>
      </trkpt>
      <trkpt lat="47.15592" lon="-1.71143">
        <ele>67</ele>
        <time>2021-09-26T13:31:32.000Z</time>
      </trkpt>
      <trkpt lat="47.15585" lon="-1.71155">
        <ele>67</ele>
        <time>2021-09-26T13:31:34.000Z</time>
      </trkpt>
      <trkpt lat="47.15577" lon="-1.71167">
        <ele>67</ele>
        <time>2021-09-26T13:31:36.000Z</time>
      </trkpt>
      <trkpt lat="47.1557" lon="-1.71179">
        <ele>67</ele>
        <time>2021-09-26T13:31:38.000Z</time>
      </trkpt>
      <trkpt lat="47.15563" lon="-1.71191">
        <ele>66</ele>
        <time>2021-09-26T13:31:40.000Z</time>
      </trkpt>
      <trkpt lat="47.15556" lon="-1.71204">
        <ele>66</ele>
        <time>2021-09-26T13:31:42.000Z</time>
      </trkpt>
      <trkpt lat="47.15549" lon="-1.71218">
        <ele>66</ele>
        <time>2021-09-26T13:31:44.000Z</time>
      </trkpt>
      <trkpt lat="47.15542" lon="-1.71232">
        <ele>66</ele>
        <time>2021-09-26T13:31:46.000Z</time>
      </trkpt>
      <trkpt lat="47.15536" lon="-1.71247">
        <ele>67</ele>
        <time>2021-09-26T13:31:48.000Z</time>
      </trkpt>
      <trkpt lat="47.1553" lon="-1.71261">
        <ele>67</ele>
        <time>2021-09-26T13:31:50.000Z</time>
      </trkpt>
      <trkpt lat="47.15524" lon="-1.71276">
        <ele>67</ele>
        <time>2021-09-26T13:31:52.000Z</time>
      </trkpt>
      <trkpt lat="47.15517" lon="-1.71291">
        <ele>67</ele>
        <time>2021-09-26T13:31:54.000Z</time>
      </trkpt>
      <trkpt lat="47.15511" lon="-1.71305">
        <ele>67</ele>
        <time>2021-09-26T13:31:56.000Z</time>
      </trkpt>
      <trkpt lat="47.15504" lon="-1.71319">
        <ele>67</ele>
        <time>2021-09-26T13:31:58.000Z</time>
      </trkpt>
      <trkpt lat="47.15497" lon="-1.71331">
        <ele>67</ele>
        <time>2021-09-26T13:32:00.000Z</time>
      </trkpt>
      <trkpt lat="47.1549" lon="-1.71344">
        <ele>67</ele>
        <time>2021-09-26T13:32:02.000Z</time>
      </trkpt>
      <trkpt lat="47.15482" lon="-1.71357">
        <ele>66</ele>
        <time>2021-09-26T13:32:04.000Z</time>
      </trkpt>
      <trkpt lat="47.15474" lon="-1.71369">
        <ele>67</ele>
        <time>2021-09-26T13:32:06.000Z</time>
      </trkpt>
      <trkpt lat="47.15465" lon="-1.7138">
        <ele>66</ele>
        <time>2021-09-26T13:32:08.000Z</time>
      </trkpt>
      <trkpt lat="47.15457" lon="-1.71391">
        <ele>66</ele>
        <time>2021-09-26T13:32:10.000Z</time>
      </trkpt>
      <trkpt lat="47.15447" lon="-1.71401">
        <ele>66</ele>
        <time>2021-09-26T13:32:12.000Z</time>
      </trkpt>
      <trkpt lat="47.15438" lon="-1.7141">
        <ele>66</ele>
        <time>2021-09-26T13:32:14.000Z</time>
      </trkpt>
      <trkpt lat="47.15428" lon="-1.7142">
        <ele>66</ele>
        <time>2021-09-26T13:32:16.000Z</time>
      </trkpt>
      <trkpt lat="47.15419" lon="-1.71428">
        <ele>66</ele>
        <time>2021-09-26T13:32:18.000Z</time>
      </trkpt>
      <trkpt lat="47.15409" lon="-1.71437">
        <ele>66</ele>
        <time>2021-09-26T13:32:20.000Z</time>
      </trkpt>
      <trkpt lat="47.15399" lon="-1.71445">
        <ele>65</ele>
        <time>2021-09-26T13:32:22.000Z</time>
      </trkpt>
      <trkpt lat="47.15388" lon="-1.71454">
        <ele>65</ele>
        <time>2021-09-26T13:32:24.000Z</time>
      </trkpt>
      <trkpt lat="47.15378" lon="-1.71462">
        <ele>65</ele>
        <time>2021-09-26T13:32:26.000Z</time>
      </trkpt>
      <trkpt lat="47.15368" lon="-1.71471">
        <ele>66</ele>
        <time>2021-09-26T13:32:28.000Z</time>
      </trkpt>
      <trkpt lat="47.15358" lon="-1.7148">
        <ele>66</ele>
        <time>2021-09-26T13:32:30.000Z</time>
      </trkpt>
      <trkpt lat="47.15348" lon="-1.71489">
        <ele>66</ele>
        <time>2021-09-26T13:32:32.000Z</time>
      </trkpt>
      <trkpt lat="47.15338" lon="-1.71498">
        <ele>66</ele>
        <time>2021-09-26T13:32:34.000Z</time>
      </trkpt>
      <trkpt lat="47.15329" lon="-1.7151">
        <ele>66</ele>
        <time>2021-09-26T13:32:36.000Z</time>
      </trkpt>
      <trkpt lat="47.15319" lon="-1.71522">
        <ele>67</ele>
        <time>2021-09-26T13:32:38.000Z</time>
      </trkpt>
      <trkpt lat="47.1531" lon="-1.71534">
        <ele>67</ele>
        <time>2021-09-26T13:32:40.000Z</time>
      </trkpt>
      <trkpt lat="47.15299" lon="-1.71544">
        <ele>67</ele>
        <time>2021-09-26T13:32:42.000Z</time>
      </trkpt>
      <trkpt lat="47.15289" lon="-1.71555">
        <ele>66</ele>
        <time>2021-09-26T13:32:44.000Z</time>
      </trkpt>
      <trkpt lat="47.15279" lon="-1.71566">
        <ele>66</ele>
        <time>2021-09-26T13:32:46.000Z</time>
      </trkpt>
      <trkpt lat="47.15269" lon="-1.71578">
        <ele>67</ele>
        <time>2021-09-26T13:32:48.000Z</time>
      </trkpt>
      <trkpt lat="47.15259" lon="-1.71589">
        <ele>66</ele>
        <time>2021-09-26T13:32:50.000Z</time>
      </trkpt>
      <trkpt lat="47.15249" lon="-1.71602">
        <ele>66</ele>
        <time>2021-09-26T13:32:52.000Z</time>
      </trkpt>
      <trkpt lat="47.15241" lon="-1.71614">
        <ele>65</ele>
        <time>2021-09-26T13:32:54.000Z</time>
      </trkpt>
      <trkpt lat="47.15231" lon="-1.71624">
        <ele>65</ele>
        <time>2021-09-26T13:32:56.000Z</time>
      </trkpt>
      <trkpt lat="47.1522" lon="-1.71618">
        <ele>66</ele>
        <time>2021-09-26T13:32:58.000Z</time>
      </trkpt>
      <trkpt lat="47.15209" lon="-1.7161">
        <ele>66</ele>
        <time>2021-09-26T13:33:00.000Z</time>
      </trkpt>
      <trkpt lat="47.15199" lon="-1.71601">
        <ele>65</ele>
        <time>2021-09-26T13:33:02.000Z</time>
      </trkpt>
      <trkpt lat="47.15188" lon="-1.71594">
        <ele>66</ele>
        <time>2021-09-26T13:33:04.000Z</time>
      </trkpt>
      <trkpt lat="47.15177" lon="-1.71586">
        <ele>65</ele>
        <time>2021-09-26T13:33:06.000Z</time>
      </trkpt>
      <trkpt lat="47.15166" lon="-1.71578">
        <ele>66</ele>
        <time>2021-09-26T13:33:08.000Z</time>
      </trkpt>
      <trkpt lat="47.15155" lon="-1.7157">
        <ele>66</ele>
        <time>2021-09-26T13:33:10.000Z</time>
      </trkpt>
      <trkpt lat="47.15145" lon="-1.71561">
        <ele>66</ele>
        <time>2021-09-26T13:33:12.000Z</time>
      </trkpt>
      <trkpt lat="47.15134" lon="-1.71553">
        <ele>66</ele>
        <time>2021-09-26T13:33:14.000Z</time>
      </trkpt>
      <trkpt lat="47.15123" lon="-1.71543">
        <ele>66</ele>
        <time>2021-09-26T13:33:16.000Z</time>
      </trkpt>
      <trkpt lat="47.15113" lon="-1.71535">
        <ele>66</ele>
        <time>2021-09-26T13:33:18.000Z</time>
      </trkpt>
      <trkpt lat="47.15102" lon="-1.71525">
        <ele>66</ele>
        <time>2021-09-26T13:33:20.000Z</time>
      </trkpt>
      <trkpt lat="47.15092" lon="-1.71517">
        <ele>67</ele>
        <time>2021-09-26T13:33:22.000Z</time>
      </trkpt>
      <trkpt lat="47.15082" lon="-1.71508">
        <ele>67</ele>
        <time>2021-09-26T13:33:24.000Z</time>
      </trkpt>
      <trkpt lat="47.15072" lon="-1.71497">
        <ele>67</ele>
        <time>2021-09-26T13:33:26.000Z</time>
      </trkpt>
      <trkpt lat="47.15062" lon="-1.71487">
        <ele>67</ele>
        <time>2021-09-26T13:33:28.000Z</time>
      </trkpt>
      <trkpt lat="47.15053" lon="-1.71477">
        <ele>67</ele>
        <time>2021-09-26T13:33:30.000Z</time>
      </trkpt>
      <trkpt lat="47.15043" lon="-1.71467">
        <ele>67</ele>
        <time>2021-09-26T13:33:32.000Z</time>
      </trkpt>
      <trkpt lat="47.15033" lon="-1.71458">
        <ele>67</ele>
        <time>2021-09-26T13:33:34.000Z</time>
      </trkpt>
      <trkpt lat="47.15024" lon="-1.71447">
        <ele>67</ele>
        <time>2021-09-26T13:33:36.000Z</time>
      </trkpt>
      <trkpt lat="47.15014" lon="-1.71438">
        <ele>67</ele>
        <time>2021-09-26T13:33:38.000Z</time>
      </trkpt>
      <trkpt lat="47.15004" lon="-1.71428">
        <ele>67</ele>
        <time>2021-09-26T13:33:40.000Z</time>
      </trkpt>
      <trkpt lat="47.14995" lon="-1.71419">
        <ele>67</ele>
        <time>2021-09-26T13:33:42.000Z</time>
      </trkpt>
      <trkpt lat="47.14986" lon="-1.7141">
        <ele>67</ele>
        <time>2021-09-26T13:33:44.000Z</time>
      </trkpt>
      <trkpt lat="47.14977" lon="-1.714">
        <ele>67</ele>
        <time>2021-09-26T13:33:46.000Z</time>
      </trkpt>
      <trkpt lat="47.14967" lon="-1.7139">
        <ele>67</ele>
        <time>2021-09-26T13:33:48.000Z</time>
      </trkpt>
      <trkpt lat="47.14958" lon="-1.71381">
        <ele>67</ele>
        <time>2021-09-26T13:33:50.000Z</time>
      </trkpt>
      <trkpt lat="47.14949" lon="-1.71371">
        <ele>67</ele>
        <time>2021-09-26T13:33:52.000Z</time>
      </trkpt>
      <trkpt lat="47.14939" lon="-1.7136">
        <ele>67</ele>
        <time>2021-09-26T13:33:54.000Z</time>
      </trkpt>
      <trkpt lat="47.1493" lon="-1.71349">
        <ele>67</ele>
        <time>2021-09-26T13:33:56.000Z</time>
      </trkpt>
      <trkpt lat="47.14921" lon="-1.71337">
        <ele>67</ele>
        <time>2021-09-26T13:33:58.000Z</time>
      </trkpt>
      <trkpt lat="47.14912" lon="-1.71326">
        <ele>67</ele>
        <time>2021-09-26T13:34:00.000Z</time>
      </trkpt>
      <trkpt lat="47.14903" lon="-1.71315">
        <ele>67</ele>
        <time>2021-09-26T13:34:02.000Z</time>
      </trkpt>
      <trkpt lat="47.14895" lon="-1.71304">
        <ele>68</ele>
        <time>2021-09-26T13:34:04.000Z</time>
      </trkpt>
      <trkpt lat="47.14886" lon="-1.71293">
        <ele>68</ele>
        <time>2021-09-26T13:34:06.000Z</time>
      </trkpt>
      <trkpt lat="47.14876" lon="-1.71284">
        <ele>68</ele>
        <time>2021-09-26T13:34:08.000Z</time>
      </trkpt>
      <trkpt lat="47.14865" lon="-1.71275">
        <ele>68</ele>
        <time>2021-09-26T13:34:10.000Z</time>
      </trkpt>
      <trkpt lat="47.14856" lon="-1.71264">
        <ele>69</ele>
        <time>2021-09-26T13:34:12.000Z</time>
      </trkpt>
      <trkpt lat="47.14848" lon="-1.7125">
        <ele>69</ele>
        <time>2021-09-26T13:34:14.000Z</time>
      </trkpt>
      <trkpt lat="47.14841" lon="-1.71234">
        <ele>69</ele>
        <time>2021-09-26T13:34:16.000Z</time>
      </trkpt>
      <trkpt lat="47.14835" lon="-1.71217">
        <ele>69</ele>
        <time>2021-09-26T13:34:18.000Z</time>
      </trkpt>
      <trkpt lat="47.14829" lon="-1.71201">
        <ele>69</ele>
        <time>2021-09-26T13:34:20.000Z</time>
      </trkpt>
      <trkpt lat="47.14823" lon="-1.71184">
        <ele>69</ele>
        <time>2021-09-26T13:34:22.000Z</time>
      </trkpt>
      <trkpt lat="47.14817" lon="-1.71167">
        <ele>69</ele>
        <time>2021-09-26T13:34:24.000Z</time>
      </trkpt>
      <trkpt lat="47.1481" lon="-1.71151">
        <ele>70</ele>
        <time>2021-09-26T13:34:26.000Z</time>
      </trkpt>
      <trkpt lat="47.14803" lon="-1.71134">
        <ele>70</ele>
        <time>2021-09-26T13:34:28.000Z</time>
      </trkpt>
      <trkpt lat="47.14796" lon="-1.71118">
        <ele>70</ele>
        <time>2021-09-26T13:34:30.000Z</time>
      </trkpt>
      <trkpt lat="47.14788" lon="-1.71102">
        <ele>71</ele>
        <time>2021-09-26T13:34:32.000Z</time>
      </trkpt>
      <trkpt lat="47.14781" lon="-1.71085">
        <ele>70</ele>
        <time>2021-09-26T13:34:34.000Z</time>
      </trkpt>
      <trkpt lat="47.14774" lon="-1.71069">
        <ele>71</ele>
        <time>2021-09-26T13:34:36.000Z</time>
      </trkpt>
      <trkpt lat="47.14768" lon="-1.7105">
        <ele>70</ele>
        <time>2021-09-26T13:34:38.000Z</time>
      </trkpt>
      <trkpt lat="47.14763" lon="-1.71033">
        <ele>70</ele>
        <time>2021-09-26T13:34:40.000Z</time>
      </trkpt>
      <trkpt lat="47.14757" lon="-1.71015">
        <ele>69</ele>
        <time>2021-09-26T13:34:42.000Z</time>
      </trkpt>
      <trkpt lat="47.14752" lon="-1.70998">
        <ele>70</ele>
        <time>2021-09-26T13:34:44.000Z</time>
      </trkpt>
      <trkpt lat="47.14744" lon="-1.70984">
        <ele>69</ele>
        <time>2021-09-26T13:34:46.000Z</time>
      </trkpt>
      <trkpt lat="47.14733" lon="-1.70982">
        <ele>68</ele>
        <time>2021-09-26T13:34:48.000Z</time>
      </trkpt>
      <trkpt lat="47.14724" lon="-1.70994">
        <ele>68</ele>
        <time>2021-09-26T13:34:50.000Z</time>
      </trkpt>
      <trkpt lat="47.14715" lon="-1.71008">
        <ele>68</ele>
        <time>2021-09-26T13:34:52.000Z</time>
      </trkpt>
      <trkpt lat="47.1471" lon="-1.71024">
        <ele>68</ele>
        <time>2021-09-26T13:34:54.000Z</time>
      </trkpt>
      <trkpt lat="47.14709" lon="-1.71042">
        <ele>68</ele>
        <time>2021-09-26T13:34:56.000Z</time>
      </trkpt>
      <trkpt lat="47.1471" lon="-1.7106">
        <ele>68</ele>
        <time>2021-09-26T13:34:58.000Z</time>
      </trkpt>
      <trkpt lat="47.14713" lon="-1.71078">
        <ele>68</ele>
        <time>2021-09-26T13:35:00.000Z</time>
      </trkpt>
      <trkpt lat="47.14716" lon="-1.71096">
        <ele>68</ele>
        <time>2021-09-26T13:35:02.000Z</time>
      </trkpt>
      <trkpt lat="47.14717" lon="-1.71114">
        <ele>68</ele>
        <time>2021-09-26T13:35:04.000Z</time>
      </trkpt>
      <trkpt lat="47.1472" lon="-1.71131">
        <ele>68</ele>
        <time>2021-09-26T13:35:06.000Z</time>
      </trkpt>
      <trkpt lat="47.14722" lon="-1.71149">
        <ele>68</ele>
        <time>2021-09-26T13:35:08.000Z</time>
      </trkpt>
      <trkpt lat="47.14725" lon="-1.71167">
        <ele>68</ele>
        <time>2021-09-26T13:35:10.000Z</time>
      </trkpt>
      <trkpt lat="47.14729" lon="-1.71184">
        <ele>68</ele>
        <time>2021-09-26T13:35:12.000Z</time>
      </trkpt>
      <trkpt lat="47.14734" lon="-1.712">
        <ele>68</ele>
        <time>2021-09-26T13:35:14.000Z</time>
      </trkpt>
      <trkpt lat="47.14739" lon="-1.71217">
        <ele>68</ele>
        <time>2021-09-26T13:35:16.000Z</time>
      </trkpt>
      <trkpt lat="47.14744" lon="-1.71233">
        <ele>68</ele>
        <time>2021-09-26T13:35:18.000Z</time>
      </trkpt>
      <trkpt lat="47.14749" lon="-1.71249">
        <ele>68</ele>
        <time>2021-09-26T13:35:20.000Z</time>
      </trkpt>
      <trkpt lat="47.14753" lon="-1.71265">
        <ele>68</ele>
        <time>2021-09-26T13:35:22.000Z</time>
      </trkpt>
      <trkpt lat="47.14756" lon="-1.71281">
        <ele>68</ele>
        <time>2021-09-26T13:35:24.000Z</time>
      </trkpt>
      <trkpt lat="47.14759" lon="-1.71297">
        <ele>68</ele>
        <time>2021-09-26T13:35:26.000Z</time>
      </trkpt>
      <trkpt lat="47.14762" lon="-1.71313">
        <ele>69</ele>
        <time>2021-09-26T13:35:28.000Z</time>
      </trkpt>
      <trkpt lat="47.14765" lon="-1.7133">
        <ele>69</ele>
        <time>2021-09-26T13:35:30.000Z</time>
      </trkpt>
      <trkpt lat="47.14767" lon="-1.71346">
        <ele>69</ele>
        <time>2021-09-26T13:35:32.000Z</time>
      </trkpt>
      <trkpt lat="47.1477" lon="-1.71362">
        <ele>69</ele>
        <time>2021-09-26T13:35:34.000Z</time>
      </trkpt>
      <trkpt lat="47.14772" lon="-1.71378">
        <ele>69</ele>
        <time>2021-09-26T13:35:36.000Z</time>
      </trkpt>
      <trkpt lat="47.14774" lon="-1.71394">
        <ele>69</ele>
        <time>2021-09-26T13:35:38.000Z</time>
      </trkpt>
      <trkpt lat="47.14776" lon="-1.7141">
        <ele>69</ele>
        <time>2021-09-26T13:35:40.000Z</time>
      </trkpt>
      <trkpt lat="47.14778" lon="-1.71427">
        <ele>69</ele>
        <time>2021-09-26T13:35:42.000Z</time>
      </trkpt>
      <trkpt lat="47.14781" lon="-1.71444">
        <ele>69</ele>
        <time>2021-09-26T13:35:44.000Z</time>
      </trkpt>
      <trkpt lat="47.14784" lon="-1.7146">
        <ele>69</ele>
        <time>2021-09-26T13:35:46.000Z</time>
      </trkpt>
      <trkpt lat="47.14786" lon="-1.71477">
        <ele>69</ele>
        <time>2021-09-26T13:35:48.000Z</time>
      </trkpt>
      <trkpt lat="47.14788" lon="-1.71493">
        <ele>69</ele>
        <time>2021-09-26T13:35:50.000Z</time>
      </trkpt>
      <trkpt lat="47.1479" lon="-1.7151">
        <ele>69</ele>
        <time>2021-09-26T13:35:52.000Z</time>
      </trkpt>
      <trkpt lat="47.14791" lon="-1.71527">
        <ele>69</ele>
        <time>2021-09-26T13:35:54.000Z</time>
      </trkpt>
      <trkpt lat="47.14791" lon="-1.71543">
        <ele>69</ele>
        <time>2021-09-26T13:35:56.000Z</time>
      </trkpt>
      <trkpt lat="47.1479" lon="-1.71559">
        <ele>69</ele>
        <time>2021-09-26T13:35:58.000Z</time>
      </trkpt>
      <trkpt lat="47.14789" lon="-1.71576">
        <ele>69</ele>
        <time>2021-09-26T13:36:00.000Z</time>
      </trkpt>
      <trkpt lat="47.14787" lon="-1.71592">
        <ele>69</ele>
        <time>2021-09-26T13:36:02.000Z</time>
      </trkpt>
      <trkpt lat="47.14785" lon="-1.71608">
        <ele>69</ele>
        <time>2021-09-26T13:36:04.000Z</time>
      </trkpt>
      <trkpt lat="47.14782" lon="-1.71625">
        <ele>69</ele>
        <time>2021-09-26T13:36:06.000Z</time>
      </trkpt>
      <trkpt lat="47.14779" lon="-1.71641">
        <ele>69</ele>
        <time>2021-09-26T13:36:08.000Z</time>
      </trkpt>
      <trkpt lat="47.14777" lon="-1.71657">
        <ele>69</ele>
        <time>2021-09-26T13:36:10.000Z</time>
      </trkpt>
      <trkpt lat="47.14774" lon="-1.71673">
        <ele>68</ele>
        <time>2021-09-26T13:36:12.000Z</time>
      </trkpt>
      <trkpt lat="47.14771" lon="-1.71689">
        <ele>68</ele>
        <time>2021-09-26T13:36:14.000Z</time>
      </trkpt>
      <trkpt lat="47.14768" lon="-1.71705">
        <ele>68</ele>
        <time>2021-09-26T13:36:16.000Z</time>
      </trkpt>
      <trkpt lat="47.14766" lon="-1.71721">
        <ele>68</ele>
        <time>2021-09-26T13:36:18.000Z</time>
      </trkpt>
      <trkpt lat="47.14762" lon="-1.71737">
        <ele>68</ele>
        <time>2021-09-26T13:36:20.000Z</time>
      </trkpt>
      <trkpt lat="47.14759" lon="-1.71751">
        <ele>68</ele>
        <time>2021-09-26T13:36:22.000Z</time>
      </trkpt>
      <trkpt lat="47.14756" lon="-1.71766">
        <ele>69</ele>
        <time>2021-09-26T13:36:24.000Z</time>
      </trkpt>
      <trkpt lat="47.14751" lon="-1.71781">
        <ele>69</ele>
        <time>2021-09-26T13:36:26.000Z</time>
      </trkpt>
      <trkpt lat="47.14744" lon="-1.71794">
        <ele>69</ele>
        <time>2021-09-26T13:36:28.000Z</time>
      </trkpt>
      <trkpt lat="47.14735" lon="-1.71806">
        <ele>69</ele>
        <time>2021-09-26T13:36:30.000Z</time>
      </trkpt>
      <trkpt lat="47.14725" lon="-1.71815">
        <ele>69</ele>
        <time>2021-09-26T13:36:32.000Z</time>
      </trkpt>
      <trkpt lat="47.14713" lon="-1.71822">
        <ele>69</ele>
        <time>2021-09-26T13:36:34.000Z</time>
      </trkpt>
      <trkpt lat="47.14702" lon="-1.71827">
        <ele>69</ele>
        <time>2021-09-26T13:36:36.000Z</time>
      </trkpt>
      <trkpt lat="47.14691" lon="-1.71833">
        <ele>69</ele>
        <time>2021-09-26T13:36:38.000Z</time>
      </trkpt>
      <trkpt lat="47.14679" lon="-1.71838">
        <ele>69</ele>
        <time>2021-09-26T13:36:40.000Z</time>
      </trkpt>
      <trkpt lat="47.14668" lon="-1.71844">
        <ele>69</ele>
        <time>2021-09-26T13:36:42.000Z</time>
      </trkpt>
      <trkpt lat="47.14656" lon="-1.71849">
        <ele>69</ele>
        <time>2021-09-26T13:36:44.000Z</time>
      </trkpt>
      <trkpt lat="47.14644" lon="-1.71852">
        <ele>69</ele>
        <time>2021-09-26T13:36:46.000Z</time>
      </trkpt>
      <trkpt lat="47.14631" lon="-1.71853">
        <ele>69</ele>
        <time>2021-09-26T13:36:48.000Z</time>
      </trkpt>
      <trkpt lat="47.14619" lon="-1.71853">
        <ele>68</ele>
        <time>2021-09-26T13:36:50.000Z</time>
      </trkpt>
      <trkpt lat="47.14607" lon="-1.7185">
        <ele>68</ele>
        <time>2021-09-26T13:36:52.000Z</time>
      </trkpt>
      <trkpt lat="47.14595" lon="-1.71846">
        <ele>68</ele>
        <time>2021-09-26T13:36:54.000Z</time>
      </trkpt>
      <trkpt lat="47.14583" lon="-1.71841">
        <ele>68</ele>
        <time>2021-09-26T13:36:56.000Z</time>
      </trkpt>
      <trkpt lat="47.14571" lon="-1.71836">
        <ele>68</ele>
        <time>2021-09-26T13:36:58.000Z</time>
      </trkpt>
      <trkpt lat="47.14559" lon="-1.71831">
        <ele>68</ele>
        <time>2021-09-26T13:37:00.000Z</time>
      </trkpt>
      <trkpt lat="47.14547" lon="-1.71825">
        <ele>68</ele>
        <time>2021-09-26T13:37:02.000Z</time>
      </trkpt>
      <trkpt lat="47.14535" lon="-1.71819">
        <ele>68</ele>
        <time>2021-09-26T13:37:04.000Z</time>
      </trkpt>
      <trkpt lat="47.14522" lon="-1.71814">
        <ele>68</ele>
        <time>2021-09-26T13:37:06.000Z</time>
      </trkpt>
      <trkpt lat="47.1451" lon="-1.71809">
        <ele>68</ele>
        <time>2021-09-26T13:37:08.000Z</time>
      </trkpt>
      <trkpt lat="47.14498" lon="-1.71802">
        <ele>68</ele>
        <time>2021-09-26T13:37:10.000Z</time>
      </trkpt>
      <trkpt lat="47.14485" lon="-1.71796">
        <ele>68</ele>
        <time>2021-09-26T13:37:12.000Z</time>
      </trkpt>
      <trkpt lat="47.14473" lon="-1.7179">
        <ele>67</ele>
        <time>2021-09-26T13:37:14.000Z</time>
      </trkpt>
      <trkpt lat="47.14461" lon="-1.71785">
        <ele>67</ele>
        <time>2021-09-26T13:37:16.000Z</time>
      </trkpt>
      <trkpt lat="47.14449" lon="-1.71782">
        <ele>67</ele>
        <time>2021-09-26T13:37:18.000Z</time>
      </trkpt>
      <trkpt lat="47.14436" lon="-1.71779">
        <ele>67</ele>
        <time>2021-09-26T13:37:20.000Z</time>
      </trkpt>
      <trkpt lat="47.14424" lon="-1.71777">
        <ele>67</ele>
        <time>2021-09-26T13:37:22.000Z</time>
      </trkpt>
      <trkpt lat="47.14411" lon="-1.71778">
        <ele>67</ele>
        <time>2021-09-26T13:37:24.000Z</time>
      </trkpt>
      <trkpt lat="47.14398" lon="-1.7178">
        <ele>67</ele>
        <time>2021-09-26T13:37:26.000Z</time>
      </trkpt>
      <trkpt lat="47.14385" lon="-1.71783">
        <ele>66</ele>
        <time>2021-09-26T13:37:28.000Z</time>
      </trkpt>
      <trkpt lat="47.14373" lon="-1.71787">
        <ele>66</ele>
        <time>2021-09-26T13:37:30.000Z</time>
      </trkpt>
      <trkpt lat="47.14354" lon="-1.71792">
        <ele>65</ele>
        <time>2021-09-26T13:37:33.000Z</time>
      </trkpt>
      <trkpt lat="47.14342" lon="-1.71796">
        <ele>65</ele>
        <time>2021-09-26T13:37:35.000Z</time>
      </trkpt>
      <trkpt lat="47.14323" lon="-1.71802">
        <ele>65</ele>
        <time>2021-09-26T13:37:38.000Z</time>
      </trkpt>
      <trkpt lat="47.1431" lon="-1.71806">
        <ele>64</ele>
        <time>2021-09-26T13:37:40.000Z</time>
      </trkpt>
      <trkpt lat="47.14298" lon="-1.71811">
        <ele>64</ele>
        <time>2021-09-26T13:37:42.000Z</time>
      </trkpt>
      <trkpt lat="47.14286" lon="-1.71815">
        <ele>63</ele>
        <time>2021-09-26T13:37:44.000Z</time>
      </trkpt>
      <trkpt lat="47.14273" lon="-1.71819">
        <ele>63</ele>
        <time>2021-09-26T13:37:46.000Z</time>
      </trkpt>
      <trkpt lat="47.14261" lon="-1.71823">
        <ele>63</ele>
        <time>2021-09-26T13:37:48.000Z</time>
      </trkpt>
      <trkpt lat="47.14241" lon="-1.7183">
        <ele>63</ele>
        <time>2021-09-26T13:37:51.000Z</time>
      </trkpt>
      <trkpt lat="47.14229" lon="-1.71834">
        <ele>63</ele>
        <time>2021-09-26T13:37:53.000Z</time>
      </trkpt>
      <trkpt lat="47.14216" lon="-1.71838">
        <ele>62</ele>
        <time>2021-09-26T13:37:55.000Z</time>
      </trkpt>
      <trkpt lat="47.14204" lon="-1.71842">
        <ele>62</ele>
        <time>2021-09-26T13:37:57.000Z</time>
      </trkpt>
      <trkpt lat="47.14192" lon="-1.71845">
        <ele>61</ele>
        <time>2021-09-26T13:37:59.000Z</time>
      </trkpt>
      <trkpt lat="47.1418" lon="-1.7185">
        <ele>61</ele>
        <time>2021-09-26T13:38:01.000Z</time>
      </trkpt>
      <trkpt lat="47.14167" lon="-1.71854">
        <ele>61</ele>
        <time>2021-09-26T13:38:03.000Z</time>
      </trkpt>
      <trkpt lat="47.14154" lon="-1.71859">
        <ele>60</ele>
        <time>2021-09-26T13:38:05.000Z</time>
      </trkpt>
      <trkpt lat="47.14141" lon="-1.71864">
        <ele>60</ele>
        <time>2021-09-26T13:38:07.000Z</time>
      </trkpt>
      <trkpt lat="47.14127" lon="-1.71869">
        <ele>60</ele>
        <time>2021-09-26T13:38:09.000Z</time>
      </trkpt>
      <trkpt lat="47.14113" lon="-1.71874">
        <ele>60</ele>
        <time>2021-09-26T13:38:11.000Z</time>
      </trkpt>
      <trkpt lat="47.14099" lon="-1.71878">
        <ele>58</ele>
        <time>2021-09-26T13:38:13.000Z</time>
      </trkpt>
      <trkpt lat="47.14084" lon="-1.71882">
        <ele>58</ele>
        <time>2021-09-26T13:38:15.000Z</time>
      </trkpt>
      <trkpt lat="47.14069" lon="-1.71887">
        <ele>57</ele>
        <time>2021-09-26T13:38:17.000Z</time>
      </trkpt>
      <trkpt lat="47.14055" lon="-1.71892">
        <ele>56</ele>
        <time>2021-09-26T13:38:19.000Z</time>
      </trkpt>
      <trkpt lat="47.14041" lon="-1.71897">
        <ele>56</ele>
        <time>2021-09-26T13:38:21.000Z</time>
      </trkpt>
      <trkpt lat="47.14027" lon="-1.71901">
        <ele>54</ele>
        <time>2021-09-26T13:38:23.000Z</time>
      </trkpt>
      <trkpt lat="47.14012" lon="-1.71904">
        <ele>54</ele>
        <time>2021-09-26T13:38:25.000Z</time>
      </trkpt>
      <trkpt lat="47.13995" lon="-1.71899">
        <ele>52</ele>
        <time>2021-09-26T13:38:27.000Z</time>
      </trkpt>
      <trkpt lat="47.13978" lon="-1.71895">
        <ele>51</ele>
        <time>2021-09-26T13:38:29.000Z</time>
      </trkpt>
      <trkpt lat="47.13965" lon="-1.71906">
        <ele>51</ele>
        <time>2021-09-26T13:38:31.000Z</time>
      </trkpt>
      <trkpt lat="47.13963" lon="-1.71931">
        <ele>51</ele>
        <time>2021-09-26T13:38:33.000Z</time>
      </trkpt>
      <trkpt lat="47.13961" lon="-1.71951">
        <ele>51</ele>
        <time>2021-09-26T13:38:35.000Z</time>
      </trkpt>
      <trkpt lat="47.13953" lon="-1.71966">
        <ele>52</ele>
        <time>2021-09-26T13:38:37.000Z</time>
      </trkpt>
      <trkpt lat="47.13942" lon="-1.71974">
        <ele>52</ele>
        <time>2021-09-26T13:38:39.000Z</time>
      </trkpt>
      <trkpt lat="47.1393" lon="-1.7198">
        <ele>52</ele>
        <time>2021-09-26T13:38:41.000Z</time>
      </trkpt>
      <trkpt lat="47.13918" lon="-1.71985">
        <ele>52</ele>
        <time>2021-09-26T13:38:43.000Z</time>
      </trkpt>
      <trkpt lat="47.13907" lon="-1.7199">
        <ele>52</ele>
        <time>2021-09-26T13:38:45.000Z</time>
      </trkpt>
      <trkpt lat="47.13896" lon="-1.71996">
        <ele>52</ele>
        <time>2021-09-26T13:38:47.000Z</time>
      </trkpt>
      <trkpt lat="47.13886" lon="-1.72002">
        <ele>52</ele>
        <time>2021-09-26T13:38:49.000Z</time>
      </trkpt>
      <trkpt lat="47.13877" lon="-1.7201">
        <ele>52</ele>
        <time>2021-09-26T13:38:51.000Z</time>
      </trkpt>
      <trkpt lat="47.13867" lon="-1.7202">
        <ele>52</ele>
        <time>2021-09-26T13:38:53.000Z</time>
      </trkpt>
      <trkpt lat="47.13859" lon="-1.72031">
        <ele>52</ele>
        <time>2021-09-26T13:38:55.000Z</time>
      </trkpt>
      <trkpt lat="47.13851" lon="-1.72045">
        <ele>52</ele>
        <time>2021-09-26T13:38:57.000Z</time>
      </trkpt>
      <trkpt lat="47.13844" lon="-1.72058">
        <ele>53</ele>
        <time>2021-09-26T13:38:59.000Z</time>
      </trkpt>
      <trkpt lat="47.13836" lon="-1.7207">
        <ele>54</ele>
        <time>2021-09-26T13:39:01.000Z</time>
      </trkpt>
      <trkpt lat="47.13828" lon="-1.72082">
        <ele>54</ele>
        <time>2021-09-26T13:39:03.000Z</time>
      </trkpt>
      <trkpt lat="47.13821" lon="-1.72094">
        <ele>55</ele>
        <time>2021-09-26T13:39:05.000Z</time>
      </trkpt>
      <trkpt lat="47.13813" lon="-1.72106">
        <ele>55</ele>
        <time>2021-09-26T13:39:07.000Z</time>
      </trkpt>
      <trkpt lat="47.13805" lon="-1.72118">
        <ele>56</ele>
        <time>2021-09-26T13:39:09.000Z</time>
      </trkpt>
      <trkpt lat="47.13798" lon="-1.72131">
        <ele>56</ele>
        <time>2021-09-26T13:39:11.000Z</time>
      </trkpt>
      <trkpt lat="47.1379" lon="-1.72144">
        <ele>56</ele>
        <time>2021-09-26T13:39:13.000Z</time>
      </trkpt>
      <trkpt lat="47.13783" lon="-1.72156">
        <ele>56</ele>
        <time>2021-09-26T13:39:15.000Z</time>
      </trkpt>
      <trkpt lat="47.13775" lon="-1.72168">
        <ele>56</ele>
        <time>2021-09-26T13:39:17.000Z</time>
      </trkpt>
      <trkpt lat="47.13768" lon="-1.72181">
        <ele>57</ele>
        <time>2021-09-26T13:39:19.000Z</time>
      </trkpt>
      <trkpt lat="47.13761" lon="-1.72194">
        <ele>57</ele>
        <time>2021-09-26T13:39:21.000Z</time>
      </trkpt>
      <trkpt lat="47.13753" lon="-1.72207">
        <ele>58</ele>
        <time>2021-09-26T13:39:23.000Z</time>
      </trkpt>
      <trkpt lat="47.13747" lon="-1.72221">
        <ele>59</ele>
        <time>2021-09-26T13:39:25.000Z</time>
      </trkpt>
      <trkpt lat="47.13742" lon="-1.72234">
        <ele>59</ele>
        <time>2021-09-26T13:39:27.000Z</time>
      </trkpt>
      <trkpt lat="47.13738" lon="-1.72248">
        <ele>59</ele>
        <time>2021-09-26T13:39:29.000Z</time>
      </trkpt>
      <trkpt lat="47.13734" lon="-1.72263">
        <ele>60</ele>
        <time>2021-09-26T13:39:31.000Z</time>
      </trkpt>
      <trkpt lat="47.13732" lon="-1.72278">
        <ele>60</ele>
        <time>2021-09-26T13:39:33.000Z</time>
      </trkpt>
      <trkpt lat="47.1373" lon="-1.72293">
        <ele>60</ele>
        <time>2021-09-26T13:39:35.000Z</time>
      </trkpt>
      <trkpt lat="47.13728" lon="-1.72309">
        <ele>60</ele>
        <time>2021-09-26T13:39:37.000Z</time>
      </trkpt>
      <trkpt lat="47.13726" lon="-1.72324">
        <ele>61</ele>
        <time>2021-09-26T13:39:39.000Z</time>
      </trkpt>
      <trkpt lat="47.13724" lon="-1.72338">
        <ele>61</ele>
        <time>2021-09-26T13:39:41.000Z</time>
      </trkpt>
      <trkpt lat="47.13721" lon="-1.72352">
        <ele>62</ele>
        <time>2021-09-26T13:39:43.000Z</time>
      </trkpt>
      <trkpt lat="47.13718" lon="-1.72366">
        <ele>62</ele>
        <time>2021-09-26T13:39:45.000Z</time>
      </trkpt>
      <trkpt lat="47.13715" lon="-1.72381">
        <ele>63</ele>
        <time>2021-09-26T13:39:47.000Z</time>
      </trkpt>
      <trkpt lat="47.13711" lon="-1.72395">
        <ele>63</ele>
        <time>2021-09-26T13:39:49.000Z</time>
      </trkpt>
      <trkpt lat="47.13707" lon="-1.72409">
        <ele>64</ele>
        <time>2021-09-26T13:39:51.000Z</time>
      </trkpt>
      <trkpt lat="47.13703" lon="-1.72423">
        <ele>64</ele>
        <time>2021-09-26T13:39:53.000Z</time>
      </trkpt>
      <trkpt lat="47.13699" lon="-1.72438">
        <ele>64</ele>
        <time>2021-09-26T13:39:55.000Z</time>
      </trkpt>
      <trkpt lat="47.13696" lon="-1.72452">
        <ele>64</ele>
        <time>2021-09-26T13:39:57.000Z</time>
      </trkpt>
      <trkpt lat="47.13692" lon="-1.72467">
        <ele>64</ele>
        <time>2021-09-26T13:39:59.000Z</time>
      </trkpt>
      <trkpt lat="47.13689" lon="-1.72482">
        <ele>65</ele>
        <time>2021-09-26T13:40:01.000Z</time>
      </trkpt>
      <trkpt lat="47.13684" lon="-1.72496">
        <ele>64</ele>
        <time>2021-09-26T13:40:03.000Z</time>
      </trkpt>
      <trkpt lat="47.1368" lon="-1.72511">
        <ele>64</ele>
        <time>2021-09-26T13:40:05.000Z</time>
      </trkpt>
      <trkpt lat="47.13678" lon="-1.72528">
        <ele>65</ele>
        <time>2021-09-26T13:40:07.000Z</time>
      </trkpt>
      <trkpt lat="47.13677" lon="-1.72546">
        <ele>65</ele>
        <time>2021-09-26T13:40:09.000Z</time>
      </trkpt>
      <trkpt lat="47.13675" lon="-1.72563">
        <ele>65</ele>
        <time>2021-09-26T13:40:11.000Z</time>
      </trkpt>
      <trkpt lat="47.13675" lon="-1.7258">
        <ele>65</ele>
        <time>2021-09-26T13:40:13.000Z</time>
      </trkpt>
      <trkpt lat="47.13674" lon="-1.72595">
        <ele>65</ele>
        <time>2021-09-26T13:40:15.000Z</time>
      </trkpt>
      <trkpt lat="47.13674" lon="-1.7261">
        <ele>65</ele>
        <time>2021-09-26T13:40:17.000Z</time>
      </trkpt>
      <trkpt lat="47.13672" lon="-1.72625">
        <ele>65</ele>
        <time>2021-09-26T13:40:19.000Z</time>
      </trkpt>
      <trkpt lat="47.1367" lon="-1.7264">
        <ele>66</ele>
        <time>2021-09-26T13:40:21.000Z</time>
      </trkpt>
      <trkpt lat="47.13669" lon="-1.72657">
        <ele>66</ele>
        <time>2021-09-26T13:40:23.000Z</time>
      </trkpt>
      <trkpt lat="47.13667" lon="-1.72672">
        <ele>66</ele>
        <time>2021-09-26T13:40:25.000Z</time>
      </trkpt>
      <trkpt lat="47.13665" lon="-1.72687">
        <ele>67</ele>
        <time>2021-09-26T13:40:27.000Z</time>
      </trkpt>
      <trkpt lat="47.13662" lon="-1.72702">
        <ele>67</ele>
        <time>2021-09-26T13:40:29.000Z</time>
      </trkpt>
      <trkpt lat="47.13661" lon="-1.72717">
        <ele>67</ele>
        <time>2021-09-26T13:40:31.000Z</time>
      </trkpt>
      <trkpt lat="47.13659" lon="-1.72732">
        <ele>67</ele>
        <time>2021-09-26T13:40:33.000Z</time>
      </trkpt>
      <trkpt lat="47.13658" lon="-1.72747">
        <ele>67</ele>
        <time>2021-09-26T13:40:35.000Z</time>
      </trkpt>
      <trkpt lat="47.13657" lon="-1.72763">
        <ele>67</ele>
        <time>2021-09-26T13:40:37.000Z</time>
      </trkpt>
      <trkpt lat="47.13656" lon="-1.72778">
        <ele>67</ele>
        <time>2021-09-26T13:40:39.000Z</time>
      </trkpt>
      <trkpt lat="47.13655" lon="-1.72795">
        <ele>66</ele>
        <time>2021-09-26T13:40:41.000Z</time>
      </trkpt>
      <trkpt lat="47.13654" lon="-1.7281">
        <ele>66</ele>
        <time>2021-09-26T13:40:43.000Z</time>
      </trkpt>
      <trkpt lat="47.13653" lon="-1.72826">
        <ele>66</ele>
        <time>2021-09-26T13:40:45.000Z</time>
      </trkpt>
      <trkpt lat="47.13651" lon="-1.72843">
        <ele>65</ele>
        <time>2021-09-26T13:40:47.000Z</time>
      </trkpt>
      <trkpt lat="47.1365" lon="-1.72859">
        <ele>65</ele>
        <time>2021-09-26T13:40:49.000Z</time>
      </trkpt>
      <trkpt lat="47.13648" lon="-1.72877">
        <ele>64</ele>
        <time>2021-09-26T13:40:51.000Z</time>
      </trkpt>
      <trkpt lat="47.13647" lon="-1.72896">
        <ele>64</ele>
        <time>2021-09-26T13:40:53.000Z</time>
      </trkpt>
      <trkpt lat="47.13644" lon="-1.72916">
        <ele>63</ele>
        <time>2021-09-26T13:40:55.000Z</time>
      </trkpt>
      <trkpt lat="47.13642" lon="-1.72937">
        <ele>62</ele>
        <time>2021-09-26T13:40:57.000Z</time>
      </trkpt>
      <trkpt lat="47.13641" lon="-1.72959">
        <ele>62</ele>
        <time>2021-09-26T13:40:59.000Z</time>
      </trkpt>
      <trkpt lat="47.13639" lon="-1.72982">
        <ele>61</ele>
        <time>2021-09-26T13:41:01.000Z</time>
      </trkpt>
      <trkpt lat="47.13637" lon="-1.73005">
        <ele>60</ele>
        <time>2021-09-26T13:41:03.000Z</time>
      </trkpt>
      <trkpt lat="47.13632" lon="-1.73027">
        <ele>59</ele>
        <time>2021-09-26T13:41:05.000Z</time>
      </trkpt>
      <trkpt lat="47.13621" lon="-1.73045">
        <ele>58</ele>
        <time>2021-09-26T13:41:07.000Z</time>
      </trkpt>
      <trkpt lat="47.13608" lon="-1.73058">
        <ele>58</ele>
        <time>2021-09-26T13:41:09.000Z</time>
      </trkpt>
      <trkpt lat="47.13595" lon="-1.73069">
        <ele>58</ele>
        <time>2021-09-26T13:41:11.000Z</time>
      </trkpt>
      <trkpt lat="47.13583" lon="-1.73079">
        <ele>57</ele>
        <time>2021-09-26T13:41:13.000Z</time>
      </trkpt>
      <trkpt lat="47.13571" lon="-1.7309">
        <ele>57</ele>
        <time>2021-09-26T13:41:15.000Z</time>
      </trkpt>
      <trkpt lat="47.13559" lon="-1.73102">
        <ele>56</ele>
        <time>2021-09-26T13:41:17.000Z</time>
      </trkpt>
      <trkpt lat="47.13548" lon="-1.73114">
        <ele>56</ele>
        <time>2021-09-26T13:41:19.000Z</time>
      </trkpt>
      <trkpt lat="47.13537" lon="-1.73125">
        <ele>56</ele>
        <time>2021-09-26T13:41:21.000Z</time>
      </trkpt>
      <trkpt lat="47.13526" lon="-1.73138">
        <ele>55</ele>
        <time>2021-09-26T13:41:23.000Z</time>
      </trkpt>
      <trkpt lat="47.13516" lon="-1.73153">
        <ele>55</ele>
        <time>2021-09-26T13:41:25.000Z</time>
      </trkpt>
      <trkpt lat="47.1351" lon="-1.73171">
        <ele>54</ele>
        <time>2021-09-26T13:41:27.000Z</time>
      </trkpt>
      <trkpt lat="47.13508" lon="-1.73191">
        <ele>54</ele>
        <time>2021-09-26T13:41:29.000Z</time>
      </trkpt>
      <trkpt lat="47.13505" lon="-1.73212">
        <ele>53</ele>
        <time>2021-09-26T13:41:31.000Z</time>
      </trkpt>
      <trkpt lat="47.13503" lon="-1.73233">
        <ele>53</ele>
        <time>2021-09-26T13:41:33.000Z</time>
      </trkpt>
      <trkpt lat="47.13501" lon="-1.73253">
        <ele>52</ele>
        <time>2021-09-26T13:41:35.000Z</time>
      </trkpt>
      <trkpt lat="47.135" lon="-1.73274">
        <ele>51</ele>
        <time>2021-09-26T13:41:37.000Z</time>
      </trkpt>
      <trkpt lat="47.135" lon="-1.73295">
        <ele>51</ele>
        <time>2021-09-26T13:41:39.000Z</time>
      </trkpt>
      <trkpt lat="47.13502" lon="-1.73315">
        <ele>51</ele>
        <time>2021-09-26T13:41:41.000Z</time>
      </trkpt>
      <trkpt lat="47.13507" lon="-1.73334">
        <ele>51</ele>
        <time>2021-09-26T13:41:43.000Z</time>
      </trkpt>
      <trkpt lat="47.13512" lon="-1.73351">
        <ele>52</ele>
        <time>2021-09-26T13:41:45.000Z</time>
      </trkpt>
      <trkpt lat="47.13517" lon="-1.73367">
        <ele>52</ele>
        <time>2021-09-26T13:41:47.000Z</time>
      </trkpt>
      <trkpt lat="47.13523" lon="-1.73381">
        <ele>52</ele>
        <time>2021-09-26T13:41:49.000Z</time>
      </trkpt>
      <trkpt lat="47.13529" lon="-1.73395">
        <ele>52</ele>
        <time>2021-09-26T13:41:51.000Z</time>
      </trkpt>
      <trkpt lat="47.13533" lon="-1.7341">
        <ele>52</ele>
        <time>2021-09-26T13:41:53.000Z</time>
      </trkpt>
      <trkpt lat="47.13537" lon="-1.73425">
        <ele>53</ele>
        <time>2021-09-26T13:41:55.000Z</time>
      </trkpt>
      <trkpt lat="47.13542" lon="-1.7344">
        <ele>53</ele>
        <time>2021-09-26T13:41:57.000Z</time>
      </trkpt>
      <trkpt lat="47.13547" lon="-1.73456">
        <ele>53</ele>
        <time>2021-09-26T13:41:59.000Z</time>
      </trkpt>
      <trkpt lat="47.13552" lon="-1.73471">
        <ele>54</ele>
        <time>2021-09-26T13:42:01.000Z</time>
      </trkpt>
      <trkpt lat="47.13557" lon="-1.73486">
        <ele>54</ele>
        <time>2021-09-26T13:42:03.000Z</time>
      </trkpt>
      <trkpt lat="47.13561" lon="-1.73501">
        <ele>55</ele>
        <time>2021-09-26T13:42:05.000Z</time>
      </trkpt>
      <trkpt lat="47.13565" lon="-1.73516">
        <ele>55</ele>
        <time>2021-09-26T13:42:07.000Z</time>
      </trkpt>
      <trkpt lat="47.13569" lon="-1.73531">
        <ele>55</ele>
        <time>2021-09-26T13:42:09.000Z</time>
      </trkpt>
      <trkpt lat="47.13573" lon="-1.73547">
        <ele>54</ele>
        <time>2021-09-26T13:42:11.000Z</time>
      </trkpt>
      <trkpt lat="47.13578" lon="-1.73562">
        <ele>55</ele>
        <time>2021-09-26T13:42:13.000Z</time>
      </trkpt>
      <trkpt lat="47.13584" lon="-1.73577">
        <ele>55</ele>
        <time>2021-09-26T13:42:15.000Z</time>
      </trkpt>
      <trkpt lat="47.1359" lon="-1.73591">
        <ele>55</ele>
        <time>2021-09-26T13:42:17.000Z</time>
      </trkpt>
      <trkpt lat="47.13596" lon="-1.73606">
        <ele>55</ele>
        <time>2021-09-26T13:42:19.000Z</time>
      </trkpt>
      <trkpt lat="47.13601" lon="-1.7362">
        <ele>55</ele>
        <time>2021-09-26T13:42:21.000Z</time>
      </trkpt>
      <trkpt lat="47.13605" lon="-1.73636">
        <ele>55</ele>
        <time>2021-09-26T13:42:23.000Z</time>
      </trkpt>
      <trkpt lat="47.13611" lon="-1.73651">
        <ele>54</ele>
        <time>2021-09-26T13:42:25.000Z</time>
      </trkpt>
      <trkpt lat="47.13615" lon="-1.73665">
        <ele>54</ele>
        <time>2021-09-26T13:42:27.000Z</time>
      </trkpt>
      <trkpt lat="47.1362" lon="-1.73681">
        <ele>54</ele>
        <time>2021-09-26T13:42:29.000Z</time>
      </trkpt>
      <trkpt lat="47.13624" lon="-1.73697">
        <ele>54</ele>
        <time>2021-09-26T13:42:31.000Z</time>
      </trkpt>
      <trkpt lat="47.13627" lon="-1.73713">
        <ele>54</ele>
        <time>2021-09-26T13:42:33.000Z</time>
      </trkpt>
      <trkpt lat="47.13628" lon="-1.73729">
        <ele>54</ele>
        <time>2021-09-26T13:42:35.000Z</time>
      </trkpt>
      <trkpt lat="47.13631" lon="-1.73747">
        <ele>53</ele>
        <time>2021-09-26T13:42:37.000Z</time>
      </trkpt>
      <trkpt lat="47.13635" lon="-1.73766">
        <ele>53</ele>
        <time>2021-09-26T13:42:39.000Z</time>
      </trkpt>
      <trkpt lat="47.13637" lon="-1.73788">
        <ele>53</ele>
        <time>2021-09-26T13:42:41.000Z</time>
      </trkpt>
      <trkpt lat="47.13638" lon="-1.73808">
        <ele>52</ele>
        <time>2021-09-26T13:42:43.000Z</time>
      </trkpt>
      <trkpt lat="47.13639" lon="-1.73829">
        <ele>52</ele>
        <time>2021-09-26T13:42:45.000Z</time>
      </trkpt>
      <trkpt lat="47.1364" lon="-1.7385">
        <ele>51</ele>
        <time>2021-09-26T13:42:47.000Z</time>
      </trkpt>
      <trkpt lat="47.1364" lon="-1.73869">
        <ele>51</ele>
        <time>2021-09-26T13:42:49.000Z</time>
      </trkpt>
      <trkpt lat="47.13641" lon="-1.73887">
        <ele>52</ele>
        <time>2021-09-26T13:42:51.000Z</time>
      </trkpt>
      <trkpt lat="47.13641" lon="-1.73903">
        <ele>52</ele>
        <time>2021-09-26T13:42:53.000Z</time>
      </trkpt>
      <trkpt lat="47.13642" lon="-1.73919">
        <ele>53</ele>
        <time>2021-09-26T13:42:55.000Z</time>
      </trkpt>
      <trkpt lat="47.13644" lon="-1.73933">
        <ele>53</ele>
        <time>2021-09-26T13:42:57.000Z</time>
      </trkpt>
      <trkpt lat="47.13644" lon="-1.73948">
        <ele>53</ele>
        <time>2021-09-26T13:42:59.000Z</time>
      </trkpt>
      <trkpt lat="47.13645" lon="-1.73964">
        <ele>53</ele>
        <time>2021-09-26T13:43:01.000Z</time>
      </trkpt>
      <trkpt lat="47.13644" lon="-1.73979">
        <ele>54</ele>
        <time>2021-09-26T13:43:03.000Z</time>
      </trkpt>
      <trkpt lat="47.13643" lon="-1.73994">
        <ele>54</ele>
        <time>2021-09-26T13:43:05.000Z</time>
      </trkpt>
      <trkpt lat="47.13642" lon="-1.74009">
        <ele>55</ele>
        <time>2021-09-26T13:43:07.000Z</time>
      </trkpt>
      <trkpt lat="47.13639" lon="-1.74023">
        <ele>55</ele>
        <time>2021-09-26T13:43:09.000Z</time>
      </trkpt>
      <trkpt lat="47.13638" lon="-1.74038">
        <ele>55</ele>
        <time>2021-09-26T13:43:11.000Z</time>
      </trkpt>
      <trkpt lat="47.13636" lon="-1.74053">
        <ele>56</ele>
        <time>2021-09-26T13:43:13.000Z</time>
      </trkpt>
      <trkpt lat="47.13635" lon="-1.74068">
        <ele>56</ele>
        <time>2021-09-26T13:43:15.000Z</time>
      </trkpt>
      <trkpt lat="47.13635" lon="-1.74083">
        <ele>56</ele>
        <time>2021-09-26T13:43:17.000Z</time>
      </trkpt>
      <trkpt lat="47.13635" lon="-1.74098">
        <ele>56</ele>
        <time>2021-09-26T13:43:19.000Z</time>
      </trkpt>
      <trkpt lat="47.13636" lon="-1.74113">
        <ele>56</ele>
        <time>2021-09-26T13:43:21.000Z</time>
      </trkpt>
      <trkpt lat="47.13638" lon="-1.74128">
        <ele>56</ele>
        <time>2021-09-26T13:43:23.000Z</time>
      </trkpt>
      <trkpt lat="47.1364" lon="-1.74142">
        <ele>56</ele>
        <time>2021-09-26T13:43:25.000Z</time>
      </trkpt>
      <trkpt lat="47.13643" lon="-1.74157">
        <ele>56</ele>
        <time>2021-09-26T13:43:27.000Z</time>
      </trkpt>
      <trkpt lat="47.13646" lon="-1.74172">
        <ele>56</ele>
        <time>2021-09-26T13:43:29.000Z</time>
      </trkpt>
      <trkpt lat="47.13649" lon="-1.74186">
        <ele>56</ele>
        <time>2021-09-26T13:43:31.000Z</time>
      </trkpt>
      <trkpt lat="47.13653" lon="-1.74201">
        <ele>55</ele>
        <time>2021-09-26T13:43:33.000Z</time>
      </trkpt>
      <trkpt lat="47.13656" lon="-1.74216">
        <ele>55</ele>
        <time>2021-09-26T13:43:35.000Z</time>
      </trkpt>
      <trkpt lat="47.1366" lon="-1.7423">
        <ele>55</ele>
        <time>2021-09-26T13:43:37.000Z</time>
      </trkpt>
      <trkpt lat="47.13664" lon="-1.74246">
        <ele>55</ele>
        <time>2021-09-26T13:43:39.000Z</time>
      </trkpt>
      <trkpt lat="47.13668" lon="-1.74261">
        <ele>55</ele>
        <time>2021-09-26T13:43:41.000Z</time>
      </trkpt>
      <trkpt lat="47.13674" lon="-1.74278">
        <ele>55</ele>
        <time>2021-09-26T13:43:43.000Z</time>
      </trkpt>
      <trkpt lat="47.1368" lon="-1.74294">
        <ele>55</ele>
        <time>2021-09-26T13:43:45.000Z</time>
      </trkpt>
      <trkpt lat="47.13686" lon="-1.74311">
        <ele>55</ele>
        <time>2021-09-26T13:43:47.000Z</time>
      </trkpt>
      <trkpt lat="47.1369" lon="-1.74331">
        <ele>55</ele>
        <time>2021-09-26T13:43:49.000Z</time>
      </trkpt>
      <trkpt lat="47.13691" lon="-1.74352">
        <ele>54</ele>
        <time>2021-09-26T13:43:51.000Z</time>
      </trkpt>
      <trkpt lat="47.13691" lon="-1.74373">
        <ele>52</ele>
        <time>2021-09-26T13:43:53.000Z</time>
      </trkpt>
      <trkpt lat="47.13691" lon="-1.74396">
        <ele>52</ele>
        <time>2021-09-26T13:43:55.000Z</time>
      </trkpt>
      <trkpt lat="47.13692" lon="-1.74419">
        <ele>51</ele>
        <time>2021-09-26T13:43:57.000Z</time>
      </trkpt>
      <trkpt lat="47.13691" lon="-1.74443">
        <ele>51</ele>
        <time>2021-09-26T13:43:59.000Z</time>
      </trkpt>
      <trkpt lat="47.13685" lon="-1.74463">
        <ele>50</ele>
        <time>2021-09-26T13:44:01.000Z</time>
      </trkpt>
      <trkpt lat="47.13673" lon="-1.74479">
        <ele>49</ele>
        <time>2021-09-26T13:44:03.000Z</time>
      </trkpt>
      <trkpt lat="47.13659" lon="-1.74492">
        <ele>49</ele>
        <time>2021-09-26T13:44:05.000Z</time>
      </trkpt>
      <trkpt lat="47.13647" lon="-1.74505">
        <ele>49</ele>
        <time>2021-09-26T13:44:07.000Z</time>
      </trkpt>
      <trkpt lat="47.13636" lon="-1.74516">
        <ele>50</ele>
        <time>2021-09-26T13:44:09.000Z</time>
      </trkpt>
      <trkpt lat="47.13626" lon="-1.74526">
        <ele>50</ele>
        <time>2021-09-26T13:44:11.000Z</time>
      </trkpt>
      <trkpt lat="47.13615" lon="-1.74536">
        <ele>50</ele>
        <time>2021-09-26T13:44:13.000Z</time>
      </trkpt>
      <trkpt lat="47.13605" lon="-1.74548">
        <ele>50</ele>
        <time>2021-09-26T13:44:15.000Z</time>
      </trkpt>
      <trkpt lat="47.13593" lon="-1.7456">
        <ele>50</ele>
        <time>2021-09-26T13:44:17.000Z</time>
      </trkpt>
      <trkpt lat="47.13581" lon="-1.74573">
        <ele>49</ele>
        <time>2021-09-26T13:44:19.000Z</time>
      </trkpt>
      <trkpt lat="47.13568" lon="-1.74586">
        <ele>48</ele>
        <time>2021-09-26T13:44:21.000Z</time>
      </trkpt>
      <trkpt lat="47.13555" lon="-1.74598">
        <ele>48</ele>
        <time>2021-09-26T13:44:23.000Z</time>
      </trkpt>
      <trkpt lat="47.13542" lon="-1.7461">
        <ele>48</ele>
        <time>2021-09-26T13:44:25.000Z</time>
      </trkpt>
      <trkpt lat="47.13531" lon="-1.74621">
        <ele>48</ele>
        <time>2021-09-26T13:44:27.000Z</time>
      </trkpt>
      <trkpt lat="47.1352" lon="-1.74631">
        <ele>48</ele>
        <time>2021-09-26T13:44:29.000Z</time>
      </trkpt>
      <trkpt lat="47.13509" lon="-1.74641">
        <ele>48</ele>
        <time>2021-09-26T13:44:31.000Z</time>
      </trkpt>
      <trkpt lat="47.135" lon="-1.7465">
        <ele>49</ele>
        <time>2021-09-26T13:44:33.000Z</time>
      </trkpt>
      <trkpt lat="47.13494" lon="-1.7466">
        <ele>50</ele>
        <time>2021-09-26T13:44:35.000Z</time>
      </trkpt>
      <trkpt lat="47.13488" lon="-1.74672">
        <ele>51</ele>
        <time>2021-09-26T13:44:37.000Z</time>
      </trkpt>
      <trkpt lat="47.13483" lon="-1.7469">
        <ele>51</ele>
        <time>2021-09-26T13:44:40.000Z</time>
      </trkpt>
      <trkpt lat="47.13479" lon="-1.74704">
        <ele>52</ele>
        <time>2021-09-26T13:44:42.000Z</time>
      </trkpt>
      <trkpt lat="47.13474" lon="-1.74717">
        <ele>52</ele>
        <time>2021-09-26T13:44:44.000Z</time>
      </trkpt>
      <trkpt lat="47.13468" lon="-1.74728">
        <ele>53</ele>
        <time>2021-09-26T13:44:46.000Z</time>
      </trkpt>
      <trkpt lat="47.13458" lon="-1.74741">
        <ele>53</ele>
        <time>2021-09-26T13:44:49.000Z</time>
      </trkpt>
      <trkpt lat="47.1345" lon="-1.74748">
        <ele>53</ele>
        <time>2021-09-26T13:44:51.000Z</time>
      </trkpt>
      <trkpt lat="47.13441" lon="-1.74754">
        <ele>53</ele>
        <time>2021-09-26T13:44:53.000Z</time>
      </trkpt>
      <trkpt lat="47.13431" lon="-1.7476">
        <ele>53</ele>
        <time>2021-09-26T13:44:55.000Z</time>
      </trkpt>
      <trkpt lat="47.13421" lon="-1.74766">
        <ele>54</ele>
        <time>2021-09-26T13:44:57.000Z</time>
      </trkpt>
      <trkpt lat="47.13411" lon="-1.74775">
        <ele>54</ele>
        <time>2021-09-26T13:44:59.000Z</time>
      </trkpt>
      <trkpt lat="47.13403" lon="-1.74784">
        <ele>54</ele>
        <time>2021-09-26T13:45:01.000Z</time>
      </trkpt>
      <trkpt lat="47.13395" lon="-1.74794">
        <ele>55</ele>
        <time>2021-09-26T13:45:03.000Z</time>
      </trkpt>
      <trkpt lat="47.13387" lon="-1.74803">
        <ele>55</ele>
        <time>2021-09-26T13:45:05.000Z</time>
      </trkpt>
      <trkpt lat="47.13381" lon="-1.74815">
        <ele>56</ele>
        <time>2021-09-26T13:45:07.000Z</time>
      </trkpt>
      <trkpt lat="47.13377" lon="-1.74828">
        <ele>56</ele>
        <time>2021-09-26T13:45:09.000Z</time>
      </trkpt>
      <trkpt lat="47.13374" lon="-1.74842">
        <ele>55</ele>
        <time>2021-09-26T13:45:11.000Z</time>
      </trkpt>
      <trkpt lat="47.13371" lon="-1.74857">
        <ele>56</ele>
        <time>2021-09-26T13:45:13.000Z</time>
      </trkpt>
      <trkpt lat="47.13368" lon="-1.74871">
        <ele>56</ele>
        <time>2021-09-26T13:45:15.000Z</time>
      </trkpt>
      <trkpt lat="47.13364" lon="-1.74886">
        <ele>56</ele>
        <time>2021-09-26T13:45:17.000Z</time>
      </trkpt>
      <trkpt lat="47.1336" lon="-1.74901">
        <ele>56</ele>
        <time>2021-09-26T13:45:19.000Z</time>
      </trkpt>
      <trkpt lat="47.13356" lon="-1.74915">
        <ele>57</ele>
        <time>2021-09-26T13:45:21.000Z</time>
      </trkpt>
      <trkpt lat="47.13352" lon="-1.7493">
        <ele>57</ele>
        <time>2021-09-26T13:45:23.000Z</time>
      </trkpt>
      <trkpt lat="47.13346" lon="-1.74943">
        <ele>57</ele>
        <time>2021-09-26T13:45:25.000Z</time>
      </trkpt>
      <trkpt lat="47.13339" lon="-1.74956">
        <ele>57</ele>
        <time>2021-09-26T13:45:27.000Z</time>
      </trkpt>
      <trkpt lat="47.13333" lon="-1.74968">
        <ele>57</ele>
        <time>2021-09-26T13:45:29.000Z</time>
      </trkpt>
      <trkpt lat="47.13326" lon="-1.74978">
        <ele>57</ele>
        <time>2021-09-26T13:45:31.000Z</time>
      </trkpt>
      <trkpt lat="47.1332" lon="-1.74989">
        <ele>57</ele>
        <time>2021-09-26T13:45:33.000Z</time>
      </trkpt>
      <trkpt lat="47.13312" lon="-1.74999">
        <ele>57</ele>
        <time>2021-09-26T13:45:35.000Z</time>
      </trkpt>
      <trkpt lat="47.13303" lon="-1.75007">
        <ele>58</ele>
        <time>2021-09-26T13:45:37.000Z</time>
      </trkpt>
      <trkpt lat="47.13294" lon="-1.75014">
        <ele>58</ele>
        <time>2021-09-26T13:45:39.000Z</time>
      </trkpt>
      <trkpt lat="47.13286" lon="-1.75022">
        <ele>58</ele>
        <time>2021-09-26T13:45:41.000Z</time>
      </trkpt>
      <trkpt lat="47.13277" lon="-1.75028">
        <ele>59</ele>
        <time>2021-09-26T13:45:43.000Z</time>
      </trkpt>
      <trkpt lat="47.13269" lon="-1.75034">
        <ele>59</ele>
        <time>2021-09-26T13:45:45.000Z</time>
      </trkpt>
      <trkpt lat="47.1326" lon="-1.75041">
        <ele>59</ele>
        <time>2021-09-26T13:45:47.000Z</time>
      </trkpt>
      <trkpt lat="47.13251" lon="-1.75047">
        <ele>59</ele>
        <time>2021-09-26T13:45:49.000Z</time>
      </trkpt>
      <trkpt lat="47.13243" lon="-1.75055">
        <ele>60</ele>
        <time>2021-09-26T13:45:51.000Z</time>
      </trkpt>
      <trkpt lat="47.13235" lon="-1.75063">
        <ele>60</ele>
        <time>2021-09-26T13:45:53.000Z</time>
      </trkpt>
      <trkpt lat="47.13227" lon="-1.75071">
        <ele>60</ele>
        <time>2021-09-26T13:45:55.000Z</time>
      </trkpt>
      <trkpt lat="47.13219" lon="-1.7508">
        <ele>61</ele>
        <time>2021-09-26T13:45:57.000Z</time>
      </trkpt>
      <trkpt lat="47.13211" lon="-1.7509">
        <ele>61</ele>
        <time>2021-09-26T13:45:59.000Z</time>
      </trkpt>
      <trkpt lat="47.13205" lon="-1.75101">
        <ele>62</ele>
        <time>2021-09-26T13:46:01.000Z</time>
      </trkpt>
      <trkpt lat="47.13198" lon="-1.75112">
        <ele>63</ele>
        <time>2021-09-26T13:46:03.000Z</time>
      </trkpt>
      <trkpt lat="47.13191" lon="-1.75124">
        <ele>63</ele>
        <time>2021-09-26T13:46:05.000Z</time>
      </trkpt>
      <trkpt lat="47.13184" lon="-1.75135">
        <ele>64</ele>
        <time>2021-09-26T13:46:07.000Z</time>
      </trkpt>
      <trkpt lat="47.13179" lon="-1.75147">
        <ele>64</ele>
        <time>2021-09-26T13:46:09.000Z</time>
      </trkpt>
      <trkpt lat="47.13174" lon="-1.75159">
        <ele>64</ele>
        <time>2021-09-26T13:46:11.000Z</time>
      </trkpt>
      <trkpt lat="47.13169" lon="-1.75172">
        <ele>64</ele>
        <time>2021-09-26T13:46:13.000Z</time>
      </trkpt>
      <trkpt lat="47.13164" lon="-1.75186">
        <ele>64</ele>
        <time>2021-09-26T13:46:15.000Z</time>
      </trkpt>
      <trkpt lat="47.1316" lon="-1.75199">
        <ele>64</ele>
        <time>2021-09-26T13:46:17.000Z</time>
      </trkpt>
      <trkpt lat="47.13156" lon="-1.75214">
        <ele>64</ele>
        <time>2021-09-26T13:46:19.000Z</time>
      </trkpt>
      <trkpt lat="47.13153" lon="-1.75228">
        <ele>64</ele>
        <time>2021-09-26T13:46:21.000Z</time>
      </trkpt>
      <trkpt lat="47.13151" lon="-1.75242">
        <ele>64</ele>
        <time>2021-09-26T13:46:23.000Z</time>
      </trkpt>
      <trkpt lat="47.13149" lon="-1.75257">
        <ele>64</ele>
        <time>2021-09-26T13:46:25.000Z</time>
      </trkpt>
      <trkpt lat="47.13147" lon="-1.75272">
        <ele>64</ele>
        <time>2021-09-26T13:46:27.000Z</time>
      </trkpt>
      <trkpt lat="47.13146" lon="-1.75288">
        <ele>64</ele>
        <time>2021-09-26T13:46:29.000Z</time>
      </trkpt>
      <trkpt lat="47.13143" lon="-1.75302">
        <ele>64</ele>
        <time>2021-09-26T13:46:31.000Z</time>
      </trkpt>
      <trkpt lat="47.13138" lon="-1.75316">
        <ele>64</ele>
        <time>2021-09-26T13:46:33.000Z</time>
      </trkpt>
      <trkpt lat="47.13133" lon="-1.7533">
        <ele>65</ele>
        <time>2021-09-26T13:46:35.000Z</time>
      </trkpt>
      <trkpt lat="47.13131" lon="-1.75344">
        <ele>65</ele>
        <time>2021-09-26T13:46:37.000Z</time>
      </trkpt>
      <trkpt lat="47.13127" lon="-1.75358">
        <ele>65</ele>
        <time>2021-09-26T13:46:39.000Z</time>
      </trkpt>
      <trkpt lat="47.13124" lon="-1.75371">
        <ele>65</ele>
        <time>2021-09-26T13:46:41.000Z</time>
      </trkpt>
      <trkpt lat="47.13122" lon="-1.75385">
        <ele>65</ele>
        <time>2021-09-26T13:46:43.000Z</time>
      </trkpt>
      <trkpt lat="47.13119" lon="-1.75398">
        <ele>66</ele>
        <time>2021-09-26T13:46:45.000Z</time>
      </trkpt>
      <trkpt lat="47.13115" lon="-1.7541">
        <ele>66</ele>
        <time>2021-09-26T13:46:47.000Z</time>
      </trkpt>
      <trkpt lat="47.13112" lon="-1.75429">
        <ele>66</ele>
        <time>2021-09-26T13:46:50.000Z</time>
      </trkpt>
      <trkpt lat="47.13111" lon="-1.75443">
        <ele>67</ele>
        <time>2021-09-26T13:46:52.000Z</time>
      </trkpt>
      <trkpt lat="47.13108" lon="-1.75456">
        <ele>67</ele>
        <time>2021-09-26T13:46:54.000Z</time>
      </trkpt>
      <trkpt lat="47.13105" lon="-1.75471">
        <ele>68</ele>
        <time>2021-09-26T13:46:56.000Z</time>
      </trkpt>
      <trkpt lat="47.13104" lon="-1.75485">
        <ele>68</ele>
        <time>2021-09-26T13:46:58.000Z</time>
      </trkpt>
      <trkpt lat="47.13103" lon="-1.75499">
        <ele>69</ele>
        <time>2021-09-26T13:47:00.000Z</time>
      </trkpt>
      <trkpt lat="47.13101" lon="-1.75513">
        <ele>69</ele>
        <time>2021-09-26T13:47:02.000Z</time>
      </trkpt>
      <trkpt lat="47.13098" lon="-1.75527">
        <ele>69</ele>
        <time>2021-09-26T13:47:04.000Z</time>
      </trkpt>
      <trkpt lat="47.13096" lon="-1.75541">
        <ele>70</ele>
        <time>2021-09-26T13:47:06.000Z</time>
      </trkpt>
      <trkpt lat="47.13094" lon="-1.7556">
        <ele>70</ele>
        <time>2021-09-26T13:47:09.000Z</time>
      </trkpt>
      <trkpt lat="47.13091" lon="-1.75573">
        <ele>70</ele>
        <time>2021-09-26T13:47:11.000Z</time>
      </trkpt>
      <trkpt lat="47.13089" lon="-1.75588">
        <ele>70</ele>
        <time>2021-09-26T13:47:13.000Z</time>
      </trkpt>
      <trkpt lat="47.13086" lon="-1.75602">
        <ele>71</ele>
        <time>2021-09-26T13:47:15.000Z</time>
      </trkpt>
      <trkpt lat="47.13084" lon="-1.75617">
        <ele>71</ele>
        <time>2021-09-26T13:47:17.000Z</time>
      </trkpt>
      <trkpt lat="47.13081" lon="-1.75631">
        <ele>71</ele>
        <time>2021-09-26T13:47:19.000Z</time>
      </trkpt>
      <trkpt lat="47.13079" lon="-1.75646">
        <ele>71</ele>
        <time>2021-09-26T13:47:21.000Z</time>
      </trkpt>
      <trkpt lat="47.13076" lon="-1.75661">
        <ele>71</ele>
        <time>2021-09-26T13:47:23.000Z</time>
      </trkpt>
      <trkpt lat="47.13073" lon="-1.75677">
        <ele>71</ele>
        <time>2021-09-26T13:47:25.000Z</time>
      </trkpt>
      <trkpt lat="47.13069" lon="-1.75692">
        <ele>71</ele>
        <time>2021-09-26T13:47:27.000Z</time>
      </trkpt>
      <trkpt lat="47.13066" lon="-1.75707">
        <ele>72</ele>
        <time>2021-09-26T13:47:29.000Z</time>
      </trkpt>
      <trkpt lat="47.13062" lon="-1.7572">
        <ele>72</ele>
        <time>2021-09-26T13:47:31.000Z</time>
      </trkpt>
      <trkpt lat="47.13057" lon="-1.75732">
        <ele>72</ele>
        <time>2021-09-26T13:47:33.000Z</time>
      </trkpt>
      <trkpt lat="47.13052" lon="-1.75744">
        <ele>73</ele>
        <time>2021-09-26T13:47:35.000Z</time>
      </trkpt>
      <trkpt lat="47.13045" lon="-1.75755">
        <ele>72</ele>
        <time>2021-09-26T13:47:37.000Z</time>
      </trkpt>
      <trkpt lat="47.13038" lon="-1.75767">
        <ele>73</ele>
        <time>2021-09-26T13:47:39.000Z</time>
      </trkpt>
      <trkpt lat="47.13032" lon="-1.75778">
        <ele>74</ele>
        <time>2021-09-26T13:47:41.000Z</time>
      </trkpt>
      <trkpt lat="47.13025" lon="-1.75789">
        <ele>74</ele>
        <time>2021-09-26T13:47:43.000Z</time>
      </trkpt>
      <trkpt lat="47.13017" lon="-1.75799">
        <ele>74</ele>
        <time>2021-09-26T13:47:45.000Z</time>
      </trkpt>
      <trkpt lat="47.13011" lon="-1.7581">
        <ele>74</ele>
        <time>2021-09-26T13:47:47.000Z</time>
      </trkpt>
      <trkpt lat="47.13006" lon="-1.75823">
        <ele>74</ele>
        <time>2021-09-26T13:47:49.000Z</time>
      </trkpt>
      <trkpt lat="47.13005" lon="-1.75838">
        <ele>74</ele>
        <time>2021-09-26T13:47:51.000Z</time>
      </trkpt>
      <trkpt lat="47.13006" lon="-1.75854">
        <ele>74</ele>
        <time>2021-09-26T13:47:53.000Z</time>
      </trkpt>
      <trkpt lat="47.13007" lon="-1.75869">
        <ele>74</ele>
        <time>2021-09-26T13:47:55.000Z</time>
      </trkpt>
      <trkpt lat="47.13006" lon="-1.75884">
        <ele>73</ele>
        <time>2021-09-26T13:47:57.000Z</time>
      </trkpt>
      <trkpt lat="47.13004" lon="-1.75899">
        <ele>73</ele>
        <time>2021-09-26T13:47:59.000Z</time>
      </trkpt>
      <trkpt lat="47.13" lon="-1.75913">
        <ele>73</ele>
        <time>2021-09-26T13:48:01.000Z</time>
      </trkpt>
      <trkpt lat="47.12996" lon="-1.75927">
        <ele>73</ele>
        <time>2021-09-26T13:48:03.000Z</time>
      </trkpt>
      <trkpt lat="47.12993" lon="-1.75941">
        <ele>73</ele>
        <time>2021-09-26T13:48:05.000Z</time>
      </trkpt>
      <trkpt lat="47.12991" lon="-1.75956">
        <ele>73</ele>
        <time>2021-09-26T13:48:07.000Z</time>
      </trkpt>
      <trkpt lat="47.12989" lon="-1.75971">
        <ele>73</ele>
        <time>2021-09-26T13:48:09.000Z</time>
      </trkpt>
      <trkpt lat="47.12986" lon="-1.75987">
        <ele>73</ele>
        <time>2021-09-26T13:48:11.000Z</time>
      </trkpt>
      <trkpt lat="47.12984" lon="-1.76002">
        <ele>74</ele>
        <time>2021-09-26T13:48:13.000Z</time>
      </trkpt>
      <trkpt lat="47.12983" lon="-1.76017">
        <ele>74</ele>
        <time>2021-09-26T13:48:15.000Z</time>
      </trkpt>
      <trkpt lat="47.12982" lon="-1.76032">
        <ele>74</ele>
        <time>2021-09-26T13:48:17.000Z</time>
      </trkpt>
      <trkpt lat="47.12981" lon="-1.76047">
        <ele>74</ele>
        <time>2021-09-26T13:48:19.000Z</time>
      </trkpt>
      <trkpt lat="47.1298" lon="-1.76063">
        <ele>74</ele>
        <time>2021-09-26T13:48:21.000Z</time>
      </trkpt>
      <trkpt lat="47.1298" lon="-1.76078">
        <ele>74</ele>
        <time>2021-09-26T13:48:23.000Z</time>
      </trkpt>
      <trkpt lat="47.12982" lon="-1.76094">
        <ele>73</ele>
        <time>2021-09-26T13:48:25.000Z</time>
      </trkpt>
      <trkpt lat="47.12983" lon="-1.76109">
        <ele>74</ele>
        <time>2021-09-26T13:48:27.000Z</time>
      </trkpt>
      <trkpt lat="47.12985" lon="-1.76123">
        <ele>74</ele>
        <time>2021-09-26T13:48:29.000Z</time>
      </trkpt>
      <trkpt lat="47.12988" lon="-1.76136">
        <ele>74</ele>
        <time>2021-09-26T13:48:31.000Z</time>
      </trkpt>
      <trkpt lat="47.12992" lon="-1.76151">
        <ele>74</ele>
        <time>2021-09-26T13:48:33.000Z</time>
      </trkpt>
      <trkpt lat="47.12996" lon="-1.76165">
        <ele>74</ele>
        <time>2021-09-26T13:48:35.000Z</time>
      </trkpt>
      <trkpt lat="47.13" lon="-1.76179">
        <ele>73</ele>
        <time>2021-09-26T13:48:37.000Z</time>
      </trkpt>
      <trkpt lat="47.13004" lon="-1.76193">
        <ele>73</ele>
        <time>2021-09-26T13:48:39.000Z</time>
      </trkpt>
      <trkpt lat="47.13009" lon="-1.76208">
        <ele>73</ele>
        <time>2021-09-26T13:48:41.000Z</time>
      </trkpt>
      <trkpt lat="47.13012" lon="-1.76223">
        <ele>74</ele>
        <time>2021-09-26T13:48:43.000Z</time>
      </trkpt>
      <trkpt lat="47.13016" lon="-1.76238">
        <ele>74</ele>
        <time>2021-09-26T13:48:45.000Z</time>
      </trkpt>
      <trkpt lat="47.13019" lon="-1.76254">
        <ele>74</ele>
        <time>2021-09-26T13:48:47.000Z</time>
      </trkpt>
      <trkpt lat="47.13023" lon="-1.76269">
        <ele>75</ele>
        <time>2021-09-26T13:48:49.000Z</time>
      </trkpt>
      <trkpt lat="47.13025" lon="-1.76284">
        <ele>75</ele>
        <time>2021-09-26T13:48:51.000Z</time>
      </trkpt>
      <trkpt lat="47.13029" lon="-1.76299">
        <ele>75</ele>
        <time>2021-09-26T13:48:53.000Z</time>
      </trkpt>
      <trkpt lat="47.13032" lon="-1.76314">
        <ele>75</ele>
        <time>2021-09-26T13:48:55.000Z</time>
      </trkpt>
      <trkpt lat="47.13035" lon="-1.76329">
        <ele>75</ele>
        <time>2021-09-26T13:48:57.000Z</time>
      </trkpt>
      <trkpt lat="47.13038" lon="-1.76344">
        <ele>75</ele>
        <time>2021-09-26T13:48:59.000Z</time>
      </trkpt>
      <trkpt lat="47.13042" lon="-1.7636">
        <ele>75</ele>
        <time>2021-09-26T13:49:01.000Z</time>
      </trkpt>
      <trkpt lat="47.13045" lon="-1.76375">
        <ele>75</ele>
        <time>2021-09-26T13:49:03.000Z</time>
      </trkpt>
      <trkpt lat="47.13047" lon="-1.76391">
        <ele>75</ele>
        <time>2021-09-26T13:49:05.000Z</time>
      </trkpt>
      <trkpt lat="47.13049" lon="-1.76407">
        <ele>75</ele>
        <time>2021-09-26T13:49:07.000Z</time>
      </trkpt>
      <trkpt lat="47.1305" lon="-1.76422">
        <ele>75</ele>
        <time>2021-09-26T13:49:09.000Z</time>
      </trkpt>
      <trkpt lat="47.1305" lon="-1.76436">
        <ele>74</ele>
        <time>2021-09-26T13:49:11.000Z</time>
      </trkpt>
      <trkpt lat="47.13051" lon="-1.76452">
        <ele>74</ele>
        <time>2021-09-26T13:49:13.000Z</time>
      </trkpt>
      <trkpt lat="47.13052" lon="-1.76469">
        <ele>74</ele>
        <time>2021-09-26T13:49:15.000Z</time>
      </trkpt>
      <trkpt lat="47.13053" lon="-1.76484">
        <ele>74</ele>
        <time>2021-09-26T13:49:17.000Z</time>
      </trkpt>
      <trkpt lat="47.13053" lon="-1.765">
        <ele>74</ele>
        <time>2021-09-26T13:49:19.000Z</time>
      </trkpt>
      <trkpt lat="47.13054" lon="-1.76516">
        <ele>73</ele>
        <time>2021-09-26T13:49:21.000Z</time>
      </trkpt>
      <trkpt lat="47.13054" lon="-1.76533">
        <ele>73</ele>
        <time>2021-09-26T13:49:23.000Z</time>
      </trkpt>
      <trkpt lat="47.13055" lon="-1.7655">
        <ele>73</ele>
        <time>2021-09-26T13:49:25.000Z</time>
      </trkpt>
      <trkpt lat="47.13057" lon="-1.76567">
        <ele>73</ele>
        <time>2021-09-26T13:49:27.000Z</time>
      </trkpt>
      <trkpt lat="47.13058" lon="-1.76583">
        <ele>73</ele>
        <time>2021-09-26T13:49:29.000Z</time>
      </trkpt>
      <trkpt lat="47.13058" lon="-1.76599">
        <ele>72</ele>
        <time>2021-09-26T13:49:31.000Z</time>
      </trkpt>
      <trkpt lat="47.1306" lon="-1.76615">
        <ele>73</ele>
        <time>2021-09-26T13:49:33.000Z</time>
      </trkpt>
      <trkpt lat="47.13061" lon="-1.76631">
        <ele>73</ele>
        <time>2021-09-26T13:49:35.000Z</time>
      </trkpt>
      <trkpt lat="47.13064" lon="-1.76647">
        <ele>72</ele>
        <time>2021-09-26T13:49:37.000Z</time>
      </trkpt>
      <trkpt lat="47.13066" lon="-1.76663">
        <ele>72</ele>
        <time>2021-09-26T13:49:39.000Z</time>
      </trkpt>
      <trkpt lat="47.13067" lon="-1.76679">
        <ele>73</ele>
        <time>2021-09-26T13:49:41.000Z</time>
      </trkpt>
      <trkpt lat="47.13066" lon="-1.76695">
        <ele>73</ele>
        <time>2021-09-26T13:49:43.000Z</time>
      </trkpt>
      <trkpt lat="47.13064" lon="-1.76711">
        <ele>73</ele>
        <time>2021-09-26T13:49:45.000Z</time>
      </trkpt>
      <trkpt lat="47.13061" lon="-1.76726">
        <ele>73</ele>
        <time>2021-09-26T13:49:47.000Z</time>
      </trkpt>
      <trkpt lat="47.13059" lon="-1.76741">
        <ele>73</ele>
        <time>2021-09-26T13:49:49.000Z</time>
      </trkpt>
      <trkpt lat="47.13057" lon="-1.76757">
        <ele>73</ele>
        <time>2021-09-26T13:49:51.000Z</time>
      </trkpt>
      <trkpt lat="47.13055" lon="-1.76773">
        <ele>73</ele>
        <time>2021-09-26T13:49:53.000Z</time>
      </trkpt>
      <trkpt lat="47.13053" lon="-1.7679">
        <ele>73</ele>
        <time>2021-09-26T13:49:55.000Z</time>
      </trkpt>
      <trkpt lat="47.13051" lon="-1.76806">
        <ele>74</ele>
        <time>2021-09-26T13:49:57.000Z</time>
      </trkpt>
      <trkpt lat="47.13049" lon="-1.76822">
        <ele>74</ele>
        <time>2021-09-26T13:49:59.000Z</time>
      </trkpt>
      <trkpt lat="47.13048" lon="-1.76838">
        <ele>74</ele>
        <time>2021-09-26T13:50:01.000Z</time>
      </trkpt>
      <trkpt lat="47.13046" lon="-1.76855">
        <ele>75</ele>
        <time>2021-09-26T13:50:03.000Z</time>
      </trkpt>
      <trkpt lat="47.13044" lon="-1.76871">
        <ele>74</ele>
        <time>2021-09-26T13:50:05.000Z</time>
      </trkpt>
      <trkpt lat="47.13042" lon="-1.76887">
        <ele>74</ele>
        <time>2021-09-26T13:50:07.000Z</time>
      </trkpt>
      <trkpt lat="47.1304" lon="-1.76903">
        <ele>74</ele>
        <time>2021-09-26T13:50:09.000Z</time>
      </trkpt>
      <trkpt lat="47.13039" lon="-1.7692">
        <ele>75</ele>
        <time>2021-09-26T13:50:11.000Z</time>
      </trkpt>
      <trkpt lat="47.13038" lon="-1.76936">
        <ele>75</ele>
        <time>2021-09-26T13:50:13.000Z</time>
      </trkpt>
      <trkpt lat="47.13038" lon="-1.76952">
        <ele>75</ele>
        <time>2021-09-26T13:50:15.000Z</time>
      </trkpt>
      <trkpt lat="47.13036" lon="-1.76968">
        <ele>75</ele>
        <time>2021-09-26T13:50:17.000Z</time>
      </trkpt>
      <trkpt lat="47.13035" lon="-1.76984">
        <ele>75</ele>
        <time>2021-09-26T13:50:19.000Z</time>
      </trkpt>
      <trkpt lat="47.13034" lon="-1.77">
        <ele>75</ele>
        <time>2021-09-26T13:50:21.000Z</time>
      </trkpt>
      <trkpt lat="47.13033" lon="-1.77016">
        <ele>76</ele>
        <time>2021-09-26T13:50:23.000Z</time>
      </trkpt>
      <trkpt lat="47.13032" lon="-1.77031">
        <ele>76</ele>
        <time>2021-09-26T13:50:25.000Z</time>
      </trkpt>
      <trkpt lat="47.13031" lon="-1.77047">
        <ele>75</ele>
        <time>2021-09-26T13:50:27.000Z</time>
      </trkpt>
      <trkpt lat="47.13029" lon="-1.77064">
        <ele>75</ele>
        <time>2021-09-26T13:50:29.000Z</time>
      </trkpt>
      <trkpt lat="47.13027" lon="-1.77079">
        <ele>75</ele>
        <time>2021-09-26T13:50:31.000Z</time>
      </trkpt>
      <trkpt lat="47.13025" lon="-1.77094">
        <ele>75</ele>
        <time>2021-09-26T13:50:33.000Z</time>
      </trkpt>
      <trkpt lat="47.13024" lon="-1.77109">
        <ele>75</ele>
        <time>2021-09-26T13:50:35.000Z</time>
      </trkpt>
      <trkpt lat="47.13021" lon="-1.77124">
        <ele>75</ele>
        <time>2021-09-26T13:50:37.000Z</time>
      </trkpt>
      <trkpt lat="47.1302" lon="-1.7714">
        <ele>75</ele>
        <time>2021-09-26T13:50:39.000Z</time>
      </trkpt>
      <trkpt lat="47.13017" lon="-1.77154">
        <ele>75</ele>
        <time>2021-09-26T13:50:41.000Z</time>
      </trkpt>
      <trkpt lat="47.13014" lon="-1.77168">
        <ele>75</ele>
        <time>2021-09-26T13:50:43.000Z</time>
      </trkpt>
      <trkpt lat="47.13011" lon="-1.77183">
        <ele>75</ele>
        <time>2021-09-26T13:50:45.000Z</time>
      </trkpt>
      <trkpt lat="47.13007" lon="-1.77197">
        <ele>75</ele>
        <time>2021-09-26T13:50:47.000Z</time>
      </trkpt>
      <trkpt lat="47.13003" lon="-1.77212">
        <ele>75</ele>
        <time>2021-09-26T13:50:49.000Z</time>
      </trkpt>
      <trkpt lat="47.13" lon="-1.77227">
        <ele>75</ele>
        <time>2021-09-26T13:50:51.000Z</time>
      </trkpt>
      <trkpt lat="47.12996" lon="-1.77242">
        <ele>76</ele>
        <time>2021-09-26T13:50:53.000Z</time>
      </trkpt>
      <trkpt lat="47.12992" lon="-1.77256">
        <ele>76</ele>
        <time>2021-09-26T13:50:55.000Z</time>
      </trkpt>
      <trkpt lat="47.12989" lon="-1.77271">
        <ele>76</ele>
        <time>2021-09-26T13:50:57.000Z</time>
      </trkpt>
      <trkpt lat="47.12985" lon="-1.77286">
        <ele>75</ele>
        <time>2021-09-26T13:50:59.000Z</time>
      </trkpt>
      <trkpt lat="47.12979" lon="-1.77301">
        <ele>76</ele>
        <time>2021-09-26T13:51:01.000Z</time>
      </trkpt>
      <trkpt lat="47.12974" lon="-1.77316">
        <ele>76</ele>
        <time>2021-09-26T13:51:03.000Z</time>
      </trkpt>
      <trkpt lat="47.12969" lon="-1.7733">
        <ele>76</ele>
        <time>2021-09-26T13:51:05.000Z</time>
      </trkpt>
      <trkpt lat="47.12964" lon="-1.77345">
        <ele>76</ele>
        <time>2021-09-26T13:51:07.000Z</time>
      </trkpt>
      <trkpt lat="47.12959" lon="-1.77359">
        <ele>76</ele>
        <time>2021-09-26T13:51:09.000Z</time>
      </trkpt>
      <trkpt lat="47.12953" lon="-1.77373">
        <ele>76</ele>
        <time>2021-09-26T13:51:11.000Z</time>
      </trkpt>
      <trkpt lat="47.12947" lon="-1.77387">
        <ele>77</ele>
        <time>2021-09-26T13:51:13.000Z</time>
      </trkpt>
      <trkpt lat="47.12942" lon="-1.77401">
        <ele>76</ele>
        <time>2021-09-26T13:51:15.000Z</time>
      </trkpt>
      <trkpt lat="47.12936" lon="-1.77415">
        <ele>77</ele>
        <time>2021-09-26T13:51:17.000Z</time>
      </trkpt>
      <trkpt lat="47.12931" lon="-1.77429">
        <ele>77</ele>
        <time>2021-09-26T13:51:19.000Z</time>
      </trkpt>
      <trkpt lat="47.12926" lon="-1.77444">
        <ele>77</ele>
        <time>2021-09-26T13:51:21.000Z</time>
      </trkpt>
      <trkpt lat="47.12921" lon="-1.77459">
        <ele>77</ele>
        <time>2021-09-26T13:51:23.000Z</time>
      </trkpt>
      <trkpt lat="47.12916" lon="-1.77475">
        <ele>78</ele>
        <time>2021-09-26T13:51:25.000Z</time>
      </trkpt>
      <trkpt lat="47.12913" lon="-1.7749">
        <ele>78</ele>
        <time>2021-09-26T13:51:27.000Z</time>
      </trkpt>
      <trkpt lat="47.12908" lon="-1.77505">
        <ele>78</ele>
        <time>2021-09-26T13:51:29.000Z</time>
      </trkpt>
      <trkpt lat="47.12903" lon="-1.77521">
        <ele>78</ele>
        <time>2021-09-26T13:51:31.000Z</time>
      </trkpt>
      <trkpt lat="47.12899" lon="-1.77536">
        <ele>78</ele>
        <time>2021-09-26T13:51:33.000Z</time>
      </trkpt>
      <trkpt lat="47.12894" lon="-1.77551">
        <ele>78</ele>
        <time>2021-09-26T13:51:35.000Z</time>
      </trkpt>
      <trkpt lat="47.1289" lon="-1.77567">
        <ele>78</ele>
        <time>2021-09-26T13:51:37.000Z</time>
      </trkpt>
      <trkpt lat="47.12886" lon="-1.77583">
        <ele>77</ele>
        <time>2021-09-26T13:51:39.000Z</time>
      </trkpt>
      <trkpt lat="47.12883" lon="-1.77599">
        <ele>77</ele>
        <time>2021-09-26T13:51:41.000Z</time>
      </trkpt>
      <trkpt lat="47.1288" lon="-1.77615">
        <ele>77</ele>
        <time>2021-09-26T13:51:43.000Z</time>
      </trkpt>
      <trkpt lat="47.12876" lon="-1.77631">
        <ele>77</ele>
        <time>2021-09-26T13:51:45.000Z</time>
      </trkpt>
      <trkpt lat="47.12872" lon="-1.77646">
        <ele>77</ele>
        <time>2021-09-26T13:51:47.000Z</time>
      </trkpt>
      <trkpt lat="47.12868" lon="-1.77662">
        <ele>77</ele>
        <time>2021-09-26T13:51:49.000Z</time>
      </trkpt>
      <trkpt lat="47.12862" lon="-1.77684">
        <ele>77</ele>
        <time>2021-09-26T13:51:52.000Z</time>
      </trkpt>
      <trkpt lat="47.12859" lon="-1.77699">
        <ele>77</ele>
        <time>2021-09-26T13:51:54.000Z</time>
      </trkpt>
      <trkpt lat="47.12855" lon="-1.77714">
        <ele>77</ele>
        <time>2021-09-26T13:51:56.000Z</time>
      </trkpt>
      <trkpt lat="47.12852" lon="-1.77729">
        <ele>77</ele>
        <time>2021-09-26T13:51:58.000Z</time>
      </trkpt>
      <trkpt lat="47.12845" lon="-1.77752">
        <ele>77</ele>
        <time>2021-09-26T13:52:01.000Z</time>
      </trkpt>
      <trkpt lat="47.1284" lon="-1.77767">
        <ele>77</ele>
        <time>2021-09-26T13:52:03.000Z</time>
      </trkpt>
      <trkpt lat="47.12832" lon="-1.77789">
        <ele>76</ele>
        <time>2021-09-26T13:52:06.000Z</time>
      </trkpt>
      <trkpt lat="47.12826" lon="-1.77802">
        <ele>77</ele>
        <time>2021-09-26T13:52:08.000Z</time>
      </trkpt>
      <trkpt lat="47.12821" lon="-1.77817">
        <ele>77</ele>
        <time>2021-09-26T13:52:10.000Z</time>
      </trkpt>
      <trkpt lat="47.12815" lon="-1.77832">
        <ele>77</ele>
        <time>2021-09-26T13:52:12.000Z</time>
      </trkpt>
      <trkpt lat="47.1281" lon="-1.77846">
        <ele>77</ele>
        <time>2021-09-26T13:52:14.000Z</time>
      </trkpt>
      <trkpt lat="47.12805" lon="-1.7786">
        <ele>78</ele>
        <time>2021-09-26T13:52:16.000Z</time>
      </trkpt>
      <trkpt lat="47.128" lon="-1.77875">
        <ele>78</ele>
        <time>2021-09-26T13:52:18.000Z</time>
      </trkpt>
      <trkpt lat="47.12795" lon="-1.7789">
        <ele>78</ele>
        <time>2021-09-26T13:52:20.000Z</time>
      </trkpt>
      <trkpt lat="47.1279" lon="-1.77905">
        <ele>78</ele>
        <time>2021-09-26T13:52:22.000Z</time>
      </trkpt>
      <trkpt lat="47.12786" lon="-1.77921">
        <ele>78</ele>
        <time>2021-09-26T13:52:24.000Z</time>
      </trkpt>
      <trkpt lat="47.12781" lon="-1.77935">
        <ele>79</ele>
        <time>2021-09-26T13:52:26.000Z</time>
      </trkpt>
      <trkpt lat="47.12777" lon="-1.7795">
        <ele>79</ele>
        <time>2021-09-26T13:52:28.000Z</time>
      </trkpt>
      <trkpt lat="47.12773" lon="-1.77966">
        <ele>79</ele>
        <time>2021-09-26T13:52:30.000Z</time>
      </trkpt>
      <trkpt lat="47.12769" lon="-1.77982">
        <ele>79</ele>
        <time>2021-09-26T13:52:32.000Z</time>
      </trkpt>
      <trkpt lat="47.12764" lon="-1.77997">
        <ele>79</ele>
        <time>2021-09-26T13:52:34.000Z</time>
      </trkpt>
      <trkpt lat="47.1276" lon="-1.78011">
        <ele>78</ele>
        <time>2021-09-26T13:52:36.000Z</time>
      </trkpt>
      <trkpt lat="47.12754" lon="-1.78026">
        <ele>78</ele>
        <time>2021-09-26T13:52:38.000Z</time>
      </trkpt>
      <trkpt lat="47.1275" lon="-1.78041">
        <ele>78</ele>
        <time>2021-09-26T13:52:40.000Z</time>
      </trkpt>
      <trkpt lat="47.12743" lon="-1.78055">
        <ele>78</ele>
        <time>2021-09-26T13:52:42.000Z</time>
      </trkpt>
      <trkpt lat="47.12735" lon="-1.78067">
        <ele>79</ele>
        <time>2021-09-26T13:52:44.000Z</time>
      </trkpt>
      <trkpt lat="47.12727" lon="-1.7808">
        <ele>79</ele>
        <time>2021-09-26T13:52:46.000Z</time>
      </trkpt>
      <trkpt lat="47.12718" lon="-1.78091">
        <ele>79</ele>
        <time>2021-09-26T13:52:48.000Z</time>
      </trkpt>
      <trkpt lat="47.1271" lon="-1.78103">
        <ele>79</ele>
        <time>2021-09-26T13:52:50.000Z</time>
      </trkpt>
      <trkpt lat="47.12702" lon="-1.78115">
        <ele>79</ele>
        <time>2021-09-26T13:52:52.000Z</time>
      </trkpt>
      <trkpt lat="47.12693" lon="-1.78127">
        <ele>79</ele>
        <time>2021-09-26T13:52:54.000Z</time>
      </trkpt>
      <trkpt lat="47.12685" lon="-1.78139">
        <ele>78</ele>
        <time>2021-09-26T13:52:56.000Z</time>
      </trkpt>
      <trkpt lat="47.12676" lon="-1.7815">
        <ele>78</ele>
        <time>2021-09-26T13:52:58.000Z</time>
      </trkpt>
      <trkpt lat="47.12668" lon="-1.78163">
        <ele>78</ele>
        <time>2021-09-26T13:53:00.000Z</time>
      </trkpt>
      <trkpt lat="47.12659" lon="-1.78174">
        <ele>77</ele>
        <time>2021-09-26T13:53:02.000Z</time>
      </trkpt>
      <trkpt lat="47.12651" lon="-1.78186">
        <ele>77</ele>
        <time>2021-09-26T13:53:04.000Z</time>
      </trkpt>
      <trkpt lat="47.12643" lon="-1.78198">
        <ele>77</ele>
        <time>2021-09-26T13:53:06.000Z</time>
      </trkpt>
      <trkpt lat="47.12635" lon="-1.7821">
        <ele>77</ele>
        <time>2021-09-26T13:53:08.000Z</time>
      </trkpt>
      <trkpt lat="47.12627" lon="-1.78224">
        <ele>77</ele>
        <time>2021-09-26T13:53:10.000Z</time>
      </trkpt>
      <trkpt lat="47.12622" lon="-1.78239">
        <ele>77</ele>
        <time>2021-09-26T13:53:12.000Z</time>
      </trkpt>
      <trkpt lat="47.12618" lon="-1.78255">
        <ele>77</ele>
        <time>2021-09-26T13:53:14.000Z</time>
      </trkpt>
      <trkpt lat="47.12614" lon="-1.78271">
        <ele>77</ele>
        <time>2021-09-26T13:53:16.000Z</time>
      </trkpt>
      <trkpt lat="47.1261" lon="-1.78287">
        <ele>77</ele>
        <time>2021-09-26T13:53:18.000Z</time>
      </trkpt>
      <trkpt lat="47.12607" lon="-1.78303">
        <ele>77</ele>
        <time>2021-09-26T13:53:20.000Z</time>
      </trkpt>
      <trkpt lat="47.12603" lon="-1.7832">
        <ele>77</ele>
        <time>2021-09-26T13:53:22.000Z</time>
      </trkpt>
      <trkpt lat="47.12599" lon="-1.78336">
        <ele>76</ele>
        <time>2021-09-26T13:53:24.000Z</time>
      </trkpt>
      <trkpt lat="47.12595" lon="-1.78352">
        <ele>76</ele>
        <time>2021-09-26T13:53:26.000Z</time>
      </trkpt>
      <trkpt lat="47.12591" lon="-1.78368">
        <ele>76</ele>
        <time>2021-09-26T13:53:28.000Z</time>
      </trkpt>
      <trkpt lat="47.12587" lon="-1.78385">
        <ele>76</ele>
        <time>2021-09-26T13:53:30.000Z</time>
      </trkpt>
      <trkpt lat="47.12583" lon="-1.78401">
        <ele>76</ele>
        <time>2021-09-26T13:53:32.000Z</time>
      </trkpt>
      <trkpt lat="47.1258" lon="-1.78418">
        <ele>76</ele>
        <time>2021-09-26T13:53:34.000Z</time>
      </trkpt>
      <trkpt lat="47.12576" lon="-1.78434">
        <ele>76</ele>
        <time>2021-09-26T13:53:36.000Z</time>
      </trkpt>
      <trkpt lat="47.12572" lon="-1.78451">
        <ele>76</ele>
        <time>2021-09-26T13:53:38.000Z</time>
      </trkpt>
      <trkpt lat="47.12568" lon="-1.78468">
        <ele>75</ele>
        <time>2021-09-26T13:53:40.000Z</time>
      </trkpt>
      <trkpt lat="47.12564" lon="-1.78484">
        <ele>74</ele>
        <time>2021-09-26T13:53:42.000Z</time>
      </trkpt>
      <trkpt lat="47.12559" lon="-1.78502">
        <ele>74</ele>
        <time>2021-09-26T13:53:44.000Z</time>
      </trkpt>
      <trkpt lat="47.12555" lon="-1.78518">
        <ele>74</ele>
        <time>2021-09-26T13:53:46.000Z</time>
      </trkpt>
      <trkpt lat="47.12551" lon="-1.78535">
        <ele>74</ele>
        <time>2021-09-26T13:53:48.000Z</time>
      </trkpt>
      <trkpt lat="47.12547" lon="-1.78551">
        <ele>73</ele>
        <time>2021-09-26T13:53:50.000Z</time>
      </trkpt>
      <trkpt lat="47.12544" lon="-1.78567">
        <ele>73</ele>
        <time>2021-09-26T13:53:52.000Z</time>
      </trkpt>
      <trkpt lat="47.1254" lon="-1.78584">
        <ele>73</ele>
        <time>2021-09-26T13:53:54.000Z</time>
      </trkpt>
      <trkpt lat="47.12536" lon="-1.78601">
        <ele>73</ele>
        <time>2021-09-26T13:53:56.000Z</time>
      </trkpt>
      <trkpt lat="47.12531" lon="-1.78617">
        <ele>73</ele>
        <time>2021-09-26T13:53:58.000Z</time>
      </trkpt>
      <trkpt lat="47.12526" lon="-1.78633">
        <ele>73</ele>
        <time>2021-09-26T13:54:00.000Z</time>
      </trkpt>
      <trkpt lat="47.12521" lon="-1.78648">
        <ele>73</ele>
        <time>2021-09-26T13:54:02.000Z</time>
      </trkpt>
      <trkpt lat="47.12515" lon="-1.78663">
        <ele>73</ele>
        <time>2021-09-26T13:54:04.000Z</time>
      </trkpt>
      <trkpt lat="47.1251" lon="-1.78679">
        <ele>73</ele>
        <time>2021-09-26T13:54:06.000Z</time>
      </trkpt>
      <trkpt lat="47.12504" lon="-1.78694">
        <ele>73</ele>
        <time>2021-09-26T13:54:08.000Z</time>
      </trkpt>
      <trkpt lat="47.12499" lon="-1.7871">
        <ele>73</ele>
        <time>2021-09-26T13:54:10.000Z</time>
      </trkpt>
      <trkpt lat="47.12494" lon="-1.78725">
        <ele>73</ele>
        <time>2021-09-26T13:54:12.000Z</time>
      </trkpt>
      <trkpt lat="47.12491" lon="-1.78742">
        <ele>73</ele>
        <time>2021-09-26T13:54:14.000Z</time>
      </trkpt>
      <trkpt lat="47.12487" lon="-1.78758">
        <ele>73</ele>
        <time>2021-09-26T13:54:16.000Z</time>
      </trkpt>
      <trkpt lat="47.12483" lon="-1.78775">
        <ele>73</ele>
        <time>2021-09-26T13:54:18.000Z</time>
      </trkpt>
      <trkpt lat="47.12479" lon="-1.78791">
        <ele>73</ele>
        <time>2021-09-26T13:54:20.000Z</time>
      </trkpt>
      <trkpt lat="47.12475" lon="-1.78807">
        <ele>73</ele>
        <time>2021-09-26T13:54:22.000Z</time>
      </trkpt>
      <trkpt lat="47.12472" lon="-1.78824">
        <ele>72</ele>
        <time>2021-09-26T13:54:24.000Z</time>
      </trkpt>
      <trkpt lat="47.12469" lon="-1.78841">
        <ele>72</ele>
        <time>2021-09-26T13:54:26.000Z</time>
      </trkpt>
      <trkpt lat="47.12467" lon="-1.78858">
        <ele>72</ele>
        <time>2021-09-26T13:54:28.000Z</time>
      </trkpt>
      <trkpt lat="47.12466" lon="-1.78876">
        <ele>72</ele>
        <time>2021-09-26T13:54:30.000Z</time>
      </trkpt>
      <trkpt lat="47.12464" lon="-1.78893">
        <ele>72</ele>
        <time>2021-09-26T13:54:32.000Z</time>
      </trkpt>
      <trkpt lat="47.12463" lon="-1.7891">
        <ele>72</ele>
        <time>2021-09-26T13:54:34.000Z</time>
      </trkpt>
      <trkpt lat="47.1246" lon="-1.78926">
        <ele>72</ele>
        <time>2021-09-26T13:54:36.000Z</time>
      </trkpt>
      <trkpt lat="47.12457" lon="-1.78943">
        <ele>73</ele>
        <time>2021-09-26T13:54:38.000Z</time>
      </trkpt>
      <trkpt lat="47.12452" lon="-1.7896">
        <ele>73</ele>
        <time>2021-09-26T13:54:40.000Z</time>
      </trkpt>
      <trkpt lat="47.12448" lon="-1.78976">
        <ele>73</ele>
        <time>2021-09-26T13:54:42.000Z</time>
      </trkpt>
      <trkpt lat="47.12444" lon="-1.78992">
        <ele>72</ele>
        <time>2021-09-26T13:54:44.000Z</time>
      </trkpt>
      <trkpt lat="47.1244" lon="-1.79008">
        <ele>72</ele>
        <time>2021-09-26T13:54:46.000Z</time>
      </trkpt>
      <trkpt lat="47.12436" lon="-1.79024">
        <ele>72</ele>
        <time>2021-09-26T13:54:48.000Z</time>
      </trkpt>
      <trkpt lat="47.12432" lon="-1.7904">
        <ele>72</ele>
        <time>2021-09-26T13:54:50.000Z</time>
      </trkpt>
      <trkpt lat="47.12428" lon="-1.79055">
        <ele>72</ele>
        <time>2021-09-26T13:54:52.000Z</time>
      </trkpt>
      <trkpt lat="47.12425" lon="-1.7907">
        <ele>72</ele>
        <time>2021-09-26T13:54:54.000Z</time>
      </trkpt>
      <trkpt lat="47.12422" lon="-1.79085">
        <ele>72</ele>
        <time>2021-09-26T13:54:56.000Z</time>
      </trkpt>
      <trkpt lat="47.12419" lon="-1.791">
        <ele>72</ele>
        <time>2021-09-26T13:54:58.000Z</time>
      </trkpt>
      <trkpt lat="47.12417" lon="-1.79116">
        <ele>72</ele>
        <time>2021-09-26T13:55:00.000Z</time>
      </trkpt>
      <trkpt lat="47.12415" lon="-1.79131">
        <ele>72</ele>
        <time>2021-09-26T13:55:02.000Z</time>
      </trkpt>
      <trkpt lat="47.12414" lon="-1.79148">
        <ele>72</ele>
        <time>2021-09-26T13:55:04.000Z</time>
      </trkpt>
      <trkpt lat="47.12415" lon="-1.79164">
        <ele>72</ele>
        <time>2021-09-26T13:55:06.000Z</time>
      </trkpt>
      <trkpt lat="47.12417" lon="-1.7918">
        <ele>72</ele>
        <time>2021-09-26T13:55:08.000Z</time>
      </trkpt>
      <trkpt lat="47.12418" lon="-1.79196">
        <ele>72</ele>
        <time>2021-09-26T13:55:10.000Z</time>
      </trkpt>
      <trkpt lat="47.1242" lon="-1.79212">
        <ele>72</ele>
        <time>2021-09-26T13:55:12.000Z</time>
      </trkpt>
      <trkpt lat="47.12421" lon="-1.79229">
        <ele>72</ele>
        <time>2021-09-26T13:55:14.000Z</time>
      </trkpt>
      <trkpt lat="47.12421" lon="-1.79246">
        <ele>72</ele>
        <time>2021-09-26T13:55:16.000Z</time>
      </trkpt>
      <trkpt lat="47.12419" lon="-1.79262">
        <ele>72</ele>
        <time>2021-09-26T13:55:18.000Z</time>
      </trkpt>
      <trkpt lat="47.12415" lon="-1.79277">
        <ele>71</ele>
        <time>2021-09-26T13:55:20.000Z</time>
      </trkpt>
      <trkpt lat="47.1241" lon="-1.79291">
        <ele>71</ele>
        <time>2021-09-26T13:55:22.000Z</time>
      </trkpt>
      <trkpt lat="47.12404" lon="-1.79306">
        <ele>71</ele>
        <time>2021-09-26T13:55:24.000Z</time>
      </trkpt>
      <trkpt lat="47.12397" lon="-1.79319">
        <ele>72</ele>
        <time>2021-09-26T13:55:26.000Z</time>
      </trkpt>
      <trkpt lat="47.1239" lon="-1.79333">
        <ele>72</ele>
        <time>2021-09-26T13:55:28.000Z</time>
      </trkpt>
      <trkpt lat="47.12384" lon="-1.79347">
        <ele>72</ele>
        <time>2021-09-26T13:55:30.000Z</time>
      </trkpt>
      <trkpt lat="47.12378" lon="-1.7936">
        <ele>72</ele>
        <time>2021-09-26T13:55:32.000Z</time>
      </trkpt>
      <trkpt lat="47.12371" lon="-1.79374">
        <ele>72</ele>
        <time>2021-09-26T13:55:34.000Z</time>
      </trkpt>
      <trkpt lat="47.12366" lon="-1.79388">
        <ele>72</ele>
        <time>2021-09-26T13:55:36.000Z</time>
      </trkpt>
      <trkpt lat="47.1236" lon="-1.79402">
        <ele>72</ele>
        <time>2021-09-26T13:55:38.000Z</time>
      </trkpt>
      <trkpt lat="47.12356" lon="-1.79416">
        <ele>72</ele>
        <time>2021-09-26T13:55:40.000Z</time>
      </trkpt>
      <trkpt lat="47.12351" lon="-1.79431">
        <ele>72</ele>
        <time>2021-09-26T13:55:42.000Z</time>
      </trkpt>
      <trkpt lat="47.12348" lon="-1.79448">
        <ele>72</ele>
        <time>2021-09-26T13:55:44.000Z</time>
      </trkpt>
      <trkpt lat="47.12345" lon="-1.79464">
        <ele>72</ele>
        <time>2021-09-26T13:55:46.000Z</time>
      </trkpt>
      <trkpt lat="47.12343" lon="-1.79481">
        <ele>71</ele>
        <time>2021-09-26T13:55:48.000Z</time>
      </trkpt>
      <trkpt lat="47.1234" lon="-1.79497">
        <ele>71</ele>
        <time>2021-09-26T13:55:50.000Z</time>
      </trkpt>
      <trkpt lat="47.12338" lon="-1.79513">
        <ele>72</ele>
        <time>2021-09-26T13:55:52.000Z</time>
      </trkpt>
      <trkpt lat="47.12336" lon="-1.7953">
        <ele>72</ele>
        <time>2021-09-26T13:55:54.000Z</time>
      </trkpt>
      <trkpt lat="47.12335" lon="-1.79546">
        <ele>72</ele>
        <time>2021-09-26T13:55:56.000Z</time>
      </trkpt>
      <trkpt lat="47.12332" lon="-1.79562">
        <ele>72</ele>
        <time>2021-09-26T13:55:58.000Z</time>
      </trkpt>
      <trkpt lat="47.12328" lon="-1.79577">
        <ele>72</ele>
        <time>2021-09-26T13:56:00.000Z</time>
      </trkpt>
      <trkpt lat="47.12321" lon="-1.79589">
        <ele>72</ele>
        <time>2021-09-26T13:56:02.000Z</time>
      </trkpt>
      <trkpt lat="47.12311" lon="-1.79595">
        <ele>73</ele>
        <time>2021-09-26T13:56:04.000Z</time>
      </trkpt>
      <trkpt lat="47.123" lon="-1.79596">
        <ele>73</ele>
        <time>2021-09-26T13:56:06.000Z</time>
      </trkpt>
      <trkpt lat="47.12288" lon="-1.79595">
        <ele>73</ele>
        <time>2021-09-26T13:56:08.000Z</time>
      </trkpt>
      <trkpt lat="47.12277" lon="-1.79595">
        <ele>73</ele>
        <time>2021-09-26T13:56:10.000Z</time>
      </trkpt>
      <trkpt lat="47.12266" lon="-1.79594">
        <ele>73</ele>
        <time>2021-09-26T13:56:12.000Z</time>
      </trkpt>
      <trkpt lat="47.12255" lon="-1.79593">
        <ele>72</ele>
        <time>2021-09-26T13:56:14.000Z</time>
      </trkpt>
      <trkpt lat="47.12244" lon="-1.79593">
        <ele>72</ele>
        <time>2021-09-26T13:56:16.000Z</time>
      </trkpt>
      <trkpt lat="47.12233" lon="-1.79592">
        <ele>72</ele>
        <time>2021-09-26T13:56:18.000Z</time>
      </trkpt>
      <trkpt lat="47.12222" lon="-1.79592">
        <ele>72</ele>
        <time>2021-09-26T13:56:20.000Z</time>
      </trkpt>
      <trkpt lat="47.1221" lon="-1.79592">
        <ele>72</ele>
        <time>2021-09-26T13:56:22.000Z</time>
      </trkpt>
      <trkpt lat="47.12199" lon="-1.79592">
        <ele>72</ele>
        <time>2021-09-26T13:56:24.000Z</time>
      </trkpt>
      <trkpt lat="47.12187" lon="-1.79591">
        <ele>72</ele>
        <time>2021-09-26T13:56:26.000Z</time>
      </trkpt>
      <trkpt lat="47.12175" lon="-1.79591">
        <ele>72</ele>
        <time>2021-09-26T13:56:28.000Z</time>
      </trkpt>
      <trkpt lat="47.12163" lon="-1.79591">
        <ele>72</ele>
        <time>2021-09-26T13:56:30.000Z</time>
      </trkpt>
      <trkpt lat="47.12151" lon="-1.79592">
        <ele>72</ele>
        <time>2021-09-26T13:56:32.000Z</time>
      </trkpt>
      <trkpt lat="47.12139" lon="-1.79593">
        <ele>72</ele>
        <time>2021-09-26T13:56:34.000Z</time>
      </trkpt>
      <trkpt lat="47.12127" lon="-1.79594">
        <ele>72</ele>
        <time>2021-09-26T13:56:36.000Z</time>
      </trkpt>
      <trkpt lat="47.12116" lon="-1.79595">
        <ele>71</ele>
        <time>2021-09-26T13:56:38.000Z</time>
      </trkpt>
      <trkpt lat="47.12104" lon="-1.79596">
        <ele>70</ele>
        <time>2021-09-26T13:56:40.000Z</time>
      </trkpt>
      <trkpt lat="47.12092" lon="-1.796">
        <ele>69</ele>
        <time>2021-09-26T13:56:42.000Z</time>
      </trkpt>
      <trkpt lat="47.12081" lon="-1.79609">
        <ele>69</ele>
        <time>2021-09-26T13:56:44.000Z</time>
      </trkpt>
      <trkpt lat="47.12071" lon="-1.7962">
        <ele>68</ele>
        <time>2021-09-26T13:56:46.000Z</time>
      </trkpt>
      <trkpt lat="47.12061" lon="-1.7963">
        <ele>68</ele>
        <time>2021-09-26T13:56:48.000Z</time>
      </trkpt>
      <trkpt lat="47.1205" lon="-1.79639">
        <ele>68</ele>
        <time>2021-09-26T13:56:50.000Z</time>
      </trkpt>
      <trkpt lat="47.1204" lon="-1.79648">
        <ele>67</ele>
        <time>2021-09-26T13:56:52.000Z</time>
      </trkpt>
      <trkpt lat="47.1203" lon="-1.79658">
        <ele>67</ele>
        <time>2021-09-26T13:56:54.000Z</time>
      </trkpt>
      <trkpt lat="47.12019" lon="-1.79668">
        <ele>66</ele>
        <time>2021-09-26T13:56:56.000Z</time>
      </trkpt>
      <trkpt lat="47.12009" lon="-1.79678">
        <ele>66</ele>
        <time>2021-09-26T13:56:58.000Z</time>
      </trkpt>
      <trkpt lat="47.12" lon="-1.79688">
        <ele>66</ele>
        <time>2021-09-26T13:57:00.000Z</time>
      </trkpt>
      <trkpt lat="47.1199" lon="-1.79699">
        <ele>66</ele>
        <time>2021-09-26T13:57:02.000Z</time>
      </trkpt>
      <trkpt lat="47.11981" lon="-1.79709">
        <ele>66</ele>
        <time>2021-09-26T13:57:04.000Z</time>
      </trkpt>
      <trkpt lat="47.11971" lon="-1.79719">
        <ele>66</ele>
        <time>2021-09-26T13:57:06.000Z</time>
      </trkpt>
      <trkpt lat="47.11962" lon="-1.7973">
        <ele>66</ele>
        <time>2021-09-26T13:57:08.000Z</time>
      </trkpt>
      <trkpt lat="47.11954" lon="-1.79741">
        <ele>66</ele>
        <time>2021-09-26T13:57:10.000Z</time>
      </trkpt>
      <trkpt lat="47.11945" lon="-1.79752">
        <ele>66</ele>
        <time>2021-09-26T13:57:12.000Z</time>
      </trkpt>
      <trkpt lat="47.11936" lon="-1.79763">
        <ele>66</ele>
        <time>2021-09-26T13:57:14.000Z</time>
      </trkpt>
      <trkpt lat="47.11928" lon="-1.79774">
        <ele>65</ele>
        <time>2021-09-26T13:57:16.000Z</time>
      </trkpt>
      <trkpt lat="47.11918" lon="-1.79785">
        <ele>65</ele>
        <time>2021-09-26T13:57:18.000Z</time>
      </trkpt>
      <trkpt lat="47.1191" lon="-1.79797">
        <ele>64</ele>
        <time>2021-09-26T13:57:20.000Z</time>
      </trkpt>
      <trkpt lat="47.11901" lon="-1.79808">
        <ele>64</ele>
        <time>2021-09-26T13:57:22.000Z</time>
      </trkpt>
      <trkpt lat="47.11892" lon="-1.79819">
        <ele>64</ele>
        <time>2021-09-26T13:57:24.000Z</time>
      </trkpt>
      <trkpt lat="47.11883" lon="-1.79829">
        <ele>64</ele>
        <time>2021-09-26T13:57:26.000Z</time>
      </trkpt>
      <trkpt lat="47.11873" lon="-1.79839">
        <ele>63</ele>
        <time>2021-09-26T13:57:28.000Z</time>
      </trkpt>
      <trkpt lat="47.11864" lon="-1.79849">
        <ele>63</ele>
        <time>2021-09-26T13:57:30.000Z</time>
      </trkpt>
      <trkpt lat="47.11855" lon="-1.79859">
        <ele>63</ele>
        <time>2021-09-26T13:57:32.000Z</time>
      </trkpt>
      <trkpt lat="47.11845" lon="-1.79869">
        <ele>63</ele>
        <time>2021-09-26T13:57:34.000Z</time>
      </trkpt>
      <trkpt lat="47.11836" lon="-1.79878">
        <ele>62</ele>
        <time>2021-09-26T13:57:36.000Z</time>
      </trkpt>
      <trkpt lat="47.11827" lon="-1.79888">
        <ele>61</ele>
        <time>2021-09-26T13:57:38.000Z</time>
      </trkpt>
      <trkpt lat="47.11817" lon="-1.79898">
        <ele>61</ele>
        <time>2021-09-26T13:57:40.000Z</time>
      </trkpt>
      <trkpt lat="47.11808" lon="-1.79908">
        <ele>61</ele>
        <time>2021-09-26T13:57:42.000Z</time>
      </trkpt>
      <trkpt lat="47.118" lon="-1.79918">
        <ele>61</ele>
        <time>2021-09-26T13:57:44.000Z</time>
      </trkpt>
      <trkpt lat="47.11791" lon="-1.79928">
        <ele>61</ele>
        <time>2021-09-26T13:57:46.000Z</time>
      </trkpt>
      <trkpt lat="47.11782" lon="-1.79938">
        <ele>61</ele>
        <time>2021-09-26T13:57:48.000Z</time>
      </trkpt>
      <trkpt lat="47.11774" lon="-1.79948">
        <ele>61</ele>
        <time>2021-09-26T13:57:50.000Z</time>
      </trkpt>
      <trkpt lat="47.11766" lon="-1.79957">
        <ele>61</ele>
        <time>2021-09-26T13:57:52.000Z</time>
      </trkpt>
      <trkpt lat="47.11758" lon="-1.7997">
        <ele>61</ele>
        <time>2021-09-26T13:57:55.000Z</time>
      </trkpt>
      <trkpt lat="47.11749" lon="-1.79973">
        <ele>62</ele>
        <time>2021-09-26T13:57:57.000Z</time>
      </trkpt>
      <trkpt lat="47.11738" lon="-1.79972">
        <ele>62</ele>
        <time>2021-09-26T13:57:59.000Z</time>
      </trkpt>
      <trkpt lat="47.11725" lon="-1.7997">
        <ele>62</ele>
        <time>2021-09-26T13:58:01.000Z</time>
      </trkpt>
      <trkpt lat="47.11714" lon="-1.79968">
        <ele>63</ele>
        <time>2021-09-26T13:58:03.000Z</time>
      </trkpt>
      <trkpt lat="47.11702" lon="-1.79967">
        <ele>63</ele>
        <time>2021-09-26T13:58:05.000Z</time>
      </trkpt>
      <trkpt lat="47.1169" lon="-1.79965">
        <ele>62</ele>
        <time>2021-09-26T13:58:07.000Z</time>
      </trkpt>
      <trkpt lat="47.11677" lon="-1.79963">
        <ele>62</ele>
        <time>2021-09-26T13:58:09.000Z</time>
      </trkpt>
      <trkpt lat="47.11665" lon="-1.79962">
        <ele>63</ele>
        <time>2021-09-26T13:58:11.000Z</time>
      </trkpt>
      <trkpt lat="47.11652" lon="-1.7996">
        <ele>63</ele>
        <time>2021-09-26T13:58:13.000Z</time>
      </trkpt>
      <trkpt lat="47.1164" lon="-1.79958">
        <ele>63</ele>
        <time>2021-09-26T13:58:15.000Z</time>
      </trkpt>
      <trkpt lat="47.11628" lon="-1.79956">
        <ele>64</ele>
        <time>2021-09-26T13:58:17.000Z</time>
      </trkpt>
      <trkpt lat="47.11616" lon="-1.79954">
        <ele>64</ele>
        <time>2021-09-26T13:58:19.000Z</time>
      </trkpt>
      <trkpt lat="47.11603" lon="-1.79953">
        <ele>64</ele>
        <time>2021-09-26T13:58:21.000Z</time>
      </trkpt>
      <trkpt lat="47.11591" lon="-1.79952">
        <ele>65</ele>
        <time>2021-09-26T13:58:23.000Z</time>
      </trkpt>
      <trkpt lat="47.11578" lon="-1.79951">
        <ele>64</ele>
        <time>2021-09-26T13:58:25.000Z</time>
      </trkpt>
      <trkpt lat="47.11566" lon="-1.79951">
        <ele>64</ele>
        <time>2021-09-26T13:58:27.000Z</time>
      </trkpt>
      <trkpt lat="47.11553" lon="-1.79955">
        <ele>63</ele>
        <time>2021-09-26T13:58:29.000Z</time>
      </trkpt>
      <trkpt lat="47.11542" lon="-1.79962">
        <ele>63</ele>
        <time>2021-09-26T13:58:31.000Z</time>
      </trkpt>
      <trkpt lat="47.11531" lon="-1.79971">
        <ele>63</ele>
        <time>2021-09-26T13:58:33.000Z</time>
      </trkpt>
      <trkpt lat="47.11522" lon="-1.7998">
        <ele>63</ele>
        <time>2021-09-26T13:58:35.000Z</time>
      </trkpt>
      <trkpt lat="47.11512" lon="-1.79991">
        <ele>62</ele>
        <time>2021-09-26T13:58:37.000Z</time>
      </trkpt>
      <trkpt lat="47.11503" lon="-1.80003">
        <ele>61</ele>
        <time>2021-09-26T13:58:39.000Z</time>
      </trkpt>
      <trkpt lat="47.11494" lon="-1.80015">
        <ele>61</ele>
        <time>2021-09-26T13:58:41.000Z</time>
      </trkpt>
      <trkpt lat="47.11485" lon="-1.80027">
        <ele>60</ele>
        <time>2021-09-26T13:58:43.000Z</time>
      </trkpt>
      <trkpt lat="47.11476" lon="-1.80038">
        <ele>60</ele>
        <time>2021-09-26T13:58:45.000Z</time>
      </trkpt>
      <trkpt lat="47.11467" lon="-1.80051">
        <ele>60</ele>
        <time>2021-09-26T13:58:47.000Z</time>
      </trkpt>
      <trkpt lat="47.11458" lon="-1.80062">
        <ele>60</ele>
        <time>2021-09-26T13:58:49.000Z</time>
      </trkpt>
      <trkpt lat="47.11449" lon="-1.80075">
        <ele>60</ele>
        <time>2021-09-26T13:58:51.000Z</time>
      </trkpt>
      <trkpt lat="47.1144" lon="-1.80086">
        <ele>59</ele>
        <time>2021-09-26T13:58:53.000Z</time>
      </trkpt>
      <trkpt lat="47.11431" lon="-1.80097">
        <ele>59</ele>
        <time>2021-09-26T13:58:55.000Z</time>
      </trkpt>
      <trkpt lat="47.11423" lon="-1.8011">
        <ele>58</ele>
        <time>2021-09-26T13:58:57.000Z</time>
      </trkpt>
      <trkpt lat="47.11414" lon="-1.80121">
        <ele>58</ele>
        <time>2021-09-26T13:58:59.000Z</time>
      </trkpt>
      <trkpt lat="47.11405" lon="-1.80133">
        <ele>58</ele>
        <time>2021-09-26T13:59:01.000Z</time>
      </trkpt>
      <trkpt lat="47.11396" lon="-1.80145">
        <ele>58</ele>
        <time>2021-09-26T13:59:03.000Z</time>
      </trkpt>
      <trkpt lat="47.11387" lon="-1.80157">
        <ele>58</ele>
        <time>2021-09-26T13:59:05.000Z</time>
      </trkpt>
      <trkpt lat="47.11378" lon="-1.80169">
        <ele>58</ele>
        <time>2021-09-26T13:59:07.000Z</time>
      </trkpt>
      <trkpt lat="47.1137" lon="-1.8018">
        <ele>58</ele>
        <time>2021-09-26T13:59:09.000Z</time>
      </trkpt>
      <trkpt lat="47.1136" lon="-1.80191">
        <ele>58</ele>
        <time>2021-09-26T13:59:11.000Z</time>
      </trkpt>
      <trkpt lat="47.11351" lon="-1.80203">
        <ele>58</ele>
        <time>2021-09-26T13:59:13.000Z</time>
      </trkpt>
      <trkpt lat="47.11343" lon="-1.80216">
        <ele>58</ele>
        <time>2021-09-26T13:59:15.000Z</time>
      </trkpt>
      <trkpt lat="47.11335" lon="-1.80228">
        <ele>58</ele>
        <time>2021-09-26T13:59:17.000Z</time>
      </trkpt>
      <trkpt lat="47.11326" lon="-1.80241">
        <ele>58</ele>
        <time>2021-09-26T13:59:19.000Z</time>
      </trkpt>
      <trkpt lat="47.11318" lon="-1.80254">
        <ele>57</ele>
        <time>2021-09-26T13:59:21.000Z</time>
      </trkpt>
      <trkpt lat="47.1131" lon="-1.80266">
        <ele>58</ele>
        <time>2021-09-26T13:59:23.000Z</time>
      </trkpt>
      <trkpt lat="47.11301" lon="-1.80278">
        <ele>58</ele>
        <time>2021-09-26T13:59:25.000Z</time>
      </trkpt>
      <trkpt lat="47.11292" lon="-1.8029">
        <ele>58</ele>
        <time>2021-09-26T13:59:27.000Z</time>
      </trkpt>
      <trkpt lat="47.11283" lon="-1.80303">
        <ele>58</ele>
        <time>2021-09-26T13:59:29.000Z</time>
      </trkpt>
      <trkpt lat="47.11274" lon="-1.80315">
        <ele>57</ele>
        <time>2021-09-26T13:59:31.000Z</time>
      </trkpt>
      <trkpt lat="47.11264" lon="-1.80327">
        <ele>58</ele>
        <time>2021-09-26T13:59:33.000Z</time>
      </trkpt>
      <trkpt lat="47.11255" lon="-1.8034">
        <ele>58</ele>
        <time>2021-09-26T13:59:35.000Z</time>
      </trkpt>
      <trkpt lat="47.11246" lon="-1.80352">
        <ele>58</ele>
        <time>2021-09-26T13:59:37.000Z</time>
      </trkpt>
      <trkpt lat="47.11237" lon="-1.80364">
        <ele>58</ele>
        <time>2021-09-26T13:59:39.000Z</time>
      </trkpt>
      <trkpt lat="47.11228" lon="-1.80376">
        <ele>58</ele>
        <time>2021-09-26T13:59:41.000Z</time>
      </trkpt>
      <trkpt lat="47.11219" lon="-1.80387">
        <ele>58</ele>
        <time>2021-09-26T13:59:43.000Z</time>
      </trkpt>
      <trkpt lat="47.1121" lon="-1.80397">
        <ele>58</ele>
        <time>2021-09-26T13:59:45.000Z</time>
      </trkpt>
      <trkpt lat="47.112" lon="-1.80408">
        <ele>58</ele>
        <time>2021-09-26T13:59:47.000Z</time>
      </trkpt>
      <trkpt lat="47.1119" lon="-1.80418">
        <ele>58</ele>
        <time>2021-09-26T13:59:49.000Z</time>
      </trkpt>
      <trkpt lat="47.11179" lon="-1.80427">
        <ele>58</ele>
        <time>2021-09-26T13:59:51.000Z</time>
      </trkpt>
      <trkpt lat="47.11168" lon="-1.80435">
        <ele>58</ele>
        <time>2021-09-26T13:59:53.000Z</time>
      </trkpt>
      <trkpt lat="47.11158" lon="-1.80442">
        <ele>58</ele>
        <time>2021-09-26T13:59:55.000Z</time>
      </trkpt>
      <trkpt lat="47.11148" lon="-1.80449">
        <ele>58</ele>
        <time>2021-09-26T13:59:57.000Z</time>
      </trkpt>
      <trkpt lat="47.11137" lon="-1.80455">
        <ele>58</ele>
        <time>2021-09-26T13:59:59.000Z</time>
      </trkpt>
      <trkpt lat="47.11126" lon="-1.80462">
        <ele>59</ele>
        <time>2021-09-26T14:00:01.000Z</time>
      </trkpt>
      <trkpt lat="47.11116" lon="-1.8047">
        <ele>58</ele>
        <time>2021-09-26T14:00:03.000Z</time>
      </trkpt>
      <trkpt lat="47.11105" lon="-1.80477">
        <ele>59</ele>
        <time>2021-09-26T14:00:05.000Z</time>
      </trkpt>
      <trkpt lat="47.11094" lon="-1.80484">
        <ele>59</ele>
        <time>2021-09-26T14:00:07.000Z</time>
      </trkpt>
      <trkpt lat="47.11083" lon="-1.80491">
        <ele>59</ele>
        <time>2021-09-26T14:00:09.000Z</time>
      </trkpt>
      <trkpt lat="47.11073" lon="-1.80498">
        <ele>59</ele>
        <time>2021-09-26T14:00:11.000Z</time>
      </trkpt>
      <trkpt lat="47.11062" lon="-1.80505">
        <ele>59</ele>
        <time>2021-09-26T14:00:13.000Z</time>
      </trkpt>
      <trkpt lat="47.11051" lon="-1.80512">
        <ele>59</ele>
        <time>2021-09-26T14:00:15.000Z</time>
      </trkpt>
      <trkpt lat="47.1104" lon="-1.80519">
        <ele>59</ele>
        <time>2021-09-26T14:00:17.000Z</time>
      </trkpt>
      <trkpt lat="47.11029" lon="-1.80524">
        <ele>58</ele>
        <time>2021-09-26T14:00:19.000Z</time>
      </trkpt>
      <trkpt lat="47.11019" lon="-1.8053">
        <ele>57</ele>
        <time>2021-09-26T14:00:21.000Z</time>
      </trkpt>
      <trkpt lat="47.11008" lon="-1.80538">
        <ele>57</ele>
        <time>2021-09-26T14:00:23.000Z</time>
      </trkpt>
      <trkpt lat="47.10997" lon="-1.80546">
        <ele>56</ele>
        <time>2021-09-26T14:00:25.000Z</time>
      </trkpt>
      <trkpt lat="47.10986" lon="-1.80554">
        <ele>56</ele>
        <time>2021-09-26T14:00:27.000Z</time>
      </trkpt>
      <trkpt lat="47.10974" lon="-1.80562">
        <ele>55</ele>
        <time>2021-09-26T14:00:29.000Z</time>
      </trkpt>
      <trkpt lat="47.10962" lon="-1.80569">
        <ele>55</ele>
        <time>2021-09-26T14:00:31.000Z</time>
      </trkpt>
      <trkpt lat="47.1095" lon="-1.80577">
        <ele>55</ele>
        <time>2021-09-26T14:00:33.000Z</time>
      </trkpt>
      <trkpt lat="47.10939" lon="-1.80585">
        <ele>55</ele>
        <time>2021-09-26T14:00:35.000Z</time>
      </trkpt>
      <trkpt lat="47.10927" lon="-1.80593">
        <ele>55</ele>
        <time>2021-09-26T14:00:37.000Z</time>
      </trkpt>
      <trkpt lat="47.10915" lon="-1.80601">
        <ele>56</ele>
        <time>2021-09-26T14:00:39.000Z</time>
      </trkpt>
      <trkpt lat="47.10904" lon="-1.80608">
        <ele>56</ele>
        <time>2021-09-26T14:00:41.000Z</time>
      </trkpt>
      <trkpt lat="47.10893" lon="-1.80616">
        <ele>55</ele>
        <time>2021-09-26T14:00:43.000Z</time>
      </trkpt>
      <trkpt lat="47.10881" lon="-1.80623">
        <ele>55</ele>
        <time>2021-09-26T14:00:45.000Z</time>
      </trkpt>
      <trkpt lat="47.1087" lon="-1.80631">
        <ele>55</ele>
        <time>2021-09-26T14:00:47.000Z</time>
      </trkpt>
      <trkpt lat="47.10858" lon="-1.80635">
        <ele>55</ele>
        <time>2021-09-26T14:00:49.000Z</time>
      </trkpt>
      <trkpt lat="47.10847" lon="-1.8064">
        <ele>56</ele>
        <time>2021-09-26T14:00:51.000Z</time>
      </trkpt>
      <trkpt lat="47.10835" lon="-1.80644">
        <ele>55</ele>
        <time>2021-09-26T14:00:53.000Z</time>
      </trkpt>
      <trkpt lat="47.10822" lon="-1.80649">
        <ele>55</ele>
        <time>2021-09-26T14:00:55.000Z</time>
      </trkpt>
      <trkpt lat="47.10809" lon="-1.80654">
        <ele>55</ele>
        <time>2021-09-26T14:00:57.000Z</time>
      </trkpt>
      <trkpt lat="47.10797" lon="-1.80659">
        <ele>55</ele>
        <time>2021-09-26T14:00:59.000Z</time>
      </trkpt>
      <trkpt lat="47.10784" lon="-1.80663">
        <ele>55</ele>
        <time>2021-09-26T14:01:01.000Z</time>
      </trkpt>
      <trkpt lat="47.10772" lon="-1.80668">
        <ele>55</ele>
        <time>2021-09-26T14:01:03.000Z</time>
      </trkpt>
      <trkpt lat="47.10759" lon="-1.80671">
        <ele>55</ele>
        <time>2021-09-26T14:01:05.000Z</time>
      </trkpt>
      <trkpt lat="47.10747" lon="-1.80675">
        <ele>55</ele>
        <time>2021-09-26T14:01:07.000Z</time>
      </trkpt>
      <trkpt lat="47.10734" lon="-1.80678">
        <ele>55</ele>
        <time>2021-09-26T14:01:09.000Z</time>
      </trkpt>
      <trkpt lat="47.10721" lon="-1.80679">
        <ele>55</ele>
        <time>2021-09-26T14:01:11.000Z</time>
      </trkpt>
      <trkpt lat="47.10708" lon="-1.80681">
        <ele>54</ele>
        <time>2021-09-26T14:01:13.000Z</time>
      </trkpt>
      <trkpt lat="47.10696" lon="-1.80682">
        <ele>54</ele>
        <time>2021-09-26T14:01:15.000Z</time>
      </trkpt>
      <trkpt lat="47.10684" lon="-1.80683">
        <ele>54</ele>
        <time>2021-09-26T14:01:17.000Z</time>
      </trkpt>
      <trkpt lat="47.10672" lon="-1.80685">
        <ele>54</ele>
        <time>2021-09-26T14:01:19.000Z</time>
      </trkpt>
      <trkpt lat="47.10659" lon="-1.80687">
        <ele>54</ele>
        <time>2021-09-26T14:01:21.000Z</time>
      </trkpt>
      <trkpt lat="47.10647" lon="-1.80689">
        <ele>55</ele>
        <time>2021-09-26T14:01:23.000Z</time>
      </trkpt>
      <trkpt lat="47.10635" lon="-1.80691">
        <ele>55</ele>
        <time>2021-09-26T14:01:25.000Z</time>
      </trkpt>
      <trkpt lat="47.10622" lon="-1.80694">
        <ele>56</ele>
        <time>2021-09-26T14:01:27.000Z</time>
      </trkpt>
      <trkpt lat="47.10611" lon="-1.80699">
        <ele>56</ele>
        <time>2021-09-26T14:01:29.000Z</time>
      </trkpt>
      <trkpt lat="47.10599" lon="-1.80704">
        <ele>56</ele>
        <time>2021-09-26T14:01:31.000Z</time>
      </trkpt>
      <trkpt lat="47.10588" lon="-1.80711">
        <ele>55</ele>
        <time>2021-09-26T14:01:33.000Z</time>
      </trkpt>
      <trkpt lat="47.10577" lon="-1.8072">
        <ele>55</ele>
        <time>2021-09-26T14:01:35.000Z</time>
      </trkpt>
      <trkpt lat="47.10566" lon="-1.8073">
        <ele>54</ele>
        <time>2021-09-26T14:01:37.000Z</time>
      </trkpt>
      <trkpt lat="47.10556" lon="-1.80741">
        <ele>54</ele>
        <time>2021-09-26T14:01:39.000Z</time>
      </trkpt>
      <trkpt lat="47.10547" lon="-1.80752">
        <ele>54</ele>
        <time>2021-09-26T14:01:41.000Z</time>
      </trkpt>
      <trkpt lat="47.10537" lon="-1.80763">
        <ele>54</ele>
        <time>2021-09-26T14:01:43.000Z</time>
      </trkpt>
      <trkpt lat="47.10528" lon="-1.80774">
        <ele>54</ele>
        <time>2021-09-26T14:01:45.000Z</time>
      </trkpt>
      <trkpt lat="47.1052" lon="-1.80785">
        <ele>54</ele>
        <time>2021-09-26T14:01:47.000Z</time>
      </trkpt>
      <trkpt lat="47.10512" lon="-1.80798">
        <ele>54</ele>
        <time>2021-09-26T14:01:49.000Z</time>
      </trkpt>
      <trkpt lat="47.10502" lon="-1.80807">
        <ele>53</ele>
        <time>2021-09-26T14:01:51.000Z</time>
      </trkpt>
      <trkpt lat="47.10491" lon="-1.80814">
        <ele>52</ele>
        <time>2021-09-26T14:01:53.000Z</time>
      </trkpt>
      <trkpt lat="47.10481" lon="-1.80824">
        <ele>51</ele>
        <time>2021-09-26T14:01:55.000Z</time>
      </trkpt>
      <trkpt lat="47.10472" lon="-1.80837">
        <ele>51</ele>
        <time>2021-09-26T14:01:57.000Z</time>
      </trkpt>
      <trkpt lat="47.10464" lon="-1.8085">
        <ele>51</ele>
        <time>2021-09-26T14:01:59.000Z</time>
      </trkpt>
      <trkpt lat="47.10456" lon="-1.80863">
        <ele>51</ele>
        <time>2021-09-26T14:02:01.000Z</time>
      </trkpt>
      <trkpt lat="47.10448" lon="-1.80877">
        <ele>51</ele>
        <time>2021-09-26T14:02:03.000Z</time>
      </trkpt>
      <trkpt lat="47.10441" lon="-1.8089">
        <ele>51</ele>
        <time>2021-09-26T14:02:05.000Z</time>
      </trkpt>
      <trkpt lat="47.10433" lon="-1.80903">
        <ele>51</ele>
        <time>2021-09-26T14:02:07.000Z</time>
      </trkpt>
      <trkpt lat="47.10426" lon="-1.80916">
        <ele>52</ele>
        <time>2021-09-26T14:02:09.000Z</time>
      </trkpt>
      <trkpt lat="47.10418" lon="-1.80929">
        <ele>52</ele>
        <time>2021-09-26T14:02:11.000Z</time>
      </trkpt>
      <trkpt lat="47.10411" lon="-1.80942">
        <ele>52</ele>
        <time>2021-09-26T14:02:13.000Z</time>
      </trkpt>
      <trkpt lat="47.10403" lon="-1.80955">
        <ele>53</ele>
        <time>2021-09-26T14:02:15.000Z</time>
      </trkpt>
      <trkpt lat="47.10395" lon="-1.80968">
        <ele>53</ele>
        <time>2021-09-26T14:02:17.000Z</time>
      </trkpt>
      <trkpt lat="47.10388" lon="-1.8098">
        <ele>53</ele>
        <time>2021-09-26T14:02:19.000Z</time>
      </trkpt>
      <trkpt lat="47.10382" lon="-1.8099">
        <ele>53</ele>
        <time>2021-09-26T14:02:21.000Z</time>
      </trkpt>
      <trkpt lat="47.10377" lon="-1.81001">
        <ele>54</ele>
        <time>2021-09-26T14:02:23.000Z</time>
      </trkpt>
      <trkpt lat="47.10373" lon="-1.81015">
        <ele>54</ele>
        <time>2021-09-26T14:02:25.000Z</time>
      </trkpt>
      <trkpt lat="47.10369" lon="-1.81029">
        <ele>55</ele>
        <time>2021-09-26T14:02:27.000Z</time>
      </trkpt>
      <trkpt lat="47.10363" lon="-1.81039">
        <ele>55</ele>
        <time>2021-09-26T14:02:29.000Z</time>
      </trkpt>
      <trkpt lat="47.10353" lon="-1.81041">
        <ele>55</ele>
        <time>2021-09-26T14:02:31.000Z</time>
      </trkpt>
      <trkpt lat="47.10343" lon="-1.8103">
        <ele>56</ele>
        <time>2021-09-26T14:02:33.000Z</time>
      </trkpt>
      <trkpt lat="47.10333" lon="-1.81018">
        <ele>56</ele>
        <time>2021-09-26T14:02:35.000Z</time>
      </trkpt>
      <trkpt lat="47.10322" lon="-1.81012">
        <ele>56</ele>
        <time>2021-09-26T14:02:37.000Z</time>
      </trkpt>
      <trkpt lat="47.10309" lon="-1.81009">
        <ele>56</ele>
        <time>2021-09-26T14:02:39.000Z</time>
      </trkpt>
      <trkpt lat="47.10295" lon="-1.81007">
        <ele>55</ele>
        <time>2021-09-26T14:02:41.000Z</time>
      </trkpt>
      <trkpt lat="47.10281" lon="-1.81006">
        <ele>54</ele>
        <time>2021-09-26T14:02:43.000Z</time>
      </trkpt>
      <trkpt lat="47.10267" lon="-1.81006">
        <ele>55</ele>
        <time>2021-09-26T14:02:45.000Z</time>
      </trkpt>
      <trkpt lat="47.10253" lon="-1.81007">
        <ele>55</ele>
        <time>2021-09-26T14:02:47.000Z</time>
      </trkpt>
      <trkpt lat="47.1024" lon="-1.81009">
        <ele>55</ele>
        <time>2021-09-26T14:02:49.000Z</time>
      </trkpt>
      <trkpt lat="47.10228" lon="-1.81011">
        <ele>56</ele>
        <time>2021-09-26T14:02:51.000Z</time>
      </trkpt>
      <trkpt lat="47.10215" lon="-1.81008">
        <ele>57</ele>
        <time>2021-09-26T14:02:53.000Z</time>
      </trkpt>
      <trkpt lat="47.10203" lon="-1.81002">
        <ele>56</ele>
        <time>2021-09-26T14:02:55.000Z</time>
      </trkpt>
      <trkpt lat="47.10191" lon="-1.80996">
        <ele>56</ele>
        <time>2021-09-26T14:02:57.000Z</time>
      </trkpt>
      <trkpt lat="47.10179" lon="-1.80991">
        <ele>56</ele>
        <time>2021-09-26T14:02:59.000Z</time>
      </trkpt>
      <trkpt lat="47.10168" lon="-1.80985">
        <ele>55</ele>
        <time>2021-09-26T14:03:01.000Z</time>
      </trkpt>
      <trkpt lat="47.10156" lon="-1.80979">
        <ele>55</ele>
        <time>2021-09-26T14:03:03.000Z</time>
      </trkpt>
      <trkpt lat="47.10144" lon="-1.80972">
        <ele>55</ele>
        <time>2021-09-26T14:03:05.000Z</time>
      </trkpt>
      <trkpt lat="47.10133" lon="-1.80967">
        <ele>55</ele>
        <time>2021-09-26T14:03:07.000Z</time>
      </trkpt>
      <trkpt lat="47.10121" lon="-1.80967">
        <ele>55</ele>
        <time>2021-09-26T14:03:09.000Z</time>
      </trkpt>
      <trkpt lat="47.10109" lon="-1.80969">
        <ele>55</ele>
        <time>2021-09-26T14:03:11.000Z</time>
      </trkpt>
      <trkpt lat="47.10097" lon="-1.80971">
        <ele>54</ele>
        <time>2021-09-26T14:03:13.000Z</time>
      </trkpt>
      <trkpt lat="47.10084" lon="-1.80971">
        <ele>54</ele>
        <time>2021-09-26T14:03:15.000Z</time>
      </trkpt>
      <trkpt lat="47.10073" lon="-1.8097">
        <ele>54</ele>
        <time>2021-09-26T14:03:17.000Z</time>
      </trkpt>
      <trkpt lat="47.10061" lon="-1.80969">
        <ele>54</ele>
        <time>2021-09-26T14:03:19.000Z</time>
      </trkpt>
      <trkpt lat="47.10049" lon="-1.80969">
        <ele>54</ele>
        <time>2021-09-26T14:03:21.000Z</time>
      </trkpt>
      <trkpt lat="47.10038" lon="-1.8097">
        <ele>53</ele>
        <time>2021-09-26T14:03:23.000Z</time>
      </trkpt>
      <trkpt lat="47.10027" lon="-1.80971">
        <ele>53</ele>
        <time>2021-09-26T14:03:25.000Z</time>
      </trkpt>
      <trkpt lat="47.10015" lon="-1.80973">
        <ele>53</ele>
        <time>2021-09-26T14:03:27.000Z</time>
      </trkpt>
      <trkpt lat="47.10004" lon="-1.80973">
        <ele>53</ele>
        <time>2021-09-26T14:03:29.000Z</time>
      </trkpt>
      <trkpt lat="47.09993" lon="-1.80974">
        <ele>53</ele>
        <time>2021-09-26T14:03:31.000Z</time>
      </trkpt>
      <trkpt lat="47.09981" lon="-1.80974">
        <ele>53</ele>
        <time>2021-09-26T14:03:33.000Z</time>
      </trkpt>
      <trkpt lat="47.0997" lon="-1.80974">
        <ele>53</ele>
        <time>2021-09-26T14:03:35.000Z</time>
      </trkpt>
      <trkpt lat="47.09958" lon="-1.80975">
        <ele>53</ele>
        <time>2021-09-26T14:03:37.000Z</time>
      </trkpt>
      <trkpt lat="47.09947" lon="-1.80977">
        <ele>53</ele>
        <time>2021-09-26T14:03:39.000Z</time>
      </trkpt>
      <trkpt lat="47.09935" lon="-1.80978">
        <ele>53</ele>
        <time>2021-09-26T14:03:41.000Z</time>
      </trkpt>
      <trkpt lat="47.09924" lon="-1.80979">
        <ele>53</ele>
        <time>2021-09-26T14:03:43.000Z</time>
      </trkpt>
      <trkpt lat="47.09913" lon="-1.8098">
        <ele>53</ele>
        <time>2021-09-26T14:03:45.000Z</time>
      </trkpt>
      <trkpt lat="47.09901" lon="-1.80982">
        <ele>54</ele>
        <time>2021-09-26T14:03:47.000Z</time>
      </trkpt>
      <trkpt lat="47.0989" lon="-1.80982">
        <ele>55</ele>
        <time>2021-09-26T14:03:49.000Z</time>
      </trkpt>
      <trkpt lat="47.09879" lon="-1.80983">
        <ele>55</ele>
        <time>2021-09-26T14:03:51.000Z</time>
      </trkpt>
      <trkpt lat="47.09868" lon="-1.80984">
        <ele>55</ele>
        <time>2021-09-26T14:03:53.000Z</time>
      </trkpt>
      <trkpt lat="47.09857" lon="-1.80984">
        <ele>55</ele>
        <time>2021-09-26T14:03:55.000Z</time>
      </trkpt>
      <trkpt lat="47.09846" lon="-1.80985">
        <ele>55</ele>
        <time>2021-09-26T14:03:57.000Z</time>
      </trkpt>
      <trkpt lat="47.09835" lon="-1.80985">
        <ele>55</ele>
        <time>2021-09-26T14:03:59.000Z</time>
      </trkpt>
      <trkpt lat="47.09825" lon="-1.80986">
        <ele>56</ele>
        <time>2021-09-26T14:04:01.000Z</time>
      </trkpt>
      <trkpt lat="47.09815" lon="-1.80988">
        <ele>56</ele>
        <time>2021-09-26T14:04:03.000Z</time>
      </trkpt>
      <trkpt lat="47.09805" lon="-1.80989">
        <ele>56</ele>
        <time>2021-09-26T14:04:05.000Z</time>
      </trkpt>
      <trkpt lat="47.09795" lon="-1.80987">
        <ele>56</ele>
        <time>2021-09-26T14:04:07.000Z</time>
      </trkpt>
      <trkpt lat="47.09784" lon="-1.80985">
        <ele>56</ele>
        <time>2021-09-26T14:04:09.000Z</time>
      </trkpt>
      <trkpt lat="47.09772" lon="-1.80984">
        <ele>56</ele>
        <time>2021-09-26T14:04:11.000Z</time>
      </trkpt>
      <trkpt lat="47.09761" lon="-1.80982">
        <ele>56</ele>
        <time>2021-09-26T14:04:13.000Z</time>
      </trkpt>
      <trkpt lat="47.09749" lon="-1.8098">
        <ele>56</ele>
        <time>2021-09-26T14:04:15.000Z</time>
      </trkpt>
      <trkpt lat="47.09737" lon="-1.80977">
        <ele>56</ele>
        <time>2021-09-26T14:04:17.000Z</time>
      </trkpt>
      <trkpt lat="47.09726" lon="-1.80974">
        <ele>56</ele>
        <time>2021-09-26T14:04:19.000Z</time>
      </trkpt>
      <trkpt lat="47.09714" lon="-1.80971">
        <ele>56</ele>
        <time>2021-09-26T14:04:21.000Z</time>
      </trkpt>
      <trkpt lat="47.09703" lon="-1.80969">
        <ele>56</ele>
        <time>2021-09-26T14:04:23.000Z</time>
      </trkpt>
      <trkpt lat="47.09691" lon="-1.80966">
        <ele>55</ele>
        <time>2021-09-26T14:04:25.000Z</time>
      </trkpt>
      <trkpt lat="47.09678" lon="-1.80964">
        <ele>55</ele>
        <time>2021-09-26T14:04:27.000Z</time>
      </trkpt>
      <trkpt lat="47.09666" lon="-1.8096">
        <ele>55</ele>
        <time>2021-09-26T14:04:29.000Z</time>
      </trkpt>
      <trkpt lat="47.09653" lon="-1.80958">
        <ele>55</ele>
        <time>2021-09-26T14:04:31.000Z</time>
      </trkpt>
      <trkpt lat="47.09642" lon="-1.80955">
        <ele>55</ele>
        <time>2021-09-26T14:04:33.000Z</time>
      </trkpt>
      <trkpt lat="47.0963" lon="-1.80952">
        <ele>55</ele>
        <time>2021-09-26T14:04:35.000Z</time>
      </trkpt>
      <trkpt lat="47.09617" lon="-1.80951">
        <ele>54</ele>
        <time>2021-09-26T14:04:37.000Z</time>
      </trkpt>
      <trkpt lat="47.09606" lon="-1.8095">
        <ele>55</ele>
        <time>2021-09-26T14:04:39.000Z</time>
      </trkpt>
      <trkpt lat="47.09596" lon="-1.80946">
        <ele>54</ele>
        <time>2021-09-26T14:04:41.000Z</time>
      </trkpt>
      <trkpt lat="47.09584" lon="-1.80941">
        <ele>54</ele>
        <time>2021-09-26T14:04:43.000Z</time>
      </trkpt>
      <trkpt lat="47.09572" lon="-1.80939">
        <ele>54</ele>
        <time>2021-09-26T14:04:45.000Z</time>
      </trkpt>
      <trkpt lat="47.0956" lon="-1.80936">
        <ele>53</ele>
        <time>2021-09-26T14:04:47.000Z</time>
      </trkpt>
      <trkpt lat="47.09548" lon="-1.80933">
        <ele>53</ele>
        <time>2021-09-26T14:04:49.000Z</time>
      </trkpt>
      <trkpt lat="47.09536" lon="-1.8093">
        <ele>54</ele>
        <time>2021-09-26T14:04:51.000Z</time>
      </trkpt>
      <trkpt lat="47.09524" lon="-1.80927">
        <ele>54</ele>
        <time>2021-09-26T14:04:53.000Z</time>
      </trkpt>
      <trkpt lat="47.09512" lon="-1.80924">
        <ele>54</ele>
        <time>2021-09-26T14:04:55.000Z</time>
      </trkpt>
      <trkpt lat="47.095" lon="-1.80922">
        <ele>53</ele>
        <time>2021-09-26T14:04:57.000Z</time>
      </trkpt>
      <trkpt lat="47.09488" lon="-1.80922">
        <ele>53</ele>
        <time>2021-09-26T14:04:59.000Z</time>
      </trkpt>
      <trkpt lat="47.09477" lon="-1.80925">
        <ele>52</ele>
        <time>2021-09-26T14:05:01.000Z</time>
      </trkpt>
      <trkpt lat="47.09466" lon="-1.8093">
        <ele>52</ele>
        <time>2021-09-26T14:05:03.000Z</time>
      </trkpt>
      <trkpt lat="47.09456" lon="-1.80937">
        <ele>52</ele>
        <time>2021-09-26T14:05:05.000Z</time>
      </trkpt>
      <trkpt lat="47.09445" lon="-1.80944">
        <ele>52</ele>
        <time>2021-09-26T14:05:07.000Z</time>
      </trkpt>
      <trkpt lat="47.09434" lon="-1.8095">
        <ele>53</ele>
        <time>2021-09-26T14:05:09.000Z</time>
      </trkpt>
      <trkpt lat="47.09423" lon="-1.80957">
        <ele>53</ele>
        <time>2021-09-26T14:05:11.000Z</time>
      </trkpt>
      <trkpt lat="47.09411" lon="-1.80964">
        <ele>53</ele>
        <time>2021-09-26T14:05:13.000Z</time>
      </trkpt>
      <trkpt lat="47.094" lon="-1.80971">
        <ele>53</ele>
        <time>2021-09-26T14:05:15.000Z</time>
      </trkpt>
      <trkpt lat="47.09389" lon="-1.80978">
        <ele>53</ele>
        <time>2021-09-26T14:05:17.000Z</time>
      </trkpt>
      <trkpt lat="47.09377" lon="-1.80985">
        <ele>52</ele>
        <time>2021-09-26T14:05:19.000Z</time>
      </trkpt>
      <trkpt lat="47.09364" lon="-1.80992">
        <ele>52</ele>
        <time>2021-09-26T14:05:21.000Z</time>
      </trkpt>
      <trkpt lat="47.09352" lon="-1.80999">
        <ele>51</ele>
        <time>2021-09-26T14:05:23.000Z</time>
      </trkpt>
      <trkpt lat="47.0934" lon="-1.81006">
        <ele>50</ele>
        <time>2021-09-26T14:05:25.000Z</time>
      </trkpt>
      <trkpt lat="47.09328" lon="-1.81014">
        <ele>50</ele>
        <time>2021-09-26T14:05:27.000Z</time>
      </trkpt>
      <trkpt lat="47.09316" lon="-1.8102">
        <ele>50</ele>
        <time>2021-09-26T14:05:29.000Z</time>
      </trkpt>
      <trkpt lat="47.09304" lon="-1.81028">
        <ele>49</ele>
        <time>2021-09-26T14:05:31.000Z</time>
      </trkpt>
      <trkpt lat="47.09292" lon="-1.81034">
        <ele>49</ele>
        <time>2021-09-26T14:05:33.000Z</time>
      </trkpt>
      <trkpt lat="47.0928" lon="-1.81041">
        <ele>49</ele>
        <time>2021-09-26T14:05:35.000Z</time>
      </trkpt>
      <trkpt lat="47.09268" lon="-1.81049">
        <ele>49</ele>
        <time>2021-09-26T14:05:37.000Z</time>
      </trkpt>
      <trkpt lat="47.09256" lon="-1.81057">
        <ele>49</ele>
        <time>2021-09-26T14:05:39.000Z</time>
      </trkpt>
      <trkpt lat="47.09246" lon="-1.81064">
        <ele>50</ele>
        <time>2021-09-26T14:05:41.000Z</time>
      </trkpt>
      <trkpt lat="47.09236" lon="-1.81073">
        <ele>50</ele>
        <time>2021-09-26T14:05:43.000Z</time>
      </trkpt>
      <trkpt lat="47.09228" lon="-1.81082">
        <ele>50</ele>
        <time>2021-09-26T14:05:45.000Z</time>
      </trkpt>
      <trkpt lat="47.09217" lon="-1.81082">
        <ele>50</ele>
        <time>2021-09-26T14:05:52.000Z</time>
      </trkpt>
      <trkpt lat="47.09205" lon="-1.81076">
        <ele>50</ele>
        <time>2021-09-26T14:05:55.000Z</time>
      </trkpt>
      <trkpt lat="47.09195" lon="-1.81067">
        <ele>50</ele>
        <time>2021-09-26T14:05:57.000Z</time>
      </trkpt>
      <trkpt lat="47.09185" lon="-1.81058">
        <ele>50</ele>
        <time>2021-09-26T14:05:59.000Z</time>
      </trkpt>
      <trkpt lat="47.09175" lon="-1.81051">
        <ele>50</ele>
        <time>2021-09-26T14:06:01.000Z</time>
      </trkpt>
      <trkpt lat="47.09159" lon="-1.8104">
        <ele>50</ele>
        <time>2021-09-26T14:06:04.000Z</time>
      </trkpt>
      <trkpt lat="47.09149" lon="-1.81032">
        <ele>50</ele>
        <time>2021-09-26T14:06:06.000Z</time>
      </trkpt>
      <trkpt lat="47.09133" lon="-1.8102">
        <ele>50</ele>
        <time>2021-09-26T14:06:09.000Z</time>
      </trkpt>
      <trkpt lat="47.09122" lon="-1.81012">
        <ele>51</ele>
        <time>2021-09-26T14:06:11.000Z</time>
      </trkpt>
      <trkpt lat="47.09112" lon="-1.81004">
        <ele>51</ele>
        <time>2021-09-26T14:06:13.000Z</time>
      </trkpt>
      <trkpt lat="47.09101" lon="-1.80997">
        <ele>51</ele>
        <time>2021-09-26T14:06:15.000Z</time>
      </trkpt>
      <trkpt lat="47.09084" lon="-1.80985">
        <ele>52</ele>
        <time>2021-09-26T14:06:18.000Z</time>
      </trkpt>
      <trkpt lat="47.09073" lon="-1.80978">
        <ele>52</ele>
        <time>2021-09-26T14:06:20.000Z</time>
      </trkpt>
      <trkpt lat="47.09062" lon="-1.80971">
        <ele>53</ele>
        <time>2021-09-26T14:06:22.000Z</time>
      </trkpt>
      <trkpt lat="47.09047" lon="-1.8096">
        <ele>53</ele>
        <time>2021-09-26T14:06:25.000Z</time>
      </trkpt>
      <trkpt lat="47.09036" lon="-1.80951">
        <ele>53</ele>
        <time>2021-09-26T14:06:27.000Z</time>
      </trkpt>
      <trkpt lat="47.09026" lon="-1.80943">
        <ele>53</ele>
        <time>2021-09-26T14:06:29.000Z</time>
      </trkpt>
      <trkpt lat="47.09015" lon="-1.80935">
        <ele>54</ele>
        <time>2021-09-26T14:06:31.000Z</time>
      </trkpt>
      <trkpt lat="47.09004" lon="-1.80926">
        <ele>54</ele>
        <time>2021-09-26T14:06:33.000Z</time>
      </trkpt>
      <trkpt lat="47.08994" lon="-1.80919">
        <ele>54</ele>
        <time>2021-09-26T14:06:35.000Z</time>
      </trkpt>
      <trkpt lat="47.08983" lon="-1.80912">
        <ele>54</ele>
        <time>2021-09-26T14:06:37.000Z</time>
      </trkpt>
      <trkpt lat="47.08972" lon="-1.80904">
        <ele>54</ele>
        <time>2021-09-26T14:06:39.000Z</time>
      </trkpt>
      <trkpt lat="47.08962" lon="-1.80897">
        <ele>54</ele>
        <time>2021-09-26T14:06:41.000Z</time>
      </trkpt>
      <trkpt lat="47.08951" lon="-1.80888">
        <ele>55</ele>
        <time>2021-09-26T14:06:43.000Z</time>
      </trkpt>
      <trkpt lat="47.0894" lon="-1.8088">
        <ele>55</ele>
        <time>2021-09-26T14:06:45.000Z</time>
      </trkpt>
      <trkpt lat="47.0893" lon="-1.8087">
        <ele>55</ele>
        <time>2021-09-26T14:06:47.000Z</time>
      </trkpt>
      <trkpt lat="47.08921" lon="-1.8086">
        <ele>55</ele>
        <time>2021-09-26T14:06:49.000Z</time>
      </trkpt>
      <trkpt lat="47.08913" lon="-1.80848">
        <ele>55</ele>
        <time>2021-09-26T14:06:51.000Z</time>
      </trkpt>
      <trkpt lat="47.08905" lon="-1.80836">
        <ele>55</ele>
        <time>2021-09-26T14:06:53.000Z</time>
      </trkpt>
      <trkpt lat="47.08897" lon="-1.80823">
        <ele>56</ele>
        <time>2021-09-26T14:06:55.000Z</time>
      </trkpt>
      <trkpt lat="47.0889" lon="-1.8081">
        <ele>56</ele>
        <time>2021-09-26T14:06:57.000Z</time>
      </trkpt>
      <trkpt lat="47.08883" lon="-1.80797">
        <ele>56</ele>
        <time>2021-09-26T14:06:59.000Z</time>
      </trkpt>
      <trkpt lat="47.08876" lon="-1.80784">
        <ele>56</ele>
        <time>2021-09-26T14:07:01.000Z</time>
      </trkpt>
      <trkpt lat="47.08869" lon="-1.80771">
        <ele>56</ele>
        <time>2021-09-26T14:07:03.000Z</time>
      </trkpt>
      <trkpt lat="47.08862" lon="-1.80758">
        <ele>57</ele>
        <time>2021-09-26T14:07:05.000Z</time>
      </trkpt>
      <trkpt lat="47.08854" lon="-1.80746">
        <ele>57</ele>
        <time>2021-09-26T14:07:07.000Z</time>
      </trkpt>
      <trkpt lat="47.08846" lon="-1.80732">
        <ele>57</ele>
        <time>2021-09-26T14:07:09.000Z</time>
      </trkpt>
      <trkpt lat="47.08839" lon="-1.80719">
        <ele>57</ele>
        <time>2021-09-26T14:07:11.000Z</time>
      </trkpt>
      <trkpt lat="47.08832" lon="-1.80706">
        <ele>57</ele>
        <time>2021-09-26T14:07:13.000Z</time>
      </trkpt>
      <trkpt lat="47.08825" lon="-1.80692">
        <ele>57</ele>
        <time>2021-09-26T14:07:15.000Z</time>
      </trkpt>
      <trkpt lat="47.08818" lon="-1.8068">
        <ele>57</ele>
        <time>2021-09-26T14:07:17.000Z</time>
      </trkpt>
      <trkpt lat="47.0881" lon="-1.80666">
        <ele>57</ele>
        <time>2021-09-26T14:07:19.000Z</time>
      </trkpt>
      <trkpt lat="47.08803" lon="-1.80653">
        <ele>57</ele>
        <time>2021-09-26T14:07:21.000Z</time>
      </trkpt>
      <trkpt lat="47.08795" lon="-1.8064">
        <ele>58</ele>
        <time>2021-09-26T14:07:23.000Z</time>
      </trkpt>
      <trkpt lat="47.08787" lon="-1.80628">
        <ele>58</ele>
        <time>2021-09-26T14:07:25.000Z</time>
      </trkpt>
      <trkpt lat="47.08779" lon="-1.80616">
        <ele>58</ele>
        <time>2021-09-26T14:07:27.000Z</time>
      </trkpt>
      <trkpt lat="47.0877" lon="-1.80606">
        <ele>58</ele>
        <time>2021-09-26T14:07:29.000Z</time>
      </trkpt>
      <trkpt lat="47.08761" lon="-1.80596">
        <ele>58</ele>
        <time>2021-09-26T14:07:31.000Z</time>
      </trkpt>
      <trkpt lat="47.08752" lon="-1.80587">
        <ele>58</ele>
        <time>2021-09-26T14:07:33.000Z</time>
      </trkpt>
      <trkpt lat="47.08742" lon="-1.80578">
        <ele>59</ele>
        <time>2021-09-26T14:07:35.000Z</time>
      </trkpt>
      <trkpt lat="47.08732" lon="-1.8057">
        <ele>59</ele>
        <time>2021-09-26T14:07:37.000Z</time>
      </trkpt>
      <trkpt lat="47.08722" lon="-1.80562">
        <ele>58</ele>
        <time>2021-09-26T14:07:39.000Z</time>
      </trkpt>
      <trkpt lat="47.08712" lon="-1.80555">
        <ele>59</ele>
        <time>2021-09-26T14:07:41.000Z</time>
      </trkpt>
      <trkpt lat="47.08703" lon="-1.80547">
        <ele>59</ele>
        <time>2021-09-26T14:07:43.000Z</time>
      </trkpt>
      <trkpt lat="47.08693" lon="-1.80541">
        <ele>59</ele>
        <time>2021-09-26T14:07:45.000Z</time>
      </trkpt>
      <trkpt lat="47.08684" lon="-1.80534">
        <ele>59</ele>
        <time>2021-09-26T14:07:47.000Z</time>
      </trkpt>
      <trkpt lat="47.08675" lon="-1.80527">
        <ele>59</ele>
        <time>2021-09-26T14:07:49.000Z</time>
      </trkpt>
      <trkpt lat="47.08665" lon="-1.80521">
        <ele>60</ele>
        <time>2021-09-26T14:07:51.000Z</time>
      </trkpt>
      <trkpt lat="47.08655" lon="-1.80516">
        <ele>60</ele>
        <time>2021-09-26T14:07:53.000Z</time>
      </trkpt>
      <trkpt lat="47.08645" lon="-1.80512">
        <ele>60</ele>
        <time>2021-09-26T14:07:55.000Z</time>
      </trkpt>
      <trkpt lat="47.08636" lon="-1.80509">
        <ele>60</ele>
        <time>2021-09-26T14:07:57.000Z</time>
      </trkpt>
      <trkpt lat="47.08627" lon="-1.80506">
        <ele>60</ele>
        <time>2021-09-26T14:07:59.000Z</time>
      </trkpt>
      <trkpt lat="47.08617" lon="-1.80503">
        <ele>60</ele>
        <time>2021-09-26T14:08:01.000Z</time>
      </trkpt>
      <trkpt lat="47.08607" lon="-1.805">
        <ele>60</ele>
        <time>2021-09-26T14:08:03.000Z</time>
      </trkpt>
      <trkpt lat="47.08597" lon="-1.80497">
        <ele>61</ele>
        <time>2021-09-26T14:08:05.000Z</time>
      </trkpt>
      <trkpt lat="47.08586" lon="-1.80495">
        <ele>61</ele>
        <time>2021-09-26T14:08:07.000Z</time>
      </trkpt>
      <trkpt lat="47.08576" lon="-1.80492">
        <ele>61</ele>
        <time>2021-09-26T14:08:09.000Z</time>
      </trkpt>
      <trkpt lat="47.08566" lon="-1.80489">
        <ele>62</ele>
        <time>2021-09-26T14:08:11.000Z</time>
      </trkpt>
      <trkpt lat="47.08555" lon="-1.80487">
        <ele>62</ele>
        <time>2021-09-26T14:08:13.000Z</time>
      </trkpt>
      <trkpt lat="47.08545" lon="-1.80484">
        <ele>62</ele>
        <time>2021-09-26T14:08:15.000Z</time>
      </trkpt>
      <trkpt lat="47.08535" lon="-1.80482">
        <ele>62</ele>
        <time>2021-09-26T14:08:17.000Z</time>
      </trkpt>
      <trkpt lat="47.08525" lon="-1.80479">
        <ele>62</ele>
        <time>2021-09-26T14:08:19.000Z</time>
      </trkpt>
      <trkpt lat="47.08515" lon="-1.80476">
        <ele>62</ele>
        <time>2021-09-26T14:08:21.000Z</time>
      </trkpt>
      <trkpt lat="47.08505" lon="-1.80473">
        <ele>62</ele>
        <time>2021-09-26T14:08:23.000Z</time>
      </trkpt>
      <trkpt lat="47.08494" lon="-1.8047">
        <ele>62</ele>
        <time>2021-09-26T14:08:25.000Z</time>
      </trkpt>
      <trkpt lat="47.08483" lon="-1.80468">
        <ele>63</ele>
        <time>2021-09-26T14:08:27.000Z</time>
      </trkpt>
      <trkpt lat="47.08472" lon="-1.80466">
        <ele>63</ele>
        <time>2021-09-26T14:08:29.000Z</time>
      </trkpt>
      <trkpt lat="47.08462" lon="-1.80465">
        <ele>63</ele>
        <time>2021-09-26T14:08:31.000Z</time>
      </trkpt>
      <trkpt lat="47.08451" lon="-1.80464">
        <ele>62</ele>
        <time>2021-09-26T14:08:33.000Z</time>
      </trkpt>
      <trkpt lat="47.0844" lon="-1.80464">
        <ele>62</ele>
        <time>2021-09-26T14:08:35.000Z</time>
      </trkpt>
      <trkpt lat="47.08429" lon="-1.80464">
        <ele>62</ele>
        <time>2021-09-26T14:08:37.000Z</time>
      </trkpt>
      <trkpt lat="47.08418" lon="-1.80464">
        <ele>62</ele>
        <time>2021-09-26T14:08:39.000Z</time>
      </trkpt>
      <trkpt lat="47.08407" lon="-1.80464">
        <ele>63</ele>
        <time>2021-09-26T14:08:41.000Z</time>
      </trkpt>
      <trkpt lat="47.08397" lon="-1.80464">
        <ele>63</ele>
        <time>2021-09-26T14:08:43.000Z</time>
      </trkpt>
      <trkpt lat="47.08386" lon="-1.80465">
        <ele>63</ele>
        <time>2021-09-26T14:08:45.000Z</time>
      </trkpt>
      <trkpt lat="47.08375" lon="-1.80466">
        <ele>63</ele>
        <time>2021-09-26T14:08:47.000Z</time>
      </trkpt>
      <trkpt lat="47.08364" lon="-1.80466">
        <ele>64</ele>
        <time>2021-09-26T14:08:49.000Z</time>
      </trkpt>
      <trkpt lat="47.08353" lon="-1.80466">
        <ele>64</ele>
        <time>2021-09-26T14:08:51.000Z</time>
      </trkpt>
      <trkpt lat="47.08342" lon="-1.80466">
        <ele>63</ele>
        <time>2021-09-26T14:08:53.000Z</time>
      </trkpt>
      <trkpt lat="47.08331" lon="-1.80468">
        <ele>63</ele>
        <time>2021-09-26T14:08:55.000Z</time>
      </trkpt>
      <trkpt lat="47.0832" lon="-1.80471">
        <ele>63</ele>
        <time>2021-09-26T14:08:57.000Z</time>
      </trkpt>
      <trkpt lat="47.08309" lon="-1.80474">
        <ele>63</ele>
        <time>2021-09-26T14:08:59.000Z</time>
      </trkpt>
      <trkpt lat="47.08297" lon="-1.80478">
        <ele>63</ele>
        <time>2021-09-26T14:09:01.000Z</time>
      </trkpt>
      <trkpt lat="47.08286" lon="-1.80483">
        <ele>63</ele>
        <time>2021-09-26T14:09:03.000Z</time>
      </trkpt>
      <trkpt lat="47.08274" lon="-1.80486">
        <ele>63</ele>
        <time>2021-09-26T14:09:05.000Z</time>
      </trkpt>
      <trkpt lat="47.08261" lon="-1.8049">
        <ele>63</ele>
        <time>2021-09-26T14:09:07.000Z</time>
      </trkpt>
      <trkpt lat="47.08248" lon="-1.80494">
        <ele>62</ele>
        <time>2021-09-26T14:09:09.000Z</time>
      </trkpt>
      <trkpt lat="47.08236" lon="-1.80499">
        <ele>62</ele>
        <time>2021-09-26T14:09:11.000Z</time>
      </trkpt>
      <trkpt lat="47.08223" lon="-1.80504">
        <ele>62</ele>
        <time>2021-09-26T14:09:13.000Z</time>
      </trkpt>
      <trkpt lat="47.0821" lon="-1.80509">
        <ele>61</ele>
        <time>2021-09-26T14:09:15.000Z</time>
      </trkpt>
      <trkpt lat="47.08198" lon="-1.80515">
        <ele>60</ele>
        <time>2021-09-26T14:09:17.000Z</time>
      </trkpt>
      <trkpt lat="47.08185" lon="-1.8052">
        <ele>60</ele>
        <time>2021-09-26T14:09:19.000Z</time>
      </trkpt>
      <trkpt lat="47.08172" lon="-1.80527">
        <ele>59</ele>
        <time>2021-09-26T14:09:21.000Z</time>
      </trkpt>
      <trkpt lat="47.08158" lon="-1.80533">
        <ele>59</ele>
        <time>2021-09-26T14:09:23.000Z</time>
      </trkpt>
      <trkpt lat="47.08144" lon="-1.80539">
        <ele>59</ele>
        <time>2021-09-26T14:09:25.000Z</time>
      </trkpt>
      <trkpt lat="47.08131" lon="-1.80543">
        <ele>58</ele>
        <time>2021-09-26T14:09:27.000Z</time>
      </trkpt>
      <trkpt lat="47.08117" lon="-1.80548">
        <ele>58</ele>
        <time>2021-09-26T14:09:29.000Z</time>
      </trkpt>
      <trkpt lat="47.08102" lon="-1.80552">
        <ele>57</ele>
        <time>2021-09-26T14:09:31.000Z</time>
      </trkpt>
      <trkpt lat="47.08088" lon="-1.80555">
        <ele>57</ele>
        <time>2021-09-26T14:09:33.000Z</time>
      </trkpt>
      <trkpt lat="47.08073" lon="-1.8056">
        <ele>56</ele>
        <time>2021-09-26T14:09:35.000Z</time>
      </trkpt>
      <trkpt lat="47.08059" lon="-1.80563">
        <ele>56</ele>
        <time>2021-09-26T14:09:37.000Z</time>
      </trkpt>
      <trkpt lat="47.08044" lon="-1.80568">
        <ele>55</ele>
        <time>2021-09-26T14:09:39.000Z</time>
      </trkpt>
      <trkpt lat="47.0803" lon="-1.80572">
        <ele>56</ele>
        <time>2021-09-26T14:09:41.000Z</time>
      </trkpt>
      <trkpt lat="47.08016" lon="-1.80575">
        <ele>56</ele>
        <time>2021-09-26T14:09:43.000Z</time>
      </trkpt>
      <trkpt lat="47.08002" lon="-1.80576">
        <ele>56</ele>
        <time>2021-09-26T14:09:45.000Z</time>
      </trkpt>
      <trkpt lat="47.07988" lon="-1.80577">
        <ele>56</ele>
        <time>2021-09-26T14:09:47.000Z</time>
      </trkpt>
      <trkpt lat="47.07974" lon="-1.80576">
        <ele>56</ele>
        <time>2021-09-26T14:09:49.000Z</time>
      </trkpt>
      <trkpt lat="47.07961" lon="-1.80575">
        <ele>56</ele>
        <time>2021-09-26T14:09:51.000Z</time>
      </trkpt>
      <trkpt lat="47.07948" lon="-1.80569">
        <ele>55</ele>
        <time>2021-09-26T14:09:53.000Z</time>
      </trkpt>
      <trkpt lat="47.07937" lon="-1.80559">
        <ele>55</ele>
        <time>2021-09-26T14:09:55.000Z</time>
      </trkpt>
      <trkpt lat="47.07928" lon="-1.80544">
        <ele>55</ele>
        <time>2021-09-26T14:09:57.000Z</time>
      </trkpt>
      <trkpt lat="47.0792" lon="-1.80528">
        <ele>55</ele>
        <time>2021-09-26T14:09:59.000Z</time>
      </trkpt>
      <trkpt lat="47.07914" lon="-1.80511">
        <ele>56</ele>
        <time>2021-09-26T14:10:01.000Z</time>
      </trkpt>
      <trkpt lat="47.07908" lon="-1.80494">
        <ele>56</ele>
        <time>2021-09-26T14:10:03.000Z</time>
      </trkpt>
      <trkpt lat="47.07903" lon="-1.80476">
        <ele>56</ele>
        <time>2021-09-26T14:10:05.000Z</time>
      </trkpt>
      <trkpt lat="47.079" lon="-1.80457">
        <ele>56</ele>
        <time>2021-09-26T14:10:07.000Z</time>
      </trkpt>
      <trkpt lat="47.07898" lon="-1.80438">
        <ele>56</ele>
        <time>2021-09-26T14:10:09.000Z</time>
      </trkpt>
      <trkpt lat="47.07899" lon="-1.80418">
        <ele>55</ele>
        <time>2021-09-26T14:10:11.000Z</time>
      </trkpt>
      <trkpt lat="47.07899" lon="-1.804">
        <ele>55</ele>
        <time>2021-09-26T14:10:13.000Z</time>
      </trkpt>
      <trkpt lat="47.079" lon="-1.80382">
        <ele>54</ele>
        <time>2021-09-26T14:10:15.000Z</time>
      </trkpt>
      <trkpt lat="47.07901" lon="-1.80363">
        <ele>54</ele>
        <time>2021-09-26T14:10:17.000Z</time>
      </trkpt>
      <trkpt lat="47.07901" lon="-1.80345">
        <ele>54</ele>
        <time>2021-09-26T14:10:19.000Z</time>
      </trkpt>
      <trkpt lat="47.07902" lon="-1.80327">
        <ele>55</ele>
        <time>2021-09-26T14:10:21.000Z</time>
      </trkpt>
      <trkpt lat="47.07901" lon="-1.80309">
        <ele>55</ele>
        <time>2021-09-26T14:10:23.000Z</time>
      </trkpt>
      <trkpt lat="47.07901" lon="-1.80291">
        <ele>55</ele>
        <time>2021-09-26T14:10:25.000Z</time>
      </trkpt>
      <trkpt lat="47.07901" lon="-1.80274">
        <ele>55</ele>
        <time>2021-09-26T14:10:27.000Z</time>
      </trkpt>
      <trkpt lat="47.07901" lon="-1.80257">
        <ele>56</ele>
        <time>2021-09-26T14:10:29.000Z</time>
      </trkpt>
      <trkpt lat="47.07901" lon="-1.8024">
        <ele>56</ele>
        <time>2021-09-26T14:10:31.000Z</time>
      </trkpt>
      <trkpt lat="47.07901" lon="-1.80223">
        <ele>56</ele>
        <time>2021-09-26T14:10:33.000Z</time>
      </trkpt>
      <trkpt lat="47.07901" lon="-1.80206">
        <ele>56</ele>
        <time>2021-09-26T14:10:35.000Z</time>
      </trkpt>
      <trkpt lat="47.079" lon="-1.80189">
        <ele>56</ele>
        <time>2021-09-26T14:10:37.000Z</time>
      </trkpt>
      <trkpt lat="47.07899" lon="-1.80171">
        <ele>56</ele>
        <time>2021-09-26T14:10:39.000Z</time>
      </trkpt>
      <trkpt lat="47.07899" lon="-1.80153">
        <ele>56</ele>
        <time>2021-09-26T14:10:41.000Z</time>
      </trkpt>
      <trkpt lat="47.07899" lon="-1.80136">
        <ele>56</ele>
        <time>2021-09-26T14:10:43.000Z</time>
      </trkpt>
      <trkpt lat="47.07898" lon="-1.80118">
        <ele>56</ele>
        <time>2021-09-26T14:10:45.000Z</time>
      </trkpt>
      <trkpt lat="47.07898" lon="-1.80101">
        <ele>56</ele>
        <time>2021-09-26T14:10:47.000Z</time>
      </trkpt>
      <trkpt lat="47.07898" lon="-1.80085">
        <ele>56</ele>
        <time>2021-09-26T14:10:49.000Z</time>
      </trkpt>
      <trkpt lat="47.07898" lon="-1.80068">
        <ele>56</ele>
        <time>2021-09-26T14:10:51.000Z</time>
      </trkpt>
      <trkpt lat="47.07897" lon="-1.80051">
        <ele>56</ele>
        <time>2021-09-26T14:10:53.000Z</time>
      </trkpt>
      <trkpt lat="47.07896" lon="-1.80037">
        <ele>55</ele>
        <time>2021-09-26T14:10:55.000Z</time>
      </trkpt>
      <trkpt lat="47.07892" lon="-1.80023">
        <ele>56</ele>
        <time>2021-09-26T14:10:59.000Z</time>
      </trkpt>
      <trkpt lat="47.07886" lon="-1.80009">
        <ele>56</ele>
        <time>2021-09-26T14:11:02.000Z</time>
      </trkpt>
      <trkpt lat="47.07885" lon="-1.79993">
        <ele>56</ele>
        <time>2021-09-26T14:11:04.000Z</time>
      </trkpt>
      <trkpt lat="47.0789" lon="-1.79978">
        <ele>57</ele>
        <time>2021-09-26T14:11:06.000Z</time>
      </trkpt>
      <trkpt lat="47.07898" lon="-1.79963">
        <ele>56</ele>
        <time>2021-09-26T14:11:08.000Z</time>
      </trkpt>
      <trkpt lat="47.07902" lon="-1.79945">
        <ele>56</ele>
        <time>2021-09-26T14:11:10.000Z</time>
      </trkpt>
      <trkpt lat="47.07907" lon="-1.79926">
        <ele>56</ele>
        <time>2021-09-26T14:11:12.000Z</time>
      </trkpt>
      <trkpt lat="47.07913" lon="-1.79908">
        <ele>55</ele>
        <time>2021-09-26T14:11:14.000Z</time>
      </trkpt>
      <trkpt lat="47.0792" lon="-1.7989">
        <ele>55</ele>
        <time>2021-09-26T14:11:16.000Z</time>
      </trkpt>
      <trkpt lat="47.07927" lon="-1.79873">
        <ele>55</ele>
        <time>2021-09-26T14:11:18.000Z</time>
      </trkpt>
      <trkpt lat="47.07934" lon="-1.79855">
        <ele>55</ele>
        <time>2021-09-26T14:11:20.000Z</time>
      </trkpt>
      <trkpt lat="47.07942" lon="-1.79836">
        <ele>55</ele>
        <time>2021-09-26T14:11:22.000Z</time>
      </trkpt>
      <trkpt lat="47.07948" lon="-1.79818">
        <ele>55</ele>
        <time>2021-09-26T14:11:24.000Z</time>
      </trkpt>
      <trkpt lat="47.07954" lon="-1.79799">
        <ele>55</ele>
        <time>2021-09-26T14:11:26.000Z</time>
      </trkpt>
      <trkpt lat="47.07957" lon="-1.7978">
        <ele>54</ele>
        <time>2021-09-26T14:11:28.000Z</time>
      </trkpt>
      <trkpt lat="47.07959" lon="-1.79761">
        <ele>55</ele>
        <time>2021-09-26T14:11:30.000Z</time>
      </trkpt>
      <trkpt lat="47.07961" lon="-1.79741">
        <ele>55</ele>
        <time>2021-09-26T14:11:32.000Z</time>
      </trkpt>
      <trkpt lat="47.07962" lon="-1.79722">
        <ele>55</ele>
        <time>2021-09-26T14:11:34.000Z</time>
      </trkpt>
      <trkpt lat="47.07964" lon="-1.79703">
        <ele>56</ele>
        <time>2021-09-26T14:11:36.000Z</time>
      </trkpt>
      <trkpt lat="47.07966" lon="-1.79685">
        <ele>56</ele>
        <time>2021-09-26T14:11:38.000Z</time>
      </trkpt>
      <trkpt lat="47.07967" lon="-1.79666">
        <ele>56</ele>
        <time>2021-09-26T14:11:40.000Z</time>
      </trkpt>
      <trkpt lat="47.07967" lon="-1.79647">
        <ele>55</ele>
        <time>2021-09-26T14:11:42.000Z</time>
      </trkpt>
      <trkpt lat="47.07967" lon="-1.79627">
        <ele>55</ele>
        <time>2021-09-26T14:11:44.000Z</time>
      </trkpt>
      <trkpt lat="47.07966" lon="-1.79608">
        <ele>55</ele>
        <time>2021-09-26T14:11:46.000Z</time>
      </trkpt>
      <trkpt lat="47.07965" lon="-1.79588">
        <ele>55</ele>
        <time>2021-09-26T14:11:48.000Z</time>
      </trkpt>
      <trkpt lat="47.07963" lon="-1.79568">
        <ele>55</ele>
        <time>2021-09-26T14:11:50.000Z</time>
      </trkpt>
      <trkpt lat="47.0796" lon="-1.79548">
        <ele>54</ele>
        <time>2021-09-26T14:11:52.000Z</time>
      </trkpt>
      <trkpt lat="47.07957" lon="-1.79529">
        <ele>55</ele>
        <time>2021-09-26T14:11:54.000Z</time>
      </trkpt>
      <trkpt lat="47.07953" lon="-1.7951">
        <ele>54</ele>
        <time>2021-09-26T14:11:56.000Z</time>
      </trkpt>
      <trkpt lat="47.07948" lon="-1.79492">
        <ele>53</ele>
        <time>2021-09-26T14:11:58.000Z</time>
      </trkpt>
      <trkpt lat="47.07943" lon="-1.79472">
        <ele>53</ele>
        <time>2021-09-26T14:12:00.000Z</time>
      </trkpt>
      <trkpt lat="47.07938" lon="-1.79453">
        <ele>53</ele>
        <time>2021-09-26T14:12:02.000Z</time>
      </trkpt>
      <trkpt lat="47.07933" lon="-1.79434">
        <ele>52</ele>
        <time>2021-09-26T14:12:04.000Z</time>
      </trkpt>
      <trkpt lat="47.07928" lon="-1.79414">
        <ele>51</ele>
        <time>2021-09-26T14:12:06.000Z</time>
      </trkpt>
      <trkpt lat="47.07923" lon="-1.79395">
        <ele>51</ele>
        <time>2021-09-26T14:12:08.000Z</time>
      </trkpt>
      <trkpt lat="47.07917" lon="-1.79374">
        <ele>51</ele>
        <time>2021-09-26T14:12:10.000Z</time>
      </trkpt>
      <trkpt lat="47.07911" lon="-1.79354">
        <ele>51</ele>
        <time>2021-09-26T14:12:12.000Z</time>
      </trkpt>
      <trkpt lat="47.07906" lon="-1.79333">
        <ele>51</ele>
        <time>2021-09-26T14:12:14.000Z</time>
      </trkpt>
      <trkpt lat="47.079" lon="-1.79313">
        <ele>51</ele>
        <time>2021-09-26T14:12:16.000Z</time>
      </trkpt>
      <trkpt lat="47.07895" lon="-1.79292">
        <ele>50</ele>
        <time>2021-09-26T14:12:18.000Z</time>
      </trkpt>
      <trkpt lat="47.07889" lon="-1.7927">
        <ele>50</ele>
        <time>2021-09-26T14:12:20.000Z</time>
      </trkpt>
      <trkpt lat="47.07884" lon="-1.79249">
        <ele>50</ele>
        <time>2021-09-26T14:12:22.000Z</time>
      </trkpt>
      <trkpt lat="47.07878" lon="-1.79227">
        <ele>49</ele>
        <time>2021-09-26T14:12:24.000Z</time>
      </trkpt>
      <trkpt lat="47.07872" lon="-1.79205">
        <ele>49</ele>
        <time>2021-09-26T14:12:26.000Z</time>
      </trkpt>
      <trkpt lat="47.07866" lon="-1.79182">
        <ele>49</ele>
        <time>2021-09-26T14:12:28.000Z</time>
      </trkpt>
      <trkpt lat="47.0786" lon="-1.79159">
        <ele>48</ele>
        <time>2021-09-26T14:12:30.000Z</time>
      </trkpt>
      <trkpt lat="47.07854" lon="-1.79136">
        <ele>48</ele>
        <time>2021-09-26T14:12:32.000Z</time>
      </trkpt>
      <trkpt lat="47.07848" lon="-1.79113">
        <ele>47</ele>
        <time>2021-09-26T14:12:34.000Z</time>
      </trkpt>
      <trkpt lat="47.07842" lon="-1.79091">
        <ele>47</ele>
        <time>2021-09-26T14:12:36.000Z</time>
      </trkpt>
      <trkpt lat="47.07837" lon="-1.79069">
        <ele>47</ele>
        <time>2021-09-26T14:12:38.000Z</time>
      </trkpt>
      <trkpt lat="47.07832" lon="-1.79048">
        <ele>46</ele>
        <time>2021-09-26T14:12:40.000Z</time>
      </trkpt>
      <trkpt lat="47.07826" lon="-1.79027">
        <ele>46</ele>
        <time>2021-09-26T14:12:42.000Z</time>
      </trkpt>
      <trkpt lat="47.07821" lon="-1.79006">
        <ele>47</ele>
        <time>2021-09-26T14:12:44.000Z</time>
      </trkpt>
      <trkpt lat="47.07815" lon="-1.78985">
        <ele>47</ele>
        <time>2021-09-26T14:12:46.000Z</time>
      </trkpt>
      <trkpt lat="47.0781" lon="-1.78964">
        <ele>47</ele>
        <time>2021-09-26T14:12:48.000Z</time>
      </trkpt>
      <trkpt lat="47.07805" lon="-1.78944">
        <ele>47</ele>
        <time>2021-09-26T14:12:50.000Z</time>
      </trkpt>
      <trkpt lat="47.078" lon="-1.78925">
        <ele>48</ele>
        <time>2021-09-26T14:12:52.000Z</time>
      </trkpt>
      <trkpt lat="47.07796" lon="-1.78907">
        <ele>49</ele>
        <time>2021-09-26T14:12:54.000Z</time>
      </trkpt>
      <trkpt lat="47.07792" lon="-1.7889">
        <ele>50</ele>
        <time>2021-09-26T14:12:56.000Z</time>
      </trkpt>
      <trkpt lat="47.07787" lon="-1.78874">
        <ele>50</ele>
        <time>2021-09-26T14:12:58.000Z</time>
      </trkpt>
      <trkpt lat="47.07784" lon="-1.78858">
        <ele>50</ele>
        <time>2021-09-26T14:13:00.000Z</time>
      </trkpt>
      <trkpt lat="47.0778" lon="-1.78842">
        <ele>51</ele>
        <time>2021-09-26T14:13:02.000Z</time>
      </trkpt>
      <trkpt lat="47.07776" lon="-1.78825">
        <ele>50</ele>
        <time>2021-09-26T14:13:04.000Z</time>
      </trkpt>
      <trkpt lat="47.07772" lon="-1.78808">
        <ele>51</ele>
        <time>2021-09-26T14:13:06.000Z</time>
      </trkpt>
      <trkpt lat="47.07767" lon="-1.78792">
        <ele>52</ele>
        <time>2021-09-26T14:13:08.000Z</time>
      </trkpt>
      <trkpt lat="47.07762" lon="-1.78776">
        <ele>52</ele>
        <time>2021-09-26T14:13:10.000Z</time>
      </trkpt>
      <trkpt lat="47.07756" lon="-1.78759">
        <ele>53</ele>
        <time>2021-09-26T14:13:12.000Z</time>
      </trkpt>
      <trkpt lat="47.07749" lon="-1.78743">
        <ele>53</ele>
        <time>2021-09-26T14:13:14.000Z</time>
      </trkpt>
      <trkpt lat="47.07742" lon="-1.78728">
        <ele>54</ele>
        <time>2021-09-26T14:13:16.000Z</time>
      </trkpt>
      <trkpt lat="47.07735" lon="-1.78713">
        <ele>55</ele>
        <time>2021-09-26T14:13:18.000Z</time>
      </trkpt>
      <trkpt lat="47.07728" lon="-1.787">
        <ele>56</ele>
        <time>2021-09-26T14:13:20.000Z</time>
      </trkpt>
      <trkpt lat="47.07721" lon="-1.78686">
        <ele>57</ele>
        <time>2021-09-26T14:13:22.000Z</time>
      </trkpt>
      <trkpt lat="47.07714" lon="-1.78672">
        <ele>57</ele>
        <time>2021-09-26T14:13:24.000Z</time>
      </trkpt>
      <trkpt lat="47.07707" lon="-1.78659">
        <ele>57</ele>
        <time>2021-09-26T14:13:26.000Z</time>
      </trkpt>
      <trkpt lat="47.07701" lon="-1.78645">
        <ele>57</ele>
        <time>2021-09-26T14:13:28.000Z</time>
      </trkpt>
      <trkpt lat="47.07694" lon="-1.78632">
        <ele>58</ele>
        <time>2021-09-26T14:13:30.000Z</time>
      </trkpt>
      <trkpt lat="47.07688" lon="-1.78618">
        <ele>58</ele>
        <time>2021-09-26T14:13:32.000Z</time>
      </trkpt>
      <trkpt lat="47.07681" lon="-1.78605">
        <ele>59</ele>
        <time>2021-09-26T14:13:34.000Z</time>
      </trkpt>
      <trkpt lat="47.07675" lon="-1.7859">
        <ele>58</ele>
        <time>2021-09-26T14:13:36.000Z</time>
      </trkpt>
      <trkpt lat="47.07669" lon="-1.78575">
        <ele>59</ele>
        <time>2021-09-26T14:13:38.000Z</time>
      </trkpt>
      <trkpt lat="47.07663" lon="-1.78561">
        <ele>59</ele>
        <time>2021-09-26T14:13:40.000Z</time>
      </trkpt>
      <trkpt lat="47.07658" lon="-1.78545">
        <ele>58</ele>
        <time>2021-09-26T14:13:42.000Z</time>
      </trkpt>
      <trkpt lat="47.07654" lon="-1.78529">
        <ele>58</ele>
        <time>2021-09-26T14:13:44.000Z</time>
      </trkpt>
      <trkpt lat="47.07649" lon="-1.78512">
        <ele>58</ele>
        <time>2021-09-26T14:13:46.000Z</time>
      </trkpt>
      <trkpt lat="47.07645" lon="-1.78496">
        <ele>58</ele>
        <time>2021-09-26T14:13:48.000Z</time>
      </trkpt>
      <trkpt lat="47.07641" lon="-1.78479">
        <ele>58</ele>
        <time>2021-09-26T14:13:50.000Z</time>
      </trkpt>
      <trkpt lat="47.07635" lon="-1.78462">
        <ele>57</ele>
        <time>2021-09-26T14:13:52.000Z</time>
      </trkpt>
      <trkpt lat="47.07629" lon="-1.78446">
        <ele>57</ele>
        <time>2021-09-26T14:13:54.000Z</time>
      </trkpt>
      <trkpt lat="47.07622" lon="-1.7843">
        <ele>57</ele>
        <time>2021-09-26T14:13:56.000Z</time>
      </trkpt>
      <trkpt lat="47.07615" lon="-1.78415">
        <ele>57</ele>
        <time>2021-09-26T14:13:58.000Z</time>
      </trkpt>
      <trkpt lat="47.07608" lon="-1.78399">
        <ele>57</ele>
        <time>2021-09-26T14:14:00.000Z</time>
      </trkpt>
      <trkpt lat="47.076" lon="-1.78384">
        <ele>58</ele>
        <time>2021-09-26T14:14:02.000Z</time>
      </trkpt>
      <trkpt lat="47.07591" lon="-1.7837">
        <ele>58</ele>
        <time>2021-09-26T14:14:04.000Z</time>
      </trkpt>
      <trkpt lat="47.07583" lon="-1.78355">
        <ele>57</ele>
        <time>2021-09-26T14:14:06.000Z</time>
      </trkpt>
      <trkpt lat="47.07575" lon="-1.7834">
        <ele>57</ele>
        <time>2021-09-26T14:14:08.000Z</time>
      </trkpt>
      <trkpt lat="47.07567" lon="-1.78325">
        <ele>57</ele>
        <time>2021-09-26T14:14:10.000Z</time>
      </trkpt>
      <trkpt lat="47.07559" lon="-1.78311">
        <ele>58</ele>
        <time>2021-09-26T14:14:12.000Z</time>
      </trkpt>
      <trkpt lat="47.07552" lon="-1.78297">
        <ele>58</ele>
        <time>2021-09-26T14:14:14.000Z</time>
      </trkpt>
      <trkpt lat="47.07544" lon="-1.78282">
        <ele>57</ele>
        <time>2021-09-26T14:14:16.000Z</time>
      </trkpt>
      <trkpt lat="47.07536" lon="-1.78268">
        <ele>57</ele>
        <time>2021-09-26T14:14:18.000Z</time>
      </trkpt>
      <trkpt lat="47.07529" lon="-1.78254">
        <ele>58</ele>
        <time>2021-09-26T14:14:20.000Z</time>
      </trkpt>
      <trkpt lat="47.07521" lon="-1.7824">
        <ele>58</ele>
        <time>2021-09-26T14:14:22.000Z</time>
      </trkpt>
      <trkpt lat="47.07514" lon="-1.78226">
        <ele>59</ele>
        <time>2021-09-26T14:14:24.000Z</time>
      </trkpt>
      <trkpt lat="47.07505" lon="-1.78213">
        <ele>59</ele>
        <time>2021-09-26T14:14:26.000Z</time>
      </trkpt>
      <trkpt lat="47.07497" lon="-1.78199">
        <ele>60</ele>
        <time>2021-09-26T14:14:28.000Z</time>
      </trkpt>
      <trkpt lat="47.07487" lon="-1.78186">
        <ele>60</ele>
        <time>2021-09-26T14:14:30.000Z</time>
      </trkpt>
      <trkpt lat="47.07478" lon="-1.78174">
        <ele>59</ele>
        <time>2021-09-26T14:14:32.000Z</time>
      </trkpt>
      <trkpt lat="47.07468" lon="-1.78162">
        <ele>59</ele>
        <time>2021-09-26T14:14:34.000Z</time>
      </trkpt>
      <trkpt lat="47.07458" lon="-1.78151">
        <ele>59</ele>
        <time>2021-09-26T14:14:36.000Z</time>
      </trkpt>
      <trkpt lat="47.07448" lon="-1.78141">
        <ele>59</ele>
        <time>2021-09-26T14:14:38.000Z</time>
      </trkpt>
      <trkpt lat="47.07438" lon="-1.78133">
        <ele>58</ele>
        <time>2021-09-26T14:14:40.000Z</time>
      </trkpt>
      <trkpt lat="47.07428" lon="-1.78124">
        <ele>59</ele>
        <time>2021-09-26T14:14:42.000Z</time>
      </trkpt>
      <trkpt lat="47.07417" lon="-1.78115">
        <ele>59</ele>
        <time>2021-09-26T14:14:44.000Z</time>
      </trkpt>
      <trkpt lat="47.07407" lon="-1.78105">
        <ele>59</ele>
        <time>2021-09-26T14:14:46.000Z</time>
      </trkpt>
      <trkpt lat="47.07398" lon="-1.78095">
        <ele>59</ele>
        <time>2021-09-26T14:14:48.000Z</time>
      </trkpt>
      <trkpt lat="47.07388" lon="-1.78085">
        <ele>59</ele>
        <time>2021-09-26T14:14:50.000Z</time>
      </trkpt>
      <trkpt lat="47.07379" lon="-1.78075">
        <ele>58</ele>
        <time>2021-09-26T14:14:52.000Z</time>
      </trkpt>
      <trkpt lat="47.0737" lon="-1.78064">
        <ele>58</ele>
        <time>2021-09-26T14:14:54.000Z</time>
      </trkpt>
      <trkpt lat="47.0736" lon="-1.78052">
        <ele>59</ele>
        <time>2021-09-26T14:14:56.000Z</time>
      </trkpt>
      <trkpt lat="47.07351" lon="-1.7804">
        <ele>59</ele>
        <time>2021-09-26T14:14:58.000Z</time>
      </trkpt>
      <trkpt lat="47.07341" lon="-1.78029">
        <ele>59</ele>
        <time>2021-09-26T14:15:00.000Z</time>
      </trkpt>
      <trkpt lat="47.07331" lon="-1.78017">
        <ele>59</ele>
        <time>2021-09-26T14:15:02.000Z</time>
      </trkpt>
      <trkpt lat="47.07322" lon="-1.78006">
        <ele>60</ele>
        <time>2021-09-26T14:15:04.000Z</time>
      </trkpt>
      <trkpt lat="47.07313" lon="-1.77996">
        <ele>60</ele>
        <time>2021-09-26T14:15:06.000Z</time>
      </trkpt>
      <trkpt lat="47.07305" lon="-1.77986">
        <ele>60</ele>
        <time>2021-09-26T14:15:08.000Z</time>
      </trkpt>
      <trkpt lat="47.07297" lon="-1.77975">
        <ele>60</ele>
        <time>2021-09-26T14:15:10.000Z</time>
      </trkpt>
      <trkpt lat="47.07289" lon="-1.77966">
        <ele>60</ele>
        <time>2021-09-26T14:15:12.000Z</time>
      </trkpt>
      <trkpt lat="47.07281" lon="-1.77955">
        <ele>61</ele>
        <time>2021-09-26T14:15:14.000Z</time>
      </trkpt>
      <trkpt lat="47.07272" lon="-1.77946">
        <ele>61</ele>
        <time>2021-09-26T14:15:16.000Z</time>
      </trkpt>
      <trkpt lat="47.07263" lon="-1.77936">
        <ele>61</ele>
        <time>2021-09-26T14:15:18.000Z</time>
      </trkpt>
      <trkpt lat="47.07254" lon="-1.77925">
        <ele>60</ele>
        <time>2021-09-26T14:15:20.000Z</time>
      </trkpt>
      <trkpt lat="47.07246" lon="-1.77915">
        <ele>61</ele>
        <time>2021-09-26T14:15:22.000Z</time>
      </trkpt>
      <trkpt lat="47.07237" lon="-1.77904">
        <ele>60</ele>
        <time>2021-09-26T14:15:24.000Z</time>
      </trkpt>
      <trkpt lat="47.07227" lon="-1.77893">
        <ele>60</ele>
        <time>2021-09-26T14:15:26.000Z</time>
      </trkpt>
      <trkpt lat="47.07216" lon="-1.77883">
        <ele>60</ele>
        <time>2021-09-26T14:15:28.000Z</time>
      </trkpt>
      <trkpt lat="47.07206" lon="-1.77872">
        <ele>59</ele>
        <time>2021-09-26T14:15:30.000Z</time>
      </trkpt>
      <trkpt lat="47.07197" lon="-1.77859">
        <ele>58</ele>
        <time>2021-09-26T14:15:32.000Z</time>
      </trkpt>
      <trkpt lat="47.07186" lon="-1.77846">
        <ele>58</ele>
        <time>2021-09-26T14:15:34.000Z</time>
      </trkpt>
      <trkpt lat="47.07175" lon="-1.77832">
        <ele>58</ele>
        <time>2021-09-26T14:15:36.000Z</time>
      </trkpt>
      <trkpt lat="47.07165" lon="-1.77818">
        <ele>59</ele>
        <time>2021-09-26T14:15:38.000Z</time>
      </trkpt>
      <trkpt lat="47.07155" lon="-1.77803">
        <ele>59</ele>
        <time>2021-09-26T14:15:40.000Z</time>
      </trkpt>
      <trkpt lat="47.07145" lon="-1.77788">
        <ele>60</ele>
        <time>2021-09-26T14:15:42.000Z</time>
      </trkpt>
      <trkpt lat="47.07137" lon="-1.77773">
        <ele>60</ele>
        <time>2021-09-26T14:15:44.000Z</time>
      </trkpt>
      <trkpt lat="47.07129" lon="-1.77757">
        <ele>60</ele>
        <time>2021-09-26T14:15:46.000Z</time>
      </trkpt>
      <trkpt lat="47.07122" lon="-1.77741">
        <ele>60</ele>
        <time>2021-09-26T14:15:48.000Z</time>
      </trkpt>
      <trkpt lat="47.07115" lon="-1.77725">
        <ele>60</ele>
        <time>2021-09-26T14:15:50.000Z</time>
      </trkpt>
      <trkpt lat="47.07109" lon="-1.77709">
        <ele>60</ele>
        <time>2021-09-26T14:15:52.000Z</time>
      </trkpt>
      <trkpt lat="47.07102" lon="-1.77694">
        <ele>60</ele>
        <time>2021-09-26T14:15:54.000Z</time>
      </trkpt>
      <trkpt lat="47.07096" lon="-1.77677">
        <ele>60</ele>
        <time>2021-09-26T14:15:56.000Z</time>
      </trkpt>
      <trkpt lat="47.0709" lon="-1.77662">
        <ele>60</ele>
        <time>2021-09-26T14:15:58.000Z</time>
      </trkpt>
      <trkpt lat="47.07083" lon="-1.77646">
        <ele>60</ele>
        <time>2021-09-26T14:16:00.000Z</time>
      </trkpt>
      <trkpt lat="47.07077" lon="-1.77631">
        <ele>60</ele>
        <time>2021-09-26T14:16:02.000Z</time>
      </trkpt>
      <trkpt lat="47.07071" lon="-1.77615">
        <ele>60</ele>
        <time>2021-09-26T14:16:04.000Z</time>
      </trkpt>
      <trkpt lat="47.07065" lon="-1.77599">
        <ele>60</ele>
        <time>2021-09-26T14:16:06.000Z</time>
      </trkpt>
      <trkpt lat="47.07059" lon="-1.77584">
        <ele>60</ele>
        <time>2021-09-26T14:16:08.000Z</time>
      </trkpt>
      <trkpt lat="47.07052" lon="-1.77568">
        <ele>61</ele>
        <time>2021-09-26T14:16:10.000Z</time>
      </trkpt>
      <trkpt lat="47.07046" lon="-1.77553">
        <ele>62</ele>
        <time>2021-09-26T14:16:12.000Z</time>
      </trkpt>
      <trkpt lat="47.0704" lon="-1.77538">
        <ele>62</ele>
        <time>2021-09-26T14:16:14.000Z</time>
      </trkpt>
      <trkpt lat="47.07034" lon="-1.77523">
        <ele>62</ele>
        <time>2021-09-26T14:16:16.000Z</time>
      </trkpt>
      <trkpt lat="47.07028" lon="-1.77507">
        <ele>62</ele>
        <time>2021-09-26T14:16:18.000Z</time>
      </trkpt>
      <trkpt lat="47.07022" lon="-1.77491">
        <ele>63</ele>
        <time>2021-09-26T14:16:20.000Z</time>
      </trkpt>
      <trkpt lat="47.07015" lon="-1.77476">
        <ele>63</ele>
        <time>2021-09-26T14:16:22.000Z</time>
      </trkpt>
      <trkpt lat="47.07008" lon="-1.77461">
        <ele>63</ele>
        <time>2021-09-26T14:16:24.000Z</time>
      </trkpt>
      <trkpt lat="47.07001" lon="-1.77446">
        <ele>63</ele>
        <time>2021-09-26T14:16:26.000Z</time>
      </trkpt>
      <trkpt lat="47.06994" lon="-1.77432">
        <ele>63</ele>
        <time>2021-09-26T14:16:28.000Z</time>
      </trkpt>
      <trkpt lat="47.06986" lon="-1.77419">
        <ele>63</ele>
        <time>2021-09-26T14:16:30.000Z</time>
      </trkpt>
      <trkpt lat="47.06978" lon="-1.77408">
        <ele>63</ele>
        <time>2021-09-26T14:16:32.000Z</time>
      </trkpt>
      <trkpt lat="47.06969" lon="-1.77396">
        <ele>63</ele>
        <time>2021-09-26T14:16:34.000Z</time>
      </trkpt>
      <trkpt lat="47.0696" lon="-1.77384">
        <ele>63</ele>
        <time>2021-09-26T14:16:36.000Z</time>
      </trkpt>
      <trkpt lat="47.06951" lon="-1.7737">
        <ele>63</ele>
        <time>2021-09-26T14:16:38.000Z</time>
      </trkpt>
      <trkpt lat="47.06943" lon="-1.77358">
        <ele>62</ele>
        <time>2021-09-26T14:16:40.000Z</time>
      </trkpt>
      <trkpt lat="47.06934" lon="-1.77346">
        <ele>63</ele>
        <time>2021-09-26T14:16:42.000Z</time>
      </trkpt>
      <trkpt lat="47.06925" lon="-1.77334">
        <ele>63</ele>
        <time>2021-09-26T14:16:44.000Z</time>
      </trkpt>
      <trkpt lat="47.06916" lon="-1.77322">
        <ele>63</ele>
        <time>2021-09-26T14:16:46.000Z</time>
      </trkpt>
      <trkpt lat="47.06907" lon="-1.77309">
        <ele>63</ele>
        <time>2021-09-26T14:16:48.000Z</time>
      </trkpt>
      <trkpt lat="47.06898" lon="-1.77297">
        <ele>62</ele>
        <time>2021-09-26T14:16:50.000Z</time>
      </trkpt>
      <trkpt lat="47.0689" lon="-1.77286">
        <ele>62</ele>
        <time>2021-09-26T14:16:52.000Z</time>
      </trkpt>
      <trkpt lat="47.06882" lon="-1.77274">
        <ele>62</ele>
        <time>2021-09-26T14:16:54.000Z</time>
      </trkpt>
      <trkpt lat="47.06874" lon="-1.77262">
        <ele>62</ele>
        <time>2021-09-26T14:16:56.000Z</time>
      </trkpt>
      <trkpt lat="47.06866" lon="-1.77249">
        <ele>62</ele>
        <time>2021-09-26T14:16:58.000Z</time>
      </trkpt>
      <trkpt lat="47.06858" lon="-1.77237">
        <ele>62</ele>
        <time>2021-09-26T14:17:00.000Z</time>
      </trkpt>
      <trkpt lat="47.06849" lon="-1.77225">
        <ele>62</ele>
        <time>2021-09-26T14:17:02.000Z</time>
      </trkpt>
      <trkpt lat="47.0684" lon="-1.77213">
        <ele>62</ele>
        <time>2021-09-26T14:17:04.000Z</time>
      </trkpt>
      <trkpt lat="47.06831" lon="-1.772">
        <ele>61</ele>
        <time>2021-09-26T14:17:06.000Z</time>
      </trkpt>
      <trkpt lat="47.06823" lon="-1.77186">
        <ele>62</ele>
        <time>2021-09-26T14:17:08.000Z</time>
      </trkpt>
      <trkpt lat="47.06814" lon="-1.77173">
        <ele>63</ele>
        <time>2021-09-26T14:17:10.000Z</time>
      </trkpt>
      <trkpt lat="47.06806" lon="-1.77161">
        <ele>63</ele>
        <time>2021-09-26T14:17:12.000Z</time>
      </trkpt>
      <trkpt lat="47.06797" lon="-1.77148">
        <ele>64</ele>
        <time>2021-09-26T14:17:14.000Z</time>
      </trkpt>
      <trkpt lat="47.06789" lon="-1.77135">
        <ele>64</ele>
        <time>2021-09-26T14:17:16.000Z</time>
      </trkpt>
      <trkpt lat="47.0678" lon="-1.77121">
        <ele>64</ele>
        <time>2021-09-26T14:17:18.000Z</time>
      </trkpt>
      <trkpt lat="47.06772" lon="-1.77108">
        <ele>64</ele>
        <time>2021-09-26T14:17:20.000Z</time>
      </trkpt>
      <trkpt lat="47.06765" lon="-1.77095">
        <ele>64</ele>
        <time>2021-09-26T14:17:22.000Z</time>
      </trkpt>
      <trkpt lat="47.06757" lon="-1.77082">
        <ele>64</ele>
        <time>2021-09-26T14:17:24.000Z</time>
      </trkpt>
      <trkpt lat="47.0675" lon="-1.7707">
        <ele>64</ele>
        <time>2021-09-26T14:17:26.000Z</time>
      </trkpt>
      <trkpt lat="47.06742" lon="-1.77057">
        <ele>65</ele>
        <time>2021-09-26T14:17:28.000Z</time>
      </trkpt>
      <trkpt lat="47.06734" lon="-1.77044">
        <ele>65</ele>
        <time>2021-09-26T14:17:30.000Z</time>
      </trkpt>
      <trkpt lat="47.06726" lon="-1.77032">
        <ele>65</ele>
        <time>2021-09-26T14:17:32.000Z</time>
      </trkpt>
      <trkpt lat="47.06719" lon="-1.77019">
        <ele>64</ele>
        <time>2021-09-26T14:17:34.000Z</time>
      </trkpt>
      <trkpt lat="47.06711" lon="-1.77006">
        <ele>65</ele>
        <time>2021-09-26T14:17:36.000Z</time>
      </trkpt>
      <trkpt lat="47.06703" lon="-1.76993">
        <ele>64</ele>
        <time>2021-09-26T14:17:38.000Z</time>
      </trkpt>
      <trkpt lat="47.06696" lon="-1.76979">
        <ele>64</ele>
        <time>2021-09-26T14:17:40.000Z</time>
      </trkpt>
      <trkpt lat="47.06688" lon="-1.76966">
        <ele>64</ele>
        <time>2021-09-26T14:17:42.000Z</time>
      </trkpt>
      <trkpt lat="47.0668" lon="-1.76953">
        <ele>65</ele>
        <time>2021-09-26T14:17:44.000Z</time>
      </trkpt>
      <trkpt lat="47.06672" lon="-1.76941">
        <ele>65</ele>
        <time>2021-09-26T14:17:46.000Z</time>
      </trkpt>
      <trkpt lat="47.06665" lon="-1.76928">
        <ele>65</ele>
        <time>2021-09-26T14:17:48.000Z</time>
      </trkpt>
      <trkpt lat="47.06658" lon="-1.76915">
        <ele>66</ele>
        <time>2021-09-26T14:17:50.000Z</time>
      </trkpt>
      <trkpt lat="47.0665" lon="-1.76903">
        <ele>66</ele>
        <time>2021-09-26T14:17:52.000Z</time>
      </trkpt>
      <trkpt lat="47.06643" lon="-1.7689">
        <ele>67</ele>
        <time>2021-09-26T14:17:54.000Z</time>
      </trkpt>
      <trkpt lat="47.06636" lon="-1.76878">
        <ele>67</ele>
        <time>2021-09-26T14:17:56.000Z</time>
      </trkpt>
      <trkpt lat="47.06628" lon="-1.76864">
        <ele>67</ele>
        <time>2021-09-26T14:17:58.000Z</time>
      </trkpt>
      <trkpt lat="47.06621" lon="-1.76851">
        <ele>67</ele>
        <time>2021-09-26T14:18:00.000Z</time>
      </trkpt>
      <trkpt lat="47.06613" lon="-1.76839">
        <ele>67</ele>
        <time>2021-09-26T14:18:02.000Z</time>
      </trkpt>
      <trkpt lat="47.06605" lon="-1.76826">
        <ele>68</ele>
        <time>2021-09-26T14:18:04.000Z</time>
      </trkpt>
      <trkpt lat="47.06598" lon="-1.76813">
        <ele>68</ele>
        <time>2021-09-26T14:18:06.000Z</time>
      </trkpt>
      <trkpt lat="47.0659" lon="-1.76801">
        <ele>68</ele>
        <time>2021-09-26T14:18:08.000Z</time>
      </trkpt>
      <trkpt lat="47.06583" lon="-1.76789">
        <ele>68</ele>
        <time>2021-09-26T14:18:10.000Z</time>
      </trkpt>
      <trkpt lat="47.06576" lon="-1.76776">
        <ele>69</ele>
        <time>2021-09-26T14:18:12.000Z</time>
      </trkpt>
      <trkpt lat="47.06568" lon="-1.76764">
        <ele>69</ele>
        <time>2021-09-26T14:18:14.000Z</time>
      </trkpt>
      <trkpt lat="47.06561" lon="-1.76752">
        <ele>69</ele>
        <time>2021-09-26T14:18:16.000Z</time>
      </trkpt>
      <trkpt lat="47.06554" lon="-1.7674">
        <ele>69</ele>
        <time>2021-09-26T14:18:18.000Z</time>
      </trkpt>
      <trkpt lat="47.06546" lon="-1.76727">
        <ele>69</ele>
        <time>2021-09-26T14:18:20.000Z</time>
      </trkpt>
      <trkpt lat="47.06538" lon="-1.76713">
        <ele>70</ele>
        <time>2021-09-26T14:18:22.000Z</time>
      </trkpt>
      <trkpt lat="47.06531" lon="-1.767">
        <ele>70</ele>
        <time>2021-09-26T14:18:24.000Z</time>
      </trkpt>
      <trkpt lat="47.06523" lon="-1.76688">
        <ele>70</ele>
        <time>2021-09-26T14:18:26.000Z</time>
      </trkpt>
      <trkpt lat="47.06515" lon="-1.76675">
        <ele>70</ele>
        <time>2021-09-26T14:18:28.000Z</time>
      </trkpt>
      <trkpt lat="47.06508" lon="-1.76661">
        <ele>69</ele>
        <time>2021-09-26T14:18:30.000Z</time>
      </trkpt>
      <trkpt lat="47.065" lon="-1.76648">
        <ele>69</ele>
        <time>2021-09-26T14:18:32.000Z</time>
      </trkpt>
      <trkpt lat="47.06491" lon="-1.76634">
        <ele>69</ele>
        <time>2021-09-26T14:18:34.000Z</time>
      </trkpt>
      <trkpt lat="47.06484" lon="-1.7662">
        <ele>69</ele>
        <time>2021-09-26T14:18:36.000Z</time>
      </trkpt>
      <trkpt lat="47.06476" lon="-1.76606">
        <ele>69</ele>
        <time>2021-09-26T14:18:38.000Z</time>
      </trkpt>
      <trkpt lat="47.06469" lon="-1.76591">
        <ele>69</ele>
        <time>2021-09-26T14:18:40.000Z</time>
      </trkpt>
      <trkpt lat="47.06461" lon="-1.76575">
        <ele>69</ele>
        <time>2021-09-26T14:18:42.000Z</time>
      </trkpt>
      <trkpt lat="47.06454" lon="-1.7656">
        <ele>69</ele>
        <time>2021-09-26T14:18:44.000Z</time>
      </trkpt>
      <trkpt lat="47.06448" lon="-1.76544">
        <ele>69</ele>
        <time>2021-09-26T14:18:46.000Z</time>
      </trkpt>
      <trkpt lat="47.06442" lon="-1.76528">
        <ele>69</ele>
        <time>2021-09-26T14:18:48.000Z</time>
      </trkpt>
      <trkpt lat="47.06436" lon="-1.76512">
        <ele>68</ele>
        <time>2021-09-26T14:18:50.000Z</time>
      </trkpt>
      <trkpt lat="47.06429" lon="-1.76496">
        <ele>68</ele>
        <time>2021-09-26T14:18:52.000Z</time>
      </trkpt>
      <trkpt lat="47.06423" lon="-1.76479">
        <ele>67</ele>
        <time>2021-09-26T14:18:54.000Z</time>
      </trkpt>
      <trkpt lat="47.06416" lon="-1.76462">
        <ele>67</ele>
        <time>2021-09-26T14:18:56.000Z</time>
      </trkpt>
      <trkpt lat="47.06408" lon="-1.76447">
        <ele>68</ele>
        <time>2021-09-26T14:18:58.000Z</time>
      </trkpt>
      <trkpt lat="47.06399" lon="-1.76433">
        <ele>68</ele>
        <time>2021-09-26T14:19:00.000Z</time>
      </trkpt>
      <trkpt lat="47.06389" lon="-1.7642">
        <ele>68</ele>
        <time>2021-09-26T14:19:02.000Z</time>
      </trkpt>
      <trkpt lat="47.06378" lon="-1.7641">
        <ele>68</ele>
        <time>2021-09-26T14:19:04.000Z</time>
      </trkpt>
      <trkpt lat="47.06366" lon="-1.76402">
        <ele>68</ele>
        <time>2021-09-26T14:19:06.000Z</time>
      </trkpt>
      <trkpt lat="47.06354" lon="-1.76395">
        <ele>68</ele>
        <time>2021-09-26T14:19:08.000Z</time>
      </trkpt>
      <trkpt lat="47.06342" lon="-1.7639">
        <ele>68</ele>
        <time>2021-09-26T14:19:10.000Z</time>
      </trkpt>
      <trkpt lat="47.0633" lon="-1.76384">
        <ele>68</ele>
        <time>2021-09-26T14:19:12.000Z</time>
      </trkpt>
      <trkpt lat="47.06319" lon="-1.76378">
        <ele>68</ele>
        <time>2021-09-26T14:19:14.000Z</time>
      </trkpt>
      <trkpt lat="47.06309" lon="-1.7637">
        <ele>68</ele>
        <time>2021-09-26T14:19:16.000Z</time>
      </trkpt>
      <trkpt lat="47.06302" lon="-1.76359">
        <ele>69</ele>
        <time>2021-09-26T14:19:18.000Z</time>
      </trkpt>
      <trkpt lat="47.06297" lon="-1.76344">
        <ele>69</ele>
        <time>2021-09-26T14:19:21.000Z</time>
      </trkpt>
      <trkpt lat="47.06293" lon="-1.76329">
        <ele>69</ele>
        <time>2021-09-26T14:19:24.000Z</time>
      </trkpt>
      <trkpt lat="47.06293" lon="-1.76313">
        <ele>69</ele>
        <time>2021-09-26T14:19:26.000Z</time>
      </trkpt>
      <trkpt lat="47.06295" lon="-1.76295">
        <ele>69</ele>
        <time>2021-09-26T14:19:28.000Z</time>
      </trkpt>
      <trkpt lat="47.06299" lon="-1.76277">
        <ele>70</ele>
        <time>2021-09-26T14:19:30.000Z</time>
      </trkpt>
      <trkpt lat="47.063" lon="-1.76258">
        <ele>69</ele>
        <time>2021-09-26T14:19:32.000Z</time>
      </trkpt>
      <trkpt lat="47.063" lon="-1.76239">
        <ele>69</ele>
        <time>2021-09-26T14:19:34.000Z</time>
      </trkpt>
      <trkpt lat="47.06298" lon="-1.7622">
        <ele>69</ele>
        <time>2021-09-26T14:19:36.000Z</time>
      </trkpt>
      <trkpt lat="47.06295" lon="-1.76202">
        <ele>68</ele>
        <time>2021-09-26T14:19:38.000Z</time>
      </trkpt>
      <trkpt lat="47.06289" lon="-1.76184">
        <ele>68</ele>
        <time>2021-09-26T14:19:40.000Z</time>
      </trkpt>
      <trkpt lat="47.06282" lon="-1.76168">
        <ele>68</ele>
        <time>2021-09-26T14:19:42.000Z</time>
      </trkpt>
      <trkpt lat="47.06274" lon="-1.76152">
        <ele>69</ele>
        <time>2021-09-26T14:19:44.000Z</time>
      </trkpt>
      <trkpt lat="47.06264" lon="-1.76138">
        <ele>69</ele>
        <time>2021-09-26T14:19:46.000Z</time>
      </trkpt>
      <trkpt lat="47.06255" lon="-1.76126">
        <ele>69</ele>
        <time>2021-09-26T14:19:48.000Z</time>
      </trkpt>
      <trkpt lat="47.06245" lon="-1.76115">
        <ele>69</ele>
        <time>2021-09-26T14:19:50.000Z</time>
      </trkpt>
      <trkpt lat="47.06235" lon="-1.76103">
        <ele>68</ele>
        <time>2021-09-26T14:19:52.000Z</time>
      </trkpt>
      <trkpt lat="47.06223" lon="-1.76091">
        <ele>69</ele>
        <time>2021-09-26T14:19:54.000Z</time>
      </trkpt>
      <trkpt lat="47.06212" lon="-1.76079">
        <ele>69</ele>
        <time>2021-09-26T14:19:56.000Z</time>
      </trkpt>
      <trkpt lat="47.06201" lon="-1.76066">
        <ele>70</ele>
        <time>2021-09-26T14:19:58.000Z</time>
      </trkpt>
      <trkpt lat="47.06191" lon="-1.76055">
        <ele>70</ele>
        <time>2021-09-26T14:20:00.000Z</time>
      </trkpt>
      <trkpt lat="47.0618" lon="-1.76042">
        <ele>70</ele>
        <time>2021-09-26T14:20:02.000Z</time>
      </trkpt>
      <trkpt lat="47.06169" lon="-1.76029">
        <ele>69</ele>
        <time>2021-09-26T14:20:04.000Z</time>
      </trkpt>
      <trkpt lat="47.06157" lon="-1.76014">
        <ele>69</ele>
        <time>2021-09-26T14:20:06.000Z</time>
      </trkpt>
      <trkpt lat="47.06146" lon="-1.76">
        <ele>68</ele>
        <time>2021-09-26T14:20:08.000Z</time>
      </trkpt>
      <trkpt lat="47.06136" lon="-1.75986">
        <ele>68</ele>
        <time>2021-09-26T14:20:10.000Z</time>
      </trkpt>
      <trkpt lat="47.06124" lon="-1.75973">
        <ele>67</ele>
        <time>2021-09-26T14:20:12.000Z</time>
      </trkpt>
      <trkpt lat="47.06112" lon="-1.7596">
        <ele>67</ele>
        <time>2021-09-26T14:20:14.000Z</time>
      </trkpt>
      <trkpt lat="47.06101" lon="-1.75946">
        <ele>67</ele>
        <time>2021-09-26T14:20:16.000Z</time>
      </trkpt>
      <trkpt lat="47.0609" lon="-1.75932">
        <ele>66</ele>
        <time>2021-09-26T14:20:18.000Z</time>
      </trkpt>
      <trkpt lat="47.06079" lon="-1.75918">
        <ele>65</ele>
        <time>2021-09-26T14:20:20.000Z</time>
      </trkpt>
      <trkpt lat="47.06068" lon="-1.75904">
        <ele>65</ele>
        <time>2021-09-26T14:20:22.000Z</time>
      </trkpt>
      <trkpt lat="47.06056" lon="-1.75891">
        <ele>66</ele>
        <time>2021-09-26T14:20:24.000Z</time>
      </trkpt>
      <trkpt lat="47.06045" lon="-1.75878">
        <ele>66</ele>
        <time>2021-09-26T14:20:26.000Z</time>
      </trkpt>
      <trkpt lat="47.06034" lon="-1.75866">
        <ele>66</ele>
        <time>2021-09-26T14:20:28.000Z</time>
      </trkpt>
      <trkpt lat="47.06023" lon="-1.75853">
        <ele>66</ele>
        <time>2021-09-26T14:20:30.000Z</time>
      </trkpt>
      <trkpt lat="47.06005" lon="-1.75834">
        <ele>66</ele>
        <time>2021-09-26T14:20:33.000Z</time>
      </trkpt>
      <trkpt lat="47.05994" lon="-1.75821">
        <ele>66</ele>
        <time>2021-09-26T14:20:35.000Z</time>
      </trkpt>
      <trkpt lat="47.05983" lon="-1.75806">
        <ele>65</ele>
        <time>2021-09-26T14:20:37.000Z</time>
      </trkpt>
      <trkpt lat="47.05971" lon="-1.75793">
        <ele>65</ele>
        <time>2021-09-26T14:20:39.000Z</time>
      </trkpt>
      <trkpt lat="47.05961" lon="-1.75778">
        <ele>65</ele>
        <time>2021-09-26T14:20:41.000Z</time>
      </trkpt>
      <trkpt lat="47.05952" lon="-1.75761">
        <ele>64</ele>
        <time>2021-09-26T14:20:43.000Z</time>
      </trkpt>
      <trkpt lat="47.05944" lon="-1.75745">
        <ele>64</ele>
        <time>2021-09-26T14:20:45.000Z</time>
      </trkpt>
      <trkpt lat="47.05937" lon="-1.75727">
        <ele>63</ele>
        <time>2021-09-26T14:20:47.000Z</time>
      </trkpt>
      <trkpt lat="47.05927" lon="-1.757">
        <ele>63</ele>
        <time>2021-09-26T14:20:50.000Z</time>
      </trkpt>
      <trkpt lat="47.05921" lon="-1.75681">
        <ele>63</ele>
        <time>2021-09-26T14:20:52.000Z</time>
      </trkpt>
      <trkpt lat="47.05914" lon="-1.75663">
        <ele>62</ele>
        <time>2021-09-26T14:20:54.000Z</time>
      </trkpt>
      <trkpt lat="47.05907" lon="-1.75645">
        <ele>62</ele>
        <time>2021-09-26T14:20:56.000Z</time>
      </trkpt>
      <trkpt lat="47.05901" lon="-1.75627">
        <ele>62</ele>
        <time>2021-09-26T14:20:58.000Z</time>
      </trkpt>
      <trkpt lat="47.05895" lon="-1.75609">
        <ele>62</ele>
        <time>2021-09-26T14:21:00.000Z</time>
      </trkpt>
      <trkpt lat="47.05889" lon="-1.75591">
        <ele>62</ele>
        <time>2021-09-26T14:21:02.000Z</time>
      </trkpt>
      <trkpt lat="47.05883" lon="-1.75572">
        <ele>62</ele>
        <time>2021-09-26T14:21:04.000Z</time>
      </trkpt>
      <trkpt lat="47.05877" lon="-1.75553">
        <ele>62</ele>
        <time>2021-09-26T14:21:06.000Z</time>
      </trkpt>
      <trkpt lat="47.0587" lon="-1.75535">
        <ele>62</ele>
        <time>2021-09-26T14:21:08.000Z</time>
      </trkpt>
      <trkpt lat="47.05864" lon="-1.75518">
        <ele>62</ele>
        <time>2021-09-26T14:21:10.000Z</time>
      </trkpt>
      <trkpt lat="47.05858" lon="-1.755">
        <ele>62</ele>
        <time>2021-09-26T14:21:12.000Z</time>
      </trkpt>
      <trkpt lat="47.05853" lon="-1.75482">
        <ele>62</ele>
        <time>2021-09-26T14:21:14.000Z</time>
      </trkpt>
      <trkpt lat="47.05846" lon="-1.75464">
        <ele>62</ele>
        <time>2021-09-26T14:21:16.000Z</time>
      </trkpt>
      <trkpt lat="47.0584" lon="-1.75446">
        <ele>62</ele>
        <time>2021-09-26T14:21:18.000Z</time>
      </trkpt>
      <trkpt lat="47.05834" lon="-1.75429">
        <ele>62</ele>
        <time>2021-09-26T14:21:20.000Z</time>
      </trkpt>
      <trkpt lat="47.05827" lon="-1.75411">
        <ele>62</ele>
        <time>2021-09-26T14:21:22.000Z</time>
      </trkpt>
      <trkpt lat="47.0582" lon="-1.75394">
        <ele>62</ele>
        <time>2021-09-26T14:21:24.000Z</time>
      </trkpt>
      <trkpt lat="47.05813" lon="-1.75376">
        <ele>62</ele>
        <time>2021-09-26T14:21:26.000Z</time>
      </trkpt>
      <trkpt lat="47.05806" lon="-1.7536">
        <ele>63</ele>
        <time>2021-09-26T14:21:28.000Z</time>
      </trkpt>
      <trkpt lat="47.05798" lon="-1.75343">
        <ele>63</ele>
        <time>2021-09-26T14:21:30.000Z</time>
      </trkpt>
      <trkpt lat="47.0579" lon="-1.75327">
        <ele>63</ele>
        <time>2021-09-26T14:21:32.000Z</time>
      </trkpt>
      <trkpt lat="47.05783" lon="-1.7531">
        <ele>63</ele>
        <time>2021-09-26T14:21:34.000Z</time>
      </trkpt>
      <trkpt lat="47.05776" lon="-1.75293">
        <ele>63</ele>
        <time>2021-09-26T14:21:36.000Z</time>
      </trkpt>
      <trkpt lat="47.05769" lon="-1.75277">
        <ele>63</ele>
        <time>2021-09-26T14:21:38.000Z</time>
      </trkpt>
      <trkpt lat="47.05762" lon="-1.7526">
        <ele>62</ele>
        <time>2021-09-26T14:21:40.000Z</time>
      </trkpt>
      <trkpt lat="47.05754" lon="-1.75244">
        <ele>62</ele>
        <time>2021-09-26T14:21:42.000Z</time>
      </trkpt>
      <trkpt lat="47.05746" lon="-1.75226">
        <ele>62</ele>
        <time>2021-09-26T14:21:44.000Z</time>
      </trkpt>
      <trkpt lat="47.05739" lon="-1.75209">
        <ele>62</ele>
        <time>2021-09-26T14:21:46.000Z</time>
      </trkpt>
      <trkpt lat="47.05731" lon="-1.75192">
        <ele>62</ele>
        <time>2021-09-26T14:21:48.000Z</time>
      </trkpt>
      <trkpt lat="47.05723" lon="-1.75175">
        <ele>62</ele>
        <time>2021-09-26T14:21:50.000Z</time>
      </trkpt>
      <trkpt lat="47.05715" lon="-1.75158">
        <ele>61</ele>
        <time>2021-09-26T14:21:52.000Z</time>
      </trkpt>
      <trkpt lat="47.05707" lon="-1.7514">
        <ele>61</ele>
        <time>2021-09-26T14:21:54.000Z</time>
      </trkpt>
      <trkpt lat="47.05699" lon="-1.75122">
        <ele>60</ele>
        <time>2021-09-26T14:21:56.000Z</time>
      </trkpt>
      <trkpt lat="47.05691" lon="-1.75103">
        <ele>60</ele>
        <time>2021-09-26T14:21:58.000Z</time>
      </trkpt>
      <trkpt lat="47.05681" lon="-1.75085">
        <ele>59</ele>
        <time>2021-09-26T14:22:00.000Z</time>
      </trkpt>
      <trkpt lat="47.05669" lon="-1.75068">
        <ele>59</ele>
        <time>2021-09-26T14:22:02.000Z</time>
      </trkpt>
      <trkpt lat="47.05656" lon="-1.75053">
        <ele>58</ele>
        <time>2021-09-26T14:22:04.000Z</time>
      </trkpt>
      <trkpt lat="47.05642" lon="-1.75039">
        <ele>57</ele>
        <time>2021-09-26T14:22:06.000Z</time>
      </trkpt>
      <trkpt lat="47.05629" lon="-1.75025">
        <ele>56</ele>
        <time>2021-09-26T14:22:08.000Z</time>
      </trkpt>
      <trkpt lat="47.05615" lon="-1.75012">
        <ele>55</ele>
        <time>2021-09-26T14:22:10.000Z</time>
      </trkpt>
      <trkpt lat="47.05602" lon="-1.74998">
        <ele>54</ele>
        <time>2021-09-26T14:22:12.000Z</time>
      </trkpt>
      <trkpt lat="47.05588" lon="-1.74983">
        <ele>53</ele>
        <time>2021-09-26T14:22:14.000Z</time>
      </trkpt>
      <trkpt lat="47.05575" lon="-1.74969">
        <ele>52</ele>
        <time>2021-09-26T14:22:16.000Z</time>
      </trkpt>
      <trkpt lat="47.05561" lon="-1.74956">
        <ele>52</ele>
        <time>2021-09-26T14:22:18.000Z</time>
      </trkpt>
      <trkpt lat="47.05546" lon="-1.74942">
        <ele>52</ele>
        <time>2021-09-26T14:22:20.000Z</time>
      </trkpt>
      <trkpt lat="47.05531" lon="-1.74929">
        <ele>51</ele>
        <time>2021-09-26T14:22:22.000Z</time>
      </trkpt>
      <trkpt lat="47.05517" lon="-1.74915">
        <ele>51</ele>
        <time>2021-09-26T14:22:24.000Z</time>
      </trkpt>
      <trkpt lat="47.05503" lon="-1.74902">
        <ele>51</ele>
        <time>2021-09-26T14:22:26.000Z</time>
      </trkpt>
      <trkpt lat="47.05489" lon="-1.7489">
        <ele>50</ele>
        <time>2021-09-26T14:22:28.000Z</time>
      </trkpt>
      <trkpt lat="47.05476" lon="-1.74878">
        <ele>50</ele>
        <time>2021-09-26T14:22:30.000Z</time>
      </trkpt>
      <trkpt lat="47.05463" lon="-1.74866">
        <ele>50</ele>
        <time>2021-09-26T14:22:32.000Z</time>
      </trkpt>
      <trkpt lat="47.0545" lon="-1.74855">
        <ele>50</ele>
        <time>2021-09-26T14:22:34.000Z</time>
      </trkpt>
      <trkpt lat="47.05436" lon="-1.74844">
        <ele>50</ele>
        <time>2021-09-26T14:22:36.000Z</time>
      </trkpt>
      <trkpt lat="47.05423" lon="-1.74834">
        <ele>50</ele>
        <time>2021-09-26T14:22:38.000Z</time>
      </trkpt>
      <trkpt lat="47.0541" lon="-1.74823">
        <ele>49</ele>
        <time>2021-09-26T14:22:40.000Z</time>
      </trkpt>
      <trkpt lat="47.05397" lon="-1.74813">
        <ele>50</ele>
        <time>2021-09-26T14:22:42.000Z</time>
      </trkpt>
      <trkpt lat="47.05384" lon="-1.74803">
        <ele>50</ele>
        <time>2021-09-26T14:22:44.000Z</time>
      </trkpt>
      <trkpt lat="47.05371" lon="-1.74793">
        <ele>50</ele>
        <time>2021-09-26T14:22:46.000Z</time>
      </trkpt>
      <trkpt lat="47.05359" lon="-1.74781">
        <ele>50</ele>
        <time>2021-09-26T14:22:48.000Z</time>
      </trkpt>
      <trkpt lat="47.05349" lon="-1.74768">
        <ele>49</ele>
        <time>2021-09-26T14:22:50.000Z</time>
      </trkpt>
      <trkpt lat="47.0534" lon="-1.74752">
        <ele>49</ele>
        <time>2021-09-26T14:22:52.000Z</time>
      </trkpt>
      <trkpt lat="47.05331" lon="-1.74737">
        <ele>49</ele>
        <time>2021-09-26T14:22:54.000Z</time>
      </trkpt>
      <trkpt lat="47.05323" lon="-1.74721">
        <ele>49</ele>
        <time>2021-09-26T14:22:56.000Z</time>
      </trkpt>
      <trkpt lat="47.05316" lon="-1.74705">
        <ele>49</ele>
        <time>2021-09-26T14:22:58.000Z</time>
      </trkpt>
      <trkpt lat="47.05309" lon="-1.74689">
        <ele>49</ele>
        <time>2021-09-26T14:23:00.000Z</time>
      </trkpt>
      <trkpt lat="47.05302" lon="-1.74674">
        <ele>49</ele>
        <time>2021-09-26T14:23:02.000Z</time>
      </trkpt>
      <trkpt lat="47.05296" lon="-1.7466">
        <ele>48</ele>
        <time>2021-09-26T14:23:04.000Z</time>
      </trkpt>
      <trkpt lat="47.05289" lon="-1.74645">
        <ele>49</ele>
        <time>2021-09-26T14:23:06.000Z</time>
      </trkpt>
      <trkpt lat="47.05282" lon="-1.74631">
        <ele>49</ele>
        <time>2021-09-26T14:23:08.000Z</time>
      </trkpt>
      <trkpt lat="47.05275" lon="-1.74616">
        <ele>49</ele>
        <time>2021-09-26T14:23:10.000Z</time>
      </trkpt>
      <trkpt lat="47.05269" lon="-1.74601">
        <ele>48</ele>
        <time>2021-09-26T14:23:12.000Z</time>
      </trkpt>
      <trkpt lat="47.05262" lon="-1.74587">
        <ele>49</ele>
        <time>2021-09-26T14:23:14.000Z</time>
      </trkpt>
      <trkpt lat="47.05256" lon="-1.74574">
        <ele>49</ele>
        <time>2021-09-26T14:23:16.000Z</time>
      </trkpt>
      <trkpt lat="47.0525" lon="-1.74561">
        <ele>50</ele>
        <time>2021-09-26T14:23:18.000Z</time>
      </trkpt>
      <trkpt lat="47.05245" lon="-1.74547">
        <ele>50</ele>
        <time>2021-09-26T14:23:20.000Z</time>
      </trkpt>
      <trkpt lat="47.0524" lon="-1.74532">
        <ele>50</ele>
        <time>2021-09-26T14:23:22.000Z</time>
      </trkpt>
      <trkpt lat="47.05235" lon="-1.74517">
        <ele>51</ele>
        <time>2021-09-26T14:23:24.000Z</time>
      </trkpt>
      <trkpt lat="47.05231" lon="-1.74502">
        <ele>51</ele>
        <time>2021-09-26T14:23:26.000Z</time>
      </trkpt>
      <trkpt lat="47.05227" lon="-1.74487">
        <ele>51</ele>
        <time>2021-09-26T14:23:28.000Z</time>
      </trkpt>
      <trkpt lat="47.05225" lon="-1.74471">
        <ele>51</ele>
        <time>2021-09-26T14:23:30.000Z</time>
      </trkpt>
      <trkpt lat="47.05223" lon="-1.74456">
        <ele>51</ele>
        <time>2021-09-26T14:23:32.000Z</time>
      </trkpt>
      <trkpt lat="47.05223" lon="-1.7444">
        <ele>51</ele>
        <time>2021-09-26T14:23:34.000Z</time>
      </trkpt>
      <trkpt lat="47.05223" lon="-1.74426">
        <ele>52</ele>
        <time>2021-09-26T14:23:36.000Z</time>
      </trkpt>
      <trkpt lat="47.05223" lon="-1.74412">
        <ele>52</ele>
        <time>2021-09-26T14:23:38.000Z</time>
      </trkpt>
      <trkpt lat="47.05224" lon="-1.74397">
        <ele>52</ele>
        <time>2021-09-26T14:23:40.000Z</time>
      </trkpt>
      <trkpt lat="47.05224" lon="-1.74383">
        <ele>53</ele>
        <time>2021-09-26T14:23:42.000Z</time>
      </trkpt>
      <trkpt lat="47.05224" lon="-1.74368">
        <ele>53</ele>
        <time>2021-09-26T14:23:44.000Z</time>
      </trkpt>
      <trkpt lat="47.05224" lon="-1.74354">
        <ele>53</ele>
        <time>2021-09-26T14:23:46.000Z</time>
      </trkpt>
      <trkpt lat="47.05224" lon="-1.74339">
        <ele>53</ele>
        <time>2021-09-26T14:23:48.000Z</time>
      </trkpt>
      <trkpt lat="47.05224" lon="-1.74325">
        <ele>54</ele>
        <time>2021-09-26T14:23:50.000Z</time>
      </trkpt>
      <trkpt lat="47.05225" lon="-1.7431">
        <ele>54</ele>
        <time>2021-09-26T14:23:52.000Z</time>
      </trkpt>
      <trkpt lat="47.05225" lon="-1.74296">
        <ele>55</ele>
        <time>2021-09-26T14:23:54.000Z</time>
      </trkpt>
      <trkpt lat="47.05225" lon="-1.74282">
        <ele>55</ele>
        <time>2021-09-26T14:23:56.000Z</time>
      </trkpt>
      <trkpt lat="47.05225" lon="-1.74267">
        <ele>56</ele>
        <time>2021-09-26T14:23:58.000Z</time>
      </trkpt>
      <trkpt lat="47.05225" lon="-1.74253">
        <ele>56</ele>
        <time>2021-09-26T14:24:00.000Z</time>
      </trkpt>
      <trkpt lat="47.05225" lon="-1.74239">
        <ele>57</ele>
        <time>2021-09-26T14:24:02.000Z</time>
      </trkpt>
      <trkpt lat="47.05225" lon="-1.74225">
        <ele>58</ele>
        <time>2021-09-26T14:24:04.000Z</time>
      </trkpt>
      <trkpt lat="47.05225" lon="-1.74211">
        <ele>59</ele>
        <time>2021-09-26T14:24:06.000Z</time>
      </trkpt>
      <trkpt lat="47.05226" lon="-1.74196">
        <ele>60</ele>
        <time>2021-09-26T14:24:08.000Z</time>
      </trkpt>
      <trkpt lat="47.05226" lon="-1.74181">
        <ele>60</ele>
        <time>2021-09-26T14:24:10.000Z</time>
      </trkpt>
      <trkpt lat="47.05226" lon="-1.74166">
        <ele>60</ele>
        <time>2021-09-26T14:24:12.000Z</time>
      </trkpt>
      <trkpt lat="47.05227" lon="-1.74151">
        <ele>60</ele>
        <time>2021-09-26T14:24:14.000Z</time>
      </trkpt>
      <trkpt lat="47.05227" lon="-1.74136">
        <ele>60</ele>
        <time>2021-09-26T14:24:16.000Z</time>
      </trkpt>
      <trkpt lat="47.05227" lon="-1.74121">
        <ele>61</ele>
        <time>2021-09-26T14:24:18.000Z</time>
      </trkpt>
      <trkpt lat="47.05227" lon="-1.74107">
        <ele>61</ele>
        <time>2021-09-26T14:24:20.000Z</time>
      </trkpt>
      <trkpt lat="47.05228" lon="-1.74091">
        <ele>61</ele>
        <time>2021-09-26T14:24:22.000Z</time>
      </trkpt>
      <trkpt lat="47.05228" lon="-1.74076">
        <ele>61</ele>
        <time>2021-09-26T14:24:24.000Z</time>
      </trkpt>
      <trkpt lat="47.05228" lon="-1.74061">
        <ele>62</ele>
        <time>2021-09-26T14:24:26.000Z</time>
      </trkpt>
      <trkpt lat="47.05229" lon="-1.74045">
        <ele>62</ele>
        <time>2021-09-26T14:24:28.000Z</time>
      </trkpt>
      <trkpt lat="47.05229" lon="-1.7403">
        <ele>62</ele>
        <time>2021-09-26T14:24:30.000Z</time>
      </trkpt>
      <trkpt lat="47.05229" lon="-1.74014">
        <ele>62</ele>
        <time>2021-09-26T14:24:32.000Z</time>
      </trkpt>
      <trkpt lat="47.05229" lon="-1.73998">
        <ele>62</ele>
        <time>2021-09-26T14:24:34.000Z</time>
      </trkpt>
      <trkpt lat="47.0523" lon="-1.73981">
        <ele>62</ele>
        <time>2021-09-26T14:24:36.000Z</time>
      </trkpt>
      <trkpt lat="47.0523" lon="-1.73964">
        <ele>62</ele>
        <time>2021-09-26T14:24:38.000Z</time>
      </trkpt>
      <trkpt lat="47.0523" lon="-1.73947">
        <ele>62</ele>
        <time>2021-09-26T14:24:40.000Z</time>
      </trkpt>
      <trkpt lat="47.0523" lon="-1.73931">
        <ele>62</ele>
        <time>2021-09-26T14:24:42.000Z</time>
      </trkpt>
      <trkpt lat="47.0523" lon="-1.73914">
        <ele>62</ele>
        <time>2021-09-26T14:24:44.000Z</time>
      </trkpt>
      <trkpt lat="47.05231" lon="-1.73897">
        <ele>62</ele>
        <time>2021-09-26T14:24:46.000Z</time>
      </trkpt>
      <trkpt lat="47.05231" lon="-1.7388">
        <ele>62</ele>
        <time>2021-09-26T14:24:48.000Z</time>
      </trkpt>
      <trkpt lat="47.05231" lon="-1.73863">
        <ele>62</ele>
        <time>2021-09-26T14:24:50.000Z</time>
      </trkpt>
      <trkpt lat="47.05232" lon="-1.73846">
        <ele>62</ele>
        <time>2021-09-26T14:24:52.000Z</time>
      </trkpt>
      <trkpt lat="47.05233" lon="-1.73829">
        <ele>62</ele>
        <time>2021-09-26T14:24:54.000Z</time>
      </trkpt>
      <trkpt lat="47.05233" lon="-1.73813">
        <ele>62</ele>
        <time>2021-09-26T14:24:56.000Z</time>
      </trkpt>
      <trkpt lat="47.05233" lon="-1.73795">
        <ele>62</ele>
        <time>2021-09-26T14:24:58.000Z</time>
      </trkpt>
      <trkpt lat="47.05233" lon="-1.73778">
        <ele>63</ele>
        <time>2021-09-26T14:25:00.000Z</time>
      </trkpt>
      <trkpt lat="47.05234" lon="-1.7376">
        <ele>63</ele>
        <time>2021-09-26T14:25:02.000Z</time>
      </trkpt>
      <trkpt lat="47.05234" lon="-1.73742">
        <ele>63</ele>
        <time>2021-09-26T14:25:04.000Z</time>
      </trkpt>
      <trkpt lat="47.05234" lon="-1.73725">
        <ele>63</ele>
        <time>2021-09-26T14:25:06.000Z</time>
      </trkpt>
      <trkpt lat="47.05234" lon="-1.73707">
        <ele>63</ele>
        <time>2021-09-26T14:25:08.000Z</time>
      </trkpt>
      <trkpt lat="47.05236" lon="-1.7369">
        <ele>64</ele>
        <time>2021-09-26T14:25:10.000Z</time>
      </trkpt>
      <trkpt lat="47.05238" lon="-1.73673">
        <ele>64</ele>
        <time>2021-09-26T14:25:12.000Z</time>
      </trkpt>
      <trkpt lat="47.0524" lon="-1.73656">
        <ele>63</ele>
        <time>2021-09-26T14:25:14.000Z</time>
      </trkpt>
      <trkpt lat="47.05244" lon="-1.73639">
        <ele>63</ele>
        <time>2021-09-26T14:25:16.000Z</time>
      </trkpt>
      <trkpt lat="47.05249" lon="-1.73621">
        <ele>63</ele>
        <time>2021-09-26T14:25:18.000Z</time>
      </trkpt>
      <trkpt lat="47.05254" lon="-1.73604">
        <ele>63</ele>
        <time>2021-09-26T14:25:20.000Z</time>
      </trkpt>
      <trkpt lat="47.0526" lon="-1.73587">
        <ele>63</ele>
        <time>2021-09-26T14:25:22.000Z</time>
      </trkpt>
      <trkpt lat="47.05265" lon="-1.73569">
        <ele>63</ele>
        <time>2021-09-26T14:25:24.000Z</time>
      </trkpt>
      <trkpt lat="47.05271" lon="-1.73553">
        <ele>62</ele>
        <time>2021-09-26T14:25:26.000Z</time>
      </trkpt>
      <trkpt lat="47.05277" lon="-1.73535">
        <ele>62</ele>
        <time>2021-09-26T14:25:28.000Z</time>
      </trkpt>
      <trkpt lat="47.05284" lon="-1.73517">
        <ele>62</ele>
        <time>2021-09-26T14:25:30.000Z</time>
      </trkpt>
      <trkpt lat="47.0529" lon="-1.73498">
        <ele>61</ele>
        <time>2021-09-26T14:25:32.000Z</time>
      </trkpt>
      <trkpt lat="47.05295" lon="-1.7348">
        <ele>61</ele>
        <time>2021-09-26T14:25:34.000Z</time>
      </trkpt>
      <trkpt lat="47.053" lon="-1.73461">
        <ele>61</ele>
        <time>2021-09-26T14:25:36.000Z</time>
      </trkpt>
      <trkpt lat="47.05304" lon="-1.73442">
        <ele>61</ele>
        <time>2021-09-26T14:25:38.000Z</time>
      </trkpt>
      <trkpt lat="47.05308" lon="-1.73423">
        <ele>61</ele>
        <time>2021-09-26T14:25:40.000Z</time>
      </trkpt>
      <trkpt lat="47.05312" lon="-1.73403">
        <ele>60</ele>
        <time>2021-09-26T14:25:42.000Z</time>
      </trkpt>
      <trkpt lat="47.05314" lon="-1.73383">
        <ele>59</ele>
        <time>2021-09-26T14:25:44.000Z</time>
      </trkpt>
      <trkpt lat="47.05317" lon="-1.73362">
        <ele>58</ele>
        <time>2021-09-26T14:25:46.000Z</time>
      </trkpt>
      <trkpt lat="47.05319" lon="-1.73342">
        <ele>58</ele>
        <time>2021-09-26T14:25:48.000Z</time>
      </trkpt>
      <trkpt lat="47.05322" lon="-1.73323">
        <ele>59</ele>
        <time>2021-09-26T14:25:50.000Z</time>
      </trkpt>
      <trkpt lat="47.05324" lon="-1.73303">
        <ele>59</ele>
        <time>2021-09-26T14:25:52.000Z</time>
      </trkpt>
      <trkpt lat="47.05325" lon="-1.73283">
        <ele>58</ele>
        <time>2021-09-26T14:25:54.000Z</time>
      </trkpt>
      <trkpt lat="47.05324" lon="-1.73265">
        <ele>59</ele>
        <time>2021-09-26T14:25:56.000Z</time>
      </trkpt>
      <trkpt lat="47.05323" lon="-1.73248">
        <ele>58</ele>
        <time>2021-09-26T14:25:58.000Z</time>
      </trkpt>
      <trkpt lat="47.05321" lon="-1.73232">
        <ele>58</ele>
        <time>2021-09-26T14:26:00.000Z</time>
      </trkpt>
      <trkpt lat="47.05318" lon="-1.73217">
        <ele>58</ele>
        <time>2021-09-26T14:26:02.000Z</time>
      </trkpt>
      <trkpt lat="47.05316" lon="-1.73201">
        <ele>59</ele>
        <time>2021-09-26T14:26:04.000Z</time>
      </trkpt>
      <trkpt lat="47.05313" lon="-1.73185">
        <ele>59</ele>
        <time>2021-09-26T14:26:06.000Z</time>
      </trkpt>
      <trkpt lat="47.0531" lon="-1.73168">
        <ele>59</ele>
        <time>2021-09-26T14:26:08.000Z</time>
      </trkpt>
      <trkpt lat="47.05308" lon="-1.73152">
        <ele>60</ele>
        <time>2021-09-26T14:26:10.000Z</time>
      </trkpt>
      <trkpt lat="47.05305" lon="-1.73137">
        <ele>60</ele>
        <time>2021-09-26T14:26:12.000Z</time>
      </trkpt>
      <trkpt lat="47.05311" lon="-1.73125">
        <ele>61</ele>
        <time>2021-09-26T14:26:14.000Z</time>
      </trkpt>
      <trkpt lat="47.0532" lon="-1.73117">
        <ele>62</ele>
        <time>2021-09-26T14:26:16.000Z</time>
      </trkpt>
      <trkpt lat="47.05327" lon="-1.73105">
        <ele>63</ele>
        <time>2021-09-26T14:26:18.000Z</time>
      </trkpt>
      <trkpt lat="47.05335" lon="-1.73092">
        <ele>64</ele>
        <time>2021-09-26T14:26:20.000Z</time>
      </trkpt>
      <trkpt lat="47.05343" lon="-1.73079">
        <ele>64</ele>
        <time>2021-09-26T14:26:22.000Z</time>
      </trkpt>
      <trkpt lat="47.05351" lon="-1.73066">
        <ele>64</ele>
        <time>2021-09-26T14:26:24.000Z</time>
      </trkpt>
      <trkpt lat="47.05359" lon="-1.73053">
        <ele>64</ele>
        <time>2021-09-26T14:26:26.000Z</time>
      </trkpt>
      <trkpt lat="47.05366" lon="-1.7304">
        <ele>64</ele>
        <time>2021-09-26T14:26:28.000Z</time>
      </trkpt>
      <trkpt lat="47.05374" lon="-1.73027">
        <ele>64</ele>
        <time>2021-09-26T14:26:30.000Z</time>
      </trkpt>
      <trkpt lat="47.05383" lon="-1.73015">
        <ele>64</ele>
        <time>2021-09-26T14:26:32.000Z</time>
      </trkpt>
      <trkpt lat="47.0539" lon="-1.73002">
        <ele>64</ele>
        <time>2021-09-26T14:26:34.000Z</time>
      </trkpt>
      <trkpt lat="47.05397" lon="-1.72989">
        <ele>64</ele>
        <time>2021-09-26T14:26:36.000Z</time>
      </trkpt>
      <trkpt lat="47.05403" lon="-1.72975">
        <ele>65</ele>
        <time>2021-09-26T14:26:38.000Z</time>
      </trkpt>
      <trkpt lat="47.0541" lon="-1.72959">
        <ele>65</ele>
        <time>2021-09-26T14:26:40.000Z</time>
      </trkpt>
      <trkpt lat="47.05417" lon="-1.72945">
        <ele>64</ele>
        <time>2021-09-26T14:26:42.000Z</time>
      </trkpt>
      <trkpt lat="47.05423" lon="-1.7293">
        <ele>64</ele>
        <time>2021-09-26T14:26:44.000Z</time>
      </trkpt>
      <trkpt lat="47.0543" lon="-1.72914">
        <ele>64</ele>
        <time>2021-09-26T14:26:46.000Z</time>
      </trkpt>
      <trkpt lat="47.05437" lon="-1.729">
        <ele>64</ele>
        <time>2021-09-26T14:26:48.000Z</time>
      </trkpt>
      <trkpt lat="47.05446" lon="-1.72887">
        <ele>64</ele>
        <time>2021-09-26T14:26:50.000Z</time>
      </trkpt>
      <trkpt lat="47.05456" lon="-1.72874">
        <ele>63</ele>
        <time>2021-09-26T14:26:52.000Z</time>
      </trkpt>
      <trkpt lat="47.05465" lon="-1.72861">
        <ele>63</ele>
        <time>2021-09-26T14:26:54.000Z</time>
      </trkpt>
      <trkpt lat="47.05474" lon="-1.72848">
        <ele>63</ele>
        <time>2021-09-26T14:26:56.000Z</time>
      </trkpt>
      <trkpt lat="47.05483" lon="-1.72835">
        <ele>63</ele>
        <time>2021-09-26T14:26:58.000Z</time>
      </trkpt>
      <trkpt lat="47.05491" lon="-1.72821">
        <ele>63</ele>
        <time>2021-09-26T14:27:00.000Z</time>
      </trkpt>
      <trkpt lat="47.05501" lon="-1.72807">
        <ele>63</ele>
        <time>2021-09-26T14:27:02.000Z</time>
      </trkpt>
      <trkpt lat="47.05509" lon="-1.72792">
        <ele>63</ele>
        <time>2021-09-26T14:27:04.000Z</time>
      </trkpt>
      <trkpt lat="47.05515" lon="-1.72775">
        <ele>63</ele>
        <time>2021-09-26T14:27:06.000Z</time>
      </trkpt>
      <trkpt lat="47.05518" lon="-1.72758">
        <ele>63</ele>
        <time>2021-09-26T14:27:08.000Z</time>
      </trkpt>
      <trkpt lat="47.05521" lon="-1.72741">
        <ele>63</ele>
        <time>2021-09-26T14:27:10.000Z</time>
      </trkpt>
      <trkpt lat="47.05522" lon="-1.72723">
        <ele>63</ele>
        <time>2021-09-26T14:27:12.000Z</time>
      </trkpt>
      <trkpt lat="47.05524" lon="-1.72705">
        <ele>64</ele>
        <time>2021-09-26T14:27:14.000Z</time>
      </trkpt>
      <trkpt lat="47.05527" lon="-1.7269">
        <ele>64</ele>
        <time>2021-09-26T14:27:16.000Z</time>
      </trkpt>
      <trkpt lat="47.05529" lon="-1.72675">
        <ele>64</ele>
        <time>2021-09-26T14:27:18.000Z</time>
      </trkpt>
      <trkpt lat="47.0553" lon="-1.72661">
        <ele>63</ele>
        <time>2021-09-26T14:27:21.000Z</time>
      </trkpt>
      <trkpt lat="47.05539" lon="-1.7265">
        <ele>63</ele>
        <time>2021-09-26T14:27:24.000Z</time>
      </trkpt>
      <trkpt lat="47.0555" lon="-1.72651">
        <ele>63</ele>
        <time>2021-09-26T14:27:26.000Z</time>
      </trkpt>
      <trkpt lat="47.05561" lon="-1.7265">
        <ele>64</ele>
        <time>2021-09-26T14:27:28.000Z</time>
      </trkpt>
      <trkpt lat="47.05572" lon="-1.72646">
        <ele>64</ele>
        <time>2021-09-26T14:27:30.000Z</time>
      </trkpt>
      <trkpt lat="47.05584" lon="-1.7264">
        <ele>65</ele>
        <time>2021-09-26T14:27:32.000Z</time>
      </trkpt>
      <trkpt lat="47.05595" lon="-1.7264">
        <ele>65</ele>
        <time>2021-09-26T14:27:34.000Z</time>
      </trkpt>
      <trkpt lat="47.05603" lon="-1.72656">
        <ele>65</ele>
        <time>2021-09-26T14:27:36.000Z</time>
      </trkpt>
      <trkpt lat="47.05609" lon="-1.72673">
        <ele>64</ele>
        <time>2021-09-26T14:27:38.000Z</time>
      </trkpt>
      <trkpt lat="47.05615" lon="-1.7269">
        <ele>64</ele>
        <time>2021-09-26T14:27:40.000Z</time>
      </trkpt>
      <trkpt lat="47.05622" lon="-1.72707">
        <ele>64</ele>
        <time>2021-09-26T14:27:42.000Z</time>
      </trkpt>
      <trkpt lat="47.05628" lon="-1.72724">
        <ele>63</ele>
        <time>2021-09-26T14:27:44.000Z</time>
      </trkpt>
      <trkpt lat="47.05634" lon="-1.72741">
        <ele>63</ele>
        <time>2021-09-26T14:27:46.000Z</time>
      </trkpt>
      <trkpt lat="47.0564" lon="-1.72757">
        <ele>62</ele>
        <time>2021-09-26T14:27:48.000Z</time>
      </trkpt>
      <trkpt lat="47.05644" lon="-1.72774">
        <ele>62</ele>
        <time>2021-09-26T14:27:50.000Z</time>
      </trkpt>
      <trkpt lat="47.05649" lon="-1.7279">
        <ele>61</ele>
        <time>2021-09-26T14:27:52.000Z</time>
      </trkpt>
      <trkpt lat="47.05654" lon="-1.72806">
        <ele>61</ele>
        <time>2021-09-26T14:27:54.000Z</time>
      </trkpt>
      <trkpt lat="47.05659" lon="-1.72822">
        <ele>60</ele>
        <time>2021-09-26T14:27:56.000Z</time>
      </trkpt>
      <trkpt lat="47.05663" lon="-1.7284">
        <ele>60</ele>
        <time>2021-09-26T14:27:58.000Z</time>
      </trkpt>
      <trkpt lat="47.05668" lon="-1.72856">
        <ele>59</ele>
        <time>2021-09-26T14:28:00.000Z</time>
      </trkpt>
      <trkpt lat="47.05669" lon="-1.72873">
        <ele>59</ele>
        <time>2021-09-26T14:28:02.000Z</time>
      </trkpt>
      <trkpt lat="47.05662" lon="-1.72881">
        <ele>59</ele>
        <time>2021-09-26T14:28:04.000Z</time>
      </trkpt>
      <trkpt lat="47.05652" lon="-1.72886">
        <ele>59</ele>
        <time>2021-09-26T14:28:06.000Z</time>
      </trkpt>
      <trkpt lat="47.05642" lon="-1.72889">
        <ele>61</ele>
        <time>2021-09-26T14:28:08.000Z</time>
      </trkpt>
      <trkpt lat="47.05634" lon="-1.72905">
        <ele>62</ele>
        <time>2021-09-26T14:28:11.000Z</time>
      </trkpt>
      <trkpt lat="47.0563" lon="-1.72918">
        <ele>62</ele>
        <time>2021-09-26T14:28:13.000Z</time>
      </trkpt>
      <trkpt lat="47.05624" lon="-1.72928">
        <ele>62</ele>
        <time>2021-09-26T14:28:15.000Z</time>
      </trkpt>
      <trkpt lat="47.05615" lon="-1.7293">
        <ele>62</ele>
        <time>2021-09-26T14:28:17.000Z</time>
      </trkpt>
      <trkpt lat="47.05606" lon="-1.72922">
        <ele>62</ele>
        <time>2021-09-26T14:28:19.000Z</time>
      </trkpt>
      <trkpt lat="47.05595" lon="-1.72913">
        <ele>62</ele>
        <time>2021-09-26T14:28:22.000Z</time>
      </trkpt>
      <trkpt lat="47.05583" lon="-1.7291">
        <ele>62</ele>
        <time>2021-09-26T14:28:25.000Z</time>
      </trkpt>
      <trkpt lat="47.05574" lon="-1.72909">
        <ele>63</ele>
        <time>2021-09-26T14:28:29.000Z</time>
      </trkpt>
      <trkpt lat="47.05568" lon="-1.72914">
        <ele>66</ele>
        <time>2021-09-26T14:30:30.000Z</time>
      </trkpt>
      <trkpt lat="47.05571" lon="-1.72909">
        <ele>67</ele>
        <time>2021-09-26T14:32:31.000Z</time>
      </trkpt>
      <trkpt lat="47.05571" lon="-1.72908">
        <ele>67</ele>
        <time>2021-09-26T14:34:33.000Z</time>
      </trkpt>
      <trkpt lat="47.05571" lon="-1.72922">
        <ele>69</ele>
        <time>2021-09-26T14:35:38.000Z</time>
      </trkpt>
      <trkpt lat="47.05571" lon="-1.72925">
        <ele>69</ele>
        <time>2021-09-26T14:37:39.000Z</time>
      </trkpt>
      <trkpt lat="47.05566" lon="-1.72923">
        <ele>64</ele>
        <time>2021-09-26T14:39:40.000Z</time>
      </trkpt>
      <trkpt lat="47.05568" lon="-1.72923">
        <ele>63</ele>
        <time>2021-09-26T14:41:41.000Z</time>
      </trkpt>
      <trkpt lat="47.05567" lon="-1.72923">
        <ele>60</ele>
        <time>2021-09-26T14:43:42.000Z</time>
      </trkpt>
      <trkpt lat="47.05567" lon="-1.72921">
        <ele>59</ele>
        <time>2021-09-26T14:45:43.000Z</time>
      </trkpt>
      <trkpt lat="47.05567" lon="-1.72926">
        <ele>59</ele>
        <time>2021-09-26T14:47:44.000Z</time>
      </trkpt>
      <trkpt lat="47.05568" lon="-1.72925">
        <ele>59</ele>
        <time>2021-09-26T14:49:45.000Z</time>
      </trkpt>
      <trkpt lat="47.05566" lon="-1.72926">
        <ele>57</ele>
        <time>2021-09-26T14:51:46.000Z</time>
      </trkpt>
      <trkpt lat="47.05565" lon="-1.72926">
        <ele>54</ele>
        <time>2021-09-26T14:53:47.000Z</time>
      </trkpt>
      <trkpt lat="47.0557" lon="-1.72929">
        <ele>56</ele>
        <time>2021-09-26T14:55:48.000Z</time>
      </trkpt>
      <trkpt lat="47.0557" lon="-1.72928">
        <ele>61</ele>
        <time>2021-09-26T14:57:49.000Z</time>
      </trkpt>
      <trkpt lat="47.0557" lon="-1.72928">
        <ele>61</ele>
        <time>2021-09-26T14:59:50.000Z</time>
      </trkpt>
      <trkpt lat="47.05565" lon="-1.72929">
        <ele>60</ele>
        <time>2021-09-26T15:01:51.000Z</time>
      </trkpt>
      <trkpt lat="47.05566" lon="-1.72928">
        <ele>60</ele>
        <time>2021-09-26T15:03:52.000Z</time>
      </trkpt>
      <trkpt lat="47.05567" lon="-1.72924">
        <ele>65</ele>
        <time>2021-09-26T15:05:53.000Z</time>
      </trkpt>
      <trkpt lat="47.05566" lon="-1.72926">
        <ele>63</ele>
        <time>2021-09-26T15:07:54.000Z</time>
      </trkpt>
      <trkpt lat="47.05565" lon="-1.72924">
        <ele>70</ele>
        <time>2021-09-26T15:09:55.000Z</time>
      </trkpt>
      <trkpt lat="47.05564" lon="-1.72923">
        <ele>68</ele>
        <time>2021-09-26T15:11:56.000Z</time>
      </trkpt>
      <trkpt lat="47.05565" lon="-1.72927">
        <ele>58</ele>
        <time>2021-09-26T15:13:57.000Z</time>
      </trkpt>
      <trkpt lat="47.05565" lon="-1.72927">
        <ele>58</ele>
        <time>2021-09-26T15:15:58.000Z</time>
      </trkpt>
      <trkpt lat="47.05566" lon="-1.72919">
        <ele>67</ele>
        <time>2021-09-26T15:34:52.013Z</time>
      </trkpt>
      <trkpt lat="47.05589" lon="-1.72937">
        <ele>35</ele>
        <time>2021-09-26T15:34:52.970Z</time>
      </trkpt>
      <trkpt lat="47.05566" lon="-1.72912">
        <ele>51</ele>
        <time>2021-09-26T15:34:54.020Z</time>
      </trkpt>
      <trkpt lat="47.05577" lon="-1.7292">
        <ele>50</ele>
        <time>2021-09-26T15:34:57.000Z</time>
      </trkpt>
      <trkpt lat="47.05577" lon="-1.72921">
        <ele>51</ele>
        <time>2021-09-26T15:36:58.000Z</time>
      </trkpt>
      <trkpt lat="47.05577" lon="-1.72921">
        <ele>52</ele>
        <time>2021-09-26T15:38:59.000Z</time>
      </trkpt>
      <trkpt lat="47.05577" lon="-1.72921">
        <ele>52</ele>
        <time>2021-09-26T15:41:00.000Z</time>
      </trkpt>
      <trkpt lat="47.05577" lon="-1.72921">
        <ele>52</ele>
        <time>2021-09-26T15:43:01.000Z</time>
      </trkpt>
      <trkpt lat="47.05577" lon="-1.72921">
        <ele>52</ele>
        <time>2021-09-26T15:45:02.000Z</time>
      </trkpt>
      <trkpt lat="47.05577" lon="-1.72921">
        <ele>52</ele>
        <time>2021-09-26T15:47:03.000Z</time>
      </trkpt>
      <trkpt lat="47.05577" lon="-1.72921">
        <ele>52</ele>
        <time>2021-09-26T15:49:04.000Z</time>
      </trkpt>
      <trkpt lat="47.05577" lon="-1.72921">
        <ele>52</ele>
        <time>2021-09-26T15:51:05.000Z</time>
      </trkpt>
      <trkpt lat="47.05577" lon="-1.72921">
        <ele>52</ele>
        <time>2021-09-26T15:53:06.000Z</time>
      </trkpt>
      <trkpt lat="47.05576" lon="-1.72922">
        <ele>52</ele>
        <time>2021-09-26T15:55:07.000Z</time>
      </trkpt>
      <trkpt lat="47.05576" lon="-1.72922">
        <ele>53</ele>
        <time>2021-09-26T15:57:08.000Z</time>
      </trkpt>
      <trkpt lat="47.05576" lon="-1.72922">
        <ele>53</ele>
        <time>2021-09-26T15:59:09.000Z</time>
      </trkpt>
      <trkpt lat="47.05575" lon="-1.72923">
        <ele>54</ele>
        <time>2021-09-26T16:01:10.000Z</time>
      </trkpt>
      <trkpt lat="47.05574" lon="-1.72925">
        <ele>57</ele>
        <time>2021-09-26T16:03:11.000Z</time>
      </trkpt>
      <trkpt lat="47.05573" lon="-1.72926">
        <ele>59</ele>
        <time>2021-09-26T16:05:12.000Z</time>
      </trkpt>
      <trkpt lat="47.05573" lon="-1.72926">
        <ele>59</ele>
        <time>2021-09-26T16:07:13.000Z</time>
      </trkpt>
      <trkpt lat="47.0557" lon="-1.72926">
        <ele>60</ele>
        <time>2021-09-26T16:09:14.000Z</time>
      </trkpt>
      <trkpt lat="47.05568" lon="-1.72926">
        <ele>60</ele>
        <time>2021-09-26T16:11:15.000Z</time>
      </trkpt>
      <trkpt lat="47.05568" lon="-1.72926">
        <ele>60</ele>
        <time>2021-09-26T16:13:16.000Z</time>
      </trkpt>
      <trkpt lat="47.05569" lon="-1.72927">
        <ele>62</ele>
        <time>2021-09-26T16:15:17.000Z</time>
      </trkpt>
      <trkpt lat="47.05569" lon="-1.72921">
        <ele>59</ele>
        <time>2021-09-26T16:17:18.000Z</time>
      </trkpt>
      <trkpt lat="47.05572" lon="-1.72923">
        <ele>63</ele>
        <time>2021-09-26T16:19:19.000Z</time>
      </trkpt>
      <trkpt lat="47.05572" lon="-1.72917">
        <ele>62</ele>
        <time>2021-09-26T16:21:20.000Z</time>
      </trkpt>
      <trkpt lat="47.05571" lon="-1.72915">
        <ele>69</ele>
        <time>2021-09-26T16:23:21.000Z</time>
      </trkpt>
      <trkpt lat="47.0557" lon="-1.72916">
        <ele>69</ele>
        <time>2021-09-26T16:25:22.000Z</time>
      </trkpt>
      <trkpt lat="47.05581" lon="-1.72911">
        <ele>68</ele>
        <time>2021-09-26T16:26:34.000Z</time>
      </trkpt>
      <trkpt lat="47.0559" lon="-1.72913">
        <ele>68</ele>
        <time>2021-09-26T16:26:36.000Z</time>
      </trkpt>
      <trkpt lat="47.056" lon="-1.72915">
        <ele>69</ele>
        <time>2021-09-26T16:26:38.000Z</time>
      </trkpt>
      <trkpt lat="47.0561" lon="-1.72923">
        <ele>68</ele>
        <time>2021-09-26T16:26:40.000Z</time>
      </trkpt>
      <trkpt lat="47.05619" lon="-1.72931">
        <ele>68</ele>
        <time>2021-09-26T16:26:42.000Z</time>
      </trkpt>
      <trkpt lat="47.0563" lon="-1.72923">
        <ele>65</ele>
        <time>2021-09-26T16:26:45.000Z</time>
      </trkpt>
      <trkpt lat="47.05635" lon="-1.72908">
        <ele>66</ele>
        <time>2021-09-26T16:26:47.000Z</time>
      </trkpt>
      <trkpt lat="47.05639" lon="-1.72892">
        <ele>66</ele>
        <time>2021-09-26T16:26:49.000Z</time>
      </trkpt>
      <trkpt lat="47.0565" lon="-1.72884">
        <ele>65</ele>
        <time>2021-09-26T16:26:51.000Z</time>
      </trkpt>
      <trkpt lat="47.05661" lon="-1.72877">
        <ele>64</ele>
        <time>2021-09-26T16:26:53.000Z</time>
      </trkpt>
      <trkpt lat="47.05667" lon="-1.72867">
        <ele>63</ele>
        <time>2021-09-26T16:26:55.000Z</time>
      </trkpt>
      <trkpt lat="47.05666" lon="-1.72851">
        <ele>63</ele>
        <time>2021-09-26T16:26:57.000Z</time>
      </trkpt>
      <trkpt lat="47.0566" lon="-1.72835">
        <ele>63</ele>
        <time>2021-09-26T16:26:59.000Z</time>
      </trkpt>
      <trkpt lat="47.05655" lon="-1.72821">
        <ele>63</ele>
        <time>2021-09-26T16:27:01.000Z</time>
      </trkpt>
      <trkpt lat="47.05651" lon="-1.72806">
        <ele>63</ele>
        <time>2021-09-26T16:27:03.000Z</time>
      </trkpt>
      <trkpt lat="47.05647" lon="-1.7279">
        <ele>63</ele>
        <time>2021-09-26T16:27:05.000Z</time>
      </trkpt>
      <trkpt lat="47.05642" lon="-1.72773">
        <ele>64</ele>
        <time>2021-09-26T16:27:07.000Z</time>
      </trkpt>
      <trkpt lat="47.05637" lon="-1.72757">
        <ele>64</ele>
        <time>2021-09-26T16:27:09.000Z</time>
      </trkpt>
      <trkpt lat="47.05631" lon="-1.7274">
        <ele>64</ele>
        <time>2021-09-26T16:27:11.000Z</time>
      </trkpt>
      <trkpt lat="47.05626" lon="-1.72724">
        <ele>65</ele>
        <time>2021-09-26T16:27:13.000Z</time>
      </trkpt>
      <trkpt lat="47.0562" lon="-1.72706">
        <ele>65</ele>
        <time>2021-09-26T16:27:15.000Z</time>
      </trkpt>
      <trkpt lat="47.05614" lon="-1.72687">
        <ele>66</ele>
        <time>2021-09-26T16:27:17.000Z</time>
      </trkpt>
      <trkpt lat="47.05609" lon="-1.7267">
        <ele>66</ele>
        <time>2021-09-26T16:27:19.000Z</time>
      </trkpt>
      <trkpt lat="47.05604" lon="-1.72655">
        <ele>67</ele>
        <time>2021-09-26T16:27:21.000Z</time>
      </trkpt>
      <trkpt lat="47.056" lon="-1.72643">
        <ele>67</ele>
        <time>2021-09-26T16:27:23.000Z</time>
      </trkpt>
      <trkpt lat="47.0559" lon="-1.72637">
        <ele>67</ele>
        <time>2021-09-26T16:27:26.000Z</time>
      </trkpt>
      <trkpt lat="47.0558" lon="-1.72628">
        <ele>66</ele>
        <time>2021-09-26T16:27:28.000Z</time>
      </trkpt>
      <trkpt lat="47.05573" lon="-1.7261">
        <ele>66</ele>
        <time>2021-09-26T16:27:30.000Z</time>
      </trkpt>
      <trkpt lat="47.05569" lon="-1.72593">
        <ele>66</ele>
        <time>2021-09-26T16:27:32.000Z</time>
      </trkpt>
      <trkpt lat="47.05565" lon="-1.72575">
        <ele>67</ele>
        <time>2021-09-26T16:27:34.000Z</time>
      </trkpt>
      <trkpt lat="47.05561" lon="-1.72556">
        <ele>67</ele>
        <time>2021-09-26T16:27:36.000Z</time>
      </trkpt>
      <trkpt lat="47.05558" lon="-1.72537">
        <ele>67</ele>
        <time>2021-09-26T16:27:38.000Z</time>
      </trkpt>
      <trkpt lat="47.05554" lon="-1.72518">
        <ele>68</ele>
        <time>2021-09-26T16:27:40.000Z</time>
      </trkpt>
      <trkpt lat="47.0555" lon="-1.725">
        <ele>68</ele>
        <time>2021-09-26T16:27:42.000Z</time>
      </trkpt>
      <trkpt lat="47.05546" lon="-1.72481">
        <ele>68</ele>
        <time>2021-09-26T16:27:44.000Z</time>
      </trkpt>
      <trkpt lat="47.0554" lon="-1.72463">
        <ele>68</ele>
        <time>2021-09-26T16:27:46.000Z</time>
      </trkpt>
      <trkpt lat="47.05535" lon="-1.72444">
        <ele>67</ele>
        <time>2021-09-26T16:27:48.000Z</time>
      </trkpt>
      <trkpt lat="47.05529" lon="-1.72427">
        <ele>67</ele>
        <time>2021-09-26T16:27:50.000Z</time>
      </trkpt>
      <trkpt lat="47.05524" lon="-1.72409">
        <ele>67</ele>
        <time>2021-09-26T16:27:52.000Z</time>
      </trkpt>
      <trkpt lat="47.05519" lon="-1.72391">
        <ele>67</ele>
        <time>2021-09-26T16:27:54.000Z</time>
      </trkpt>
      <trkpt lat="47.05514" lon="-1.72373">
        <ele>67</ele>
        <time>2021-09-26T16:27:56.000Z</time>
      </trkpt>
      <trkpt lat="47.05509" lon="-1.72355">
        <ele>67</ele>
        <time>2021-09-26T16:27:58.000Z</time>
      </trkpt>
      <trkpt lat="47.05504" lon="-1.72337">
        <ele>66</ele>
        <time>2021-09-26T16:28:00.000Z</time>
      </trkpt>
      <trkpt lat="47.05499" lon="-1.72319">
        <ele>66</ele>
        <time>2021-09-26T16:28:02.000Z</time>
      </trkpt>
      <trkpt lat="47.05494" lon="-1.72299">
        <ele>66</ele>
        <time>2021-09-26T16:28:04.000Z</time>
      </trkpt>
      <trkpt lat="47.05489" lon="-1.7228">
        <ele>66</ele>
        <time>2021-09-26T16:28:06.000Z</time>
      </trkpt>
      <trkpt lat="47.05484" lon="-1.7226">
        <ele>66</ele>
        <time>2021-09-26T16:28:08.000Z</time>
      </trkpt>
      <trkpt lat="47.0548" lon="-1.72239">
        <ele>65</ele>
        <time>2021-09-26T16:28:10.000Z</time>
      </trkpt>
      <trkpt lat="47.05474" lon="-1.72218">
        <ele>64</ele>
        <time>2021-09-26T16:28:12.000Z</time>
      </trkpt>
      <trkpt lat="47.05469" lon="-1.72195">
        <ele>64</ele>
        <time>2021-09-26T16:28:14.000Z</time>
      </trkpt>
      <trkpt lat="47.05463" lon="-1.72172">
        <ele>63</ele>
        <time>2021-09-26T16:28:16.000Z</time>
      </trkpt>
      <trkpt lat="47.05458" lon="-1.72148">
        <ele>62</ele>
        <time>2021-09-26T16:28:18.000Z</time>
      </trkpt>
      <trkpt lat="47.05453" lon="-1.72124">
        <ele>62</ele>
        <time>2021-09-26T16:28:20.000Z</time>
      </trkpt>
      <trkpt lat="47.05447" lon="-1.72099">
        <ele>61</ele>
        <time>2021-09-26T16:28:22.000Z</time>
      </trkpt>
      <trkpt lat="47.05445" lon="-1.72086">
        <ele>60</ele>
        <time>2021-09-26T16:28:23.000Z</time>
      </trkpt>
      <trkpt lat="47.05439" lon="-1.72062">
        <ele>60</ele>
        <time>2021-09-26T16:28:25.000Z</time>
      </trkpt>
      <trkpt lat="47.05434" lon="-1.72038">
        <ele>59</ele>
        <time>2021-09-26T16:28:27.000Z</time>
      </trkpt>
      <trkpt lat="47.05429" lon="-1.72013">
        <ele>59</ele>
        <time>2021-09-26T16:28:29.000Z</time>
      </trkpt>
      <trkpt lat="47.05423" lon="-1.71989">
        <ele>59</ele>
        <time>2021-09-26T16:28:31.000Z</time>
      </trkpt>
      <trkpt lat="47.05418" lon="-1.71966">
        <ele>60</ele>
        <time>2021-09-26T16:28:33.000Z</time>
      </trkpt>
      <trkpt lat="47.05413" lon="-1.71945">
        <ele>61</ele>
        <time>2021-09-26T16:28:35.000Z</time>
      </trkpt>
      <trkpt lat="47.05408" lon="-1.71924">
        <ele>62</ele>
        <time>2021-09-26T16:28:37.000Z</time>
      </trkpt>
      <trkpt lat="47.05404" lon="-1.71904">
        <ele>62</ele>
        <time>2021-09-26T16:28:39.000Z</time>
      </trkpt>
      <trkpt lat="47.05399" lon="-1.71883">
        <ele>62</ele>
        <time>2021-09-26T16:28:41.000Z</time>
      </trkpt>
      <trkpt lat="47.05394" lon="-1.71861">
        <ele>62</ele>
        <time>2021-09-26T16:28:43.000Z</time>
      </trkpt>
      <trkpt lat="47.05389" lon="-1.71837">
        <ele>61</ele>
        <time>2021-09-26T16:28:45.000Z</time>
      </trkpt>
      <trkpt lat="47.05384" lon="-1.71814">
        <ele>61</ele>
        <time>2021-09-26T16:28:47.000Z</time>
      </trkpt>
      <trkpt lat="47.05381" lon="-1.7179">
        <ele>61</ele>
        <time>2021-09-26T16:28:49.000Z</time>
      </trkpt>
      <trkpt lat="47.05379" lon="-1.71766">
        <ele>61</ele>
        <time>2021-09-26T16:28:51.000Z</time>
      </trkpt>
      <trkpt lat="47.05379" lon="-1.71743">
        <ele>61</ele>
        <time>2021-09-26T16:28:53.000Z</time>
      </trkpt>
      <trkpt lat="47.0538" lon="-1.7172">
        <ele>61</ele>
        <time>2021-09-26T16:28:55.000Z</time>
      </trkpt>
      <trkpt lat="47.05383" lon="-1.71696">
        <ele>60</ele>
        <time>2021-09-26T16:28:57.000Z</time>
      </trkpt>
      <trkpt lat="47.05385" lon="-1.71673">
        <ele>60</ele>
        <time>2021-09-26T16:28:59.000Z</time>
      </trkpt>
      <trkpt lat="47.05387" lon="-1.71649">
        <ele>61</ele>
        <time>2021-09-26T16:29:01.000Z</time>
      </trkpt>
      <trkpt lat="47.0539" lon="-1.71625">
        <ele>61</ele>
        <time>2021-09-26T16:29:03.000Z</time>
      </trkpt>
      <trkpt lat="47.05392" lon="-1.71601">
        <ele>60</ele>
        <time>2021-09-26T16:29:05.000Z</time>
      </trkpt>
      <trkpt lat="47.05394" lon="-1.71577">
        <ele>60</ele>
        <time>2021-09-26T16:29:07.000Z</time>
      </trkpt>
      <trkpt lat="47.05396" lon="-1.71553">
        <ele>60</ele>
        <time>2021-09-26T16:29:09.000Z</time>
      </trkpt>
      <trkpt lat="47.05398" lon="-1.71529">
        <ele>60</ele>
        <time>2021-09-26T16:29:11.000Z</time>
      </trkpt>
      <trkpt lat="47.05401" lon="-1.71506">
        <ele>60</ele>
        <time>2021-09-26T16:29:13.000Z</time>
      </trkpt>
      <trkpt lat="47.05403" lon="-1.71482">
        <ele>60</ele>
        <time>2021-09-26T16:29:15.000Z</time>
      </trkpt>
      <trkpt lat="47.05405" lon="-1.71459">
        <ele>60</ele>
        <time>2021-09-26T16:29:17.000Z</time>
      </trkpt>
      <trkpt lat="47.05406" lon="-1.71436">
        <ele>60</ele>
        <time>2021-09-26T16:29:19.000Z</time>
      </trkpt>
      <trkpt lat="47.05407" lon="-1.71414">
        <ele>60</ele>
        <time>2021-09-26T16:29:21.000Z</time>
      </trkpt>
      <trkpt lat="47.05405" lon="-1.71391">
        <ele>60</ele>
        <time>2021-09-26T16:29:23.000Z</time>
      </trkpt>
      <trkpt lat="47.05403" lon="-1.71368">
        <ele>60</ele>
        <time>2021-09-26T16:29:25.000Z</time>
      </trkpt>
      <trkpt lat="47.05401" lon="-1.71345">
        <ele>60</ele>
        <time>2021-09-26T16:29:27.000Z</time>
      </trkpt>
      <trkpt lat="47.05398" lon="-1.71324">
        <ele>60</ele>
        <time>2021-09-26T16:29:29.000Z</time>
      </trkpt>
      <trkpt lat="47.05395" lon="-1.71301">
        <ele>61</ele>
        <time>2021-09-26T16:29:31.000Z</time>
      </trkpt>
      <trkpt lat="47.05392" lon="-1.71279">
        <ele>61</ele>
        <time>2021-09-26T16:29:33.000Z</time>
      </trkpt>
      <trkpt lat="47.0539" lon="-1.71256">
        <ele>60</ele>
        <time>2021-09-26T16:29:35.000Z</time>
      </trkpt>
      <trkpt lat="47.05389" lon="-1.71233">
        <ele>61</ele>
        <time>2021-09-26T16:29:37.000Z</time>
      </trkpt>
      <trkpt lat="47.05389" lon="-1.7121">
        <ele>60</ele>
        <time>2021-09-26T16:29:39.000Z</time>
      </trkpt>
      <trkpt lat="47.0539" lon="-1.71187">
        <ele>60</ele>
        <time>2021-09-26T16:29:41.000Z</time>
      </trkpt>
      <trkpt lat="47.05392" lon="-1.71164">
        <ele>60</ele>
        <time>2021-09-26T16:29:43.000Z</time>
      </trkpt>
      <trkpt lat="47.05395" lon="-1.71141">
        <ele>60</ele>
        <time>2021-09-26T16:29:45.000Z</time>
      </trkpt>
      <trkpt lat="47.05397" lon="-1.71117">
        <ele>60</ele>
        <time>2021-09-26T16:29:47.000Z</time>
      </trkpt>
      <trkpt lat="47.054" lon="-1.71095">
        <ele>60</ele>
        <time>2021-09-26T16:29:49.000Z</time>
      </trkpt>
      <trkpt lat="47.05402" lon="-1.71073">
        <ele>59</ele>
        <time>2021-09-26T16:29:51.000Z</time>
      </trkpt>
      <trkpt lat="47.05404" lon="-1.7105">
        <ele>59</ele>
        <time>2021-09-26T16:29:53.000Z</time>
      </trkpt>
      <trkpt lat="47.05405" lon="-1.71027">
        <ele>58</ele>
        <time>2021-09-26T16:29:55.000Z</time>
      </trkpt>
      <trkpt lat="47.05408" lon="-1.71005">
        <ele>58</ele>
        <time>2021-09-26T16:29:57.000Z</time>
      </trkpt>
      <trkpt lat="47.05409" lon="-1.70982">
        <ele>58</ele>
        <time>2021-09-26T16:29:59.000Z</time>
      </trkpt>
      <trkpt lat="47.05412" lon="-1.70959">
        <ele>57</ele>
        <time>2021-09-26T16:30:01.000Z</time>
      </trkpt>
      <trkpt lat="47.05414" lon="-1.70935">
        <ele>57</ele>
        <time>2021-09-26T16:30:03.000Z</time>
      </trkpt>
      <trkpt lat="47.05416" lon="-1.70911">
        <ele>56</ele>
        <time>2021-09-26T16:30:05.000Z</time>
      </trkpt>
      <trkpt lat="47.05417" lon="-1.70886">
        <ele>56</ele>
        <time>2021-09-26T16:30:07.000Z</time>
      </trkpt>
      <trkpt lat="47.05416" lon="-1.70863">
        <ele>56</ele>
        <time>2021-09-26T16:30:09.000Z</time>
      </trkpt>
      <trkpt lat="47.05414" lon="-1.7084">
        <ele>56</ele>
        <time>2021-09-26T16:30:11.000Z</time>
      </trkpt>
      <trkpt lat="47.05411" lon="-1.70819">
        <ele>56</ele>
        <time>2021-09-26T16:30:13.000Z</time>
      </trkpt>
      <trkpt lat="47.05407" lon="-1.70797">
        <ele>58</ele>
        <time>2021-09-26T16:30:15.000Z</time>
      </trkpt>
      <trkpt lat="47.05403" lon="-1.70776">
        <ele>59</ele>
        <time>2021-09-26T16:30:17.000Z</time>
      </trkpt>
      <trkpt lat="47.05399" lon="-1.70754">
        <ele>59</ele>
        <time>2021-09-26T16:30:19.000Z</time>
      </trkpt>
      <trkpt lat="47.05394" lon="-1.70731">
        <ele>59</ele>
        <time>2021-09-26T16:30:21.000Z</time>
      </trkpt>
      <trkpt lat="47.0539" lon="-1.7071">
        <ele>59</ele>
        <time>2021-09-26T16:30:23.000Z</time>
      </trkpt>
      <trkpt lat="47.05386" lon="-1.70688">
        <ele>60</ele>
        <time>2021-09-26T16:30:25.000Z</time>
      </trkpt>
      <trkpt lat="47.05382" lon="-1.70667">
        <ele>60</ele>
        <time>2021-09-26T16:30:27.000Z</time>
      </trkpt>
      <trkpt lat="47.05379" lon="-1.70645">
        <ele>61</ele>
        <time>2021-09-26T16:30:29.000Z</time>
      </trkpt>
      <trkpt lat="47.05375" lon="-1.70624">
        <ele>60</ele>
        <time>2021-09-26T16:30:31.000Z</time>
      </trkpt>
      <trkpt lat="47.05372" lon="-1.70602">
        <ele>60</ele>
        <time>2021-09-26T16:30:33.000Z</time>
      </trkpt>
      <trkpt lat="47.05368" lon="-1.70581">
        <ele>60</ele>
        <time>2021-09-26T16:30:35.000Z</time>
      </trkpt>
      <trkpt lat="47.05364" lon="-1.70559">
        <ele>60</ele>
        <time>2021-09-26T16:30:37.000Z</time>
      </trkpt>
      <trkpt lat="47.05361" lon="-1.70538">
        <ele>60</ele>
        <time>2021-09-26T16:30:39.000Z</time>
      </trkpt>
      <trkpt lat="47.05357" lon="-1.70516">
        <ele>60</ele>
        <time>2021-09-26T16:30:41.000Z</time>
      </trkpt>
      <trkpt lat="47.05354" lon="-1.70492">
        <ele>59</ele>
        <time>2021-09-26T16:30:43.000Z</time>
      </trkpt>
      <trkpt lat="47.0535" lon="-1.7047">
        <ele>59</ele>
        <time>2021-09-26T16:30:45.000Z</time>
      </trkpt>
      <trkpt lat="47.05346" lon="-1.70448">
        <ele>59</ele>
        <time>2021-09-26T16:30:47.000Z</time>
      </trkpt>
      <trkpt lat="47.05341" lon="-1.70425">
        <ele>59</ele>
        <time>2021-09-26T16:30:49.000Z</time>
      </trkpt>
      <trkpt lat="47.05336" lon="-1.70403">
        <ele>59</ele>
        <time>2021-09-26T16:30:51.000Z</time>
      </trkpt>
      <trkpt lat="47.05329" lon="-1.70381">
        <ele>59</ele>
        <time>2021-09-26T16:30:53.000Z</time>
      </trkpt>
      <trkpt lat="47.05322" lon="-1.70361">
        <ele>58</ele>
        <time>2021-09-26T16:30:55.000Z</time>
      </trkpt>
      <trkpt lat="47.05315" lon="-1.7034">
        <ele>58</ele>
        <time>2021-09-26T16:30:57.000Z</time>
      </trkpt>
      <trkpt lat="47.05307" lon="-1.70319">
        <ele>57</ele>
        <time>2021-09-26T16:30:59.000Z</time>
      </trkpt>
      <trkpt lat="47.05299" lon="-1.70299">
        <ele>57</ele>
        <time>2021-09-26T16:31:01.000Z</time>
      </trkpt>
      <trkpt lat="47.05292" lon="-1.70278">
        <ele>57</ele>
        <time>2021-09-26T16:31:03.000Z</time>
      </trkpt>
      <trkpt lat="47.05284" lon="-1.70257">
        <ele>56</ele>
        <time>2021-09-26T16:31:05.000Z</time>
      </trkpt>
      <trkpt lat="47.05276" lon="-1.70236">
        <ele>56</ele>
        <time>2021-09-26T16:31:07.000Z</time>
      </trkpt>
      <trkpt lat="47.05268" lon="-1.70214">
        <ele>55</ele>
        <time>2021-09-26T16:31:09.000Z</time>
      </trkpt>
      <trkpt lat="47.0526" lon="-1.70192">
        <ele>55</ele>
        <time>2021-09-26T16:31:11.000Z</time>
      </trkpt>
      <trkpt lat="47.05251" lon="-1.7017">
        <ele>54</ele>
        <time>2021-09-26T16:31:13.000Z</time>
      </trkpt>
      <trkpt lat="47.05243" lon="-1.70148">
        <ele>54</ele>
        <time>2021-09-26T16:31:15.000Z</time>
      </trkpt>
      <trkpt lat="47.05234" lon="-1.70126">
        <ele>53</ele>
        <time>2021-09-26T16:31:17.000Z</time>
      </trkpt>
      <trkpt lat="47.05226" lon="-1.70103">
        <ele>53</ele>
        <time>2021-09-26T16:31:19.000Z</time>
      </trkpt>
      <trkpt lat="47.05218" lon="-1.70081">
        <ele>52</ele>
        <time>2021-09-26T16:31:21.000Z</time>
      </trkpt>
      <trkpt lat="47.0521" lon="-1.70059">
        <ele>52</ele>
        <time>2021-09-26T16:31:23.000Z</time>
      </trkpt>
      <trkpt lat="47.05202" lon="-1.70037">
        <ele>52</ele>
        <time>2021-09-26T16:31:25.000Z</time>
      </trkpt>
      <trkpt lat="47.05193" lon="-1.70016">
        <ele>52</ele>
        <time>2021-09-26T16:31:27.000Z</time>
      </trkpt>
      <trkpt lat="47.05185" lon="-1.69994">
        <ele>52</ele>
        <time>2021-09-26T16:31:29.000Z</time>
      </trkpt>
      <trkpt lat="47.05177" lon="-1.69974">
        <ele>52</ele>
        <time>2021-09-26T16:31:31.000Z</time>
      </trkpt>
      <trkpt lat="47.0517" lon="-1.69953">
        <ele>52</ele>
        <time>2021-09-26T16:31:33.000Z</time>
      </trkpt>
      <trkpt lat="47.05162" lon="-1.69933">
        <ele>52</ele>
        <time>2021-09-26T16:31:35.000Z</time>
      </trkpt>
      <trkpt lat="47.05156" lon="-1.69911">
        <ele>52</ele>
        <time>2021-09-26T16:31:37.000Z</time>
      </trkpt>
      <trkpt lat="47.05155" lon="-1.69888">
        <ele>52</ele>
        <time>2021-09-26T16:31:39.000Z</time>
      </trkpt>
      <trkpt lat="47.05152" lon="-1.69864">
        <ele>52</ele>
        <time>2021-09-26T16:31:41.000Z</time>
      </trkpt>
      <trkpt lat="47.05146" lon="-1.69842">
        <ele>52</ele>
        <time>2021-09-26T16:31:43.000Z</time>
      </trkpt>
      <trkpt lat="47.05138" lon="-1.69823">
        <ele>52</ele>
        <time>2021-09-26T16:31:45.000Z</time>
      </trkpt>
      <trkpt lat="47.05128" lon="-1.69805">
        <ele>52</ele>
        <time>2021-09-26T16:31:47.000Z</time>
      </trkpt>
      <trkpt lat="47.05117" lon="-1.6979">
        <ele>52</ele>
        <time>2021-09-26T16:31:49.000Z</time>
      </trkpt>
      <trkpt lat="47.05107" lon="-1.69776">
        <ele>52</ele>
        <time>2021-09-26T16:31:51.000Z</time>
      </trkpt>
      <trkpt lat="47.05096" lon="-1.69762">
        <ele>52</ele>
        <time>2021-09-26T16:31:53.000Z</time>
      </trkpt>
      <trkpt lat="47.05085" lon="-1.69749">
        <ele>52</ele>
        <time>2021-09-26T16:31:55.000Z</time>
      </trkpt>
      <trkpt lat="47.05074" lon="-1.69735">
        <ele>52</ele>
        <time>2021-09-26T16:31:57.000Z</time>
      </trkpt>
      <trkpt lat="47.05064" lon="-1.69722">
        <ele>51</ele>
        <time>2021-09-26T16:31:59.000Z</time>
      </trkpt>
      <trkpt lat="47.05053" lon="-1.69709">
        <ele>51</ele>
        <time>2021-09-26T16:32:01.000Z</time>
      </trkpt>
      <trkpt lat="47.05042" lon="-1.69696">
        <ele>51</ele>
        <time>2021-09-26T16:32:03.000Z</time>
      </trkpt>
      <trkpt lat="47.05032" lon="-1.69683">
        <ele>51</ele>
        <time>2021-09-26T16:32:05.000Z</time>
      </trkpt>
      <trkpt lat="47.05021" lon="-1.6967">
        <ele>51</ele>
        <time>2021-09-26T16:32:07.000Z</time>
      </trkpt>
      <trkpt lat="47.05011" lon="-1.69656">
        <ele>51</ele>
        <time>2021-09-26T16:32:09.000Z</time>
      </trkpt>
      <trkpt lat="47.05002" lon="-1.69643">
        <ele>51</ele>
        <time>2021-09-26T16:32:11.000Z</time>
      </trkpt>
      <trkpt lat="47.04995" lon="-1.69626">
        <ele>51</ele>
        <time>2021-09-26T16:32:13.000Z</time>
      </trkpt>
      <trkpt lat="47.04989" lon="-1.69608">
        <ele>52</ele>
        <time>2021-09-26T16:32:15.000Z</time>
      </trkpt>
      <trkpt lat="47.04984" lon="-1.69589">
        <ele>52</ele>
        <time>2021-09-26T16:32:17.000Z</time>
      </trkpt>
      <trkpt lat="47.04978" lon="-1.69569">
        <ele>52</ele>
        <time>2021-09-26T16:32:19.000Z</time>
      </trkpt>
      <trkpt lat="47.04972" lon="-1.69548">
        <ele>52</ele>
        <time>2021-09-26T16:32:21.000Z</time>
      </trkpt>
      <trkpt lat="47.04967" lon="-1.69528">
        <ele>53</ele>
        <time>2021-09-26T16:32:23.000Z</time>
      </trkpt>
      <trkpt lat="47.04961" lon="-1.69508">
        <ele>53</ele>
        <time>2021-09-26T16:32:25.000Z</time>
      </trkpt>
      <trkpt lat="47.04956" lon="-1.69487">
        <ele>53</ele>
        <time>2021-09-26T16:32:27.000Z</time>
      </trkpt>
      <trkpt lat="47.04951" lon="-1.69467">
        <ele>53</ele>
        <time>2021-09-26T16:32:29.000Z</time>
      </trkpt>
      <trkpt lat="47.04945" lon="-1.69447">
        <ele>53</ele>
        <time>2021-09-26T16:32:31.000Z</time>
      </trkpt>
      <trkpt lat="47.0494" lon="-1.69427">
        <ele>53</ele>
        <time>2021-09-26T16:32:33.000Z</time>
      </trkpt>
      <trkpt lat="47.04935" lon="-1.69408">
        <ele>53</ele>
        <time>2021-09-26T16:32:35.000Z</time>
      </trkpt>
      <trkpt lat="47.0493" lon="-1.69389">
        <ele>53</ele>
        <time>2021-09-26T16:32:37.000Z</time>
      </trkpt>
      <trkpt lat="47.04926" lon="-1.69369">
        <ele>54</ele>
        <time>2021-09-26T16:32:39.000Z</time>
      </trkpt>
      <trkpt lat="47.04921" lon="-1.6935">
        <ele>54</ele>
        <time>2021-09-26T16:32:41.000Z</time>
      </trkpt>
      <trkpt lat="47.04916" lon="-1.69332">
        <ele>54</ele>
        <time>2021-09-26T16:32:43.000Z</time>
      </trkpt>
      <trkpt lat="47.0491" lon="-1.69312">
        <ele>54</ele>
        <time>2021-09-26T16:32:45.000Z</time>
      </trkpt>
      <trkpt lat="47.04906" lon="-1.69293">
        <ele>54</ele>
        <time>2021-09-26T16:32:47.000Z</time>
      </trkpt>
      <trkpt lat="47.04901" lon="-1.69275">
        <ele>54</ele>
        <time>2021-09-26T16:32:49.000Z</time>
      </trkpt>
      <trkpt lat="47.04896" lon="-1.69255">
        <ele>54</ele>
        <time>2021-09-26T16:32:51.000Z</time>
      </trkpt>
      <trkpt lat="47.0489" lon="-1.69236">
        <ele>54</ele>
        <time>2021-09-26T16:32:53.000Z</time>
      </trkpt>
      <trkpt lat="47.04885" lon="-1.69217">
        <ele>54</ele>
        <time>2021-09-26T16:32:55.000Z</time>
      </trkpt>
      <trkpt lat="47.0488" lon="-1.69198">
        <ele>54</ele>
        <time>2021-09-26T16:32:57.000Z</time>
      </trkpt>
      <trkpt lat="47.04875" lon="-1.69178">
        <ele>54</ele>
        <time>2021-09-26T16:32:59.000Z</time>
      </trkpt>
      <trkpt lat="47.0487" lon="-1.69159">
        <ele>54</ele>
        <time>2021-09-26T16:33:01.000Z</time>
      </trkpt>
      <trkpt lat="47.04865" lon="-1.6914">
        <ele>54</ele>
        <time>2021-09-26T16:33:03.000Z</time>
      </trkpt>
      <trkpt lat="47.0486" lon="-1.6912">
        <ele>54</ele>
        <time>2021-09-26T16:33:05.000Z</time>
      </trkpt>
      <trkpt lat="47.04855" lon="-1.69101">
        <ele>55</ele>
        <time>2021-09-26T16:33:07.000Z</time>
      </trkpt>
      <trkpt lat="47.0485" lon="-1.69082">
        <ele>55</ele>
        <time>2021-09-26T16:33:09.000Z</time>
      </trkpt>
      <trkpt lat="47.04845" lon="-1.69062">
        <ele>55</ele>
        <time>2021-09-26T16:33:11.000Z</time>
      </trkpt>
      <trkpt lat="47.0484" lon="-1.69043">
        <ele>55</ele>
        <time>2021-09-26T16:33:13.000Z</time>
      </trkpt>
      <trkpt lat="47.04835" lon="-1.69023">
        <ele>55</ele>
        <time>2021-09-26T16:33:15.000Z</time>
      </trkpt>
      <trkpt lat="47.0483" lon="-1.69004">
        <ele>55</ele>
        <time>2021-09-26T16:33:17.000Z</time>
      </trkpt>
      <trkpt lat="47.04825" lon="-1.68986">
        <ele>54</ele>
        <time>2021-09-26T16:33:19.000Z</time>
      </trkpt>
      <trkpt lat="47.0482" lon="-1.68966">
        <ele>55</ele>
        <time>2021-09-26T16:33:21.000Z</time>
      </trkpt>
      <trkpt lat="47.04815" lon="-1.68947">
        <ele>55</ele>
        <time>2021-09-26T16:33:23.000Z</time>
      </trkpt>
      <trkpt lat="47.0481" lon="-1.68928">
        <ele>54</ele>
        <time>2021-09-26T16:33:25.000Z</time>
      </trkpt>
      <trkpt lat="47.04805" lon="-1.68908">
        <ele>55</ele>
        <time>2021-09-26T16:33:27.000Z</time>
      </trkpt>
      <trkpt lat="47.04799" lon="-1.68888">
        <ele>55</ele>
        <time>2021-09-26T16:33:29.000Z</time>
      </trkpt>
      <trkpt lat="47.04794" lon="-1.68868">
        <ele>55</ele>
        <time>2021-09-26T16:33:31.000Z</time>
      </trkpt>
      <trkpt lat="47.04789" lon="-1.68848">
        <ele>55</ele>
        <time>2021-09-26T16:33:33.000Z</time>
      </trkpt>
      <trkpt lat="47.04784" lon="-1.68828">
        <ele>55</ele>
        <time>2021-09-26T16:33:35.000Z</time>
      </trkpt>
      <trkpt lat="47.04779" lon="-1.68809">
        <ele>55</ele>
        <time>2021-09-26T16:33:37.000Z</time>
      </trkpt>
      <trkpt lat="47.04773" lon="-1.6879">
        <ele>56</ele>
        <time>2021-09-26T16:33:39.000Z</time>
      </trkpt>
      <trkpt lat="47.04768" lon="-1.68772">
        <ele>56</ele>
        <time>2021-09-26T16:33:41.000Z</time>
      </trkpt>
      <trkpt lat="47.04763" lon="-1.68754">
        <ele>56</ele>
        <time>2021-09-26T16:33:43.000Z</time>
      </trkpt>
      <trkpt lat="47.04758" lon="-1.68736">
        <ele>56</ele>
        <time>2021-09-26T16:33:45.000Z</time>
      </trkpt>
      <trkpt lat="47.04754" lon="-1.68717">
        <ele>56</ele>
        <time>2021-09-26T16:33:47.000Z</time>
      </trkpt>
      <trkpt lat="47.04749" lon="-1.68698">
        <ele>55</ele>
        <time>2021-09-26T16:33:49.000Z</time>
      </trkpt>
      <trkpt lat="47.04744" lon="-1.68679">
        <ele>56</ele>
        <time>2021-09-26T16:33:51.000Z</time>
      </trkpt>
      <trkpt lat="47.04739" lon="-1.6866">
        <ele>56</ele>
        <time>2021-09-26T16:33:53.000Z</time>
      </trkpt>
      <trkpt lat="47.04734" lon="-1.68641">
        <ele>56</ele>
        <time>2021-09-26T16:33:55.000Z</time>
      </trkpt>
      <trkpt lat="47.04729" lon="-1.68621">
        <ele>56</ele>
        <time>2021-09-26T16:33:57.000Z</time>
      </trkpt>
      <trkpt lat="47.04724" lon="-1.68601">
        <ele>56</ele>
        <time>2021-09-26T16:33:59.000Z</time>
      </trkpt>
      <trkpt lat="47.04719" lon="-1.68582">
        <ele>56</ele>
        <time>2021-09-26T16:34:01.000Z</time>
      </trkpt>
      <trkpt lat="47.04714" lon="-1.68562">
        <ele>56</ele>
        <time>2021-09-26T16:34:03.000Z</time>
      </trkpt>
      <trkpt lat="47.04709" lon="-1.68542">
        <ele>56</ele>
        <time>2021-09-26T16:34:05.000Z</time>
      </trkpt>
      <trkpt lat="47.04704" lon="-1.68522">
        <ele>57</ele>
        <time>2021-09-26T16:34:07.000Z</time>
      </trkpt>
      <trkpt lat="47.04699" lon="-1.68503">
        <ele>57</ele>
        <time>2021-09-26T16:34:09.000Z</time>
      </trkpt>
      <trkpt lat="47.04694" lon="-1.68484">
        <ele>57</ele>
        <time>2021-09-26T16:34:11.000Z</time>
      </trkpt>
      <trkpt lat="47.0469" lon="-1.68465">
        <ele>57</ele>
        <time>2021-09-26T16:34:13.000Z</time>
      </trkpt>
      <trkpt lat="47.04685" lon="-1.68446">
        <ele>56</ele>
        <time>2021-09-26T16:34:15.000Z</time>
      </trkpt>
      <trkpt lat="47.04679" lon="-1.68426">
        <ele>56</ele>
        <time>2021-09-26T16:34:17.000Z</time>
      </trkpt>
      <trkpt lat="47.04674" lon="-1.68406">
        <ele>56</ele>
        <time>2021-09-26T16:34:19.000Z</time>
      </trkpt>
      <trkpt lat="47.04669" lon="-1.68386">
        <ele>56</ele>
        <time>2021-09-26T16:34:21.000Z</time>
      </trkpt>
      <trkpt lat="47.04663" lon="-1.68366">
        <ele>56</ele>
        <time>2021-09-26T16:34:23.000Z</time>
      </trkpt>
      <trkpt lat="47.04658" lon="-1.68345">
        <ele>56</ele>
        <time>2021-09-26T16:34:25.000Z</time>
      </trkpt>
      <trkpt lat="47.04653" lon="-1.68326">
        <ele>56</ele>
        <time>2021-09-26T16:34:27.000Z</time>
      </trkpt>
      <trkpt lat="47.04648" lon="-1.68306">
        <ele>56</ele>
        <time>2021-09-26T16:34:29.000Z</time>
      </trkpt>
      <trkpt lat="47.04642" lon="-1.68285">
        <ele>55</ele>
        <time>2021-09-26T16:34:31.000Z</time>
      </trkpt>
      <trkpt lat="47.04637" lon="-1.68265">
        <ele>55</ele>
        <time>2021-09-26T16:34:33.000Z</time>
      </trkpt>
      <trkpt lat="47.04632" lon="-1.68245">
        <ele>55</ele>
        <time>2021-09-26T16:34:35.000Z</time>
      </trkpt>
      <trkpt lat="47.04626" lon="-1.68224">
        <ele>55</ele>
        <time>2021-09-26T16:34:37.000Z</time>
      </trkpt>
      <trkpt lat="47.04621" lon="-1.68203">
        <ele>55</ele>
        <time>2021-09-26T16:34:39.000Z</time>
      </trkpt>
      <trkpt lat="47.04616" lon="-1.68182">
        <ele>55</ele>
        <time>2021-09-26T16:34:41.000Z</time>
      </trkpt>
      <trkpt lat="47.0461" lon="-1.68161">
        <ele>55</ele>
        <time>2021-09-26T16:34:43.000Z</time>
      </trkpt>
      <trkpt lat="47.04605" lon="-1.68141">
        <ele>54</ele>
        <time>2021-09-26T16:34:45.000Z</time>
      </trkpt>
      <trkpt lat="47.04599" lon="-1.68121">
        <ele>54</ele>
        <time>2021-09-26T16:34:47.000Z</time>
      </trkpt>
      <trkpt lat="47.04594" lon="-1.681">
        <ele>54</ele>
        <time>2021-09-26T16:34:49.000Z</time>
      </trkpt>
      <trkpt lat="47.04589" lon="-1.6808">
        <ele>54</ele>
        <time>2021-09-26T16:34:51.000Z</time>
      </trkpt>
      <trkpt lat="47.04584" lon="-1.68061">
        <ele>54</ele>
        <time>2021-09-26T16:34:53.000Z</time>
      </trkpt>
      <trkpt lat="47.04579" lon="-1.68042">
        <ele>54</ele>
        <time>2021-09-26T16:34:55.000Z</time>
      </trkpt>
      <trkpt lat="47.04575" lon="-1.68024">
        <ele>54</ele>
        <time>2021-09-26T16:34:57.000Z</time>
      </trkpt>
      <trkpt lat="47.04571" lon="-1.68006">
        <ele>55</ele>
        <time>2021-09-26T16:34:59.000Z</time>
      </trkpt>
      <trkpt lat="47.04566" lon="-1.67988">
        <ele>55</ele>
        <time>2021-09-26T16:35:01.000Z</time>
      </trkpt>
      <trkpt lat="47.04561" lon="-1.67971">
        <ele>55</ele>
        <time>2021-09-26T16:35:03.000Z</time>
      </trkpt>
      <trkpt lat="47.04556" lon="-1.67952">
        <ele>55</ele>
        <time>2021-09-26T16:35:05.000Z</time>
      </trkpt>
      <trkpt lat="47.04552" lon="-1.67933">
        <ele>55</ele>
        <time>2021-09-26T16:35:07.000Z</time>
      </trkpt>
      <trkpt lat="47.04547" lon="-1.67914">
        <ele>56</ele>
        <time>2021-09-26T16:35:09.000Z</time>
      </trkpt>
      <trkpt lat="47.04542" lon="-1.67896">
        <ele>56</ele>
        <time>2021-09-26T16:35:11.000Z</time>
      </trkpt>
      <trkpt lat="47.04537" lon="-1.67878">
        <ele>56</ele>
        <time>2021-09-26T16:35:13.000Z</time>
      </trkpt>
      <trkpt lat="47.04532" lon="-1.6786">
        <ele>56</ele>
        <time>2021-09-26T16:35:15.000Z</time>
      </trkpt>
      <trkpt lat="47.04527" lon="-1.67841">
        <ele>56</ele>
        <time>2021-09-26T16:35:17.000Z</time>
      </trkpt>
      <trkpt lat="47.04523" lon="-1.67823">
        <ele>56</ele>
        <time>2021-09-26T16:35:19.000Z</time>
      </trkpt>
      <trkpt lat="47.04518" lon="-1.67805">
        <ele>56</ele>
        <time>2021-09-26T16:35:21.000Z</time>
      </trkpt>
      <trkpt lat="47.04513" lon="-1.67786">
        <ele>57</ele>
        <time>2021-09-26T16:35:23.000Z</time>
      </trkpt>
      <trkpt lat="47.04508" lon="-1.67768">
        <ele>57</ele>
        <time>2021-09-26T16:35:25.000Z</time>
      </trkpt>
      <trkpt lat="47.04503" lon="-1.67749">
        <ele>56</ele>
        <time>2021-09-26T16:35:27.000Z</time>
      </trkpt>
      <trkpt lat="47.04498" lon="-1.6773">
        <ele>56</ele>
        <time>2021-09-26T16:35:29.000Z</time>
      </trkpt>
      <trkpt lat="47.04493" lon="-1.67711">
        <ele>56</ele>
        <time>2021-09-26T16:35:31.000Z</time>
      </trkpt>
      <trkpt lat="47.04488" lon="-1.67691">
        <ele>56</ele>
        <time>2021-09-26T16:35:33.000Z</time>
      </trkpt>
      <trkpt lat="47.04483" lon="-1.67672">
        <ele>56</ele>
        <time>2021-09-26T16:35:35.000Z</time>
      </trkpt>
      <trkpt lat="47.04478" lon="-1.67651">
        <ele>55</ele>
        <time>2021-09-26T16:35:37.000Z</time>
      </trkpt>
      <trkpt lat="47.04473" lon="-1.67631">
        <ele>55</ele>
        <time>2021-09-26T16:35:39.000Z</time>
      </trkpt>
      <trkpt lat="47.04467" lon="-1.67611">
        <ele>55</ele>
        <time>2021-09-26T16:35:41.000Z</time>
      </trkpt>
      <trkpt lat="47.04462" lon="-1.67591">
        <ele>55</ele>
        <time>2021-09-26T16:35:43.000Z</time>
      </trkpt>
      <trkpt lat="47.04456" lon="-1.67569">
        <ele>55</ele>
        <time>2021-09-26T16:35:45.000Z</time>
      </trkpt>
      <trkpt lat="47.04451" lon="-1.67547">
        <ele>54</ele>
        <time>2021-09-26T16:35:47.000Z</time>
      </trkpt>
      <trkpt lat="47.04445" lon="-1.67525">
        <ele>54</ele>
        <time>2021-09-26T16:35:49.000Z</time>
      </trkpt>
      <trkpt lat="47.0444" lon="-1.67504">
        <ele>54</ele>
        <time>2021-09-26T16:35:51.000Z</time>
      </trkpt>
      <trkpt lat="47.04434" lon="-1.67482">
        <ele>54</ele>
        <time>2021-09-26T16:35:53.000Z</time>
      </trkpt>
      <trkpt lat="47.04429" lon="-1.67459">
        <ele>53</ele>
        <time>2021-09-26T16:35:55.000Z</time>
      </trkpt>
      <trkpt lat="47.04423" lon="-1.67438">
        <ele>53</ele>
        <time>2021-09-26T16:35:57.000Z</time>
      </trkpt>
      <trkpt lat="47.04418" lon="-1.67416">
        <ele>53</ele>
        <time>2021-09-26T16:35:59.000Z</time>
      </trkpt>
      <trkpt lat="47.04413" lon="-1.67395">
        <ele>53</ele>
        <time>2021-09-26T16:36:01.000Z</time>
      </trkpt>
      <trkpt lat="47.04407" lon="-1.67375">
        <ele>53</ele>
        <time>2021-09-26T16:36:03.000Z</time>
      </trkpt>
      <trkpt lat="47.04402" lon="-1.67354">
        <ele>52</ele>
        <time>2021-09-26T16:36:05.000Z</time>
      </trkpt>
      <trkpt lat="47.04396" lon="-1.67332">
        <ele>52</ele>
        <time>2021-09-26T16:36:07.000Z</time>
      </trkpt>
      <trkpt lat="47.04391" lon="-1.67312">
        <ele>52</ele>
        <time>2021-09-26T16:36:09.000Z</time>
      </trkpt>
      <trkpt lat="47.04386" lon="-1.67292">
        <ele>52</ele>
        <time>2021-09-26T16:36:11.000Z</time>
      </trkpt>
      <trkpt lat="47.04381" lon="-1.67272">
        <ele>52</ele>
        <time>2021-09-26T16:36:13.000Z</time>
      </trkpt>
      <trkpt lat="47.04376" lon="-1.67252">
        <ele>52</ele>
        <time>2021-09-26T16:36:15.000Z</time>
      </trkpt>
      <trkpt lat="47.0437" lon="-1.67232">
        <ele>52</ele>
        <time>2021-09-26T16:36:17.000Z</time>
      </trkpt>
      <trkpt lat="47.04365" lon="-1.67213">
        <ele>52</ele>
        <time>2021-09-26T16:36:19.000Z</time>
      </trkpt>
      <trkpt lat="47.0436" lon="-1.67194">
        <ele>52</ele>
        <time>2021-09-26T16:36:21.000Z</time>
      </trkpt>
      <trkpt lat="47.04355" lon="-1.67174">
        <ele>52</ele>
        <time>2021-09-26T16:36:23.000Z</time>
      </trkpt>
      <trkpt lat="47.0435" lon="-1.67154">
        <ele>52</ele>
        <time>2021-09-26T16:36:25.000Z</time>
      </trkpt>
      <trkpt lat="47.04346" lon="-1.67134">
        <ele>52</ele>
        <time>2021-09-26T16:36:27.000Z</time>
      </trkpt>
      <trkpt lat="47.0434" lon="-1.67114">
        <ele>52</ele>
        <time>2021-09-26T16:36:29.000Z</time>
      </trkpt>
      <trkpt lat="47.04335" lon="-1.67093">
        <ele>52</ele>
        <time>2021-09-26T16:36:31.000Z</time>
      </trkpt>
      <trkpt lat="47.0433" lon="-1.67073">
        <ele>52</ele>
        <time>2021-09-26T16:36:33.000Z</time>
      </trkpt>
      <trkpt lat="47.04324" lon="-1.67053">
        <ele>52</ele>
        <time>2021-09-26T16:36:35.000Z</time>
      </trkpt>
      <trkpt lat="47.04318" lon="-1.67032">
        <ele>52</ele>
        <time>2021-09-26T16:36:37.000Z</time>
      </trkpt>
      <trkpt lat="47.04313" lon="-1.67012">
        <ele>51</ele>
        <time>2021-09-26T16:36:39.000Z</time>
      </trkpt>
      <trkpt lat="47.04307" lon="-1.66992">
        <ele>51</ele>
        <time>2021-09-26T16:36:41.000Z</time>
      </trkpt>
      <trkpt lat="47.04302" lon="-1.66972">
        <ele>51</ele>
        <time>2021-09-26T16:36:43.000Z</time>
      </trkpt>
      <trkpt lat="47.04297" lon="-1.66951">
        <ele>51</ele>
        <time>2021-09-26T16:36:45.000Z</time>
      </trkpt>
      <trkpt lat="47.04293" lon="-1.66931">
        <ele>51</ele>
        <time>2021-09-26T16:36:47.000Z</time>
      </trkpt>
      <trkpt lat="47.04288" lon="-1.66912">
        <ele>51</ele>
        <time>2021-09-26T16:36:49.000Z</time>
      </trkpt>
      <trkpt lat="47.04283" lon="-1.66892">
        <ele>51</ele>
        <time>2021-09-26T16:36:51.000Z</time>
      </trkpt>
      <trkpt lat="47.04277" lon="-1.66872">
        <ele>52</ele>
        <time>2021-09-26T16:36:53.000Z</time>
      </trkpt>
      <trkpt lat="47.04272" lon="-1.66852">
        <ele>51</ele>
        <time>2021-09-26T16:36:55.000Z</time>
      </trkpt>
      <trkpt lat="47.04267" lon="-1.6683">
        <ele>51</ele>
        <time>2021-09-26T16:36:57.000Z</time>
      </trkpt>
      <trkpt lat="47.04261" lon="-1.66809">
        <ele>50</ele>
        <time>2021-09-26T16:36:59.000Z</time>
      </trkpt>
      <trkpt lat="47.04256" lon="-1.66788">
        <ele>50</ele>
        <time>2021-09-26T16:37:01.000Z</time>
      </trkpt>
      <trkpt lat="47.0425" lon="-1.66767">
        <ele>50</ele>
        <time>2021-09-26T16:37:03.000Z</time>
      </trkpt>
      <trkpt lat="47.04245" lon="-1.66746">
        <ele>50</ele>
        <time>2021-09-26T16:37:05.000Z</time>
      </trkpt>
      <trkpt lat="47.0424" lon="-1.66726">
        <ele>50</ele>
        <time>2021-09-26T16:37:07.000Z</time>
      </trkpt>
      <trkpt lat="47.04235" lon="-1.66705">
        <ele>50</ele>
        <time>2021-09-26T16:37:09.000Z</time>
      </trkpt>
      <trkpt lat="47.0423" lon="-1.66685">
        <ele>50</ele>
        <time>2021-09-26T16:37:11.000Z</time>
      </trkpt>
      <trkpt lat="47.04225" lon="-1.66665">
        <ele>51</ele>
        <time>2021-09-26T16:37:13.000Z</time>
      </trkpt>
      <trkpt lat="47.0422" lon="-1.66645">
        <ele>51</ele>
        <time>2021-09-26T16:37:15.000Z</time>
      </trkpt>
      <trkpt lat="47.04214" lon="-1.66624">
        <ele>51</ele>
        <time>2021-09-26T16:37:17.000Z</time>
      </trkpt>
      <trkpt lat="47.04208" lon="-1.66602">
        <ele>51</ele>
        <time>2021-09-26T16:37:19.000Z</time>
      </trkpt>
      <trkpt lat="47.04203" lon="-1.66582">
        <ele>51</ele>
        <time>2021-09-26T16:37:21.000Z</time>
      </trkpt>
      <trkpt lat="47.04198" lon="-1.66561">
        <ele>52</ele>
        <time>2021-09-26T16:37:23.000Z</time>
      </trkpt>
      <trkpt lat="47.04193" lon="-1.66541">
        <ele>52</ele>
        <time>2021-09-26T16:37:25.000Z</time>
      </trkpt>
      <trkpt lat="47.04188" lon="-1.66521">
        <ele>52</ele>
        <time>2021-09-26T16:37:27.000Z</time>
      </trkpt>
      <trkpt lat="47.04183" lon="-1.66501">
        <ele>52</ele>
        <time>2021-09-26T16:37:29.000Z</time>
      </trkpt>
      <trkpt lat="47.04178" lon="-1.66481">
        <ele>52</ele>
        <time>2021-09-26T16:37:31.000Z</time>
      </trkpt>
      <trkpt lat="47.04172" lon="-1.66461">
        <ele>52</ele>
        <time>2021-09-26T16:37:33.000Z</time>
      </trkpt>
      <trkpt lat="47.04167" lon="-1.66441">
        <ele>52</ele>
        <time>2021-09-26T16:37:35.000Z</time>
      </trkpt>
      <trkpt lat="47.04162" lon="-1.66423">
        <ele>52</ele>
        <time>2021-09-26T16:37:37.000Z</time>
      </trkpt>
      <trkpt lat="47.04157" lon="-1.66404">
        <ele>53</ele>
        <time>2021-09-26T16:37:39.000Z</time>
      </trkpt>
      <trkpt lat="47.04152" lon="-1.66385">
        <ele>53</ele>
        <time>2021-09-26T16:37:41.000Z</time>
      </trkpt>
      <trkpt lat="47.04147" lon="-1.66365">
        <ele>54</ele>
        <time>2021-09-26T16:37:43.000Z</time>
      </trkpt>
      <trkpt lat="47.04142" lon="-1.66346">
        <ele>53</ele>
        <time>2021-09-26T16:37:45.000Z</time>
      </trkpt>
      <trkpt lat="47.04137" lon="-1.66327">
        <ele>54</ele>
        <time>2021-09-26T16:37:47.000Z</time>
      </trkpt>
      <trkpt lat="47.04132" lon="-1.66308">
        <ele>54</ele>
        <time>2021-09-26T16:37:49.000Z</time>
      </trkpt>
      <trkpt lat="47.04127" lon="-1.66289">
        <ele>54</ele>
        <time>2021-09-26T16:37:51.000Z</time>
      </trkpt>
      <trkpt lat="47.04122" lon="-1.6627">
        <ele>54</ele>
        <time>2021-09-26T16:37:53.000Z</time>
      </trkpt>
      <trkpt lat="47.04117" lon="-1.6625">
        <ele>54</ele>
        <time>2021-09-26T16:37:55.000Z</time>
      </trkpt>
      <trkpt lat="47.04113" lon="-1.66231">
        <ele>54</ele>
        <time>2021-09-26T16:37:57.000Z</time>
      </trkpt>
      <trkpt lat="47.04108" lon="-1.66213">
        <ele>55</ele>
        <time>2021-09-26T16:37:59.000Z</time>
      </trkpt>
      <trkpt lat="47.04103" lon="-1.66194">
        <ele>55</ele>
        <time>2021-09-26T16:38:01.000Z</time>
      </trkpt>
      <trkpt lat="47.04098" lon="-1.66175">
        <ele>55</ele>
        <time>2021-09-26T16:38:03.000Z</time>
      </trkpt>
      <trkpt lat="47.04093" lon="-1.66156">
        <ele>56</ele>
        <time>2021-09-26T16:38:05.000Z</time>
      </trkpt>
      <trkpt lat="47.04088" lon="-1.66137">
        <ele>56</ele>
        <time>2021-09-26T16:38:07.000Z</time>
      </trkpt>
      <trkpt lat="47.04083" lon="-1.66117">
        <ele>56</ele>
        <time>2021-09-26T16:38:09.000Z</time>
      </trkpt>
      <trkpt lat="47.04078" lon="-1.66099">
        <ele>56</ele>
        <time>2021-09-26T16:38:11.000Z</time>
      </trkpt>
      <trkpt lat="47.04074" lon="-1.66079">
        <ele>57</ele>
        <time>2021-09-26T16:38:13.000Z</time>
      </trkpt>
      <trkpt lat="47.04069" lon="-1.66061">
        <ele>57</ele>
        <time>2021-09-26T16:38:15.000Z</time>
      </trkpt>
      <trkpt lat="47.04063" lon="-1.66042">
        <ele>57</ele>
        <time>2021-09-26T16:38:17.000Z</time>
      </trkpt>
      <trkpt lat="47.04059" lon="-1.66024">
        <ele>57</ele>
        <time>2021-09-26T16:38:19.000Z</time>
      </trkpt>
      <trkpt lat="47.04053" lon="-1.66005">
        <ele>56</ele>
        <time>2021-09-26T16:38:21.000Z</time>
      </trkpt>
      <trkpt lat="47.04048" lon="-1.65986">
        <ele>57</ele>
        <time>2021-09-26T16:38:23.000Z</time>
      </trkpt>
      <trkpt lat="47.04043" lon="-1.65967">
        <ele>56</ele>
        <time>2021-09-26T16:38:25.000Z</time>
      </trkpt>
      <trkpt lat="47.04037" lon="-1.65948">
        <ele>57</ele>
        <time>2021-09-26T16:38:27.000Z</time>
      </trkpt>
      <trkpt lat="47.04032" lon="-1.65929">
        <ele>56</ele>
        <time>2021-09-26T16:38:29.000Z</time>
      </trkpt>
      <trkpt lat="47.04026" lon="-1.6591">
        <ele>57</ele>
        <time>2021-09-26T16:38:31.000Z</time>
      </trkpt>
      <trkpt lat="47.04021" lon="-1.65889">
        <ele>57</ele>
        <time>2021-09-26T16:38:33.000Z</time>
      </trkpt>
      <trkpt lat="47.04016" lon="-1.6587">
        <ele>56</ele>
        <time>2021-09-26T16:38:35.000Z</time>
      </trkpt>
      <trkpt lat="47.0401" lon="-1.6585">
        <ele>56</ele>
        <time>2021-09-26T16:38:37.000Z</time>
      </trkpt>
      <trkpt lat="47.04004" lon="-1.6583">
        <ele>56</ele>
        <time>2021-09-26T16:38:39.000Z</time>
      </trkpt>
      <trkpt lat="47.03998" lon="-1.6581">
        <ele>56</ele>
        <time>2021-09-26T16:38:41.000Z</time>
      </trkpt>
      <trkpt lat="47.03993" lon="-1.65791">
        <ele>56</ele>
        <time>2021-09-26T16:38:43.000Z</time>
      </trkpt>
      <trkpt lat="47.03988" lon="-1.65771">
        <ele>56</ele>
        <time>2021-09-26T16:38:45.000Z</time>
      </trkpt>
      <trkpt lat="47.03983" lon="-1.65751">
        <ele>56</ele>
        <time>2021-09-26T16:38:47.000Z</time>
      </trkpt>
      <trkpt lat="47.03978" lon="-1.65732">
        <ele>55</ele>
        <time>2021-09-26T16:38:49.000Z</time>
      </trkpt>
      <trkpt lat="47.03972" lon="-1.65713">
        <ele>55</ele>
        <time>2021-09-26T16:38:51.000Z</time>
      </trkpt>
      <trkpt lat="47.03967" lon="-1.65694">
        <ele>55</ele>
        <time>2021-09-26T16:38:53.000Z</time>
      </trkpt>
      <trkpt lat="47.03961" lon="-1.65675">
        <ele>55</ele>
        <time>2021-09-26T16:38:55.000Z</time>
      </trkpt>
      <trkpt lat="47.03956" lon="-1.65655">
        <ele>55</ele>
        <time>2021-09-26T16:38:57.000Z</time>
      </trkpt>
      <trkpt lat="47.0395" lon="-1.65635">
        <ele>55</ele>
        <time>2021-09-26T16:38:59.000Z</time>
      </trkpt>
      <trkpt lat="47.03944" lon="-1.65616">
        <ele>55</ele>
        <time>2021-09-26T16:39:01.000Z</time>
      </trkpt>
      <trkpt lat="47.03939" lon="-1.65596">
        <ele>55</ele>
        <time>2021-09-26T16:39:03.000Z</time>
      </trkpt>
      <trkpt lat="47.03933" lon="-1.65577">
        <ele>55</ele>
        <time>2021-09-26T16:39:05.000Z</time>
      </trkpt>
      <trkpt lat="47.03928" lon="-1.65557">
        <ele>55</ele>
        <time>2021-09-26T16:39:07.000Z</time>
      </trkpt>
      <trkpt lat="47.03922" lon="-1.65538">
        <ele>55</ele>
        <time>2021-09-26T16:39:09.000Z</time>
      </trkpt>
      <trkpt lat="47.03917" lon="-1.65518">
        <ele>56</ele>
        <time>2021-09-26T16:39:11.000Z</time>
      </trkpt>
      <trkpt lat="47.03911" lon="-1.65498">
        <ele>56</ele>
        <time>2021-09-26T16:39:13.000Z</time>
      </trkpt>
      <trkpt lat="47.03906" lon="-1.65479">
        <ele>55</ele>
        <time>2021-09-26T16:39:15.000Z</time>
      </trkpt>
      <trkpt lat="47.039" lon="-1.65459">
        <ele>55</ele>
        <time>2021-09-26T16:39:17.000Z</time>
      </trkpt>
      <trkpt lat="47.03895" lon="-1.65439">
        <ele>55</ele>
        <time>2021-09-26T16:39:19.000Z</time>
      </trkpt>
      <trkpt lat="47.03889" lon="-1.65419">
        <ele>55</ele>
        <time>2021-09-26T16:39:21.000Z</time>
      </trkpt>
      <trkpt lat="47.03884" lon="-1.654">
        <ele>55</ele>
        <time>2021-09-26T16:39:23.000Z</time>
      </trkpt>
      <trkpt lat="47.03878" lon="-1.65381">
        <ele>55</ele>
        <time>2021-09-26T16:39:25.000Z</time>
      </trkpt>
      <trkpt lat="47.03871" lon="-1.65364">
        <ele>55</ele>
        <time>2021-09-26T16:39:27.000Z</time>
      </trkpt>
      <trkpt lat="47.03863" lon="-1.65348">
        <ele>55</ele>
        <time>2021-09-26T16:39:29.000Z</time>
      </trkpt>
      <trkpt lat="47.03854" lon="-1.65335">
        <ele>55</ele>
        <time>2021-09-26T16:39:31.000Z</time>
      </trkpt>
      <trkpt lat="47.03851" lon="-1.65317">
        <ele>55</ele>
        <time>2021-09-26T16:39:33.000Z</time>
      </trkpt>
      <trkpt lat="47.03859" lon="-1.653">
        <ele>55</ele>
        <time>2021-09-26T16:39:35.000Z</time>
      </trkpt>
      <trkpt lat="47.03871" lon="-1.65288">
        <ele>55</ele>
        <time>2021-09-26T16:39:37.000Z</time>
      </trkpt>
      <trkpt lat="47.03884" lon="-1.65277">
        <ele>55</ele>
        <time>2021-09-26T16:39:39.000Z</time>
      </trkpt>
      <trkpt lat="47.03898" lon="-1.65268">
        <ele>54</ele>
        <time>2021-09-26T16:39:41.000Z</time>
      </trkpt>
      <trkpt lat="47.03911" lon="-1.65258">
        <ele>54</ele>
        <time>2021-09-26T16:39:43.000Z</time>
      </trkpt>
      <trkpt lat="47.03925" lon="-1.6525">
        <ele>54</ele>
        <time>2021-09-26T16:39:45.000Z</time>
      </trkpt>
      <trkpt lat="47.03945" lon="-1.65236">
        <ele>54</ele>
        <time>2021-09-26T16:39:48.000Z</time>
      </trkpt>
      <trkpt lat="47.03965" lon="-1.65222">
        <ele>54</ele>
        <time>2021-09-26T16:39:51.000Z</time>
      </trkpt>
      <trkpt lat="47.03986" lon="-1.65207">
        <ele>54</ele>
        <time>2021-09-26T16:39:54.000Z</time>
      </trkpt>
      <trkpt lat="47.04006" lon="-1.65192">
        <ele>54</ele>
        <time>2021-09-26T16:39:57.000Z</time>
      </trkpt>
      <trkpt lat="47.0402" lon="-1.65183">
        <ele>54</ele>
        <time>2021-09-26T16:39:59.000Z</time>
      </trkpt>
      <trkpt lat="47.04041" lon="-1.65169">
        <ele>53</ele>
        <time>2021-09-26T16:40:02.000Z</time>
      </trkpt>
      <trkpt lat="47.04054" lon="-1.6516">
        <ele>53</ele>
        <time>2021-09-26T16:40:04.000Z</time>
      </trkpt>
      <trkpt lat="47.04068" lon="-1.6515">
        <ele>53</ele>
        <time>2021-09-26T16:40:06.000Z</time>
      </trkpt>
      <trkpt lat="47.04082" lon="-1.6514">
        <ele>53</ele>
        <time>2021-09-26T16:40:08.000Z</time>
      </trkpt>
      <trkpt lat="47.04095" lon="-1.6513">
        <ele>53</ele>
        <time>2021-09-26T16:40:10.000Z</time>
      </trkpt>
      <trkpt lat="47.04109" lon="-1.65121">
        <ele>53</ele>
        <time>2021-09-26T16:40:12.000Z</time>
      </trkpt>
      <trkpt lat="47.04123" lon="-1.65112">
        <ele>53</ele>
        <time>2021-09-26T16:40:14.000Z</time>
      </trkpt>
      <trkpt lat="47.04136" lon="-1.65103">
        <ele>53</ele>
        <time>2021-09-26T16:40:16.000Z</time>
      </trkpt>
      <trkpt lat="47.0415" lon="-1.65095">
        <ele>52</ele>
        <time>2021-09-26T16:40:18.000Z</time>
      </trkpt>
      <trkpt lat="47.04164" lon="-1.65085">
        <ele>52</ele>
        <time>2021-09-26T16:40:20.000Z</time>
      </trkpt>
      <trkpt lat="47.04177" lon="-1.65076">
        <ele>52</ele>
        <time>2021-09-26T16:40:22.000Z</time>
      </trkpt>
      <trkpt lat="47.0419" lon="-1.65066">
        <ele>52</ele>
        <time>2021-09-26T16:40:24.000Z</time>
      </trkpt>
      <trkpt lat="47.04204" lon="-1.65057">
        <ele>52</ele>
        <time>2021-09-26T16:40:26.000Z</time>
      </trkpt>
      <trkpt lat="47.04218" lon="-1.65047">
        <ele>52</ele>
        <time>2021-09-26T16:40:28.000Z</time>
      </trkpt>
      <trkpt lat="47.04231" lon="-1.65038">
        <ele>52</ele>
        <time>2021-09-26T16:40:30.000Z</time>
      </trkpt>
      <trkpt lat="47.04245" lon="-1.65029">
        <ele>52</ele>
        <time>2021-09-26T16:40:32.000Z</time>
      </trkpt>
      <trkpt lat="47.04259" lon="-1.65019">
        <ele>51</ele>
        <time>2021-09-26T16:40:34.000Z</time>
      </trkpt>
      <trkpt lat="47.04273" lon="-1.65008">
        <ele>51</ele>
        <time>2021-09-26T16:40:36.000Z</time>
      </trkpt>
      <trkpt lat="47.04287" lon="-1.64999">
        <ele>51</ele>
        <time>2021-09-26T16:40:38.000Z</time>
      </trkpt>
      <trkpt lat="47.043" lon="-1.64987">
        <ele>51</ele>
        <time>2021-09-26T16:40:40.000Z</time>
      </trkpt>
      <trkpt lat="47.04313" lon="-1.64976">
        <ele>51</ele>
        <time>2021-09-26T16:40:42.000Z</time>
      </trkpt>
      <trkpt lat="47.04326" lon="-1.64966">
        <ele>50</ele>
        <time>2021-09-26T16:40:44.000Z</time>
      </trkpt>
      <trkpt lat="47.04339" lon="-1.64956">
        <ele>50</ele>
        <time>2021-09-26T16:40:46.000Z</time>
      </trkpt>
      <trkpt lat="47.04351" lon="-1.64945">
        <ele>50</ele>
        <time>2021-09-26T16:40:48.000Z</time>
      </trkpt>
      <trkpt lat="47.04363" lon="-1.64935">
        <ele>51</ele>
        <time>2021-09-26T16:40:50.000Z</time>
      </trkpt>
      <trkpt lat="47.04374" lon="-1.64926">
        <ele>51</ele>
        <time>2021-09-26T16:40:52.000Z</time>
      </trkpt>
      <trkpt lat="47.04385" lon="-1.64916">
        <ele>52</ele>
        <time>2021-09-26T16:40:54.000Z</time>
      </trkpt>
      <trkpt lat="47.04395" lon="-1.64907">
        <ele>52</ele>
        <time>2021-09-26T16:40:56.000Z</time>
      </trkpt>
      <trkpt lat="47.04405" lon="-1.64899">
        <ele>52</ele>
        <time>2021-09-26T16:40:58.000Z</time>
      </trkpt>
      <trkpt lat="47.04415" lon="-1.64892">
        <ele>52</ele>
        <time>2021-09-26T16:41:00.000Z</time>
      </trkpt>
      <trkpt lat="47.04425" lon="-1.64891">
        <ele>52</ele>
        <time>2021-09-26T16:41:02.000Z</time>
      </trkpt>
      <trkpt lat="47.04436" lon="-1.64894">
        <ele>52</ele>
        <time>2021-09-26T16:41:04.000Z</time>
      </trkpt>
      <trkpt lat="47.04445" lon="-1.64899">
        <ele>52</ele>
        <time>2021-09-26T16:41:06.000Z</time>
      </trkpt>
      <trkpt lat="47.04456" lon="-1.64906">
        <ele>52</ele>
        <time>2021-09-26T16:41:08.000Z</time>
      </trkpt>
      <trkpt lat="47.04465" lon="-1.6491">
        <ele>52</ele>
        <time>2021-09-26T16:41:10.000Z</time>
      </trkpt>
      <trkpt lat="47.04473" lon="-1.64897">
        <ele>51</ele>
        <time>2021-09-26T16:41:13.000Z</time>
      </trkpt>
      <trkpt lat="47.04468" lon="-1.64883">
        <ele>51</ele>
        <time>2021-09-26T16:41:16.000Z</time>
      </trkpt>
      <trkpt lat="47.04457" lon="-1.64873">
        <ele>51</ele>
        <time>2021-09-26T16:41:19.000Z</time>
      </trkpt>
      <trkpt lat="47.04452" lon="-1.6486">
        <ele>51</ele>
        <time>2021-09-26T16:41:22.000Z</time>
      </trkpt>
      <trkpt lat="47.04462" lon="-1.64849">
        <ele>52</ele>
        <time>2021-09-26T16:41:25.000Z</time>
      </trkpt>
      <trkpt lat="47.04471" lon="-1.64839">
        <ele>52</ele>
        <time>2021-09-26T16:41:27.000Z</time>
      </trkpt>
      <trkpt lat="47.0448" lon="-1.64829">
        <ele>53</ele>
        <time>2021-09-26T16:41:29.000Z</time>
      </trkpt>
      <trkpt lat="47.04489" lon="-1.64817">
        <ele>53</ele>
        <time>2021-09-26T16:41:31.000Z</time>
      </trkpt>
      <trkpt lat="47.04497" lon="-1.64805">
        <ele>53</ele>
        <time>2021-09-26T16:41:33.000Z</time>
      </trkpt>
      <trkpt lat="47.04504" lon="-1.6479">
        <ele>53</ele>
        <time>2021-09-26T16:41:35.000Z</time>
      </trkpt>
      <trkpt lat="47.04511" lon="-1.64775">
        <ele>53</ele>
        <time>2021-09-26T16:41:37.000Z</time>
      </trkpt>
      <trkpt lat="47.04515" lon="-1.64758">
        <ele>54</ele>
        <time>2021-09-26T16:41:40.000Z</time>
      </trkpt>
      <trkpt lat="47.04524" lon="-1.64744">
        <ele>54</ele>
        <time>2021-09-26T16:41:43.000Z</time>
      </trkpt>
      <trkpt lat="47.04532" lon="-1.64732">
        <ele>54</ele>
        <time>2021-09-26T16:41:45.000Z</time>
      </trkpt>
      <trkpt lat="47.04541" lon="-1.64721">
        <ele>54</ele>
        <time>2021-09-26T16:41:47.000Z</time>
      </trkpt>
      <trkpt lat="47.04548" lon="-1.64709">
        <ele>54</ele>
        <time>2021-09-26T16:41:49.000Z</time>
      </trkpt>
      <trkpt lat="47.04557" lon="-1.64698">
        <ele>54</ele>
        <time>2021-09-26T16:41:51.000Z</time>
      </trkpt>
      <trkpt lat="47.04568" lon="-1.64694">
        <ele>54</ele>
        <time>2021-09-26T16:41:53.000Z</time>
      </trkpt>
      <trkpt lat="47.04576" lon="-1.64682">
        <ele>54</ele>
        <time>2021-09-26T16:41:55.000Z</time>
      </trkpt>
      <trkpt lat="47.04584" lon="-1.64666">
        <ele>54</ele>
        <time>2021-09-26T16:41:57.000Z</time>
      </trkpt>
      <trkpt lat="47.04593" lon="-1.6465">
        <ele>54</ele>
        <time>2021-09-26T16:41:59.000Z</time>
      </trkpt>
      <trkpt lat="47.04601" lon="-1.64635">
        <ele>54</ele>
        <time>2021-09-26T16:42:01.000Z</time>
      </trkpt>
      <trkpt lat="47.04609" lon="-1.6462">
        <ele>53</ele>
        <time>2021-09-26T16:42:03.000Z</time>
      </trkpt>
      <trkpt lat="47.04616" lon="-1.64605">
        <ele>53</ele>
        <time>2021-09-26T16:42:05.000Z</time>
      </trkpt>
      <trkpt lat="47.04622" lon="-1.6459">
        <ele>53</ele>
        <time>2021-09-26T16:42:07.000Z</time>
      </trkpt>
      <trkpt lat="47.04629" lon="-1.64574">
        <ele>53</ele>
        <time>2021-09-26T16:42:09.000Z</time>
      </trkpt>
      <trkpt lat="47.04637" lon="-1.64557">
        <ele>53</ele>
        <time>2021-09-26T16:42:11.000Z</time>
      </trkpt>
      <trkpt lat="47.04644" lon="-1.6454">
        <ele>53</ele>
        <time>2021-09-26T16:42:13.000Z</time>
      </trkpt>
      <trkpt lat="47.04652" lon="-1.64523">
        <ele>52</ele>
        <time>2021-09-26T16:42:15.000Z</time>
      </trkpt>
      <trkpt lat="47.04659" lon="-1.64507">
        <ele>52</ele>
        <time>2021-09-26T16:42:17.000Z</time>
      </trkpt>
      <trkpt lat="47.04666" lon="-1.64492">
        <ele>53</ele>
        <time>2021-09-26T16:42:19.000Z</time>
      </trkpt>
      <trkpt lat="47.04673" lon="-1.64475">
        <ele>53</ele>
        <time>2021-09-26T16:42:21.000Z</time>
      </trkpt>
      <trkpt lat="47.04681" lon="-1.6446">
        <ele>53</ele>
        <time>2021-09-26T16:42:23.000Z</time>
      </trkpt>
      <trkpt lat="47.0469" lon="-1.64446">
        <ele>53</ele>
        <time>2021-09-26T16:42:25.000Z</time>
      </trkpt>
      <trkpt lat="47.04698" lon="-1.64433">
        <ele>53</ele>
        <time>2021-09-26T16:42:27.000Z</time>
      </trkpt>
      <trkpt lat="47.04707" lon="-1.64419">
        <ele>52</ele>
        <time>2021-09-26T16:42:29.000Z</time>
      </trkpt>
      <trkpt lat="47.04714" lon="-1.64404">
        <ele>53</ele>
        <time>2021-09-26T16:42:31.000Z</time>
      </trkpt>
      <trkpt lat="47.04721" lon="-1.64389">
        <ele>53</ele>
        <time>2021-09-26T16:42:33.000Z</time>
      </trkpt>
      <trkpt lat="47.04728" lon="-1.64373">
        <ele>53</ele>
        <time>2021-09-26T16:42:35.000Z</time>
      </trkpt>
      <trkpt lat="47.0473" lon="-1.64355">
        <ele>53</ele>
        <time>2021-09-26T16:42:37.000Z</time>
      </trkpt>
      <trkpt lat="47.04727" lon="-1.64338">
        <ele>53</ele>
        <time>2021-09-26T16:42:39.000Z</time>
      </trkpt>
      <trkpt lat="47.04729" lon="-1.6432">
        <ele>52</ele>
        <time>2021-09-26T16:42:41.000Z</time>
      </trkpt>
      <trkpt lat="47.04733" lon="-1.64302">
        <ele>51</ele>
        <time>2021-09-26T16:42:43.000Z</time>
      </trkpt>
      <trkpt lat="47.04736" lon="-1.64283">
        <ele>52</ele>
        <time>2021-09-26T16:42:45.000Z</time>
      </trkpt>
      <trkpt lat="47.04741" lon="-1.64265">
        <ele>52</ele>
        <time>2021-09-26T16:42:47.000Z</time>
      </trkpt>
      <trkpt lat="47.04745" lon="-1.64248">
        <ele>52</ele>
        <time>2021-09-26T16:42:49.000Z</time>
      </trkpt>
      <trkpt lat="47.0475" lon="-1.64229">
        <ele>52</ele>
        <time>2021-09-26T16:42:51.000Z</time>
      </trkpt>
      <trkpt lat="47.04754" lon="-1.64211">
        <ele>52</ele>
        <time>2021-09-26T16:42:53.000Z</time>
      </trkpt>
      <trkpt lat="47.04759" lon="-1.64193">
        <ele>52</ele>
        <time>2021-09-26T16:42:55.000Z</time>
      </trkpt>
      <trkpt lat="47.04764" lon="-1.64174">
        <ele>52</ele>
        <time>2021-09-26T16:42:57.000Z</time>
      </trkpt>
      <trkpt lat="47.04769" lon="-1.64156">
        <ele>52</ele>
        <time>2021-09-26T16:42:59.000Z</time>
      </trkpt>
      <trkpt lat="47.04773" lon="-1.64137">
        <ele>52</ele>
        <time>2021-09-26T16:43:01.000Z</time>
      </trkpt>
      <trkpt lat="47.04777" lon="-1.64119">
        <ele>52</ele>
        <time>2021-09-26T16:43:03.000Z</time>
      </trkpt>
      <trkpt lat="47.04782" lon="-1.64101">
        <ele>52</ele>
        <time>2021-09-26T16:43:05.000Z</time>
      </trkpt>
      <trkpt lat="47.04787" lon="-1.64082">
        <ele>52</ele>
        <time>2021-09-26T16:43:07.000Z</time>
      </trkpt>
      <trkpt lat="47.04791" lon="-1.64064">
        <ele>53</ele>
        <time>2021-09-26T16:43:09.000Z</time>
      </trkpt>
      <trkpt lat="47.04796" lon="-1.64046">
        <ele>52</ele>
        <time>2021-09-26T16:43:11.000Z</time>
      </trkpt>
      <trkpt lat="47.048" lon="-1.64029">
        <ele>52</ele>
        <time>2021-09-26T16:43:13.000Z</time>
      </trkpt>
      <trkpt lat="47.04805" lon="-1.64011">
        <ele>52</ele>
        <time>2021-09-26T16:43:15.000Z</time>
      </trkpt>
      <trkpt lat="47.04811" lon="-1.63994">
        <ele>51</ele>
        <time>2021-09-26T16:43:17.000Z</time>
      </trkpt>
      <trkpt lat="47.04818" lon="-1.63979">
        <ele>52</ele>
        <time>2021-09-26T16:43:19.000Z</time>
      </trkpt>
      <trkpt lat="47.04828" lon="-1.63967">
        <ele>52</ele>
        <time>2021-09-26T16:43:21.000Z</time>
      </trkpt>
      <trkpt lat="47.04838" lon="-1.63957">
        <ele>52</ele>
        <time>2021-09-26T16:43:23.000Z</time>
      </trkpt>
      <trkpt lat="47.04849" lon="-1.63946">
        <ele>51</ele>
        <time>2021-09-26T16:43:25.000Z</time>
      </trkpt>
      <trkpt lat="47.04861" lon="-1.63935">
        <ele>52</ele>
        <time>2021-09-26T16:43:27.000Z</time>
      </trkpt>
      <trkpt lat="47.04872" lon="-1.63926">
        <ele>51</ele>
        <time>2021-09-26T16:43:29.000Z</time>
      </trkpt>
      <trkpt lat="47.04883" lon="-1.63916">
        <ele>52</ele>
        <time>2021-09-26T16:43:31.000Z</time>
      </trkpt>
      <trkpt lat="47.04895" lon="-1.63907">
        <ele>52</ele>
        <time>2021-09-26T16:43:33.000Z</time>
      </trkpt>
      <trkpt lat="47.04906" lon="-1.63897">
        <ele>52</ele>
        <time>2021-09-26T16:43:35.000Z</time>
      </trkpt>
      <trkpt lat="47.04917" lon="-1.63887">
        <ele>52</ele>
        <time>2021-09-26T16:43:37.000Z</time>
      </trkpt>
      <trkpt lat="47.04928" lon="-1.63877">
        <ele>52</ele>
        <time>2021-09-26T16:43:39.000Z</time>
      </trkpt>
      <trkpt lat="47.0494" lon="-1.63867">
        <ele>52</ele>
        <time>2021-09-26T16:43:41.000Z</time>
      </trkpt>
      <trkpt lat="47.04951" lon="-1.63857">
        <ele>52</ele>
        <time>2021-09-26T16:43:43.000Z</time>
      </trkpt>
      <trkpt lat="47.04962" lon="-1.63846">
        <ele>52</ele>
        <time>2021-09-26T16:43:45.000Z</time>
      </trkpt>
      <trkpt lat="47.04972" lon="-1.63835">
        <ele>52</ele>
        <time>2021-09-26T16:43:47.000Z</time>
      </trkpt>
      <trkpt lat="47.04983" lon="-1.63824">
        <ele>52</ele>
        <time>2021-09-26T16:43:49.000Z</time>
      </trkpt>
      <trkpt lat="47.04993" lon="-1.63813">
        <ele>52</ele>
        <time>2021-09-26T16:43:51.000Z</time>
      </trkpt>
      <trkpt lat="47.05001" lon="-1.638">
        <ele>53</ele>
        <time>2021-09-26T16:43:53.000Z</time>
      </trkpt>
      <trkpt lat="47.05003" lon="-1.63783">
        <ele>54</ele>
        <time>2021-09-26T16:43:55.000Z</time>
      </trkpt>
      <trkpt lat="47.05002" lon="-1.63768">
        <ele>54</ele>
        <time>2021-09-26T16:43:57.000Z</time>
      </trkpt>
      <trkpt lat="47.05005" lon="-1.63754">
        <ele>54</ele>
        <time>2021-09-26T16:43:59.000Z</time>
      </trkpt>
      <trkpt lat="47.05007" lon="-1.63734">
        <ele>54</ele>
        <time>2021-09-26T16:44:01.000Z</time>
      </trkpt>
      <trkpt lat="47.05003" lon="-1.63714">
        <ele>54</ele>
        <time>2021-09-26T16:44:03.000Z</time>
      </trkpt>
      <trkpt lat="47.04998" lon="-1.63695">
        <ele>53</ele>
        <time>2021-09-26T16:44:05.000Z</time>
      </trkpt>
      <trkpt lat="47.04993" lon="-1.63676">
        <ele>53</ele>
        <time>2021-09-26T16:44:07.000Z</time>
      </trkpt>
      <trkpt lat="47.04989" lon="-1.63657">
        <ele>52</ele>
        <time>2021-09-26T16:44:09.000Z</time>
      </trkpt>
      <trkpt lat="47.04984" lon="-1.63639">
        <ele>53</ele>
        <time>2021-09-26T16:44:11.000Z</time>
      </trkpt>
      <trkpt lat="47.0498" lon="-1.63621">
        <ele>53</ele>
        <time>2021-09-26T16:44:13.000Z</time>
      </trkpt>
      <trkpt lat="47.04977" lon="-1.63604">
        <ele>53</ele>
        <time>2021-09-26T16:44:15.000Z</time>
      </trkpt>
      <trkpt lat="47.04983" lon="-1.63589">
        <ele>53</ele>
        <time>2021-09-26T16:44:17.000Z</time>
      </trkpt>
      <trkpt lat="47.04992" lon="-1.63581">
        <ele>53</ele>
        <time>2021-09-26T16:44:19.000Z</time>
      </trkpt>
      <trkpt lat="47.05002" lon="-1.63571">
        <ele>53</ele>
        <time>2021-09-26T16:44:21.000Z</time>
      </trkpt>
      <trkpt lat="47.05012" lon="-1.63563">
        <ele>53</ele>
        <time>2021-09-26T16:44:23.000Z</time>
      </trkpt>
      <trkpt lat="47.05024" lon="-1.63556">
        <ele>52</ele>
        <time>2021-09-26T16:44:25.000Z</time>
      </trkpt>
      <trkpt lat="47.05035" lon="-1.63552">
        <ele>52</ele>
        <time>2021-09-26T16:44:27.000Z</time>
      </trkpt>
      <trkpt lat="47.05047" lon="-1.63547">
        <ele>52</ele>
        <time>2021-09-26T16:44:29.000Z</time>
      </trkpt>
      <trkpt lat="47.05058" lon="-1.63543">
        <ele>52</ele>
        <time>2021-09-26T16:44:31.000Z</time>
      </trkpt>
      <trkpt lat="47.05069" lon="-1.63539">
        <ele>52</ele>
        <time>2021-09-26T16:44:33.000Z</time>
      </trkpt>
      <trkpt lat="47.0508" lon="-1.63535">
        <ele>52</ele>
        <time>2021-09-26T16:44:35.000Z</time>
      </trkpt>
      <trkpt lat="47.05092" lon="-1.63531">
        <ele>52</ele>
        <time>2021-09-26T16:44:37.000Z</time>
      </trkpt>
      <trkpt lat="47.05103" lon="-1.63527">
        <ele>52</ele>
        <time>2021-09-26T16:44:39.000Z</time>
      </trkpt>
      <trkpt lat="47.05113" lon="-1.6352">
        <ele>51</ele>
        <time>2021-09-26T16:44:41.000Z</time>
      </trkpt>
      <trkpt lat="47.05122" lon="-1.63507">
        <ele>52</ele>
        <time>2021-09-26T16:44:43.000Z</time>
      </trkpt>
      <trkpt lat="47.05134" lon="-1.63501">
        <ele>51</ele>
        <time>2021-09-26T16:44:45.000Z</time>
      </trkpt>
      <trkpt lat="47.05148" lon="-1.63495">
        <ele>51</ele>
        <time>2021-09-26T16:44:47.000Z</time>
      </trkpt>
      <trkpt lat="47.05162" lon="-1.6349">
        <ele>51</ele>
        <time>2021-09-26T16:44:49.000Z</time>
      </trkpt>
      <trkpt lat="47.05175" lon="-1.63484">
        <ele>51</ele>
        <time>2021-09-26T16:44:51.000Z</time>
      </trkpt>
      <trkpt lat="47.05189" lon="-1.63479">
        <ele>52</ele>
        <time>2021-09-26T16:44:53.000Z</time>
      </trkpt>
      <trkpt lat="47.05203" lon="-1.63473">
        <ele>52</ele>
        <time>2021-09-26T16:44:55.000Z</time>
      </trkpt>
      <trkpt lat="47.05217" lon="-1.63468">
        <ele>52</ele>
        <time>2021-09-26T16:44:57.000Z</time>
      </trkpt>
      <trkpt lat="47.05231" lon="-1.63463">
        <ele>52</ele>
        <time>2021-09-26T16:44:59.000Z</time>
      </trkpt>
      <trkpt lat="47.05246" lon="-1.63459">
        <ele>52</ele>
        <time>2021-09-26T16:45:01.000Z</time>
      </trkpt>
      <trkpt lat="47.0526" lon="-1.63455">
        <ele>52</ele>
        <time>2021-09-26T16:45:03.000Z</time>
      </trkpt>
      <trkpt lat="47.05274" lon="-1.63452">
        <ele>52</ele>
        <time>2021-09-26T16:45:05.000Z</time>
      </trkpt>
      <trkpt lat="47.05289" lon="-1.6345">
        <ele>52</ele>
        <time>2021-09-26T16:45:07.000Z</time>
      </trkpt>
      <trkpt lat="47.05303" lon="-1.63447">
        <ele>52</ele>
        <time>2021-09-26T16:45:09.000Z</time>
      </trkpt>
      <trkpt lat="47.05317" lon="-1.63445">
        <ele>52</ele>
        <time>2021-09-26T16:45:11.000Z</time>
      </trkpt>
      <trkpt lat="47.05331" lon="-1.63444">
        <ele>53</ele>
        <time>2021-09-26T16:45:13.000Z</time>
      </trkpt>
      <trkpt lat="47.05345" lon="-1.63444">
        <ele>53</ele>
        <time>2021-09-26T16:45:15.000Z</time>
      </trkpt>
      <trkpt lat="47.05359" lon="-1.63438">
        <ele>53</ele>
        <time>2021-09-26T16:45:17.000Z</time>
      </trkpt>
      <trkpt lat="47.05372" lon="-1.6343">
        <ele>52</ele>
        <time>2021-09-26T16:45:19.000Z</time>
      </trkpt>
      <trkpt lat="47.05387" lon="-1.6343">
        <ele>52</ele>
        <time>2021-09-26T16:45:21.000Z</time>
      </trkpt>
      <trkpt lat="47.05402" lon="-1.63434">
        <ele>52</ele>
        <time>2021-09-26T16:45:23.000Z</time>
      </trkpt>
      <trkpt lat="47.05416" lon="-1.63431">
        <ele>52</ele>
        <time>2021-09-26T16:45:25.000Z</time>
      </trkpt>
      <trkpt lat="47.05431" lon="-1.63427">
        <ele>52</ele>
        <time>2021-09-26T16:45:27.000Z</time>
      </trkpt>
      <trkpt lat="47.05445" lon="-1.63425">
        <ele>52</ele>
        <time>2021-09-26T16:45:29.000Z</time>
      </trkpt>
      <trkpt lat="47.0546" lon="-1.63422">
        <ele>52</ele>
        <time>2021-09-26T16:45:31.000Z</time>
      </trkpt>
      <trkpt lat="47.05475" lon="-1.6342">
        <ele>52</ele>
        <time>2021-09-26T16:45:33.000Z</time>
      </trkpt>
      <trkpt lat="47.0549" lon="-1.63418">
        <ele>52</ele>
        <time>2021-09-26T16:45:35.000Z</time>
      </trkpt>
      <trkpt lat="47.05504" lon="-1.63415">
        <ele>52</ele>
        <time>2021-09-26T16:45:37.000Z</time>
      </trkpt>
      <trkpt lat="47.05519" lon="-1.63412">
        <ele>52</ele>
        <time>2021-09-26T16:45:39.000Z</time>
      </trkpt>
      <trkpt lat="47.05534" lon="-1.63408">
        <ele>51</ele>
        <time>2021-09-26T16:45:41.000Z</time>
      </trkpt>
      <trkpt lat="47.05548" lon="-1.63404">
        <ele>51</ele>
        <time>2021-09-26T16:45:43.000Z</time>
      </trkpt>
      <trkpt lat="47.05563" lon="-1.63398">
        <ele>51</ele>
        <time>2021-09-26T16:45:45.000Z</time>
      </trkpt>
      <trkpt lat="47.05577" lon="-1.63392">
        <ele>51</ele>
        <time>2021-09-26T16:45:47.000Z</time>
      </trkpt>
      <trkpt lat="47.05591" lon="-1.63387">
        <ele>51</ele>
        <time>2021-09-26T16:45:49.000Z</time>
      </trkpt>
      <trkpt lat="47.05604" lon="-1.63381">
        <ele>51</ele>
        <time>2021-09-26T16:45:51.000Z</time>
      </trkpt>
      <trkpt lat="47.05617" lon="-1.63373">
        <ele>51</ele>
        <time>2021-09-26T16:45:53.000Z</time>
      </trkpt>
      <trkpt lat="47.05631" lon="-1.63367">
        <ele>51</ele>
        <time>2021-09-26T16:45:55.000Z</time>
      </trkpt>
      <trkpt lat="47.05644" lon="-1.63361">
        <ele>51</ele>
        <time>2021-09-26T16:45:57.000Z</time>
      </trkpt>
      <trkpt lat="47.05658" lon="-1.63355">
        <ele>51</ele>
        <time>2021-09-26T16:45:59.000Z</time>
      </trkpt>
      <trkpt lat="47.05671" lon="-1.63348">
        <ele>51</ele>
        <time>2021-09-26T16:46:01.000Z</time>
      </trkpt>
      <trkpt lat="47.05685" lon="-1.63341">
        <ele>51</ele>
        <time>2021-09-26T16:46:03.000Z</time>
      </trkpt>
      <trkpt lat="47.05699" lon="-1.63334">
        <ele>51</ele>
        <time>2021-09-26T16:46:05.000Z</time>
      </trkpt>
      <trkpt lat="47.05713" lon="-1.63328">
        <ele>52</ele>
        <time>2021-09-26T16:46:07.000Z</time>
      </trkpt>
      <trkpt lat="47.05726" lon="-1.63322">
        <ele>52</ele>
        <time>2021-09-26T16:46:09.000Z</time>
      </trkpt>
      <trkpt lat="47.05739" lon="-1.63316">
        <ele>52</ele>
        <time>2021-09-26T16:46:11.000Z</time>
      </trkpt>
      <trkpt lat="47.05753" lon="-1.63309">
        <ele>52</ele>
        <time>2021-09-26T16:46:13.000Z</time>
      </trkpt>
      <trkpt lat="47.05767" lon="-1.63302">
        <ele>52</ele>
        <time>2021-09-26T16:46:15.000Z</time>
      </trkpt>
      <trkpt lat="47.05781" lon="-1.63296">
        <ele>52</ele>
        <time>2021-09-26T16:46:17.000Z</time>
      </trkpt>
      <trkpt lat="47.05795" lon="-1.63289">
        <ele>52</ele>
        <time>2021-09-26T16:46:19.000Z</time>
      </trkpt>
      <trkpt lat="47.05808" lon="-1.63283">
        <ele>52</ele>
        <time>2021-09-26T16:46:21.000Z</time>
      </trkpt>
      <trkpt lat="47.05822" lon="-1.63277">
        <ele>52</ele>
        <time>2021-09-26T16:46:23.000Z</time>
      </trkpt>
      <trkpt lat="47.05835" lon="-1.63271">
        <ele>53</ele>
        <time>2021-09-26T16:46:25.000Z</time>
      </trkpt>
      <trkpt lat="47.05848" lon="-1.63265">
        <ele>53</ele>
        <time>2021-09-26T16:46:27.000Z</time>
      </trkpt>
      <trkpt lat="47.05862" lon="-1.63258">
        <ele>53</ele>
        <time>2021-09-26T16:46:29.000Z</time>
      </trkpt>
      <trkpt lat="47.05875" lon="-1.63252">
        <ele>53</ele>
        <time>2021-09-26T16:46:31.000Z</time>
      </trkpt>
      <trkpt lat="47.05889" lon="-1.63246">
        <ele>53</ele>
        <time>2021-09-26T16:46:33.000Z</time>
      </trkpt>
      <trkpt lat="47.05902" lon="-1.6324">
        <ele>53</ele>
        <time>2021-09-26T16:46:35.000Z</time>
      </trkpt>
      <trkpt lat="47.05915" lon="-1.63233">
        <ele>53</ele>
        <time>2021-09-26T16:46:37.000Z</time>
      </trkpt>
      <trkpt lat="47.05928" lon="-1.63227">
        <ele>52</ele>
        <time>2021-09-26T16:46:39.000Z</time>
      </trkpt>
      <trkpt lat="47.05941" lon="-1.63221">
        <ele>52</ele>
        <time>2021-09-26T16:46:41.000Z</time>
      </trkpt>
      <trkpt lat="47.05954" lon="-1.63215">
        <ele>52</ele>
        <time>2021-09-26T16:46:43.000Z</time>
      </trkpt>
      <trkpt lat="47.05968" lon="-1.63209">
        <ele>52</ele>
        <time>2021-09-26T16:46:45.000Z</time>
      </trkpt>
      <trkpt lat="47.05981" lon="-1.63203">
        <ele>53</ele>
        <time>2021-09-26T16:46:47.000Z</time>
      </trkpt>
      <trkpt lat="47.05994" lon="-1.63197">
        <ele>53</ele>
        <time>2021-09-26T16:46:49.000Z</time>
      </trkpt>
      <trkpt lat="47.06007" lon="-1.6319">
        <ele>52</ele>
        <time>2021-09-26T16:46:51.000Z</time>
      </trkpt>
      <trkpt lat="47.0602" lon="-1.63185">
        <ele>52</ele>
        <time>2021-09-26T16:46:53.000Z</time>
      </trkpt>
      <trkpt lat="47.06033" lon="-1.63178">
        <ele>52</ele>
        <time>2021-09-26T16:46:55.000Z</time>
      </trkpt>
      <trkpt lat="47.06046" lon="-1.63172">
        <ele>52</ele>
        <time>2021-09-26T16:46:57.000Z</time>
      </trkpt>
      <trkpt lat="47.06058" lon="-1.63165">
        <ele>52</ele>
        <time>2021-09-26T16:46:59.000Z</time>
      </trkpt>
      <trkpt lat="47.06071" lon="-1.6316">
        <ele>52</ele>
        <time>2021-09-26T16:47:01.000Z</time>
      </trkpt>
      <trkpt lat="47.06084" lon="-1.63154">
        <ele>52</ele>
        <time>2021-09-26T16:47:03.000Z</time>
      </trkpt>
      <trkpt lat="47.06097" lon="-1.63148">
        <ele>52</ele>
        <time>2021-09-26T16:47:05.000Z</time>
      </trkpt>
      <trkpt lat="47.06111" lon="-1.63142">
        <ele>52</ele>
        <time>2021-09-26T16:47:07.000Z</time>
      </trkpt>
      <trkpt lat="47.06125" lon="-1.63135">
        <ele>52</ele>
        <time>2021-09-26T16:47:09.000Z</time>
      </trkpt>
      <trkpt lat="47.06138" lon="-1.63129">
        <ele>52</ele>
        <time>2021-09-26T16:47:11.000Z</time>
      </trkpt>
      <trkpt lat="47.06152" lon="-1.63122">
        <ele>52</ele>
        <time>2021-09-26T16:47:13.000Z</time>
      </trkpt>
      <trkpt lat="47.06166" lon="-1.63115">
        <ele>52</ele>
        <time>2021-09-26T16:47:15.000Z</time>
      </trkpt>
      <trkpt lat="47.0618" lon="-1.63109">
        <ele>51</ele>
        <time>2021-09-26T16:47:17.000Z</time>
      </trkpt>
      <trkpt lat="47.06193" lon="-1.63103">
        <ele>51</ele>
        <time>2021-09-26T16:47:19.000Z</time>
      </trkpt>
      <trkpt lat="47.06206" lon="-1.63097">
        <ele>52</ele>
        <time>2021-09-26T16:47:21.000Z</time>
      </trkpt>
      <trkpt lat="47.06219" lon="-1.6309">
        <ele>52</ele>
        <time>2021-09-26T16:47:23.000Z</time>
      </trkpt>
      <trkpt lat="47.06233" lon="-1.63084">
        <ele>52</ele>
        <time>2021-09-26T16:47:25.000Z</time>
      </trkpt>
      <trkpt lat="47.06247" lon="-1.63077">
        <ele>52</ele>
        <time>2021-09-26T16:47:27.000Z</time>
      </trkpt>
      <trkpt lat="47.0626" lon="-1.63071">
        <ele>52</ele>
        <time>2021-09-26T16:47:29.000Z</time>
      </trkpt>
      <trkpt lat="47.06273" lon="-1.63065">
        <ele>52</ele>
        <time>2021-09-26T16:47:31.000Z</time>
      </trkpt>
      <trkpt lat="47.06286" lon="-1.63059">
        <ele>52</ele>
        <time>2021-09-26T16:47:33.000Z</time>
      </trkpt>
      <trkpt lat="47.063" lon="-1.63052">
        <ele>53</ele>
        <time>2021-09-26T16:47:35.000Z</time>
      </trkpt>
      <trkpt lat="47.06314" lon="-1.63045">
        <ele>53</ele>
        <time>2021-09-26T16:47:37.000Z</time>
      </trkpt>
      <trkpt lat="47.06327" lon="-1.63039">
        <ele>53</ele>
        <time>2021-09-26T16:47:39.000Z</time>
      </trkpt>
      <trkpt lat="47.0634" lon="-1.63033">
        <ele>53</ele>
        <time>2021-09-26T16:47:41.000Z</time>
      </trkpt>
      <trkpt lat="47.06353" lon="-1.63027">
        <ele>53</ele>
        <time>2021-09-26T16:47:43.000Z</time>
      </trkpt>
      <trkpt lat="47.06366" lon="-1.63021">
        <ele>53</ele>
        <time>2021-09-26T16:47:45.000Z</time>
      </trkpt>
      <trkpt lat="47.06378" lon="-1.63016">
        <ele>53</ele>
        <time>2021-09-26T16:47:47.000Z</time>
      </trkpt>
      <trkpt lat="47.06391" lon="-1.6301">
        <ele>53</ele>
        <time>2021-09-26T16:47:49.000Z</time>
      </trkpt>
      <trkpt lat="47.06404" lon="-1.63003">
        <ele>53</ele>
        <time>2021-09-26T16:47:51.000Z</time>
      </trkpt>
      <trkpt lat="47.06417" lon="-1.62998">
        <ele>53</ele>
        <time>2021-09-26T16:47:53.000Z</time>
      </trkpt>
      <trkpt lat="47.0643" lon="-1.62991">
        <ele>53</ele>
        <time>2021-09-26T16:47:55.000Z</time>
      </trkpt>
      <trkpt lat="47.06443" lon="-1.62985">
        <ele>53</ele>
        <time>2021-09-26T16:47:57.000Z</time>
      </trkpt>
      <trkpt lat="47.06456" lon="-1.62979">
        <ele>53</ele>
        <time>2021-09-26T16:47:59.000Z</time>
      </trkpt>
      <trkpt lat="47.06469" lon="-1.62972">
        <ele>54</ele>
        <time>2021-09-26T16:48:01.000Z</time>
      </trkpt>
      <trkpt lat="47.06481" lon="-1.62965">
        <ele>53</ele>
        <time>2021-09-26T16:48:03.000Z</time>
      </trkpt>
      <trkpt lat="47.06494" lon="-1.62956">
        <ele>53</ele>
        <time>2021-09-26T16:48:05.000Z</time>
      </trkpt>
      <trkpt lat="47.06506" lon="-1.62946">
        <ele>54</ele>
        <time>2021-09-26T16:48:07.000Z</time>
      </trkpt>
      <trkpt lat="47.06517" lon="-1.62934">
        <ele>54</ele>
        <time>2021-09-26T16:48:09.000Z</time>
      </trkpt>
      <trkpt lat="47.06528" lon="-1.62921">
        <ele>54</ele>
        <time>2021-09-26T16:48:11.000Z</time>
      </trkpt>
      <trkpt lat="47.06538" lon="-1.62908">
        <ele>54</ele>
        <time>2021-09-26T16:48:13.000Z</time>
      </trkpt>
      <trkpt lat="47.06548" lon="-1.62893">
        <ele>53</ele>
        <time>2021-09-26T16:48:15.000Z</time>
      </trkpt>
      <trkpt lat="47.06557" lon="-1.62879">
        <ele>53</ele>
        <time>2021-09-26T16:48:17.000Z</time>
      </trkpt>
      <trkpt lat="47.06567" lon="-1.62864">
        <ele>53</ele>
        <time>2021-09-26T16:48:19.000Z</time>
      </trkpt>
      <trkpt lat="47.06576" lon="-1.62849">
        <ele>53</ele>
        <time>2021-09-26T16:48:21.000Z</time>
      </trkpt>
      <trkpt lat="47.06586" lon="-1.62835">
        <ele>53</ele>
        <time>2021-09-26T16:48:23.000Z</time>
      </trkpt>
      <trkpt lat="47.06596" lon="-1.62821">
        <ele>53</ele>
        <time>2021-09-26T16:48:25.000Z</time>
      </trkpt>
      <trkpt lat="47.06605" lon="-1.62806">
        <ele>53</ele>
        <time>2021-09-26T16:48:27.000Z</time>
      </trkpt>
      <trkpt lat="47.06614" lon="-1.62792">
        <ele>53</ele>
        <time>2021-09-26T16:48:29.000Z</time>
      </trkpt>
      <trkpt lat="47.06624" lon="-1.62778">
        <ele>53</ele>
        <time>2021-09-26T16:48:31.000Z</time>
      </trkpt>
      <trkpt lat="47.06633" lon="-1.62763">
        <ele>53</ele>
        <time>2021-09-26T16:48:33.000Z</time>
      </trkpt>
      <trkpt lat="47.06643" lon="-1.62748">
        <ele>53</ele>
        <time>2021-09-26T16:48:35.000Z</time>
      </trkpt>
      <trkpt lat="47.06652" lon="-1.62734">
        <ele>53</ele>
        <time>2021-09-26T16:48:37.000Z</time>
      </trkpt>
      <trkpt lat="47.06661" lon="-1.6272">
        <ele>53</ele>
        <time>2021-09-26T16:48:39.000Z</time>
      </trkpt>
      <trkpt lat="47.06671" lon="-1.62705">
        <ele>53</ele>
        <time>2021-09-26T16:48:41.000Z</time>
      </trkpt>
      <trkpt lat="47.0668" lon="-1.62691">
        <ele>53</ele>
        <time>2021-09-26T16:48:43.000Z</time>
      </trkpt>
      <trkpt lat="47.0669" lon="-1.62676">
        <ele>53</ele>
        <time>2021-09-26T16:48:45.000Z</time>
      </trkpt>
      <trkpt lat="47.06699" lon="-1.62662">
        <ele>54</ele>
        <time>2021-09-26T16:48:47.000Z</time>
      </trkpt>
      <trkpt lat="47.06709" lon="-1.62648">
        <ele>54</ele>
        <time>2021-09-26T16:48:49.000Z</time>
      </trkpt>
      <trkpt lat="47.0672" lon="-1.62636">
        <ele>54</ele>
        <time>2021-09-26T16:48:51.000Z</time>
      </trkpt>
      <trkpt lat="47.06731" lon="-1.62624">
        <ele>53</ele>
        <time>2021-09-26T16:48:53.000Z</time>
      </trkpt>
      <trkpt lat="47.06743" lon="-1.62612">
        <ele>53</ele>
        <time>2021-09-26T16:48:55.000Z</time>
      </trkpt>
      <trkpt lat="47.06754" lon="-1.62601">
        <ele>53</ele>
        <time>2021-09-26T16:48:57.000Z</time>
      </trkpt>
      <trkpt lat="47.06766" lon="-1.62589">
        <ele>53</ele>
        <time>2021-09-26T16:48:59.000Z</time>
      </trkpt>
      <trkpt lat="47.06778" lon="-1.62578">
        <ele>53</ele>
        <time>2021-09-26T16:49:01.000Z</time>
      </trkpt>
      <trkpt lat="47.06791" lon="-1.62567">
        <ele>53</ele>
        <time>2021-09-26T16:49:03.000Z</time>
      </trkpt>
      <trkpt lat="47.06803" lon="-1.62556">
        <ele>54</ele>
        <time>2021-09-26T16:49:05.000Z</time>
      </trkpt>
      <trkpt lat="47.06815" lon="-1.62545">
        <ele>54</ele>
        <time>2021-09-26T16:49:07.000Z</time>
      </trkpt>
      <trkpt lat="47.06827" lon="-1.62534">
        <ele>55</ele>
        <time>2021-09-26T16:49:09.000Z</time>
      </trkpt>
      <trkpt lat="47.06839" lon="-1.62523">
        <ele>55</ele>
        <time>2021-09-26T16:49:11.000Z</time>
      </trkpt>
      <trkpt lat="47.06852" lon="-1.62513">
        <ele>55</ele>
        <time>2021-09-26T16:49:13.000Z</time>
      </trkpt>
      <trkpt lat="47.06865" lon="-1.62504">
        <ele>55</ele>
        <time>2021-09-26T16:49:15.000Z</time>
      </trkpt>
      <trkpt lat="47.06878" lon="-1.62496">
        <ele>56</ele>
        <time>2021-09-26T16:49:17.000Z</time>
      </trkpt>
      <trkpt lat="47.06892" lon="-1.6249">
        <ele>56</ele>
        <time>2021-09-26T16:49:19.000Z</time>
      </trkpt>
      <trkpt lat="47.06907" lon="-1.62483">
        <ele>56</ele>
        <time>2021-09-26T16:49:21.000Z</time>
      </trkpt>
      <trkpt lat="47.06922" lon="-1.62477">
        <ele>56</ele>
        <time>2021-09-26T16:49:23.000Z</time>
      </trkpt>
      <trkpt lat="47.06936" lon="-1.62471">
        <ele>56</ele>
        <time>2021-09-26T16:49:25.000Z</time>
      </trkpt>
      <trkpt lat="47.0695" lon="-1.62465">
        <ele>56</ele>
        <time>2021-09-26T16:49:27.000Z</time>
      </trkpt>
      <trkpt lat="47.06964" lon="-1.62459">
        <ele>56</ele>
        <time>2021-09-26T16:49:29.000Z</time>
      </trkpt>
      <trkpt lat="47.06979" lon="-1.62452">
        <ele>56</ele>
        <time>2021-09-26T16:49:31.000Z</time>
      </trkpt>
      <trkpt lat="47.06992" lon="-1.62446">
        <ele>56</ele>
        <time>2021-09-26T16:49:33.000Z</time>
      </trkpt>
      <trkpt lat="47.07006" lon="-1.62441">
        <ele>56</ele>
        <time>2021-09-26T16:49:35.000Z</time>
      </trkpt>
      <trkpt lat="47.07019" lon="-1.62435">
        <ele>57</ele>
        <time>2021-09-26T16:49:37.000Z</time>
      </trkpt>
      <trkpt lat="47.07032" lon="-1.62427">
        <ele>57</ele>
        <time>2021-09-26T16:49:39.000Z</time>
      </trkpt>
      <trkpt lat="47.07045" lon="-1.6242">
        <ele>58</ele>
        <time>2021-09-26T16:49:41.000Z</time>
      </trkpt>
      <trkpt lat="47.07057" lon="-1.62412">
        <ele>59</ele>
        <time>2021-09-26T16:49:43.000Z</time>
      </trkpt>
      <trkpt lat="47.0707" lon="-1.62404">
        <ele>59</ele>
        <time>2021-09-26T16:49:45.000Z</time>
      </trkpt>
      <trkpt lat="47.07082" lon="-1.62396">
        <ele>59</ele>
        <time>2021-09-26T16:49:47.000Z</time>
      </trkpt>
      <trkpt lat="47.07094" lon="-1.62389">
        <ele>60</ele>
        <time>2021-09-26T16:49:49.000Z</time>
      </trkpt>
      <trkpt lat="47.07106" lon="-1.6238">
        <ele>60</ele>
        <time>2021-09-26T16:49:51.000Z</time>
      </trkpt>
      <trkpt lat="47.0712" lon="-1.62371">
        <ele>59</ele>
        <time>2021-09-26T16:49:53.000Z</time>
      </trkpt>
      <trkpt lat="47.07134" lon="-1.62361">
        <ele>59</ele>
        <time>2021-09-26T16:49:55.000Z</time>
      </trkpt>
      <trkpt lat="47.07148" lon="-1.62352">
        <ele>57</ele>
        <time>2021-09-26T16:49:57.000Z</time>
      </trkpt>
      <trkpt lat="47.07162" lon="-1.62343">
        <ele>56</ele>
        <time>2021-09-26T16:49:59.000Z</time>
      </trkpt>
      <trkpt lat="47.07174" lon="-1.62335">
        <ele>55</ele>
        <time>2021-09-26T16:50:01.000Z</time>
      </trkpt>
      <trkpt lat="47.07187" lon="-1.62326">
        <ele>55</ele>
        <time>2021-09-26T16:50:03.000Z</time>
      </trkpt>
      <trkpt lat="47.07201" lon="-1.62317">
        <ele>54</ele>
        <time>2021-09-26T16:50:05.000Z</time>
      </trkpt>
      <trkpt lat="47.07214" lon="-1.62309">
        <ele>54</ele>
        <time>2021-09-26T16:50:07.000Z</time>
      </trkpt>
      <trkpt lat="47.07226" lon="-1.62301">
        <ele>53</ele>
        <time>2021-09-26T16:50:09.000Z</time>
      </trkpt>
      <trkpt lat="47.07239" lon="-1.62292">
        <ele>53</ele>
        <time>2021-09-26T16:50:11.000Z</time>
      </trkpt>
      <trkpt lat="47.07252" lon="-1.62284">
        <ele>53</ele>
        <time>2021-09-26T16:50:13.000Z</time>
      </trkpt>
      <trkpt lat="47.07263" lon="-1.62274">
        <ele>53</ele>
        <time>2021-09-26T16:50:15.000Z</time>
      </trkpt>
      <trkpt lat="47.07275" lon="-1.62263">
        <ele>52</ele>
        <time>2021-09-26T16:50:17.000Z</time>
      </trkpt>
      <trkpt lat="47.07286" lon="-1.62251">
        <ele>53</ele>
        <time>2021-09-26T16:50:19.000Z</time>
      </trkpt>
      <trkpt lat="47.07295" lon="-1.62239">
        <ele>53</ele>
        <time>2021-09-26T16:50:21.000Z</time>
      </trkpt>
      <trkpt lat="47.07305" lon="-1.62226">
        <ele>53</ele>
        <time>2021-09-26T16:50:23.000Z</time>
      </trkpt>
      <trkpt lat="47.07315" lon="-1.62212">
        <ele>53</ele>
        <time>2021-09-26T16:50:25.000Z</time>
      </trkpt>
      <trkpt lat="47.07325" lon="-1.62198">
        <ele>52</ele>
        <time>2021-09-26T16:50:27.000Z</time>
      </trkpt>
      <trkpt lat="47.07335" lon="-1.62184">
        <ele>53</ele>
        <time>2021-09-26T16:50:29.000Z</time>
      </trkpt>
      <trkpt lat="47.07345" lon="-1.62168">
        <ele>53</ele>
        <time>2021-09-26T16:50:31.000Z</time>
      </trkpt>
      <trkpt lat="47.07355" lon="-1.62153">
        <ele>53</ele>
        <time>2021-09-26T16:50:33.000Z</time>
      </trkpt>
      <trkpt lat="47.07364" lon="-1.62137">
        <ele>52</ele>
        <time>2021-09-26T16:50:35.000Z</time>
      </trkpt>
      <trkpt lat="47.07374" lon="-1.62121">
        <ele>53</ele>
        <time>2021-09-26T16:50:37.000Z</time>
      </trkpt>
      <trkpt lat="47.07383" lon="-1.62105">
        <ele>52</ele>
        <time>2021-09-26T16:50:39.000Z</time>
      </trkpt>
      <trkpt lat="47.07393" lon="-1.6209">
        <ele>53</ele>
        <time>2021-09-26T16:50:41.000Z</time>
      </trkpt>
      <trkpt lat="47.07403" lon="-1.62074">
        <ele>53</ele>
        <time>2021-09-26T16:50:43.000Z</time>
      </trkpt>
      <trkpt lat="47.07412" lon="-1.6206">
        <ele>53</ele>
        <time>2021-09-26T16:50:45.000Z</time>
      </trkpt>
      <trkpt lat="47.07421" lon="-1.62045">
        <ele>53</ele>
        <time>2021-09-26T16:50:47.000Z</time>
      </trkpt>
      <trkpt lat="47.0743" lon="-1.6203">
        <ele>53</ele>
        <time>2021-09-26T16:50:49.000Z</time>
      </trkpt>
      <trkpt lat="47.07439" lon="-1.62015">
        <ele>53</ele>
        <time>2021-09-26T16:50:51.000Z</time>
      </trkpt>
      <trkpt lat="47.07448" lon="-1.62001">
        <ele>53</ele>
        <time>2021-09-26T16:50:53.000Z</time>
      </trkpt>
      <trkpt lat="47.07459" lon="-1.61988">
        <ele>53</ele>
        <time>2021-09-26T16:50:55.000Z</time>
      </trkpt>
      <trkpt lat="47.0747" lon="-1.61975">
        <ele>53</ele>
        <time>2021-09-26T16:50:57.000Z</time>
      </trkpt>
      <trkpt lat="47.07481" lon="-1.61963">
        <ele>53</ele>
        <time>2021-09-26T16:50:59.000Z</time>
      </trkpt>
      <trkpt lat="47.07492" lon="-1.61951">
        <ele>53</ele>
        <time>2021-09-26T16:51:01.000Z</time>
      </trkpt>
      <trkpt lat="47.07502" lon="-1.61939">
        <ele>53</ele>
        <time>2021-09-26T16:51:03.000Z</time>
      </trkpt>
      <trkpt lat="47.07513" lon="-1.61927">
        <ele>53</ele>
        <time>2021-09-26T16:51:05.000Z</time>
      </trkpt>
      <trkpt lat="47.07524" lon="-1.61914">
        <ele>54</ele>
        <time>2021-09-26T16:51:07.000Z</time>
      </trkpt>
      <trkpt lat="47.07534" lon="-1.61902">
        <ele>54</ele>
        <time>2021-09-26T16:51:09.000Z</time>
      </trkpt>
      <trkpt lat="47.07544" lon="-1.61889">
        <ele>55</ele>
        <time>2021-09-26T16:51:11.000Z</time>
      </trkpt>
      <trkpt lat="47.07556" lon="-1.61875">
        <ele>55</ele>
        <time>2021-09-26T16:51:13.000Z</time>
      </trkpt>
      <trkpt lat="47.07567" lon="-1.61862">
        <ele>55</ele>
        <time>2021-09-26T16:51:15.000Z</time>
      </trkpt>
      <trkpt lat="47.07577" lon="-1.61849">
        <ele>55</ele>
        <time>2021-09-26T16:51:17.000Z</time>
      </trkpt>
      <trkpt lat="47.07588" lon="-1.61836">
        <ele>56</ele>
        <time>2021-09-26T16:51:19.000Z</time>
      </trkpt>
      <trkpt lat="47.07599" lon="-1.61822">
        <ele>55</ele>
        <time>2021-09-26T16:51:21.000Z</time>
      </trkpt>
      <trkpt lat="47.07611" lon="-1.61809">
        <ele>56</ele>
        <time>2021-09-26T16:51:23.000Z</time>
      </trkpt>
      <trkpt lat="47.07622" lon="-1.61796">
        <ele>56</ele>
        <time>2021-09-26T16:51:25.000Z</time>
      </trkpt>
      <trkpt lat="47.07634" lon="-1.61783">
        <ele>56</ele>
        <time>2021-09-26T16:51:27.000Z</time>
      </trkpt>
      <trkpt lat="47.07645" lon="-1.6177">
        <ele>57</ele>
        <time>2021-09-26T16:51:29.000Z</time>
      </trkpt>
      <trkpt lat="47.07656" lon="-1.61756">
        <ele>58</ele>
        <time>2021-09-26T16:51:31.000Z</time>
      </trkpt>
      <trkpt lat="47.07668" lon="-1.61743">
        <ele>58</ele>
        <time>2021-09-26T16:51:33.000Z</time>
      </trkpt>
      <trkpt lat="47.07681" lon="-1.61729">
        <ele>57</ele>
        <time>2021-09-26T16:51:35.000Z</time>
      </trkpt>
      <trkpt lat="47.07693" lon="-1.61716">
        <ele>56</ele>
        <time>2021-09-26T16:51:37.000Z</time>
      </trkpt>
      <trkpt lat="47.07705" lon="-1.61702">
        <ele>55</ele>
        <time>2021-09-26T16:51:39.000Z</time>
      </trkpt>
      <trkpt lat="47.07717" lon="-1.61689">
        <ele>55</ele>
        <time>2021-09-26T16:51:41.000Z</time>
      </trkpt>
      <trkpt lat="47.07728" lon="-1.61676">
        <ele>55</ele>
        <time>2021-09-26T16:51:43.000Z</time>
      </trkpt>
      <trkpt lat="47.0774" lon="-1.61663">
        <ele>55</ele>
        <time>2021-09-26T16:51:45.000Z</time>
      </trkpt>
      <trkpt lat="47.07752" lon="-1.61651">
        <ele>55</ele>
        <time>2021-09-26T16:51:47.000Z</time>
      </trkpt>
      <trkpt lat="47.07763" lon="-1.61637">
        <ele>55</ele>
        <time>2021-09-26T16:51:49.000Z</time>
      </trkpt>
      <trkpt lat="47.07775" lon="-1.61625">
        <ele>55</ele>
        <time>2021-09-26T16:51:51.000Z</time>
      </trkpt>
      <trkpt lat="47.07787" lon="-1.61612">
        <ele>55</ele>
        <time>2021-09-26T16:51:53.000Z</time>
      </trkpt>
      <trkpt lat="47.07799" lon="-1.616">
        <ele>55</ele>
        <time>2021-09-26T16:51:55.000Z</time>
      </trkpt>
      <trkpt lat="47.07812" lon="-1.61589">
        <ele>55</ele>
        <time>2021-09-26T16:51:57.000Z</time>
      </trkpt>
      <trkpt lat="47.07825" lon="-1.6158">
        <ele>55</ele>
        <time>2021-09-26T16:51:59.000Z</time>
      </trkpt>
      <trkpt lat="47.07837" lon="-1.61572">
        <ele>55</ele>
        <time>2021-09-26T16:52:01.000Z</time>
      </trkpt>
      <trkpt lat="47.07849" lon="-1.61565">
        <ele>55</ele>
        <time>2021-09-26T16:52:03.000Z</time>
      </trkpt>
      <trkpt lat="47.07863" lon="-1.61559">
        <ele>54</ele>
        <time>2021-09-26T16:52:05.000Z</time>
      </trkpt>
      <trkpt lat="47.07876" lon="-1.61554">
        <ele>54</ele>
        <time>2021-09-26T16:52:07.000Z</time>
      </trkpt>
      <trkpt lat="47.07888" lon="-1.61548">
        <ele>54</ele>
        <time>2021-09-26T16:52:09.000Z</time>
      </trkpt>
      <trkpt lat="47.07901" lon="-1.61542">
        <ele>54</ele>
        <time>2021-09-26T16:52:11.000Z</time>
      </trkpt>
      <trkpt lat="47.07913" lon="-1.61537">
        <ele>54</ele>
        <time>2021-09-26T16:52:13.000Z</time>
      </trkpt>
      <trkpt lat="47.07927" lon="-1.61531">
        <ele>54</ele>
        <time>2021-09-26T16:52:15.000Z</time>
      </trkpt>
      <trkpt lat="47.0794" lon="-1.61526">
        <ele>54</ele>
        <time>2021-09-26T16:52:17.000Z</time>
      </trkpt>
      <trkpt lat="47.07954" lon="-1.6152">
        <ele>53</ele>
        <time>2021-09-26T16:52:19.000Z</time>
      </trkpt>
      <trkpt lat="47.07968" lon="-1.61514">
        <ele>53</ele>
        <time>2021-09-26T16:52:21.000Z</time>
      </trkpt>
      <trkpt lat="47.07982" lon="-1.61508">
        <ele>53</ele>
        <time>2021-09-26T16:52:23.000Z</time>
      </trkpt>
      <trkpt lat="47.07996" lon="-1.61502">
        <ele>53</ele>
        <time>2021-09-26T16:52:25.000Z</time>
      </trkpt>
      <trkpt lat="47.0801" lon="-1.61496">
        <ele>52</ele>
        <time>2021-09-26T16:52:27.000Z</time>
      </trkpt>
      <trkpt lat="47.08023" lon="-1.6149">
        <ele>52</ele>
        <time>2021-09-26T16:52:29.000Z</time>
      </trkpt>
      <trkpt lat="47.08036" lon="-1.61484">
        <ele>52</ele>
        <time>2021-09-26T16:52:31.000Z</time>
      </trkpt>
      <trkpt lat="47.08049" lon="-1.61479">
        <ele>52</ele>
        <time>2021-09-26T16:52:33.000Z</time>
      </trkpt>
      <trkpt lat="47.08062" lon="-1.61473">
        <ele>52</ele>
        <time>2021-09-26T16:52:35.000Z</time>
      </trkpt>
      <trkpt lat="47.08075" lon="-1.61467">
        <ele>52</ele>
        <time>2021-09-26T16:52:37.000Z</time>
      </trkpt>
      <trkpt lat="47.08089" lon="-1.61462">
        <ele>52</ele>
        <time>2021-09-26T16:52:39.000Z</time>
      </trkpt>
      <trkpt lat="47.08102" lon="-1.61456">
        <ele>52</ele>
        <time>2021-09-26T16:52:41.000Z</time>
      </trkpt>
      <trkpt lat="47.08115" lon="-1.6145">
        <ele>53</ele>
        <time>2021-09-26T16:52:43.000Z</time>
      </trkpt>
      <trkpt lat="47.08129" lon="-1.61445">
        <ele>52</ele>
        <time>2021-09-26T16:52:45.000Z</time>
      </trkpt>
      <trkpt lat="47.08143" lon="-1.61439">
        <ele>52</ele>
        <time>2021-09-26T16:52:47.000Z</time>
      </trkpt>
      <trkpt lat="47.08157" lon="-1.61433">
        <ele>52</ele>
        <time>2021-09-26T16:52:49.000Z</time>
      </trkpt>
      <trkpt lat="47.0817" lon="-1.61427">
        <ele>51</ele>
        <time>2021-09-26T16:52:51.000Z</time>
      </trkpt>
      <trkpt lat="47.08184" lon="-1.61421">
        <ele>51</ele>
        <time>2021-09-26T16:52:53.000Z</time>
      </trkpt>
      <trkpt lat="47.08198" lon="-1.61416">
        <ele>51</ele>
        <time>2021-09-26T16:52:55.000Z</time>
      </trkpt>
      <trkpt lat="47.08211" lon="-1.6141">
        <ele>50</ele>
        <time>2021-09-26T16:52:57.000Z</time>
      </trkpt>
      <trkpt lat="47.08224" lon="-1.61404">
        <ele>51</ele>
        <time>2021-09-26T16:52:59.000Z</time>
      </trkpt>
      <trkpt lat="47.08236" lon="-1.61399">
        <ele>51</ele>
        <time>2021-09-26T16:53:01.000Z</time>
      </trkpt>
      <trkpt lat="47.08249" lon="-1.61393">
        <ele>51</ele>
        <time>2021-09-26T16:53:03.000Z</time>
      </trkpt>
      <trkpt lat="47.08262" lon="-1.61387">
        <ele>52</ele>
        <time>2021-09-26T16:53:05.000Z</time>
      </trkpt>
      <trkpt lat="47.08276" lon="-1.61382">
        <ele>52</ele>
        <time>2021-09-26T16:53:07.000Z</time>
      </trkpt>
      <trkpt lat="47.0829" lon="-1.61375">
        <ele>51</ele>
        <time>2021-09-26T16:53:09.000Z</time>
      </trkpt>
      <trkpt lat="47.08303" lon="-1.6137">
        <ele>51</ele>
        <time>2021-09-26T16:53:11.000Z</time>
      </trkpt>
      <trkpt lat="47.08317" lon="-1.61364">
        <ele>51</ele>
        <time>2021-09-26T16:53:13.000Z</time>
      </trkpt>
      <trkpt lat="47.0833" lon="-1.61358">
        <ele>51</ele>
        <time>2021-09-26T16:53:15.000Z</time>
      </trkpt>
      <trkpt lat="47.08343" lon="-1.61353">
        <ele>51</ele>
        <time>2021-09-26T16:53:17.000Z</time>
      </trkpt>
      <trkpt lat="47.08357" lon="-1.61347">
        <ele>51</ele>
        <time>2021-09-26T16:53:19.000Z</time>
      </trkpt>
      <trkpt lat="47.0837" lon="-1.61342">
        <ele>51</ele>
        <time>2021-09-26T16:53:21.000Z</time>
      </trkpt>
      <trkpt lat="47.08383" lon="-1.61336">
        <ele>51</ele>
        <time>2021-09-26T16:53:23.000Z</time>
      </trkpt>
      <trkpt lat="47.08397" lon="-1.6133">
        <ele>50</ele>
        <time>2021-09-26T16:53:25.000Z</time>
      </trkpt>
      <trkpt lat="47.0841" lon="-1.61324">
        <ele>50</ele>
        <time>2021-09-26T16:53:27.000Z</time>
      </trkpt>
      <trkpt lat="47.08423" lon="-1.61318">
        <ele>50</ele>
        <time>2021-09-26T16:53:29.000Z</time>
      </trkpt>
      <trkpt lat="47.08437" lon="-1.61312">
        <ele>50</ele>
        <time>2021-09-26T16:53:31.000Z</time>
      </trkpt>
      <trkpt lat="47.0845" lon="-1.61306">
        <ele>50</ele>
        <time>2021-09-26T16:53:33.000Z</time>
      </trkpt>
      <trkpt lat="47.0847" lon="-1.61299">
        <ele>49</ele>
        <time>2021-09-26T16:53:36.000Z</time>
      </trkpt>
      <trkpt lat="47.08483" lon="-1.61293">
        <ele>49</ele>
        <time>2021-09-26T16:53:38.000Z</time>
      </trkpt>
      <trkpt lat="47.08496" lon="-1.61285">
        <ele>49</ele>
        <time>2021-09-26T16:53:40.000Z</time>
      </trkpt>
      <trkpt lat="47.08509" lon="-1.61281">
        <ele>49</ele>
        <time>2021-09-26T16:53:42.000Z</time>
      </trkpt>
      <trkpt lat="47.08523" lon="-1.61275">
        <ele>50</ele>
        <time>2021-09-26T16:53:44.000Z</time>
      </trkpt>
      <trkpt lat="47.08536" lon="-1.6127">
        <ele>50</ele>
        <time>2021-09-26T16:53:46.000Z</time>
      </trkpt>
      <trkpt lat="47.0855" lon="-1.61264">
        <ele>50</ele>
        <time>2021-09-26T16:53:48.000Z</time>
      </trkpt>
      <trkpt lat="47.0857" lon="-1.61255">
        <ele>50</ele>
        <time>2021-09-26T16:53:51.000Z</time>
      </trkpt>
      <trkpt lat="47.08584" lon="-1.61249">
        <ele>50</ele>
        <time>2021-09-26T16:53:53.000Z</time>
      </trkpt>
      <trkpt lat="47.08598" lon="-1.61243">
        <ele>50</ele>
        <time>2021-09-26T16:53:55.000Z</time>
      </trkpt>
      <trkpt lat="47.08612" lon="-1.61238">
        <ele>50</ele>
        <time>2021-09-26T16:53:57.000Z</time>
      </trkpt>
      <trkpt lat="47.08625" lon="-1.61232">
        <ele>50</ele>
        <time>2021-09-26T16:53:59.000Z</time>
      </trkpt>
      <trkpt lat="47.08638" lon="-1.61226">
        <ele>51</ele>
        <time>2021-09-26T16:54:01.000Z</time>
      </trkpt>
      <trkpt lat="47.08652" lon="-1.6122">
        <ele>51</ele>
        <time>2021-09-26T16:54:03.000Z</time>
      </trkpt>
      <trkpt lat="47.08665" lon="-1.61215">
        <ele>51</ele>
        <time>2021-09-26T16:54:05.000Z</time>
      </trkpt>
      <trkpt lat="47.08678" lon="-1.61209">
        <ele>51</ele>
        <time>2021-09-26T16:54:07.000Z</time>
      </trkpt>
      <trkpt lat="47.08691" lon="-1.61204">
        <ele>51</ele>
        <time>2021-09-26T16:54:09.000Z</time>
      </trkpt>
      <trkpt lat="47.08704" lon="-1.61198">
        <ele>51</ele>
        <time>2021-09-26T16:54:11.000Z</time>
      </trkpt>
      <trkpt lat="47.08717" lon="-1.61193">
        <ele>51</ele>
        <time>2021-09-26T16:54:13.000Z</time>
      </trkpt>
      <trkpt lat="47.0873" lon="-1.61188">
        <ele>51</ele>
        <time>2021-09-26T16:54:15.000Z</time>
      </trkpt>
      <trkpt lat="47.08743" lon="-1.61182">
        <ele>51</ele>
        <time>2021-09-26T16:54:17.000Z</time>
      </trkpt>
      <trkpt lat="47.08757" lon="-1.61176">
        <ele>52</ele>
        <time>2021-09-26T16:54:19.000Z</time>
      </trkpt>
      <trkpt lat="47.0877" lon="-1.6117">
        <ele>52</ele>
        <time>2021-09-26T16:54:21.000Z</time>
      </trkpt>
      <trkpt lat="47.08783" lon="-1.61165">
        <ele>52</ele>
        <time>2021-09-26T16:54:23.000Z</time>
      </trkpt>
      <trkpt lat="47.08796" lon="-1.61159">
        <ele>52</ele>
        <time>2021-09-26T16:54:25.000Z</time>
      </trkpt>
      <trkpt lat="47.08809" lon="-1.61154">
        <ele>52</ele>
        <time>2021-09-26T16:54:27.000Z</time>
      </trkpt>
      <trkpt lat="47.08821" lon="-1.61148">
        <ele>52</ele>
        <time>2021-09-26T16:54:29.000Z</time>
      </trkpt>
      <trkpt lat="47.08833" lon="-1.61143">
        <ele>52</ele>
        <time>2021-09-26T16:54:31.000Z</time>
      </trkpt>
      <trkpt lat="47.08846" lon="-1.61137">
        <ele>52</ele>
        <time>2021-09-26T16:54:33.000Z</time>
      </trkpt>
      <trkpt lat="47.08858" lon="-1.61132">
        <ele>52</ele>
        <time>2021-09-26T16:54:35.000Z</time>
      </trkpt>
      <trkpt lat="47.08871" lon="-1.61127">
        <ele>52</ele>
        <time>2021-09-26T16:54:37.000Z</time>
      </trkpt>
      <trkpt lat="47.08883" lon="-1.61122">
        <ele>53</ele>
        <time>2021-09-26T16:54:39.000Z</time>
      </trkpt>
      <trkpt lat="47.08895" lon="-1.61117">
        <ele>53</ele>
        <time>2021-09-26T16:54:41.000Z</time>
      </trkpt>
      <trkpt lat="47.08908" lon="-1.61112">
        <ele>53</ele>
        <time>2021-09-26T16:54:43.000Z</time>
      </trkpt>
      <trkpt lat="47.0892" lon="-1.61106">
        <ele>54</ele>
        <time>2021-09-26T16:54:45.000Z</time>
      </trkpt>
      <trkpt lat="47.08931" lon="-1.61101">
        <ele>54</ele>
        <time>2021-09-26T16:54:47.000Z</time>
      </trkpt>
      <trkpt lat="47.08943" lon="-1.61095">
        <ele>54</ele>
        <time>2021-09-26T16:54:49.000Z</time>
      </trkpt>
      <trkpt lat="47.08955" lon="-1.6109">
        <ele>55</ele>
        <time>2021-09-26T16:54:51.000Z</time>
      </trkpt>
      <trkpt lat="47.08967" lon="-1.61086">
        <ele>55</ele>
        <time>2021-09-26T16:54:53.000Z</time>
      </trkpt>
      <trkpt lat="47.0898" lon="-1.61084">
        <ele>55</ele>
        <time>2021-09-26T16:54:55.000Z</time>
      </trkpt>
      <trkpt lat="47.08993" lon="-1.61085">
        <ele>54</ele>
        <time>2021-09-26T16:54:57.000Z</time>
      </trkpt>
      <trkpt lat="47.09006" lon="-1.61087">
        <ele>55</ele>
        <time>2021-09-26T16:54:59.000Z</time>
      </trkpt>
      <trkpt lat="47.09019" lon="-1.6109">
        <ele>55</ele>
        <time>2021-09-26T16:55:01.000Z</time>
      </trkpt>
      <trkpt lat="47.09032" lon="-1.61095">
        <ele>54</ele>
        <time>2021-09-26T16:55:03.000Z</time>
      </trkpt>
      <trkpt lat="47.09045" lon="-1.61098">
        <ele>55</ele>
        <time>2021-09-26T16:55:05.000Z</time>
      </trkpt>
      <trkpt lat="47.09059" lon="-1.61103">
        <ele>54</ele>
        <time>2021-09-26T16:55:07.000Z</time>
      </trkpt>
      <trkpt lat="47.09072" lon="-1.61108">
        <ele>55</ele>
        <time>2021-09-26T16:55:09.000Z</time>
      </trkpt>
      <trkpt lat="47.09085" lon="-1.61111">
        <ele>55</ele>
        <time>2021-09-26T16:55:11.000Z</time>
      </trkpt>
      <trkpt lat="47.09098" lon="-1.61115">
        <ele>55</ele>
        <time>2021-09-26T16:55:13.000Z</time>
      </trkpt>
      <trkpt lat="47.0911" lon="-1.61119">
        <ele>55</ele>
        <time>2021-09-26T16:55:15.000Z</time>
      </trkpt>
      <trkpt lat="47.09123" lon="-1.61123">
        <ele>56</ele>
        <time>2021-09-26T16:55:17.000Z</time>
      </trkpt>
      <trkpt lat="47.09136" lon="-1.61127">
        <ele>55</ele>
        <time>2021-09-26T16:55:19.000Z</time>
      </trkpt>
      <trkpt lat="47.0915" lon="-1.61131">
        <ele>55</ele>
        <time>2021-09-26T16:55:21.000Z</time>
      </trkpt>
      <trkpt lat="47.09163" lon="-1.61135">
        <ele>55</ele>
        <time>2021-09-26T16:55:23.000Z</time>
      </trkpt>
      <trkpt lat="47.09176" lon="-1.61139">
        <ele>56</ele>
        <time>2021-09-26T16:55:25.000Z</time>
      </trkpt>
      <trkpt lat="47.09187" lon="-1.61142">
        <ele>56</ele>
        <time>2021-09-26T16:55:28.000Z</time>
      </trkpt>
      <trkpt lat="47.09196" lon="-1.61144">
        <ele>57</ele>
        <time>2021-09-26T16:55:54.000Z</time>
      </trkpt>
      <trkpt lat="47.09206" lon="-1.61145">
        <ele>57</ele>
        <time>2021-09-26T16:55:57.000Z</time>
      </trkpt>
      <trkpt lat="47.09217" lon="-1.61153">
        <ele>57</ele>
        <time>2021-09-26T16:55:59.000Z</time>
      </trkpt>
      <trkpt lat="47.09228" lon="-1.61163">
        <ele>57</ele>
        <time>2021-09-26T16:56:01.000Z</time>
      </trkpt>
      <trkpt lat="47.09239" lon="-1.61173">
        <ele>57</ele>
        <time>2021-09-26T16:56:03.000Z</time>
      </trkpt>
      <trkpt lat="47.09252" lon="-1.61178">
        <ele>58</ele>
        <time>2021-09-26T16:56:05.000Z</time>
      </trkpt>
      <trkpt lat="47.09265" lon="-1.61182">
        <ele>57</ele>
        <time>2021-09-26T16:56:07.000Z</time>
      </trkpt>
      <trkpt lat="47.09279" lon="-1.61186">
        <ele>57</ele>
        <time>2021-09-26T16:56:09.000Z</time>
      </trkpt>
      <trkpt lat="47.09293" lon="-1.61191">
        <ele>57</ele>
        <time>2021-09-26T16:56:11.000Z</time>
      </trkpt>
      <trkpt lat="47.09307" lon="-1.61195">
        <ele>57</ele>
        <time>2021-09-26T16:56:13.000Z</time>
      </trkpt>
      <trkpt lat="47.0932" lon="-1.61199">
        <ele>57</ele>
        <time>2021-09-26T16:56:15.000Z</time>
      </trkpt>
      <trkpt lat="47.09334" lon="-1.61202">
        <ele>57</ele>
        <time>2021-09-26T16:56:17.000Z</time>
      </trkpt>
      <trkpt lat="47.09348" lon="-1.61206">
        <ele>58</ele>
        <time>2021-09-26T16:56:19.000Z</time>
      </trkpt>
      <trkpt lat="47.09361" lon="-1.6121">
        <ele>57</ele>
        <time>2021-09-26T16:56:21.000Z</time>
      </trkpt>
      <trkpt lat="47.09376" lon="-1.61216">
        <ele>57</ele>
        <time>2021-09-26T16:56:23.000Z</time>
      </trkpt>
      <trkpt lat="47.0939" lon="-1.61222">
        <ele>56</ele>
        <time>2021-09-26T16:56:25.000Z</time>
      </trkpt>
      <trkpt lat="47.09403" lon="-1.61228">
        <ele>56</ele>
        <time>2021-09-26T16:56:27.000Z</time>
      </trkpt>
      <trkpt lat="47.09417" lon="-1.61232">
        <ele>55</ele>
        <time>2021-09-26T16:56:29.000Z</time>
      </trkpt>
      <trkpt lat="47.09429" lon="-1.61224">
        <ele>54</ele>
        <time>2021-09-26T16:56:31.000Z</time>
      </trkpt>
      <trkpt lat="47.0944" lon="-1.6121">
        <ele>54</ele>
        <time>2021-09-26T16:56:33.000Z</time>
      </trkpt>
      <trkpt lat="47.09452" lon="-1.61196">
        <ele>54</ele>
        <time>2021-09-26T16:56:35.000Z</time>
      </trkpt>
      <trkpt lat="47.09464" lon="-1.61183">
        <ele>54</ele>
        <time>2021-09-26T16:56:37.000Z</time>
      </trkpt>
      <trkpt lat="47.09476" lon="-1.6117">
        <ele>54</ele>
        <time>2021-09-26T16:56:39.000Z</time>
      </trkpt>
      <trkpt lat="47.09488" lon="-1.61158">
        <ele>54</ele>
        <time>2021-09-26T16:56:41.000Z</time>
      </trkpt>
      <trkpt lat="47.09501" lon="-1.61147">
        <ele>55</ele>
        <time>2021-09-26T16:56:43.000Z</time>
      </trkpt>
      <trkpt lat="47.09515" lon="-1.6114">
        <ele>55</ele>
        <time>2021-09-26T16:56:45.000Z</time>
      </trkpt>
      <trkpt lat="47.0953" lon="-1.61136">
        <ele>54</ele>
        <time>2021-09-26T16:56:47.000Z</time>
      </trkpt>
      <trkpt lat="47.09545" lon="-1.61134">
        <ele>54</ele>
        <time>2021-09-26T16:56:49.000Z</time>
      </trkpt>
      <trkpt lat="47.0956" lon="-1.61132">
        <ele>53</ele>
        <time>2021-09-26T16:56:51.000Z</time>
      </trkpt>
      <trkpt lat="47.09576" lon="-1.61131">
        <ele>53</ele>
        <time>2021-09-26T16:56:53.000Z</time>
      </trkpt>
      <trkpt lat="47.09591" lon="-1.61129">
        <ele>53</ele>
        <time>2021-09-26T16:56:55.000Z</time>
      </trkpt>
      <trkpt lat="47.09606" lon="-1.61127">
        <ele>52</ele>
        <time>2021-09-26T16:56:57.000Z</time>
      </trkpt>
      <trkpt lat="47.09621" lon="-1.61125">
        <ele>52</ele>
        <time>2021-09-26T16:56:59.000Z</time>
      </trkpt>
      <trkpt lat="47.09637" lon="-1.61123">
        <ele>52</ele>
        <time>2021-09-26T16:57:01.000Z</time>
      </trkpt>
      <trkpt lat="47.09651" lon="-1.61121">
        <ele>51</ele>
        <time>2021-09-26T16:57:03.000Z</time>
      </trkpt>
      <trkpt lat="47.09665" lon="-1.61119">
        <ele>51</ele>
        <time>2021-09-26T16:57:05.000Z</time>
      </trkpt>
      <trkpt lat="47.0968" lon="-1.61118">
        <ele>51</ele>
        <time>2021-09-26T16:57:07.000Z</time>
      </trkpt>
      <trkpt lat="47.09695" lon="-1.61116">
        <ele>51</ele>
        <time>2021-09-26T16:57:09.000Z</time>
      </trkpt>
      <trkpt lat="47.0971" lon="-1.61114">
        <ele>51</ele>
        <time>2021-09-26T16:57:11.000Z</time>
      </trkpt>
      <trkpt lat="47.09725" lon="-1.61113">
        <ele>51</ele>
        <time>2021-09-26T16:57:13.000Z</time>
      </trkpt>
      <trkpt lat="47.0974" lon="-1.6111">
        <ele>51</ele>
        <time>2021-09-26T16:57:15.000Z</time>
      </trkpt>
      <trkpt lat="47.09755" lon="-1.61109">
        <ele>51</ele>
        <time>2021-09-26T16:57:17.000Z</time>
      </trkpt>
      <trkpt lat="47.09769" lon="-1.61107">
        <ele>51</ele>
        <time>2021-09-26T16:57:19.000Z</time>
      </trkpt>
      <trkpt lat="47.09782" lon="-1.61105">
        <ele>51</ele>
        <time>2021-09-26T16:57:21.000Z</time>
      </trkpt>
      <trkpt lat="47.09796" lon="-1.611">
        <ele>51</ele>
        <time>2021-09-26T16:57:23.000Z</time>
      </trkpt>
      <trkpt lat="47.0981" lon="-1.61093">
        <ele>51</ele>
        <time>2021-09-26T16:57:25.000Z</time>
      </trkpt>
      <trkpt lat="47.09824" lon="-1.61084">
        <ele>51</ele>
        <time>2021-09-26T16:57:27.000Z</time>
      </trkpt>
      <trkpt lat="47.09836" lon="-1.61074">
        <ele>51</ele>
        <time>2021-09-26T16:57:29.000Z</time>
      </trkpt>
      <trkpt lat="47.09846" lon="-1.61062">
        <ele>51</ele>
        <time>2021-09-26T16:57:31.000Z</time>
      </trkpt>
      <trkpt lat="47.09856" lon="-1.61046">
        <ele>51</ele>
        <time>2021-09-26T16:57:33.000Z</time>
      </trkpt>
      <trkpt lat="47.09865" lon="-1.61031">
        <ele>52</ele>
        <time>2021-09-26T16:57:35.000Z</time>
      </trkpt>
      <trkpt lat="47.09873" lon="-1.61014">
        <ele>52</ele>
        <time>2021-09-26T16:57:37.000Z</time>
      </trkpt>
      <trkpt lat="47.09881" lon="-1.60997">
        <ele>52</ele>
        <time>2021-09-26T16:57:39.000Z</time>
      </trkpt>
      <trkpt lat="47.09887" lon="-1.6098">
        <ele>53</ele>
        <time>2021-09-26T16:57:41.000Z</time>
      </trkpt>
      <trkpt lat="47.09894" lon="-1.60963">
        <ele>53</ele>
        <time>2021-09-26T16:57:43.000Z</time>
      </trkpt>
      <trkpt lat="47.09901" lon="-1.60945">
        <ele>54</ele>
        <time>2021-09-26T16:57:45.000Z</time>
      </trkpt>
      <trkpt lat="47.09908" lon="-1.60928">
        <ele>54</ele>
        <time>2021-09-26T16:57:47.000Z</time>
      </trkpt>
      <trkpt lat="47.09914" lon="-1.60911">
        <ele>54</ele>
        <time>2021-09-26T16:57:49.000Z</time>
      </trkpt>
      <trkpt lat="47.09921" lon="-1.60894">
        <ele>54</ele>
        <time>2021-09-26T16:57:51.000Z</time>
      </trkpt>
      <trkpt lat="47.09927" lon="-1.60877">
        <ele>55</ele>
        <time>2021-09-26T16:57:53.000Z</time>
      </trkpt>
      <trkpt lat="47.09934" lon="-1.6086">
        <ele>55</ele>
        <time>2021-09-26T16:57:55.000Z</time>
      </trkpt>
      <trkpt lat="47.09941" lon="-1.60843">
        <ele>55</ele>
        <time>2021-09-26T16:57:57.000Z</time>
      </trkpt>
      <trkpt lat="47.09947" lon="-1.60825">
        <ele>55</ele>
        <time>2021-09-26T16:57:59.000Z</time>
      </trkpt>
      <trkpt lat="47.09953" lon="-1.60806">
        <ele>55</ele>
        <time>2021-09-26T16:58:01.000Z</time>
      </trkpt>
      <trkpt lat="47.09959" lon="-1.60788">
        <ele>55</ele>
        <time>2021-09-26T16:58:03.000Z</time>
      </trkpt>
      <trkpt lat="47.09964" lon="-1.6077">
        <ele>55</ele>
        <time>2021-09-26T16:58:05.000Z</time>
      </trkpt>
      <trkpt lat="47.0997" lon="-1.60752">
        <ele>56</ele>
        <time>2021-09-26T16:58:07.000Z</time>
      </trkpt>
      <trkpt lat="47.09975" lon="-1.60734">
        <ele>56</ele>
        <time>2021-09-26T16:58:09.000Z</time>
      </trkpt>
      <trkpt lat="47.0998" lon="-1.60716">
        <ele>56</ele>
        <time>2021-09-26T16:58:11.000Z</time>
      </trkpt>
      <trkpt lat="47.09986" lon="-1.60698">
        <ele>56</ele>
        <time>2021-09-26T16:58:13.000Z</time>
      </trkpt>
      <trkpt lat="47.09992" lon="-1.60679">
        <ele>57</ele>
        <time>2021-09-26T16:58:15.000Z</time>
      </trkpt>
      <trkpt lat="47.09997" lon="-1.60661">
        <ele>57</ele>
        <time>2021-09-26T16:58:17.000Z</time>
      </trkpt>
      <trkpt lat="47.10002" lon="-1.60643">
        <ele>57</ele>
        <time>2021-09-26T16:58:19.000Z</time>
      </trkpt>
      <trkpt lat="47.10007" lon="-1.60625">
        <ele>57</ele>
        <time>2021-09-26T16:58:21.000Z</time>
      </trkpt>
      <trkpt lat="47.10013" lon="-1.60607">
        <ele>57</ele>
        <time>2021-09-26T16:58:23.000Z</time>
      </trkpt>
      <trkpt lat="47.10018" lon="-1.60588">
        <ele>57</ele>
        <time>2021-09-26T16:58:25.000Z</time>
      </trkpt>
      <trkpt lat="47.10023" lon="-1.6057">
        <ele>56</ele>
        <time>2021-09-26T16:58:27.000Z</time>
      </trkpt>
      <trkpt lat="47.10029" lon="-1.60552">
        <ele>56</ele>
        <time>2021-09-26T16:58:29.000Z</time>
      </trkpt>
      <trkpt lat="47.10034" lon="-1.60533">
        <ele>56</ele>
        <time>2021-09-26T16:58:31.000Z</time>
      </trkpt>
      <trkpt lat="47.10039" lon="-1.60514">
        <ele>56</ele>
        <time>2021-09-26T16:58:33.000Z</time>
      </trkpt>
      <trkpt lat="47.10044" lon="-1.60496">
        <ele>56</ele>
        <time>2021-09-26T16:58:35.000Z</time>
      </trkpt>
      <trkpt lat="47.10049" lon="-1.60477">
        <ele>56</ele>
        <time>2021-09-26T16:58:37.000Z</time>
      </trkpt>
      <trkpt lat="47.10052" lon="-1.60458">
        <ele>56</ele>
        <time>2021-09-26T16:58:39.000Z</time>
      </trkpt>
      <trkpt lat="47.10056" lon="-1.60438">
        <ele>56</ele>
        <time>2021-09-26T16:58:41.000Z</time>
      </trkpt>
      <trkpt lat="47.10059" lon="-1.60418">
        <ele>57</ele>
        <time>2021-09-26T16:58:43.000Z</time>
      </trkpt>
      <trkpt lat="47.10061" lon="-1.60397">
        <ele>57</ele>
        <time>2021-09-26T16:58:45.000Z</time>
      </trkpt>
      <trkpt lat="47.10063" lon="-1.60377">
        <ele>57</ele>
        <time>2021-09-26T16:58:47.000Z</time>
      </trkpt>
      <trkpt lat="47.10065" lon="-1.60358">
        <ele>57</ele>
        <time>2021-09-26T16:58:49.000Z</time>
      </trkpt>
      <trkpt lat="47.10067" lon="-1.60338">
        <ele>56</ele>
        <time>2021-09-26T16:58:51.000Z</time>
      </trkpt>
      <trkpt lat="47.10069" lon="-1.60318">
        <ele>56</ele>
        <time>2021-09-26T16:58:53.000Z</time>
      </trkpt>
      <trkpt lat="47.10071" lon="-1.60298">
        <ele>56</ele>
        <time>2021-09-26T16:58:55.000Z</time>
      </trkpt>
      <trkpt lat="47.10073" lon="-1.60278">
        <ele>56</ele>
        <time>2021-09-26T16:58:57.000Z</time>
      </trkpt>
      <trkpt lat="47.10075" lon="-1.60259">
        <ele>56</ele>
        <time>2021-09-26T16:58:59.000Z</time>
      </trkpt>
      <trkpt lat="47.10076" lon="-1.60239">
        <ele>56</ele>
        <time>2021-09-26T16:59:01.000Z</time>
      </trkpt>
      <trkpt lat="47.10077" lon="-1.60219">
        <ele>56</ele>
        <time>2021-09-26T16:59:03.000Z</time>
      </trkpt>
      <trkpt lat="47.10079" lon="-1.60199">
        <ele>56</ele>
        <time>2021-09-26T16:59:05.000Z</time>
      </trkpt>
      <trkpt lat="47.10079" lon="-1.60179">
        <ele>56</ele>
        <time>2021-09-26T16:59:07.000Z</time>
      </trkpt>
      <trkpt lat="47.10075" lon="-1.6016">
        <ele>56</ele>
        <time>2021-09-26T16:59:09.000Z</time>
      </trkpt>
      <trkpt lat="47.10068" lon="-1.60144">
        <ele>56</ele>
        <time>2021-09-26T16:59:11.000Z</time>
      </trkpt>
      <trkpt lat="47.10066" lon="-1.60124">
        <ele>56</ele>
        <time>2021-09-26T16:59:13.000Z</time>
      </trkpt>
      <trkpt lat="47.10075" lon="-1.60109">
        <ele>56</ele>
        <time>2021-09-26T16:59:15.000Z</time>
      </trkpt>
      <trkpt lat="47.10089" lon="-1.60101">
        <ele>56</ele>
        <time>2021-09-26T16:59:17.000Z</time>
      </trkpt>
      <trkpt lat="47.10102" lon="-1.60094">
        <ele>55</ele>
        <time>2021-09-26T16:59:19.000Z</time>
      </trkpt>
      <trkpt lat="47.1011" lon="-1.60079">
        <ele>56</ele>
        <time>2021-09-26T16:59:21.000Z</time>
      </trkpt>
      <trkpt lat="47.10119" lon="-1.60063">
        <ele>57</ele>
        <time>2021-09-26T16:59:23.000Z</time>
      </trkpt>
      <trkpt lat="47.10127" lon="-1.60047">
        <ele>58</ele>
        <time>2021-09-26T16:59:25.000Z</time>
      </trkpt>
      <trkpt lat="47.10136" lon="-1.60031">
        <ele>57</ele>
        <time>2021-09-26T16:59:27.000Z</time>
      </trkpt>
      <trkpt lat="47.10146" lon="-1.60016">
        <ele>57</ele>
        <time>2021-09-26T16:59:29.000Z</time>
      </trkpt>
      <trkpt lat="47.10156" lon="-1.6">
        <ele>57</ele>
        <time>2021-09-26T16:59:31.000Z</time>
      </trkpt>
      <trkpt lat="47.10165" lon="-1.59985">
        <ele>57</ele>
        <time>2021-09-26T16:59:33.000Z</time>
      </trkpt>
      <trkpt lat="47.10174" lon="-1.59969">
        <ele>57</ele>
        <time>2021-09-26T16:59:35.000Z</time>
      </trkpt>
      <trkpt lat="47.10183" lon="-1.59955">
        <ele>57</ele>
        <time>2021-09-26T16:59:37.000Z</time>
      </trkpt>
      <trkpt lat="47.10192" lon="-1.59941">
        <ele>57</ele>
        <time>2021-09-26T16:59:39.000Z</time>
      </trkpt>
      <trkpt lat="47.10201" lon="-1.59926">
        <ele>58</ele>
        <time>2021-09-26T16:59:41.000Z</time>
      </trkpt>
      <trkpt lat="47.1021" lon="-1.59911">
        <ele>58</ele>
        <time>2021-09-26T16:59:43.000Z</time>
      </trkpt>
      <trkpt lat="47.10218" lon="-1.59897">
        <ele>58</ele>
        <time>2021-09-26T16:59:45.000Z</time>
      </trkpt>
      <trkpt lat="47.10227" lon="-1.59882">
        <ele>57</ele>
        <time>2021-09-26T16:59:47.000Z</time>
      </trkpt>
      <trkpt lat="47.10236" lon="-1.59868">
        <ele>57</ele>
        <time>2021-09-26T16:59:49.000Z</time>
      </trkpt>
      <trkpt lat="47.10245" lon="-1.59854">
        <ele>57</ele>
        <time>2021-09-26T16:59:51.000Z</time>
      </trkpt>
      <trkpt lat="47.10254" lon="-1.59839">
        <ele>57</ele>
        <time>2021-09-26T16:59:53.000Z</time>
      </trkpt>
      <trkpt lat="47.10262" lon="-1.59825">
        <ele>58</ele>
        <time>2021-09-26T16:59:55.000Z</time>
      </trkpt>
      <trkpt lat="47.10271" lon="-1.5981">
        <ele>58</ele>
        <time>2021-09-26T16:59:57.000Z</time>
      </trkpt>
      <trkpt lat="47.1028" lon="-1.59796">
        <ele>58</ele>
        <time>2021-09-26T16:59:59.000Z</time>
      </trkpt>
      <trkpt lat="47.10289" lon="-1.59781">
        <ele>58</ele>
        <time>2021-09-26T17:00:01.000Z</time>
      </trkpt>
      <trkpt lat="47.10298" lon="-1.59766">
        <ele>58</ele>
        <time>2021-09-26T17:00:03.000Z</time>
      </trkpt>
      <trkpt lat="47.10306" lon="-1.59751">
        <ele>58</ele>
        <time>2021-09-26T17:00:05.000Z</time>
      </trkpt>
      <trkpt lat="47.10315" lon="-1.59736">
        <ele>59</ele>
        <time>2021-09-26T17:00:07.000Z</time>
      </trkpt>
      <trkpt lat="47.10323" lon="-1.5972">
        <ele>59</ele>
        <time>2021-09-26T17:00:09.000Z</time>
      </trkpt>
      <trkpt lat="47.10331" lon="-1.59706">
        <ele>60</ele>
        <time>2021-09-26T17:00:11.000Z</time>
      </trkpt>
      <trkpt lat="47.1034" lon="-1.5969">
        <ele>61</ele>
        <time>2021-09-26T17:00:13.000Z</time>
      </trkpt>
      <trkpt lat="47.10348" lon="-1.59675">
        <ele>62</ele>
        <time>2021-09-26T17:00:15.000Z</time>
      </trkpt>
      <trkpt lat="47.10357" lon="-1.59661">
        <ele>61</ele>
        <time>2021-09-26T17:00:17.000Z</time>
      </trkpt>
      <trkpt lat="47.10367" lon="-1.59647">
        <ele>62</ele>
        <time>2021-09-26T17:00:19.000Z</time>
      </trkpt>
      <trkpt lat="47.10375" lon="-1.59633">
        <ele>62</ele>
        <time>2021-09-26T17:00:21.000Z</time>
      </trkpt>
      <trkpt lat="47.10384" lon="-1.59617">
        <ele>64</ele>
        <time>2021-09-26T17:00:23.000Z</time>
      </trkpt>
      <trkpt lat="47.10393" lon="-1.59602">
        <ele>65</ele>
        <time>2021-09-26T17:00:25.000Z</time>
      </trkpt>
      <trkpt lat="47.10402" lon="-1.59588">
        <ele>65</ele>
        <time>2021-09-26T17:00:27.000Z</time>
      </trkpt>
      <trkpt lat="47.10411" lon="-1.59574">
        <ele>64</ele>
        <time>2021-09-26T17:00:29.000Z</time>
      </trkpt>
      <trkpt lat="47.1042" lon="-1.59559">
        <ele>63</ele>
        <time>2021-09-26T17:00:31.000Z</time>
      </trkpt>
      <trkpt lat="47.10429" lon="-1.59545">
        <ele>62</ele>
        <time>2021-09-26T17:00:33.000Z</time>
      </trkpt>
      <trkpt lat="47.10438" lon="-1.59531">
        <ele>62</ele>
        <time>2021-09-26T17:00:35.000Z</time>
      </trkpt>
      <trkpt lat="47.10447" lon="-1.59516">
        <ele>61</ele>
        <time>2021-09-26T17:00:37.000Z</time>
      </trkpt>
      <trkpt lat="47.10455" lon="-1.59502">
        <ele>61</ele>
        <time>2021-09-26T17:00:39.000Z</time>
      </trkpt>
      <trkpt lat="47.10464" lon="-1.59487">
        <ele>60</ele>
        <time>2021-09-26T17:00:41.000Z</time>
      </trkpt>
      <trkpt lat="47.10472" lon="-1.59472">
        <ele>59</ele>
        <time>2021-09-26T17:00:43.000Z</time>
      </trkpt>
      <trkpt lat="47.10481" lon="-1.59457">
        <ele>59</ele>
        <time>2021-09-26T17:00:45.000Z</time>
      </trkpt>
      <trkpt lat="47.10489" lon="-1.59443">
        <ele>58</ele>
        <time>2021-09-26T17:00:47.000Z</time>
      </trkpt>
      <trkpt lat="47.10498" lon="-1.59428">
        <ele>59</ele>
        <time>2021-09-26T17:00:49.000Z</time>
      </trkpt>
      <trkpt lat="47.10506" lon="-1.59414">
        <ele>59</ele>
        <time>2021-09-26T17:00:51.000Z</time>
      </trkpt>
      <trkpt lat="47.10515" lon="-1.594">
        <ele>58</ele>
        <time>2021-09-26T17:00:53.000Z</time>
      </trkpt>
      <trkpt lat="47.10524" lon="-1.59385">
        <ele>59</ele>
        <time>2021-09-26T17:00:55.000Z</time>
      </trkpt>
      <trkpt lat="47.10533" lon="-1.5937">
        <ele>59</ele>
        <time>2021-09-26T17:00:57.000Z</time>
      </trkpt>
      <trkpt lat="47.10542" lon="-1.59355">
        <ele>59</ele>
        <time>2021-09-26T17:00:59.000Z</time>
      </trkpt>
      <trkpt lat="47.1055" lon="-1.5934">
        <ele>59</ele>
        <time>2021-09-26T17:01:01.000Z</time>
      </trkpt>
      <trkpt lat="47.10558" lon="-1.59324">
        <ele>59</ele>
        <time>2021-09-26T17:01:03.000Z</time>
      </trkpt>
      <trkpt lat="47.10566" lon="-1.59309">
        <ele>59</ele>
        <time>2021-09-26T17:01:05.000Z</time>
      </trkpt>
      <trkpt lat="47.10574" lon="-1.59295">
        <ele>60</ele>
        <time>2021-09-26T17:01:07.000Z</time>
      </trkpt>
      <trkpt lat="47.10583" lon="-1.59281">
        <ele>61</ele>
        <time>2021-09-26T17:01:09.000Z</time>
      </trkpt>
      <trkpt lat="47.10591" lon="-1.59267">
        <ele>61</ele>
        <time>2021-09-26T17:01:11.000Z</time>
      </trkpt>
      <trkpt lat="47.106" lon="-1.59253">
        <ele>61</ele>
        <time>2021-09-26T17:01:13.000Z</time>
      </trkpt>
      <trkpt lat="47.10608" lon="-1.5924">
        <ele>61</ele>
        <time>2021-09-26T17:01:15.000Z</time>
      </trkpt>
      <trkpt lat="47.10617" lon="-1.59226">
        <ele>61</ele>
        <time>2021-09-26T17:01:17.000Z</time>
      </trkpt>
      <trkpt lat="47.10625" lon="-1.59212">
        <ele>61</ele>
        <time>2021-09-26T17:01:19.000Z</time>
      </trkpt>
      <trkpt lat="47.10633" lon="-1.59197">
        <ele>62</ele>
        <time>2021-09-26T17:01:21.000Z</time>
      </trkpt>
      <trkpt lat="47.1064" lon="-1.59183">
        <ele>62</ele>
        <time>2021-09-26T17:01:23.000Z</time>
      </trkpt>
      <trkpt lat="47.10647" lon="-1.59169">
        <ele>62</ele>
        <time>2021-09-26T17:01:25.000Z</time>
      </trkpt>
      <trkpt lat="47.10654" lon="-1.59154">
        <ele>62</ele>
        <time>2021-09-26T17:01:27.000Z</time>
      </trkpt>
      <trkpt lat="47.10661" lon="-1.59138">
        <ele>62</ele>
        <time>2021-09-26T17:01:29.000Z</time>
      </trkpt>
      <trkpt lat="47.10666" lon="-1.59122">
        <ele>63</ele>
        <time>2021-09-26T17:01:31.000Z</time>
      </trkpt>
      <trkpt lat="47.10672" lon="-1.59107">
        <ele>63</ele>
        <time>2021-09-26T17:01:33.000Z</time>
      </trkpt>
      <trkpt lat="47.10677" lon="-1.59091">
        <ele>63</ele>
        <time>2021-09-26T17:01:35.000Z</time>
      </trkpt>
      <trkpt lat="47.10682" lon="-1.59075">
        <ele>64</ele>
        <time>2021-09-26T17:01:37.000Z</time>
      </trkpt>
      <trkpt lat="47.10686" lon="-1.59058">
        <ele>64</ele>
        <time>2021-09-26T17:01:39.000Z</time>
      </trkpt>
      <trkpt lat="47.10689" lon="-1.59042">
        <ele>64</ele>
        <time>2021-09-26T17:01:41.000Z</time>
      </trkpt>
      <trkpt lat="47.10694" lon="-1.59029">
        <ele>64</ele>
        <time>2021-09-26T17:01:43.000Z</time>
      </trkpt>
      <trkpt lat="47.10702" lon="-1.59016">
        <ele>64</ele>
        <time>2021-09-26T17:01:45.000Z</time>
      </trkpt>
      <trkpt lat="47.10709" lon="-1.59002">
        <ele>64</ele>
        <time>2021-09-26T17:01:47.000Z</time>
      </trkpt>
      <trkpt lat="47.10716" lon="-1.58986">
        <ele>64</ele>
        <time>2021-09-26T17:01:49.000Z</time>
      </trkpt>
      <trkpt lat="47.10722" lon="-1.58971">
        <ele>65</ele>
        <time>2021-09-26T17:01:51.000Z</time>
      </trkpt>
      <trkpt lat="47.10728" lon="-1.58955">
        <ele>65</ele>
        <time>2021-09-26T17:01:53.000Z</time>
      </trkpt>
      <trkpt lat="47.10734" lon="-1.58939">
        <ele>65</ele>
        <time>2021-09-26T17:01:55.000Z</time>
      </trkpt>
      <trkpt lat="47.1074" lon="-1.58922">
        <ele>65</ele>
        <time>2021-09-26T17:01:57.000Z</time>
      </trkpt>
      <trkpt lat="47.10746" lon="-1.58905">
        <ele>65</ele>
        <time>2021-09-26T17:01:59.000Z</time>
      </trkpt>
      <trkpt lat="47.10754" lon="-1.58889">
        <ele>65</ele>
        <time>2021-09-26T17:02:01.000Z</time>
      </trkpt>
      <trkpt lat="47.10763" lon="-1.58874">
        <ele>64</ele>
        <time>2021-09-26T17:02:03.000Z</time>
      </trkpt>
      <trkpt lat="47.10774" lon="-1.5886">
        <ele>64</ele>
        <time>2021-09-26T17:02:05.000Z</time>
      </trkpt>
      <trkpt lat="47.10783" lon="-1.58845">
        <ele>63</ele>
        <time>2021-09-26T17:02:07.000Z</time>
      </trkpt>
      <trkpt lat="47.10793" lon="-1.58829">
        <ele>64</ele>
        <time>2021-09-26T17:02:09.000Z</time>
      </trkpt>
      <trkpt lat="47.10804" lon="-1.58813">
        <ele>63</ele>
        <time>2021-09-26T17:02:11.000Z</time>
      </trkpt>
      <trkpt lat="47.10814" lon="-1.58797">
        <ele>63</ele>
        <time>2021-09-26T17:02:13.000Z</time>
      </trkpt>
      <trkpt lat="47.10825" lon="-1.5878">
        <ele>63</ele>
        <time>2021-09-26T17:02:15.000Z</time>
      </trkpt>
      <trkpt lat="47.10835" lon="-1.58764">
        <ele>63</ele>
        <time>2021-09-26T17:02:17.000Z</time>
      </trkpt>
      <trkpt lat="47.10846" lon="-1.58747">
        <ele>64</ele>
        <time>2021-09-26T17:02:19.000Z</time>
      </trkpt>
      <trkpt lat="47.10855" lon="-1.5873">
        <ele>63</ele>
        <time>2021-09-26T17:02:21.000Z</time>
      </trkpt>
      <trkpt lat="47.10866" lon="-1.58716">
        <ele>63</ele>
        <time>2021-09-26T17:02:23.000Z</time>
      </trkpt>
      <trkpt lat="47.10877" lon="-1.58701">
        <ele>62</ele>
        <time>2021-09-26T17:02:25.000Z</time>
      </trkpt>
      <trkpt lat="47.10888" lon="-1.58685">
        <ele>62</ele>
        <time>2021-09-26T17:02:27.000Z</time>
      </trkpt>
      <trkpt lat="47.10899" lon="-1.58667">
        <ele>61</ele>
        <time>2021-09-26T17:02:29.000Z</time>
      </trkpt>
      <trkpt lat="47.1091" lon="-1.58651">
        <ele>61</ele>
        <time>2021-09-26T17:02:31.000Z</time>
      </trkpt>
      <trkpt lat="47.10922" lon="-1.58634">
        <ele>60</ele>
        <time>2021-09-26T17:02:33.000Z</time>
      </trkpt>
      <trkpt lat="47.10934" lon="-1.58618">
        <ele>60</ele>
        <time>2021-09-26T17:02:35.000Z</time>
      </trkpt>
      <trkpt lat="47.10947" lon="-1.58603">
        <ele>60</ele>
        <time>2021-09-26T17:02:37.000Z</time>
      </trkpt>
      <trkpt lat="47.10958" lon="-1.58587">
        <ele>60</ele>
        <time>2021-09-26T17:02:39.000Z</time>
      </trkpt>
      <trkpt lat="47.10969" lon="-1.5857">
        <ele>60</ele>
        <time>2021-09-26T17:02:41.000Z</time>
      </trkpt>
      <trkpt lat="47.10981" lon="-1.58553">
        <ele>60</ele>
        <time>2021-09-26T17:02:43.000Z</time>
      </trkpt>
      <trkpt lat="47.10991" lon="-1.58536">
        <ele>59</ele>
        <time>2021-09-26T17:02:45.000Z</time>
      </trkpt>
      <trkpt lat="47.11002" lon="-1.58518">
        <ele>59</ele>
        <time>2021-09-26T17:02:47.000Z</time>
      </trkpt>
      <trkpt lat="47.11012" lon="-1.58501">
        <ele>59</ele>
        <time>2021-09-26T17:02:49.000Z</time>
      </trkpt>
      <trkpt lat="47.11023" lon="-1.58484">
        <ele>59</ele>
        <time>2021-09-26T17:02:51.000Z</time>
      </trkpt>
      <trkpt lat="47.11034" lon="-1.58467">
        <ele>58</ele>
        <time>2021-09-26T17:02:53.000Z</time>
      </trkpt>
      <trkpt lat="47.11043" lon="-1.5845">
        <ele>58</ele>
        <time>2021-09-26T17:02:55.000Z</time>
      </trkpt>
      <trkpt lat="47.11052" lon="-1.58432">
        <ele>58</ele>
        <time>2021-09-26T17:02:57.000Z</time>
      </trkpt>
      <trkpt lat="47.11062" lon="-1.58414">
        <ele>57</ele>
        <time>2021-09-26T17:02:59.000Z</time>
      </trkpt>
      <trkpt lat="47.1107" lon="-1.58396">
        <ele>57</ele>
        <time>2021-09-26T17:03:01.000Z</time>
      </trkpt>
      <trkpt lat="47.11079" lon="-1.58378">
        <ele>56</ele>
        <time>2021-09-26T17:03:03.000Z</time>
      </trkpt>
      <trkpt lat="47.11087" lon="-1.58359">
        <ele>56</ele>
        <time>2021-09-26T17:03:05.000Z</time>
      </trkpt>
      <trkpt lat="47.11096" lon="-1.58341">
        <ele>56</ele>
        <time>2021-09-26T17:03:07.000Z</time>
      </trkpt>
      <trkpt lat="47.11106" lon="-1.58324">
        <ele>56</ele>
        <time>2021-09-26T17:03:09.000Z</time>
      </trkpt>
      <trkpt lat="47.11118" lon="-1.58309">
        <ele>56</ele>
        <time>2021-09-26T17:03:11.000Z</time>
      </trkpt>
      <trkpt lat="47.1113" lon="-1.58295">
        <ele>56</ele>
        <time>2021-09-26T17:03:13.000Z</time>
      </trkpt>
      <trkpt lat="47.11143" lon="-1.58281">
        <ele>56</ele>
        <time>2021-09-26T17:03:15.000Z</time>
      </trkpt>
      <trkpt lat="47.11155" lon="-1.58267">
        <ele>56</ele>
        <time>2021-09-26T17:03:17.000Z</time>
      </trkpt>
      <trkpt lat="47.11168" lon="-1.58254">
        <ele>55</ele>
        <time>2021-09-26T17:03:19.000Z</time>
      </trkpt>
      <trkpt lat="47.1118" lon="-1.5824">
        <ele>55</ele>
        <time>2021-09-26T17:03:21.000Z</time>
      </trkpt>
      <trkpt lat="47.11192" lon="-1.58226">
        <ele>55</ele>
        <time>2021-09-26T17:03:23.000Z</time>
      </trkpt>
      <trkpt lat="47.11203" lon="-1.58211">
        <ele>55</ele>
        <time>2021-09-26T17:03:25.000Z</time>
      </trkpt>
      <trkpt lat="47.11215" lon="-1.58195">
        <ele>54</ele>
        <time>2021-09-26T17:03:27.000Z</time>
      </trkpt>
      <trkpt lat="47.11226" lon="-1.5818">
        <ele>54</ele>
        <time>2021-09-26T17:03:29.000Z</time>
      </trkpt>
      <trkpt lat="47.11238" lon="-1.58167">
        <ele>54</ele>
        <time>2021-09-26T17:03:31.000Z</time>
      </trkpt>
      <trkpt lat="47.11251" lon="-1.58154">
        <ele>53</ele>
        <time>2021-09-26T17:03:33.000Z</time>
      </trkpt>
      <trkpt lat="47.11264" lon="-1.58141">
        <ele>53</ele>
        <time>2021-09-26T17:03:35.000Z</time>
      </trkpt>
      <trkpt lat="47.11277" lon="-1.5813">
        <ele>53</ele>
        <time>2021-09-26T17:03:37.000Z</time>
      </trkpt>
      <trkpt lat="47.1129" lon="-1.5812">
        <ele>53</ele>
        <time>2021-09-26T17:03:39.000Z</time>
      </trkpt>
      <trkpt lat="47.11303" lon="-1.58111">
        <ele>53</ele>
        <time>2021-09-26T17:03:41.000Z</time>
      </trkpt>
      <trkpt lat="47.11316" lon="-1.58102">
        <ele>53</ele>
        <time>2021-09-26T17:03:43.000Z</time>
      </trkpt>
      <trkpt lat="47.1133" lon="-1.58095">
        <ele>52</ele>
        <time>2021-09-26T17:03:45.000Z</time>
      </trkpt>
      <trkpt lat="47.11343" lon="-1.58088">
        <ele>53</ele>
        <time>2021-09-26T17:03:47.000Z</time>
      </trkpt>
      <trkpt lat="47.11356" lon="-1.58079">
        <ele>53</ele>
        <time>2021-09-26T17:03:49.000Z</time>
      </trkpt>
      <trkpt lat="47.11369" lon="-1.58071">
        <ele>52</ele>
        <time>2021-09-26T17:03:51.000Z</time>
      </trkpt>
      <trkpt lat="47.11382" lon="-1.58063">
        <ele>52</ele>
        <time>2021-09-26T17:03:53.000Z</time>
      </trkpt>
      <trkpt lat="47.11396" lon="-1.58055">
        <ele>52</ele>
        <time>2021-09-26T17:03:55.000Z</time>
      </trkpt>
      <trkpt lat="47.1141" lon="-1.58046">
        <ele>52</ele>
        <time>2021-09-26T17:03:57.000Z</time>
      </trkpt>
      <trkpt lat="47.11423" lon="-1.58038">
        <ele>53</ele>
        <time>2021-09-26T17:03:59.000Z</time>
      </trkpt>
      <trkpt lat="47.11437" lon="-1.58031">
        <ele>53</ele>
        <time>2021-09-26T17:04:01.000Z</time>
      </trkpt>
      <trkpt lat="47.11451" lon="-1.58025">
        <ele>53</ele>
        <time>2021-09-26T17:04:03.000Z</time>
      </trkpt>
      <trkpt lat="47.11465" lon="-1.5802">
        <ele>52</ele>
        <time>2021-09-26T17:04:05.000Z</time>
      </trkpt>
      <trkpt lat="47.11479" lon="-1.58016">
        <ele>52</ele>
        <time>2021-09-26T17:04:07.000Z</time>
      </trkpt>
      <trkpt lat="47.11492" lon="-1.58014">
        <ele>53</ele>
        <time>2021-09-26T17:04:09.000Z</time>
      </trkpt>
      <trkpt lat="47.11505" lon="-1.58012">
        <ele>53</ele>
        <time>2021-09-26T17:04:11.000Z</time>
      </trkpt>
      <trkpt lat="47.11519" lon="-1.58012">
        <ele>53</ele>
        <time>2021-09-26T17:04:13.000Z</time>
      </trkpt>
      <trkpt lat="47.11531" lon="-1.58011">
        <ele>54</ele>
        <time>2021-09-26T17:04:15.000Z</time>
      </trkpt>
      <trkpt lat="47.11545" lon="-1.5801">
        <ele>54</ele>
        <time>2021-09-26T17:04:17.000Z</time>
      </trkpt>
      <trkpt lat="47.11558" lon="-1.5801">
        <ele>54</ele>
        <time>2021-09-26T17:04:19.000Z</time>
      </trkpt>
      <trkpt lat="47.11572" lon="-1.5801">
        <ele>54</ele>
        <time>2021-09-26T17:04:21.000Z</time>
      </trkpt>
      <trkpt lat="47.11584" lon="-1.58014">
        <ele>54</ele>
        <time>2021-09-26T17:04:23.000Z</time>
      </trkpt>
      <trkpt lat="47.11597" lon="-1.58015">
        <ele>55</ele>
        <time>2021-09-26T17:04:25.000Z</time>
      </trkpt>
      <trkpt lat="47.1161" lon="-1.58012">
        <ele>55</ele>
        <time>2021-09-26T17:04:27.000Z</time>
      </trkpt>
      <trkpt lat="47.11622" lon="-1.58008">
        <ele>55</ele>
        <time>2021-09-26T17:04:29.000Z</time>
      </trkpt>
      <trkpt lat="47.11633" lon="-1.58006">
        <ele>55</ele>
        <time>2021-09-26T17:04:31.000Z</time>
      </trkpt>
      <trkpt lat="47.11644" lon="-1.58013">
        <ele>55</ele>
        <time>2021-09-26T17:04:33.000Z</time>
      </trkpt>
      <trkpt lat="47.11653" lon="-1.58024">
        <ele>55</ele>
        <time>2021-09-26T17:04:35.000Z</time>
      </trkpt>
      <trkpt lat="47.11665" lon="-1.58028">
        <ele>54</ele>
        <time>2021-09-26T17:04:37.000Z</time>
      </trkpt>
      <trkpt lat="47.11679" lon="-1.58028">
        <ele>54</ele>
        <time>2021-09-26T17:04:39.000Z</time>
      </trkpt>
      <trkpt lat="47.11692" lon="-1.58029">
        <ele>54</ele>
        <time>2021-09-26T17:04:41.000Z</time>
      </trkpt>
      <trkpt lat="47.11705" lon="-1.58031">
        <ele>54</ele>
        <time>2021-09-26T17:04:43.000Z</time>
      </trkpt>
      <trkpt lat="47.11718" lon="-1.58032">
        <ele>54</ele>
        <time>2021-09-26T17:04:45.000Z</time>
      </trkpt>
      <trkpt lat="47.11731" lon="-1.58033">
        <ele>54</ele>
        <time>2021-09-26T17:04:47.000Z</time>
      </trkpt>
      <trkpt lat="47.11745" lon="-1.58035">
        <ele>54</ele>
        <time>2021-09-26T17:04:49.000Z</time>
      </trkpt>
      <trkpt lat="47.11757" lon="-1.58037">
        <ele>55</ele>
        <time>2021-09-26T17:04:51.000Z</time>
      </trkpt>
      <trkpt lat="47.1177" lon="-1.5804">
        <ele>55</ele>
        <time>2021-09-26T17:04:53.000Z</time>
      </trkpt>
      <trkpt lat="47.11784" lon="-1.58043">
        <ele>55</ele>
        <time>2021-09-26T17:04:55.000Z</time>
      </trkpt>
      <trkpt lat="47.11797" lon="-1.58046">
        <ele>55</ele>
        <time>2021-09-26T17:04:57.000Z</time>
      </trkpt>
      <trkpt lat="47.1181" lon="-1.5805">
        <ele>56</ele>
        <time>2021-09-26T17:04:59.000Z</time>
      </trkpt>
      <trkpt lat="47.11823" lon="-1.58053">
        <ele>56</ele>
        <time>2021-09-26T17:05:01.000Z</time>
      </trkpt>
      <trkpt lat="47.11835" lon="-1.58056">
        <ele>56</ele>
        <time>2021-09-26T17:05:03.000Z</time>
      </trkpt>
      <trkpt lat="47.11847" lon="-1.58059">
        <ele>56</ele>
        <time>2021-09-26T17:05:05.000Z</time>
      </trkpt>
      <trkpt lat="47.11859" lon="-1.58061">
        <ele>56</ele>
        <time>2021-09-26T17:05:07.000Z</time>
      </trkpt>
      <trkpt lat="47.11871" lon="-1.58065">
        <ele>56</ele>
        <time>2021-09-26T17:05:09.000Z</time>
      </trkpt>
      <trkpt lat="47.11883" lon="-1.58068">
        <ele>56</ele>
        <time>2021-09-26T17:05:11.000Z</time>
      </trkpt>
      <trkpt lat="47.11895" lon="-1.5807">
        <ele>57</ele>
        <time>2021-09-26T17:05:13.000Z</time>
      </trkpt>
      <trkpt lat="47.11907" lon="-1.58073">
        <ele>57</ele>
        <time>2021-09-26T17:05:15.000Z</time>
      </trkpt>
      <trkpt lat="47.11918" lon="-1.58077">
        <ele>57</ele>
        <time>2021-09-26T17:05:17.000Z</time>
      </trkpt>
      <trkpt lat="47.1193" lon="-1.5808">
        <ele>57</ele>
        <time>2021-09-26T17:05:19.000Z</time>
      </trkpt>
      <trkpt lat="47.11942" lon="-1.58083">
        <ele>57</ele>
        <time>2021-09-26T17:05:21.000Z</time>
      </trkpt>
      <trkpt lat="47.11954" lon="-1.58085">
        <ele>57</ele>
        <time>2021-09-26T17:05:23.000Z</time>
      </trkpt>
      <trkpt lat="47.11966" lon="-1.58088">
        <ele>57</ele>
        <time>2021-09-26T17:05:25.000Z</time>
      </trkpt>
      <trkpt lat="47.11978" lon="-1.58091">
        <ele>58</ele>
        <time>2021-09-26T17:05:27.000Z</time>
      </trkpt>
      <trkpt lat="47.11989" lon="-1.58094">
        <ele>58</ele>
        <time>2021-09-26T17:05:29.000Z</time>
      </trkpt>
      <trkpt lat="47.12001" lon="-1.58098">
        <ele>58</ele>
        <time>2021-09-26T17:05:31.000Z</time>
      </trkpt>
      <trkpt lat="47.12012" lon="-1.58097">
        <ele>58</ele>
        <time>2021-09-26T17:05:33.000Z</time>
      </trkpt>
      <trkpt lat="47.12023" lon="-1.58098">
        <ele>58</ele>
        <time>2021-09-26T17:05:35.000Z</time>
      </trkpt>
      <trkpt lat="47.12033" lon="-1.58111">
        <ele>58</ele>
        <time>2021-09-26T17:05:37.000Z</time>
      </trkpt>
      <trkpt lat="47.12044" lon="-1.5812">
        <ele>58</ele>
        <time>2021-09-26T17:05:39.000Z</time>
      </trkpt>
      <trkpt lat="47.12055" lon="-1.58126">
        <ele>58</ele>
        <time>2021-09-26T17:05:41.000Z</time>
      </trkpt>
      <trkpt lat="47.12067" lon="-1.58134">
        <ele>58</ele>
        <time>2021-09-26T17:05:43.000Z</time>
      </trkpt>
      <trkpt lat="47.1208" lon="-1.58142">
        <ele>58</ele>
        <time>2021-09-26T17:05:45.000Z</time>
      </trkpt>
      <trkpt lat="47.12093" lon="-1.5815">
        <ele>57</ele>
        <time>2021-09-26T17:05:47.000Z</time>
      </trkpt>
      <trkpt lat="47.12106" lon="-1.58158">
        <ele>57</ele>
        <time>2021-09-26T17:05:49.000Z</time>
      </trkpt>
      <trkpt lat="47.12119" lon="-1.58167">
        <ele>57</ele>
        <time>2021-09-26T17:05:51.000Z</time>
      </trkpt>
      <trkpt lat="47.12131" lon="-1.58179">
        <ele>56</ele>
        <time>2021-09-26T17:05:53.000Z</time>
      </trkpt>
      <trkpt lat="47.12143" lon="-1.58191">
        <ele>56</ele>
        <time>2021-09-26T17:05:55.000Z</time>
      </trkpt>
      <trkpt lat="47.12155" lon="-1.58203">
        <ele>56</ele>
        <time>2021-09-26T17:05:57.000Z</time>
      </trkpt>
      <trkpt lat="47.12168" lon="-1.58216">
        <ele>55</ele>
        <time>2021-09-26T17:05:59.000Z</time>
      </trkpt>
      <trkpt lat="47.1218" lon="-1.58227">
        <ele>55</ele>
        <time>2021-09-26T17:06:01.000Z</time>
      </trkpt>
      <trkpt lat="47.12192" lon="-1.58239">
        <ele>55</ele>
        <time>2021-09-26T17:06:03.000Z</time>
      </trkpt>
      <trkpt lat="47.12205" lon="-1.5825">
        <ele>54</ele>
        <time>2021-09-26T17:06:05.000Z</time>
      </trkpt>
      <trkpt lat="47.12219" lon="-1.58263">
        <ele>54</ele>
        <time>2021-09-26T17:06:07.000Z</time>
      </trkpt>
      <trkpt lat="47.12232" lon="-1.58276">
        <ele>54</ele>
        <time>2021-09-26T17:06:09.000Z</time>
      </trkpt>
      <trkpt lat="47.12244" lon="-1.58288">
        <ele>54</ele>
        <time>2021-09-26T17:06:11.000Z</time>
      </trkpt>
      <trkpt lat="47.12256" lon="-1.583">
        <ele>53</ele>
        <time>2021-09-26T17:06:13.000Z</time>
      </trkpt>
      <trkpt lat="47.12268" lon="-1.58313">
        <ele>52</ele>
        <time>2021-09-26T17:06:15.000Z</time>
      </trkpt>
      <trkpt lat="47.1228" lon="-1.58324">
        <ele>52</ele>
        <time>2021-09-26T17:06:17.000Z</time>
      </trkpt>
      <trkpt lat="47.12291" lon="-1.58336">
        <ele>53</ele>
        <time>2021-09-26T17:06:19.000Z</time>
      </trkpt>
      <trkpt lat="47.12299" lon="-1.5835">
        <ele>53</ele>
        <time>2021-09-26T17:06:21.000Z</time>
      </trkpt>
      <trkpt lat="47.12302" lon="-1.58369">
        <ele>54</ele>
        <time>2021-09-26T17:06:23.000Z</time>
      </trkpt>
      <trkpt lat="47.12302" lon="-1.58388">
        <ele>54</ele>
        <time>2021-09-26T17:06:25.000Z</time>
      </trkpt>
      <trkpt lat="47.12308" lon="-1.58405">
        <ele>54</ele>
        <time>2021-09-26T17:06:27.000Z</time>
      </trkpt>
      <trkpt lat="47.12316" lon="-1.58421">
        <ele>55</ele>
        <time>2021-09-26T17:06:29.000Z</time>
      </trkpt>
      <trkpt lat="47.12326" lon="-1.5843">
        <ele>55</ele>
        <time>2021-09-26T17:06:31.000Z</time>
      </trkpt>
      <trkpt lat="47.12333" lon="-1.58442">
        <ele>55</ele>
        <time>2021-09-26T17:06:33.000Z</time>
      </trkpt>
      <trkpt lat="47.12335" lon="-1.58462">
        <ele>55</ele>
        <time>2021-09-26T17:06:35.000Z</time>
      </trkpt>
      <trkpt lat="47.1234" lon="-1.58482">
        <ele>55</ele>
        <time>2021-09-26T17:06:37.000Z</time>
      </trkpt>
      <trkpt lat="47.12345" lon="-1.58501">
        <ele>55</ele>
        <time>2021-09-26T17:06:39.000Z</time>
      </trkpt>
      <trkpt lat="47.12351" lon="-1.58528">
        <ele>55</ele>
        <time>2021-09-26T17:06:42.000Z</time>
      </trkpt>
      <trkpt lat="47.12355" lon="-1.58545">
        <ele>55</ele>
        <time>2021-09-26T17:06:44.000Z</time>
      </trkpt>
      <trkpt lat="47.12358" lon="-1.58561">
        <ele>56</ele>
        <time>2021-09-26T17:06:46.000Z</time>
      </trkpt>
      <trkpt lat="47.12363" lon="-1.58577">
        <ele>55</ele>
        <time>2021-09-26T17:06:48.000Z</time>
      </trkpt>
      <trkpt lat="47.12367" lon="-1.58593">
        <ele>55</ele>
        <time>2021-09-26T17:06:50.000Z</time>
      </trkpt>
      <trkpt lat="47.12372" lon="-1.58618">
        <ele>56</ele>
        <time>2021-09-26T17:06:53.000Z</time>
      </trkpt>
      <trkpt lat="47.12376" lon="-1.58634">
        <ele>56</ele>
        <time>2021-09-26T17:06:55.000Z</time>
      </trkpt>
      <trkpt lat="47.12379" lon="-1.5865">
        <ele>56</ele>
        <time>2021-09-26T17:06:57.000Z</time>
      </trkpt>
      <trkpt lat="47.12383" lon="-1.58666">
        <ele>55</ele>
        <time>2021-09-26T17:06:59.000Z</time>
      </trkpt>
      <trkpt lat="47.12387" lon="-1.58681">
        <ele>56</ele>
        <time>2021-09-26T17:07:01.000Z</time>
      </trkpt>
      <trkpt lat="47.1239" lon="-1.58697">
        <ele>56</ele>
        <time>2021-09-26T17:07:03.000Z</time>
      </trkpt>
      <trkpt lat="47.12395" lon="-1.5872">
        <ele>56</ele>
        <time>2021-09-26T17:07:06.000Z</time>
      </trkpt>
      <trkpt lat="47.12398" lon="-1.58735">
        <ele>56</ele>
        <time>2021-09-26T17:07:08.000Z</time>
      </trkpt>
      <trkpt lat="47.12402" lon="-1.58751">
        <ele>56</ele>
        <time>2021-09-26T17:07:10.000Z</time>
      </trkpt>
      <trkpt lat="47.12405" lon="-1.58767">
        <ele>56</ele>
        <time>2021-09-26T17:07:12.000Z</time>
      </trkpt>
      <trkpt lat="47.12408" lon="-1.58783">
        <ele>56</ele>
        <time>2021-09-26T17:07:14.000Z</time>
      </trkpt>
      <trkpt lat="47.1241" lon="-1.58799">
        <ele>56</ele>
        <time>2021-09-26T17:07:16.000Z</time>
      </trkpt>
      <trkpt lat="47.12412" lon="-1.58815">
        <ele>56</ele>
        <time>2021-09-26T17:07:18.000Z</time>
      </trkpt>
      <trkpt lat="47.12414" lon="-1.58831">
        <ele>56</ele>
        <time>2021-09-26T17:07:20.000Z</time>
      </trkpt>
      <trkpt lat="47.12416" lon="-1.58847">
        <ele>56</ele>
        <time>2021-09-26T17:07:22.000Z</time>
      </trkpt>
      <trkpt lat="47.12418" lon="-1.58863">
        <ele>56</ele>
        <time>2021-09-26T17:07:24.000Z</time>
      </trkpt>
      <trkpt lat="47.1242" lon="-1.5888">
        <ele>56</ele>
        <time>2021-09-26T17:07:26.000Z</time>
      </trkpt>
      <trkpt lat="47.12421" lon="-1.58897">
        <ele>56</ele>
        <time>2021-09-26T17:07:28.000Z</time>
      </trkpt>
      <trkpt lat="47.12423" lon="-1.58915">
        <ele>55</ele>
        <time>2021-09-26T17:07:30.000Z</time>
      </trkpt>
      <trkpt lat="47.12424" lon="-1.58932">
        <ele>55</ele>
        <time>2021-09-26T17:07:32.000Z</time>
      </trkpt>
      <trkpt lat="47.12425" lon="-1.5895">
        <ele>55</ele>
        <time>2021-09-26T17:07:34.000Z</time>
      </trkpt>
      <trkpt lat="47.12426" lon="-1.58969">
        <ele>54</ele>
        <time>2021-09-26T17:07:36.000Z</time>
      </trkpt>
      <trkpt lat="47.12427" lon="-1.58989">
        <ele>54</ele>
        <time>2021-09-26T17:07:38.000Z</time>
      </trkpt>
      <trkpt lat="47.12428" lon="-1.59008">
        <ele>54</ele>
        <time>2021-09-26T17:07:40.000Z</time>
      </trkpt>
      <trkpt lat="47.12429" lon="-1.59028">
        <ele>53</ele>
        <time>2021-09-26T17:07:42.000Z</time>
      </trkpt>
      <trkpt lat="47.1243" lon="-1.59048">
        <ele>53</ele>
        <time>2021-09-26T17:07:44.000Z</time>
      </trkpt>
      <trkpt lat="47.12432" lon="-1.59067">
        <ele>53</ele>
        <time>2021-09-26T17:07:46.000Z</time>
      </trkpt>
      <trkpt lat="47.12433" lon="-1.59087">
        <ele>53</ele>
        <time>2021-09-26T17:07:48.000Z</time>
      </trkpt>
      <trkpt lat="47.12434" lon="-1.59106">
        <ele>53</ele>
        <time>2021-09-26T17:07:50.000Z</time>
      </trkpt>
      <trkpt lat="47.12434" lon="-1.59125">
        <ele>53</ele>
        <time>2021-09-26T17:07:52.000Z</time>
      </trkpt>
      <trkpt lat="47.12435" lon="-1.59144">
        <ele>53</ele>
        <time>2021-09-26T17:07:54.000Z</time>
      </trkpt>
      <trkpt lat="47.12437" lon="-1.59162">
        <ele>53</ele>
        <time>2021-09-26T17:07:56.000Z</time>
      </trkpt>
      <trkpt lat="47.1244" lon="-1.59179">
        <ele>53</ele>
        <time>2021-09-26T17:07:58.000Z</time>
      </trkpt>
      <trkpt lat="47.12442" lon="-1.59196">
        <ele>53</ele>
        <time>2021-09-26T17:08:00.000Z</time>
      </trkpt>
      <trkpt lat="47.12441" lon="-1.59214">
        <ele>53</ele>
        <time>2021-09-26T17:08:02.000Z</time>
      </trkpt>
      <trkpt lat="47.1244" lon="-1.59233">
        <ele>54</ele>
        <time>2021-09-26T17:08:04.000Z</time>
      </trkpt>
      <trkpt lat="47.12441" lon="-1.59253">
        <ele>54</ele>
        <time>2021-09-26T17:08:06.000Z</time>
      </trkpt>
      <trkpt lat="47.12441" lon="-1.59272">
        <ele>54</ele>
        <time>2021-09-26T17:08:08.000Z</time>
      </trkpt>
      <trkpt lat="47.12442" lon="-1.5929">
        <ele>54</ele>
        <time>2021-09-26T17:08:10.000Z</time>
      </trkpt>
      <trkpt lat="47.12443" lon="-1.59309">
        <ele>54</ele>
        <time>2021-09-26T17:08:12.000Z</time>
      </trkpt>
      <trkpt lat="47.12444" lon="-1.59327">
        <ele>54</ele>
        <time>2021-09-26T17:08:14.000Z</time>
      </trkpt>
      <trkpt lat="47.12445" lon="-1.59346">
        <ele>55</ele>
        <time>2021-09-26T17:08:16.000Z</time>
      </trkpt>
      <trkpt lat="47.12446" lon="-1.59364">
        <ele>55</ele>
        <time>2021-09-26T17:08:18.000Z</time>
      </trkpt>
      <trkpt lat="47.12447" lon="-1.59383">
        <ele>55</ele>
        <time>2021-09-26T17:08:20.000Z</time>
      </trkpt>
      <trkpt lat="47.12447" lon="-1.59401">
        <ele>55</ele>
        <time>2021-09-26T17:08:22.000Z</time>
      </trkpt>
      <trkpt lat="47.12448" lon="-1.5942">
        <ele>56</ele>
        <time>2021-09-26T17:08:24.000Z</time>
      </trkpt>
      <trkpt lat="47.12449" lon="-1.59437">
        <ele>56</ele>
        <time>2021-09-26T17:08:26.000Z</time>
      </trkpt>
      <trkpt lat="47.1245" lon="-1.59456">
        <ele>56</ele>
        <time>2021-09-26T17:08:28.000Z</time>
      </trkpt>
      <trkpt lat="47.12451" lon="-1.59474">
        <ele>56</ele>
        <time>2021-09-26T17:08:30.000Z</time>
      </trkpt>
      <trkpt lat="47.12452" lon="-1.59492">
        <ele>56</ele>
        <time>2021-09-26T17:08:32.000Z</time>
      </trkpt>
      <trkpt lat="47.12452" lon="-1.59511">
        <ele>57</ele>
        <time>2021-09-26T17:08:34.000Z</time>
      </trkpt>
      <trkpt lat="47.12453" lon="-1.59529">
        <ele>57</ele>
        <time>2021-09-26T17:08:36.000Z</time>
      </trkpt>
      <trkpt lat="47.12455" lon="-1.59547">
        <ele>57</ele>
        <time>2021-09-26T17:08:38.000Z</time>
      </trkpt>
      <trkpt lat="47.12455" lon="-1.59565">
        <ele>58</ele>
        <time>2021-09-26T17:08:40.000Z</time>
      </trkpt>
      <trkpt lat="47.12456" lon="-1.59583">
        <ele>58</ele>
        <time>2021-09-26T17:08:42.000Z</time>
      </trkpt>
      <trkpt lat="47.12457" lon="-1.59601">
        <ele>58</ele>
        <time>2021-09-26T17:08:44.000Z</time>
      </trkpt>
      <trkpt lat="47.12458" lon="-1.59618">
        <ele>58</ele>
        <time>2021-09-26T17:08:46.000Z</time>
      </trkpt>
      <trkpt lat="47.12459" lon="-1.59636">
        <ele>58</ele>
        <time>2021-09-26T17:08:48.000Z</time>
      </trkpt>
      <trkpt lat="47.1246" lon="-1.59654">
        <ele>58</ele>
        <time>2021-09-26T17:08:50.000Z</time>
      </trkpt>
      <trkpt lat="47.1246" lon="-1.59672">
        <ele>58</ele>
        <time>2021-09-26T17:08:52.000Z</time>
      </trkpt>
      <trkpt lat="47.12461" lon="-1.5969">
        <ele>58</ele>
        <time>2021-09-26T17:08:54.000Z</time>
      </trkpt>
      <trkpt lat="47.12462" lon="-1.59708">
        <ele>58</ele>
        <time>2021-09-26T17:08:56.000Z</time>
      </trkpt>
      <trkpt lat="47.12463" lon="-1.59727">
        <ele>58</ele>
        <time>2021-09-26T17:08:58.000Z</time>
      </trkpt>
      <trkpt lat="47.12464" lon="-1.59746">
        <ele>58</ele>
        <time>2021-09-26T17:09:00.000Z</time>
      </trkpt>
      <trkpt lat="47.12465" lon="-1.59764">
        <ele>58</ele>
        <time>2021-09-26T17:09:02.000Z</time>
      </trkpt>
      <trkpt lat="47.12467" lon="-1.59782">
        <ele>58</ele>
        <time>2021-09-26T17:09:04.000Z</time>
      </trkpt>
      <trkpt lat="47.12468" lon="-1.59801">
        <ele>58</ele>
        <time>2021-09-26T17:09:06.000Z</time>
      </trkpt>
      <trkpt lat="47.12469" lon="-1.59819">
        <ele>58</ele>
        <time>2021-09-26T17:09:08.000Z</time>
      </trkpt>
      <trkpt lat="47.1247" lon="-1.59837">
        <ele>58</ele>
        <time>2021-09-26T17:09:10.000Z</time>
      </trkpt>
      <trkpt lat="47.12471" lon="-1.59854">
        <ele>58</ele>
        <time>2021-09-26T17:09:12.000Z</time>
      </trkpt>
      <trkpt lat="47.12471" lon="-1.59871">
        <ele>58</ele>
        <time>2021-09-26T17:09:14.000Z</time>
      </trkpt>
      <trkpt lat="47.12472" lon="-1.59889">
        <ele>58</ele>
        <time>2021-09-26T17:09:16.000Z</time>
      </trkpt>
      <trkpt lat="47.12473" lon="-1.59907">
        <ele>58</ele>
        <time>2021-09-26T17:09:18.000Z</time>
      </trkpt>
      <trkpt lat="47.12473" lon="-1.59926">
        <ele>58</ele>
        <time>2021-09-26T17:09:20.000Z</time>
      </trkpt>
      <trkpt lat="47.12474" lon="-1.59945">
        <ele>58</ele>
        <time>2021-09-26T17:09:22.000Z</time>
      </trkpt>
      <trkpt lat="47.12475" lon="-1.59963">
        <ele>58</ele>
        <time>2021-09-26T17:09:24.000Z</time>
      </trkpt>
      <trkpt lat="47.12476" lon="-1.59981">
        <ele>57</ele>
        <time>2021-09-26T17:09:26.000Z</time>
      </trkpt>
      <trkpt lat="47.12477" lon="-1.6">
        <ele>57</ele>
        <time>2021-09-26T17:09:28.000Z</time>
      </trkpt>
      <trkpt lat="47.12478" lon="-1.60019">
        <ele>57</ele>
        <time>2021-09-26T17:09:30.000Z</time>
      </trkpt>
      <trkpt lat="47.12479" lon="-1.60037">
        <ele>57</ele>
        <time>2021-09-26T17:09:32.000Z</time>
      </trkpt>
      <trkpt lat="47.1248" lon="-1.60057">
        <ele>57</ele>
        <time>2021-09-26T17:09:34.000Z</time>
      </trkpt>
      <trkpt lat="47.12481" lon="-1.60075">
        <ele>57</ele>
        <time>2021-09-26T17:09:36.000Z</time>
      </trkpt>
      <trkpt lat="47.12481" lon="-1.60094">
        <ele>57</ele>
        <time>2021-09-26T17:09:38.000Z</time>
      </trkpt>
      <trkpt lat="47.12482" lon="-1.60112">
        <ele>57</ele>
        <time>2021-09-26T17:09:40.000Z</time>
      </trkpt>
      <trkpt lat="47.12483" lon="-1.60131">
        <ele>57</ele>
        <time>2021-09-26T17:09:42.000Z</time>
      </trkpt>
      <trkpt lat="47.12484" lon="-1.6015">
        <ele>57</ele>
        <time>2021-09-26T17:09:44.000Z</time>
      </trkpt>
      <trkpt lat="47.12485" lon="-1.60169">
        <ele>56</ele>
        <time>2021-09-26T17:09:46.000Z</time>
      </trkpt>
      <trkpt lat="47.12487" lon="-1.60188">
        <ele>56</ele>
        <time>2021-09-26T17:09:48.000Z</time>
      </trkpt>
      <trkpt lat="47.12489" lon="-1.60207">
        <ele>55</ele>
        <time>2021-09-26T17:09:50.000Z</time>
      </trkpt>
      <trkpt lat="47.12492" lon="-1.60226">
        <ele>55</ele>
        <time>2021-09-26T17:09:52.000Z</time>
      </trkpt>
      <trkpt lat="47.12496" lon="-1.60244">
        <ele>55</ele>
        <time>2021-09-26T17:09:54.000Z</time>
      </trkpt>
      <trkpt lat="47.12499" lon="-1.60262">
        <ele>54</ele>
        <time>2021-09-26T17:09:56.000Z</time>
      </trkpt>
      <trkpt lat="47.12503" lon="-1.6028">
        <ele>54</ele>
        <time>2021-09-26T17:09:58.000Z</time>
      </trkpt>
      <trkpt lat="47.12506" lon="-1.60298">
        <ele>54</ele>
        <time>2021-09-26T17:10:00.000Z</time>
      </trkpt>
      <trkpt lat="47.12509" lon="-1.60315">
        <ele>55</ele>
        <time>2021-09-26T17:10:02.000Z</time>
      </trkpt>
      <trkpt lat="47.12512" lon="-1.60331">
        <ele>55</ele>
        <time>2021-09-26T17:10:04.000Z</time>
      </trkpt>
      <trkpt lat="47.12516" lon="-1.60348">
        <ele>55</ele>
        <time>2021-09-26T17:10:06.000Z</time>
      </trkpt>
      <trkpt lat="47.12518" lon="-1.60364">
        <ele>55</ele>
        <time>2021-09-26T17:10:08.000Z</time>
      </trkpt>
      <trkpt lat="47.12521" lon="-1.60381">
        <ele>55</ele>
        <time>2021-09-26T17:10:10.000Z</time>
      </trkpt>
      <trkpt lat="47.12525" lon="-1.60397">
        <ele>55</ele>
        <time>2021-09-26T17:10:12.000Z</time>
      </trkpt>
      <trkpt lat="47.12528" lon="-1.60414">
        <ele>56</ele>
        <time>2021-09-26T17:10:14.000Z</time>
      </trkpt>
      <trkpt lat="47.12531" lon="-1.6043">
        <ele>56</ele>
        <time>2021-09-26T17:10:16.000Z</time>
      </trkpt>
      <trkpt lat="47.12534" lon="-1.60446">
        <ele>56</ele>
        <time>2021-09-26T17:10:18.000Z</time>
      </trkpt>
      <trkpt lat="47.12537" lon="-1.60463">
        <ele>56</ele>
        <time>2021-09-26T17:10:20.000Z</time>
      </trkpt>
      <trkpt lat="47.12539" lon="-1.60479">
        <ele>56</ele>
        <time>2021-09-26T17:10:22.000Z</time>
      </trkpt>
      <trkpt lat="47.12542" lon="-1.60496">
        <ele>56</ele>
        <time>2021-09-26T17:10:24.000Z</time>
      </trkpt>
      <trkpt lat="47.12543" lon="-1.60513">
        <ele>57</ele>
        <time>2021-09-26T17:10:26.000Z</time>
      </trkpt>
      <trkpt lat="47.12544" lon="-1.6053">
        <ele>56</ele>
        <time>2021-09-26T17:10:28.000Z</time>
      </trkpt>
      <trkpt lat="47.12545" lon="-1.60547">
        <ele>57</ele>
        <time>2021-09-26T17:10:30.000Z</time>
      </trkpt>
      <trkpt lat="47.12546" lon="-1.60564">
        <ele>57</ele>
        <time>2021-09-26T17:10:32.000Z</time>
      </trkpt>
      <trkpt lat="47.12547" lon="-1.60581">
        <ele>57</ele>
        <time>2021-09-26T17:10:34.000Z</time>
      </trkpt>
      <trkpt lat="47.12547" lon="-1.60599">
        <ele>57</ele>
        <time>2021-09-26T17:10:36.000Z</time>
      </trkpt>
      <trkpt lat="47.12547" lon="-1.60616">
        <ele>57</ele>
        <time>2021-09-26T17:10:38.000Z</time>
      </trkpt>
      <trkpt lat="47.12547" lon="-1.60634">
        <ele>58</ele>
        <time>2021-09-26T17:10:40.000Z</time>
      </trkpt>
      <trkpt lat="47.12547" lon="-1.60651">
        <ele>58</ele>
        <time>2021-09-26T17:10:42.000Z</time>
      </trkpt>
      <trkpt lat="47.12548" lon="-1.60669">
        <ele>58</ele>
        <time>2021-09-26T17:10:44.000Z</time>
      </trkpt>
      <trkpt lat="47.12548" lon="-1.60686">
        <ele>58</ele>
        <time>2021-09-26T17:10:46.000Z</time>
      </trkpt>
      <trkpt lat="47.12548" lon="-1.60704">
        <ele>59</ele>
        <time>2021-09-26T17:10:48.000Z</time>
      </trkpt>
      <trkpt lat="47.12548" lon="-1.60722">
        <ele>58</ele>
        <time>2021-09-26T17:10:50.000Z</time>
      </trkpt>
      <trkpt lat="47.12547" lon="-1.6074">
        <ele>58</ele>
        <time>2021-09-26T17:10:52.000Z</time>
      </trkpt>
      <trkpt lat="47.12546" lon="-1.60758">
        <ele>58</ele>
        <time>2021-09-26T17:10:54.000Z</time>
      </trkpt>
      <trkpt lat="47.12545" lon="-1.60776">
        <ele>58</ele>
        <time>2021-09-26T17:10:56.000Z</time>
      </trkpt>
      <trkpt lat="47.12543" lon="-1.60794">
        <ele>58</ele>
        <time>2021-09-26T17:10:58.000Z</time>
      </trkpt>
      <trkpt lat="47.12542" lon="-1.60812">
        <ele>58</ele>
        <time>2021-09-26T17:11:00.000Z</time>
      </trkpt>
      <trkpt lat="47.1254" lon="-1.60829">
        <ele>58</ele>
        <time>2021-09-26T17:11:02.000Z</time>
      </trkpt>
      <trkpt lat="47.12541" lon="-1.60843">
        <ele>58</ele>
        <time>2021-09-26T17:11:04.000Z</time>
      </trkpt>
      <trkpt lat="47.12555" lon="-1.60843">
        <ele>59</ele>
        <time>2021-09-26T17:11:07.000Z</time>
      </trkpt>
      <trkpt lat="47.12565" lon="-1.60839">
        <ele>59</ele>
        <time>2021-09-26T17:11:09.000Z</time>
      </trkpt>
      <trkpt lat="47.12576" lon="-1.60837">
        <ele>58</ele>
        <time>2021-09-26T17:11:11.000Z</time>
      </trkpt>
      <trkpt lat="47.12587" lon="-1.60833">
        <ele>58</ele>
        <time>2021-09-26T17:11:13.000Z</time>
      </trkpt>
      <trkpt lat="47.12598" lon="-1.6083">
        <ele>58</ele>
        <time>2021-09-26T17:11:15.000Z</time>
      </trkpt>
      <trkpt lat="47.1261" lon="-1.60825">
        <ele>58</ele>
        <time>2021-09-26T17:11:17.000Z</time>
      </trkpt>
      <trkpt lat="47.12621" lon="-1.60821">
        <ele>59</ele>
        <time>2021-09-26T17:11:19.000Z</time>
      </trkpt>
      <trkpt lat="47.12632" lon="-1.60817">
        <ele>59</ele>
        <time>2021-09-26T17:11:21.000Z</time>
      </trkpt>
      <trkpt lat="47.12643" lon="-1.60815">
        <ele>58</ele>
        <time>2021-09-26T17:11:23.000Z</time>
      </trkpt>
      <trkpt lat="47.12653" lon="-1.60812">
        <ele>58</ele>
        <time>2021-09-26T17:11:25.000Z</time>
      </trkpt>
      <trkpt lat="47.12664" lon="-1.60808">
        <ele>58</ele>
        <time>2021-09-26T17:11:27.000Z</time>
      </trkpt>
      <trkpt lat="47.12674" lon="-1.60803">
        <ele>58</ele>
        <time>2021-09-26T17:11:29.000Z</time>
      </trkpt>
      <trkpt lat="47.12685" lon="-1.608">
        <ele>58</ele>
        <time>2021-09-26T17:11:31.000Z</time>
      </trkpt>
      <trkpt lat="47.12695" lon="-1.60796">
        <ele>58</ele>
        <time>2021-09-26T17:11:33.000Z</time>
      </trkpt>
      <trkpt lat="47.12705" lon="-1.60792">
        <ele>59</ele>
        <time>2021-09-26T17:11:35.000Z</time>
      </trkpt>
      <trkpt lat="47.12714" lon="-1.60788">
        <ele>58</ele>
        <time>2021-09-26T17:11:37.000Z</time>
      </trkpt>
      <trkpt lat="47.12727" lon="-1.60794">
        <ele>59</ele>
        <time>2021-09-26T17:11:40.000Z</time>
      </trkpt>
      <trkpt lat="47.12724" lon="-1.60811">
        <ele>59</ele>
        <time>2021-09-26T17:11:42.000Z</time>
      </trkpt>
      <trkpt lat="47.1272" lon="-1.60826">
        <ele>60</ele>
        <time>2021-09-26T17:11:44.000Z</time>
      </trkpt>
      <trkpt lat="47.12715" lon="-1.60841">
        <ele>61</ele>
        <time>2021-09-26T17:11:46.000Z</time>
      </trkpt>
      <trkpt lat="47.1271" lon="-1.60856">
        <ele>61</ele>
        <time>2021-09-26T17:11:48.000Z</time>
      </trkpt>
      <trkpt lat="47.12705" lon="-1.60871">
        <ele>61</ele>
        <time>2021-09-26T17:11:50.000Z</time>
      </trkpt>
      <trkpt lat="47.12702" lon="-1.60887">
        <ele>60</ele>
        <time>2021-09-26T17:11:52.000Z</time>
      </trkpt>
      <trkpt lat="47.12698" lon="-1.60902">
        <ele>60</ele>
        <time>2021-09-26T17:11:54.000Z</time>
      </trkpt>
      <trkpt lat="47.12696" lon="-1.60918">
        <ele>59</ele>
        <time>2021-09-26T17:11:56.000Z</time>
      </trkpt>
      <trkpt lat="47.12695" lon="-1.60935">
        <ele>58</ele>
        <time>2021-09-26T17:11:58.000Z</time>
      </trkpt>
      <trkpt lat="47.12694" lon="-1.6095">
        <ele>58</ele>
        <time>2021-09-26T17:12:00.000Z</time>
      </trkpt>
      <trkpt lat="47.12692" lon="-1.60966">
        <ele>58</ele>
        <time>2021-09-26T17:12:02.000Z</time>
      </trkpt>
      <trkpt lat="47.12691" lon="-1.60982">
        <ele>58</ele>
        <time>2021-09-26T17:12:04.000Z</time>
      </trkpt>
      <trkpt lat="47.12691" lon="-1.60999">
        <ele>58</ele>
        <time>2021-09-26T17:12:06.000Z</time>
      </trkpt>
      <trkpt lat="47.12691" lon="-1.61015">
        <ele>58</ele>
        <time>2021-09-26T17:12:08.000Z</time>
      </trkpt>
      <trkpt lat="47.12691" lon="-1.61033">
        <ele>59</ele>
        <time>2021-09-26T17:12:10.000Z</time>
      </trkpt>
      <trkpt lat="47.12691" lon="-1.61051">
        <ele>59</ele>
        <time>2021-09-26T17:12:12.000Z</time>
      </trkpt>
      <trkpt lat="47.1269" lon="-1.61069">
        <ele>59</ele>
        <time>2021-09-26T17:12:14.000Z</time>
      </trkpt>
      <trkpt lat="47.1269" lon="-1.61086">
        <ele>59</ele>
        <time>2021-09-26T17:12:16.000Z</time>
      </trkpt>
      <trkpt lat="47.12688" lon="-1.61104">
        <ele>59</ele>
        <time>2021-09-26T17:12:18.000Z</time>
      </trkpt>
      <trkpt lat="47.12686" lon="-1.61122">
        <ele>60</ele>
        <time>2021-09-26T17:12:20.000Z</time>
      </trkpt>
      <trkpt lat="47.12684" lon="-1.6114">
        <ele>59</ele>
        <time>2021-09-26T17:12:22.000Z</time>
      </trkpt>
      <trkpt lat="47.12682" lon="-1.61157">
        <ele>60</ele>
        <time>2021-09-26T17:12:24.000Z</time>
      </trkpt>
      <trkpt lat="47.1268" lon="-1.61174">
        <ele>60</ele>
        <time>2021-09-26T17:12:26.000Z</time>
      </trkpt>
      <trkpt lat="47.12677" lon="-1.61191">
        <ele>60</ele>
        <time>2021-09-26T17:12:28.000Z</time>
      </trkpt>
      <trkpt lat="47.12674" lon="-1.61208">
        <ele>60</ele>
        <time>2021-09-26T17:12:30.000Z</time>
      </trkpt>
      <trkpt lat="47.12672" lon="-1.61226">
        <ele>60</ele>
        <time>2021-09-26T17:12:32.000Z</time>
      </trkpt>
      <trkpt lat="47.12671" lon="-1.61243">
        <ele>60</ele>
        <time>2021-09-26T17:12:34.000Z</time>
      </trkpt>
      <trkpt lat="47.12672" lon="-1.6126">
        <ele>60</ele>
        <time>2021-09-26T17:12:36.000Z</time>
      </trkpt>
      <trkpt lat="47.12676" lon="-1.61276">
        <ele>60</ele>
        <time>2021-09-26T17:12:38.000Z</time>
      </trkpt>
      <trkpt lat="47.1268" lon="-1.61292">
        <ele>60</ele>
        <time>2021-09-26T17:12:40.000Z</time>
      </trkpt>
      <trkpt lat="47.12685" lon="-1.61308">
        <ele>61</ele>
        <time>2021-09-26T17:12:42.000Z</time>
      </trkpt>
      <trkpt lat="47.12689" lon="-1.61324">
        <ele>60</ele>
        <time>2021-09-26T17:12:44.000Z</time>
      </trkpt>
      <trkpt lat="47.12694" lon="-1.61339">
        <ele>61</ele>
        <time>2021-09-26T17:12:46.000Z</time>
      </trkpt>
      <trkpt lat="47.12699" lon="-1.61355">
        <ele>61</ele>
        <time>2021-09-26T17:12:48.000Z</time>
      </trkpt>
      <trkpt lat="47.12705" lon="-1.61371">
        <ele>60</ele>
        <time>2021-09-26T17:12:50.000Z</time>
      </trkpt>
      <trkpt lat="47.1271" lon="-1.61386">
        <ele>60</ele>
        <time>2021-09-26T17:12:52.000Z</time>
      </trkpt>
      <trkpt lat="47.12716" lon="-1.614">
        <ele>59</ele>
        <time>2021-09-26T17:12:54.000Z</time>
      </trkpt>
      <trkpt lat="47.12724" lon="-1.61415">
        <ele>58</ele>
        <time>2021-09-26T17:12:56.000Z</time>
      </trkpt>
      <trkpt lat="47.1273" lon="-1.61431">
        <ele>58</ele>
        <time>2021-09-26T17:12:58.000Z</time>
      </trkpt>
      <trkpt lat="47.12737" lon="-1.61446">
        <ele>58</ele>
        <time>2021-09-26T17:13:00.000Z</time>
      </trkpt>
      <trkpt lat="47.12744" lon="-1.61462">
        <ele>58</ele>
        <time>2021-09-26T17:13:02.000Z</time>
      </trkpt>
      <trkpt lat="47.1275" lon="-1.61477">
        <ele>58</ele>
        <time>2021-09-26T17:13:04.000Z</time>
      </trkpt>
      <trkpt lat="47.12758" lon="-1.61492">
        <ele>58</ele>
        <time>2021-09-26T17:13:06.000Z</time>
      </trkpt>
      <trkpt lat="47.12764" lon="-1.61508">
        <ele>58</ele>
        <time>2021-09-26T17:13:08.000Z</time>
      </trkpt>
      <trkpt lat="47.12771" lon="-1.61524">
        <ele>58</ele>
        <time>2021-09-26T17:13:10.000Z</time>
      </trkpt>
      <trkpt lat="47.12777" lon="-1.6154">
        <ele>58</ele>
        <time>2021-09-26T17:13:12.000Z</time>
      </trkpt>
      <trkpt lat="47.12783" lon="-1.61555">
        <ele>58</ele>
        <time>2021-09-26T17:13:14.000Z</time>
      </trkpt>
      <trkpt lat="47.12788" lon="-1.61569">
        <ele>58</ele>
        <time>2021-09-26T17:13:16.000Z</time>
      </trkpt>
      <trkpt lat="47.12793" lon="-1.61582">
        <ele>58</ele>
        <time>2021-09-26T17:13:18.000Z</time>
      </trkpt>
      <trkpt lat="47.12798" lon="-1.61597">
        <ele>58</ele>
        <time>2021-09-26T17:13:20.000Z</time>
      </trkpt>
      <trkpt lat="47.12804" lon="-1.61611">
        <ele>58</ele>
        <time>2021-09-26T17:13:22.000Z</time>
      </trkpt>
      <trkpt lat="47.1281" lon="-1.61626">
        <ele>57</ele>
        <time>2021-09-26T17:13:24.000Z</time>
      </trkpt>
      <trkpt lat="47.12815" lon="-1.6164">
        <ele>57</ele>
        <time>2021-09-26T17:13:27.000Z</time>
      </trkpt>
      <trkpt lat="47.12821" lon="-1.61653">
        <ele>57</ele>
        <time>2021-09-26T17:13:30.000Z</time>
      </trkpt>
      <trkpt lat="47.12827" lon="-1.61664">
        <ele>57</ele>
        <time>2021-09-26T17:13:33.000Z</time>
      </trkpt>
      <trkpt lat="47.12828" lon="-1.61671">
        <ele>56</ele>
        <time>2021-09-26T17:15:34.000Z</time>
      </trkpt>
      <trkpt lat="47.12835" lon="-1.61685">
        <ele>56</ele>
        <time>2021-09-26T17:16:58.000Z</time>
      </trkpt>
      <trkpt lat="47.1284" lon="-1.61697">
        <ele>57</ele>
        <time>2021-09-26T17:17:00.000Z</time>
      </trkpt>
      <trkpt lat="47.12846" lon="-1.61709">
        <ele>57</ele>
        <time>2021-09-26T17:17:02.000Z</time>
      </trkpt>
      <trkpt lat="47.12852" lon="-1.61723">
        <ele>58</ele>
        <time>2021-09-26T17:17:04.000Z</time>
      </trkpt>
      <trkpt lat="47.12857" lon="-1.61735">
        <ele>58</ele>
        <time>2021-09-26T17:17:06.000Z</time>
      </trkpt>
      <trkpt lat="47.12865" lon="-1.61752">
        <ele>58</ele>
        <time>2021-09-26T17:17:09.000Z</time>
      </trkpt>
      <trkpt lat="47.12872" lon="-1.61764">
        <ele>59</ele>
        <time>2021-09-26T17:17:11.000Z</time>
      </trkpt>
      <trkpt lat="47.12879" lon="-1.61785">
        <ele>58</ele>
        <time>2021-09-26T17:17:13.000Z</time>
      </trkpt>
      <trkpt lat="47.12884" lon="-1.61803">
        <ele>56</ele>
        <time>2021-09-26T17:17:15.000Z</time>
      </trkpt>
      <trkpt lat="47.12891" lon="-1.61818">
        <ele>55</ele>
        <time>2021-09-26T17:17:17.000Z</time>
      </trkpt>
      <trkpt lat="47.12896" lon="-1.61834">
        <ele>54</ele>
        <time>2021-09-26T17:17:19.000Z</time>
      </trkpt>
      <trkpt lat="47.12902" lon="-1.6185">
        <ele>53</ele>
        <time>2021-09-26T17:17:21.000Z</time>
      </trkpt>
      <trkpt lat="47.12906" lon="-1.61868">
        <ele>53</ele>
        <time>2021-09-26T17:17:23.000Z</time>
      </trkpt>
      <trkpt lat="47.12909" lon="-1.61884">
        <ele>52</ele>
        <time>2021-09-26T17:17:25.000Z</time>
      </trkpt>
      <trkpt lat="47.12911" lon="-1.61901">
        <ele>51</ele>
        <time>2021-09-26T17:17:27.000Z</time>
      </trkpt>
      <trkpt lat="47.12913" lon="-1.61918">
        <ele>51</ele>
        <time>2021-09-26T17:17:29.000Z</time>
      </trkpt>
      <trkpt lat="47.12915" lon="-1.61936">
        <ele>51</ele>
        <time>2021-09-26T17:17:31.000Z</time>
      </trkpt>
      <trkpt lat="47.12918" lon="-1.61954">
        <ele>51</ele>
        <time>2021-09-26T17:17:33.000Z</time>
      </trkpt>
      <trkpt lat="47.12922" lon="-1.6197">
        <ele>51</ele>
        <time>2021-09-26T17:17:35.000Z</time>
      </trkpt>
      <trkpt lat="47.12925" lon="-1.61988">
        <ele>52</ele>
        <time>2021-09-26T17:17:37.000Z</time>
      </trkpt>
      <trkpt lat="47.12929" lon="-1.62005">
        <ele>53</ele>
        <time>2021-09-26T17:17:39.000Z</time>
      </trkpt>
      <trkpt lat="47.12932" lon="-1.62022">
        <ele>53</ele>
        <time>2021-09-26T17:17:41.000Z</time>
      </trkpt>
      <trkpt lat="47.12938" lon="-1.62038">
        <ele>55</ele>
        <time>2021-09-26T17:17:43.000Z</time>
      </trkpt>
      <trkpt lat="47.12945" lon="-1.62052">
        <ele>55</ele>
        <time>2021-09-26T17:17:45.000Z</time>
      </trkpt>
      <trkpt lat="47.12954" lon="-1.62067">
        <ele>57</ele>
        <time>2021-09-26T17:17:47.000Z</time>
      </trkpt>
      <trkpt lat="47.12961" lon="-1.62083">
        <ele>58</ele>
        <time>2021-09-26T17:17:49.000Z</time>
      </trkpt>
      <trkpt lat="47.1297" lon="-1.62096">
        <ele>59</ele>
        <time>2021-09-26T17:17:51.000Z</time>
      </trkpt>
      <trkpt lat="47.12978" lon="-1.6211">
        <ele>59</ele>
        <time>2021-09-26T17:17:53.000Z</time>
      </trkpt>
      <trkpt lat="47.12987" lon="-1.62126">
        <ele>59</ele>
        <time>2021-09-26T17:17:55.000Z</time>
      </trkpt>
      <trkpt lat="47.12996" lon="-1.6214">
        <ele>59</ele>
        <time>2021-09-26T17:17:57.000Z</time>
      </trkpt>
      <trkpt lat="47.13004" lon="-1.62154">
        <ele>60</ele>
        <time>2021-09-26T17:17:59.000Z</time>
      </trkpt>
      <trkpt lat="47.13013" lon="-1.62167">
        <ele>60</ele>
        <time>2021-09-26T17:18:01.000Z</time>
      </trkpt>
      <trkpt lat="47.13021" lon="-1.6218">
        <ele>60</ele>
        <time>2021-09-26T17:18:03.000Z</time>
      </trkpt>
      <trkpt lat="47.13029" lon="-1.62192">
        <ele>59</ele>
        <time>2021-09-26T17:18:05.000Z</time>
      </trkpt>
      <trkpt lat="47.13037" lon="-1.62204">
        <ele>59</ele>
        <time>2021-09-26T17:18:07.000Z</time>
      </trkpt>
      <trkpt lat="47.13045" lon="-1.62214">
        <ele>59</ele>
        <time>2021-09-26T17:18:09.000Z</time>
      </trkpt>
      <trkpt lat="47.13053" lon="-1.62225">
        <ele>60</ele>
        <time>2021-09-26T17:18:11.000Z</time>
      </trkpt>
      <trkpt lat="47.13061" lon="-1.62236">
        <ele>60</ele>
        <time>2021-09-26T17:18:13.000Z</time>
      </trkpt>
      <trkpt lat="47.13068" lon="-1.62247">
        <ele>60</ele>
        <time>2021-09-26T17:18:15.000Z</time>
      </trkpt>
      <trkpt lat="47.13076" lon="-1.62258">
        <ele>60</ele>
        <time>2021-09-26T17:18:17.000Z</time>
      </trkpt>
      <trkpt lat="47.13084" lon="-1.62274">
        <ele>59</ele>
        <time>2021-09-26T17:18:19.000Z</time>
      </trkpt>
      <trkpt lat="47.13091" lon="-1.62287">
        <ele>58</ele>
        <time>2021-09-26T17:18:21.000Z</time>
      </trkpt>
      <trkpt lat="47.13097" lon="-1.62297">
        <ele>57</ele>
        <time>2021-09-26T17:18:23.000Z</time>
      </trkpt>
      <trkpt lat="47.1311" lon="-1.62299">
        <ele>56</ele>
        <time>2021-09-26T17:18:26.000Z</time>
      </trkpt>
      <trkpt lat="47.13117" lon="-1.62286">
        <ele>57</ele>
        <time>2021-09-26T17:18:28.000Z</time>
      </trkpt>
      <trkpt lat="47.13123" lon="-1.62274">
        <ele>57</ele>
        <time>2021-09-26T17:18:30.000Z</time>
      </trkpt>
      <trkpt lat="47.13129" lon="-1.62261">
        <ele>57</ele>
        <time>2021-09-26T17:18:32.000Z</time>
      </trkpt>
      <trkpt lat="47.13135" lon="-1.62247">
        <ele>57</ele>
        <time>2021-09-26T17:18:34.000Z</time>
      </trkpt>
      <trkpt lat="47.13142" lon="-1.62233">
        <ele>57</ele>
        <time>2021-09-26T17:18:36.000Z</time>
      </trkpt>
      <trkpt lat="47.13148" lon="-1.62217">
        <ele>57</ele>
        <time>2021-09-26T17:18:38.000Z</time>
      </trkpt>
      <trkpt lat="47.13155" lon="-1.62203">
        <ele>57</ele>
        <time>2021-09-26T17:18:40.000Z</time>
      </trkpt>
      <trkpt lat="47.13162" lon="-1.62188">
        <ele>58</ele>
        <time>2021-09-26T17:18:42.000Z</time>
      </trkpt>
      <trkpt lat="47.13169" lon="-1.62173">
        <ele>58</ele>
        <time>2021-09-26T17:18:44.000Z</time>
      </trkpt>
      <trkpt lat="47.13176" lon="-1.62159">
        <ele>58</ele>
        <time>2021-09-26T17:18:46.000Z</time>
      </trkpt>
      <trkpt lat="47.13184" lon="-1.62144">
        <ele>59</ele>
        <time>2021-09-26T17:18:48.000Z</time>
      </trkpt>
      <trkpt lat="47.13192" lon="-1.62131">
        <ele>59</ele>
        <time>2021-09-26T17:18:50.000Z</time>
      </trkpt>
      <trkpt lat="47.132" lon="-1.62117">
        <ele>59</ele>
        <time>2021-09-26T17:18:52.000Z</time>
      </trkpt>
      <trkpt lat="47.13207" lon="-1.62103">
        <ele>59</ele>
        <time>2021-09-26T17:18:54.000Z</time>
      </trkpt>
      <trkpt lat="47.13215" lon="-1.62089">
        <ele>59</ele>
        <time>2021-09-26T17:18:56.000Z</time>
      </trkpt>
      <trkpt lat="47.13223" lon="-1.62075">
        <ele>60</ele>
        <time>2021-09-26T17:18:58.000Z</time>
      </trkpt>
      <trkpt lat="47.13232" lon="-1.62062">
        <ele>60</ele>
        <time>2021-09-26T17:19:00.000Z</time>
      </trkpt>
      <trkpt lat="47.13241" lon="-1.62049">
        <ele>60</ele>
        <time>2021-09-26T17:19:02.000Z</time>
      </trkpt>
      <trkpt lat="47.1325" lon="-1.62036">
        <ele>61</ele>
        <time>2021-09-26T17:19:04.000Z</time>
      </trkpt>
      <trkpt lat="47.1326" lon="-1.62024">
        <ele>61</ele>
        <time>2021-09-26T17:19:06.000Z</time>
      </trkpt>
      <trkpt lat="47.1327" lon="-1.62014">
        <ele>61</ele>
        <time>2021-09-26T17:19:08.000Z</time>
      </trkpt>
      <trkpt lat="47.13281" lon="-1.62005">
        <ele>61</ele>
        <time>2021-09-26T17:19:10.000Z</time>
      </trkpt>
      <trkpt lat="47.13292" lon="-1.61997">
        <ele>61</ele>
        <time>2021-09-26T17:19:12.000Z</time>
      </trkpt>
      <trkpt lat="47.13303" lon="-1.61989">
        <ele>61</ele>
        <time>2021-09-26T17:19:14.000Z</time>
      </trkpt>
      <trkpt lat="47.13314" lon="-1.61981">
        <ele>62</ele>
        <time>2021-09-26T17:19:16.000Z</time>
      </trkpt>
      <trkpt lat="47.13325" lon="-1.61973">
        <ele>62</ele>
        <time>2021-09-26T17:19:18.000Z</time>
      </trkpt>
      <trkpt lat="47.13335" lon="-1.61965">
        <ele>62</ele>
        <time>2021-09-26T17:19:20.000Z</time>
      </trkpt>
      <trkpt lat="47.13347" lon="-1.61956">
        <ele>62</ele>
        <time>2021-09-26T17:19:22.000Z</time>
      </trkpt>
      <trkpt lat="47.13357" lon="-1.61946">
        <ele>62</ele>
        <time>2021-09-26T17:19:24.000Z</time>
      </trkpt>
      <trkpt lat="47.13368" lon="-1.61938">
        <ele>62</ele>
        <time>2021-09-26T17:19:26.000Z</time>
      </trkpt>
      <trkpt lat="47.13379" lon="-1.6193">
        <ele>62</ele>
        <time>2021-09-26T17:19:28.000Z</time>
      </trkpt>
      <trkpt lat="47.1339" lon="-1.61922">
        <ele>62</ele>
        <time>2021-09-26T17:19:30.000Z</time>
      </trkpt>
      <trkpt lat="47.13401" lon="-1.61914">
        <ele>62</ele>
        <time>2021-09-26T17:19:32.000Z</time>
      </trkpt>
      <trkpt lat="47.13412" lon="-1.61905">
        <ele>62</ele>
        <time>2021-09-26T17:19:34.000Z</time>
      </trkpt>
      <trkpt lat="47.13424" lon="-1.61896">
        <ele>62</ele>
        <time>2021-09-26T17:19:36.000Z</time>
      </trkpt>
      <trkpt lat="47.13435" lon="-1.61888">
        <ele>62</ele>
        <time>2021-09-26T17:19:38.000Z</time>
      </trkpt>
      <trkpt lat="47.13446" lon="-1.61879">
        <ele>62</ele>
        <time>2021-09-26T17:19:40.000Z</time>
      </trkpt>
      <trkpt lat="47.13457" lon="-1.6187">
        <ele>63</ele>
        <time>2021-09-26T17:19:42.000Z</time>
      </trkpt>
      <trkpt lat="47.13469" lon="-1.61862">
        <ele>62</ele>
        <time>2021-09-26T17:19:44.000Z</time>
      </trkpt>
      <trkpt lat="47.13481" lon="-1.61854">
        <ele>62</ele>
        <time>2021-09-26T17:19:46.000Z</time>
      </trkpt>
      <trkpt lat="47.13493" lon="-1.61848">
        <ele>62</ele>
        <time>2021-09-26T17:19:48.000Z</time>
      </trkpt>
      <trkpt lat="47.13504" lon="-1.61842">
        <ele>62</ele>
        <time>2021-09-26T17:19:50.000Z</time>
      </trkpt>
      <trkpt lat="47.13516" lon="-1.61836">
        <ele>62</ele>
        <time>2021-09-26T17:19:52.000Z</time>
      </trkpt>
      <trkpt lat="47.13529" lon="-1.61831">
        <ele>62</ele>
        <time>2021-09-26T17:19:54.000Z</time>
      </trkpt>
      <trkpt lat="47.13541" lon="-1.61825">
        <ele>62</ele>
        <time>2021-09-26T17:19:56.000Z</time>
      </trkpt>
      <trkpt lat="47.13553" lon="-1.6182">
        <ele>61</ele>
        <time>2021-09-26T17:19:58.000Z</time>
      </trkpt>
      <trkpt lat="47.13564" lon="-1.61814">
        <ele>61</ele>
        <time>2021-09-26T17:20:00.000Z</time>
      </trkpt>
      <trkpt lat="47.13574" lon="-1.61807">
        <ele>61</ele>
        <time>2021-09-26T17:20:02.000Z</time>
      </trkpt>
      <trkpt lat="47.13586" lon="-1.61805">
        <ele>62</ele>
        <time>2021-09-26T17:20:04.000Z</time>
      </trkpt>
      <trkpt lat="47.13598" lon="-1.61801">
        <ele>61</ele>
        <time>2021-09-26T17:20:06.000Z</time>
      </trkpt>
      <trkpt lat="47.1361" lon="-1.61795">
        <ele>62</ele>
        <time>2021-09-26T17:20:08.000Z</time>
      </trkpt>
      <trkpt lat="47.13622" lon="-1.6179">
        <ele>62</ele>
        <time>2021-09-26T17:20:10.000Z</time>
      </trkpt>
      <trkpt lat="47.13634" lon="-1.61784">
        <ele>62</ele>
        <time>2021-09-26T17:20:12.000Z</time>
      </trkpt>
      <trkpt lat="47.13646" lon="-1.61779">
        <ele>62</ele>
        <time>2021-09-26T17:20:14.000Z</time>
      </trkpt>
      <trkpt lat="47.13658" lon="-1.61773">
        <ele>62</ele>
        <time>2021-09-26T17:20:16.000Z</time>
      </trkpt>
      <trkpt lat="47.1367" lon="-1.61767">
        <ele>62</ele>
        <time>2021-09-26T17:20:18.000Z</time>
      </trkpt>
      <trkpt lat="47.13681" lon="-1.6176">
        <ele>62</ele>
        <time>2021-09-26T17:20:20.000Z</time>
      </trkpt>
      <trkpt lat="47.13693" lon="-1.61753">
        <ele>62</ele>
        <time>2021-09-26T17:20:22.000Z</time>
      </trkpt>
      <trkpt lat="47.13704" lon="-1.61746">
        <ele>62</ele>
        <time>2021-09-26T17:20:24.000Z</time>
      </trkpt>
      <trkpt lat="47.13714" lon="-1.61738">
        <ele>62</ele>
        <time>2021-09-26T17:20:26.000Z</time>
      </trkpt>
      <trkpt lat="47.13723" lon="-1.6173">
        <ele>63</ele>
        <time>2021-09-26T17:20:28.000Z</time>
      </trkpt>
      <trkpt lat="47.13732" lon="-1.61722">
        <ele>63</ele>
        <time>2021-09-26T17:20:30.000Z</time>
      </trkpt>
      <trkpt lat="47.13741" lon="-1.61723">
        <ele>63</ele>
        <time>2021-09-26T17:20:32.000Z</time>
      </trkpt>
      <trkpt lat="47.13744" lon="-1.6174">
        <ele>63</ele>
        <time>2021-09-26T17:20:34.000Z</time>
      </trkpt>
      <trkpt lat="47.13741" lon="-1.61757">
        <ele>63</ele>
        <time>2021-09-26T17:20:36.000Z</time>
      </trkpt>
      <trkpt lat="47.13737" lon="-1.61774">
        <ele>63</ele>
        <time>2021-09-26T17:20:38.000Z</time>
      </trkpt>
      <trkpt lat="47.13734" lon="-1.61793">
        <ele>63</ele>
        <time>2021-09-26T17:20:40.000Z</time>
      </trkpt>
      <trkpt lat="47.1373" lon="-1.61811">
        <ele>63</ele>
        <time>2021-09-26T17:20:42.000Z</time>
      </trkpt>
      <trkpt lat="47.13728" lon="-1.6183">
        <ele>63</ele>
        <time>2021-09-26T17:20:44.000Z</time>
      </trkpt>
      <trkpt lat="47.13726" lon="-1.61848">
        <ele>63</ele>
        <time>2021-09-26T17:20:46.000Z</time>
      </trkpt>
      <trkpt lat="47.13726" lon="-1.61865">
        <ele>62</ele>
        <time>2021-09-26T17:20:48.000Z</time>
      </trkpt>
      <trkpt lat="47.13725" lon="-1.61883">
        <ele>62</ele>
        <time>2021-09-26T17:20:50.000Z</time>
      </trkpt>
      <trkpt lat="47.13723" lon="-1.61901">
        <ele>63</ele>
        <time>2021-09-26T17:20:52.000Z</time>
      </trkpt>
      <trkpt lat="47.13723" lon="-1.61918">
        <ele>63</ele>
        <time>2021-09-26T17:20:54.000Z</time>
      </trkpt>
      <trkpt lat="47.13723" lon="-1.61935">
        <ele>64</ele>
        <time>2021-09-26T17:20:56.000Z</time>
      </trkpt>
      <trkpt lat="47.13724" lon="-1.61953">
        <ele>64</ele>
        <time>2021-09-26T17:20:58.000Z</time>
      </trkpt>
      <trkpt lat="47.13726" lon="-1.61971">
        <ele>64</ele>
        <time>2021-09-26T17:21:00.000Z</time>
      </trkpt>
      <trkpt lat="47.13729" lon="-1.61988">
        <ele>64</ele>
        <time>2021-09-26T17:21:02.000Z</time>
      </trkpt>
      <trkpt lat="47.13731" lon="-1.62005">
        <ele>65</ele>
        <time>2021-09-26T17:21:04.000Z</time>
      </trkpt>
      <trkpt lat="47.13734" lon="-1.62022">
        <ele>65</ele>
        <time>2021-09-26T17:21:06.000Z</time>
      </trkpt>
      <trkpt lat="47.13735" lon="-1.62039">
        <ele>65</ele>
        <time>2021-09-26T17:21:08.000Z</time>
      </trkpt>
      <trkpt lat="47.13738" lon="-1.62056">
        <ele>65</ele>
        <time>2021-09-26T17:21:10.000Z</time>
      </trkpt>
      <trkpt lat="47.1374" lon="-1.62074">
        <ele>65</ele>
        <time>2021-09-26T17:21:12.000Z</time>
      </trkpt>
      <trkpt lat="47.13742" lon="-1.62091">
        <ele>65</ele>
        <time>2021-09-26T17:21:14.000Z</time>
      </trkpt>
      <trkpt lat="47.13745" lon="-1.62108">
        <ele>65</ele>
        <time>2021-09-26T17:21:16.000Z</time>
      </trkpt>
      <trkpt lat="47.13747" lon="-1.62126">
        <ele>64</ele>
        <time>2021-09-26T17:21:18.000Z</time>
      </trkpt>
      <trkpt lat="47.13749" lon="-1.62144">
        <ele>64</ele>
        <time>2021-09-26T17:21:20.000Z</time>
      </trkpt>
      <trkpt lat="47.13752" lon="-1.62162">
        <ele>64</ele>
        <time>2021-09-26T17:21:22.000Z</time>
      </trkpt>
      <trkpt lat="47.13753" lon="-1.6218">
        <ele>64</ele>
        <time>2021-09-26T17:21:24.000Z</time>
      </trkpt>
      <trkpt lat="47.13756" lon="-1.62198">
        <ele>64</ele>
        <time>2021-09-26T17:21:26.000Z</time>
      </trkpt>
      <trkpt lat="47.13758" lon="-1.62216">
        <ele>64</ele>
        <time>2021-09-26T17:21:28.000Z</time>
      </trkpt>
      <trkpt lat="47.1376" lon="-1.62233">
        <ele>64</ele>
        <time>2021-09-26T17:21:30.000Z</time>
      </trkpt>
      <trkpt lat="47.13762" lon="-1.62251">
        <ele>64</ele>
        <time>2021-09-26T17:21:32.000Z</time>
      </trkpt>
      <trkpt lat="47.13765" lon="-1.62268">
        <ele>64</ele>
        <time>2021-09-26T17:21:34.000Z</time>
      </trkpt>
      <trkpt lat="47.13766" lon="-1.62286">
        <ele>64</ele>
        <time>2021-09-26T17:21:36.000Z</time>
      </trkpt>
      <trkpt lat="47.13767" lon="-1.62303">
        <ele>64</ele>
        <time>2021-09-26T17:21:38.000Z</time>
      </trkpt>
      <trkpt lat="47.13766" lon="-1.62321">
        <ele>64</ele>
        <time>2021-09-26T17:21:40.000Z</time>
      </trkpt>
      <trkpt lat="47.13766" lon="-1.6234">
        <ele>63</ele>
        <time>2021-09-26T17:21:42.000Z</time>
      </trkpt>
      <trkpt lat="47.13764" lon="-1.62359">
        <ele>63</ele>
        <time>2021-09-26T17:21:44.000Z</time>
      </trkpt>
      <trkpt lat="47.13763" lon="-1.62378">
        <ele>63</ele>
        <time>2021-09-26T17:21:46.000Z</time>
      </trkpt>
      <trkpt lat="47.13762" lon="-1.62398">
        <ele>63</ele>
        <time>2021-09-26T17:21:48.000Z</time>
      </trkpt>
      <trkpt lat="47.13762" lon="-1.62419">
        <ele>63</ele>
        <time>2021-09-26T17:21:50.000Z</time>
      </trkpt>
      <trkpt lat="47.13763" lon="-1.6244">
        <ele>63</ele>
        <time>2021-09-26T17:21:52.000Z</time>
      </trkpt>
      <trkpt lat="47.13765" lon="-1.6246">
        <ele>63</ele>
        <time>2021-09-26T17:21:54.000Z</time>
      </trkpt>
      <trkpt lat="47.13768" lon="-1.62481">
        <ele>62</ele>
        <time>2021-09-26T17:21:56.000Z</time>
      </trkpt>
      <trkpt lat="47.1377" lon="-1.62502">
        <ele>62</ele>
        <time>2021-09-26T17:21:58.000Z</time>
      </trkpt>
      <trkpt lat="47.13772" lon="-1.62522">
        <ele>61</ele>
        <time>2021-09-26T17:22:00.000Z</time>
      </trkpt>
      <trkpt lat="47.13773" lon="-1.6254">
        <ele>61</ele>
        <time>2021-09-26T17:22:02.000Z</time>
      </trkpt>
      <trkpt lat="47.13775" lon="-1.62559">
        <ele>60</ele>
        <time>2021-09-26T17:22:04.000Z</time>
      </trkpt>
      <trkpt lat="47.13777" lon="-1.62578">
        <ele>60</ele>
        <time>2021-09-26T17:22:06.000Z</time>
      </trkpt>
      <trkpt lat="47.13779" lon="-1.62597">
        <ele>60</ele>
        <time>2021-09-26T17:22:08.000Z</time>
      </trkpt>
      <trkpt lat="47.1378" lon="-1.62615">
        <ele>61</ele>
        <time>2021-09-26T17:22:10.000Z</time>
      </trkpt>
      <trkpt lat="47.13782" lon="-1.62633">
        <ele>61</ele>
        <time>2021-09-26T17:22:12.000Z</time>
      </trkpt>
      <trkpt lat="47.13784" lon="-1.62651">
        <ele>62</ele>
        <time>2021-09-26T17:22:14.000Z</time>
      </trkpt>
      <trkpt lat="47.13784" lon="-1.62669">
        <ele>62</ele>
        <time>2021-09-26T17:22:16.000Z</time>
      </trkpt>
      <trkpt lat="47.13785" lon="-1.62686">
        <ele>62</ele>
        <time>2021-09-26T17:22:18.000Z</time>
      </trkpt>
      <trkpt lat="47.13784" lon="-1.62704">
        <ele>62</ele>
        <time>2021-09-26T17:22:20.000Z</time>
      </trkpt>
      <trkpt lat="47.13784" lon="-1.62722">
        <ele>63</ele>
        <time>2021-09-26T17:22:22.000Z</time>
      </trkpt>
      <trkpt lat="47.13784" lon="-1.6274">
        <ele>63</ele>
        <time>2021-09-26T17:22:24.000Z</time>
      </trkpt>
      <trkpt lat="47.13785" lon="-1.62757">
        <ele>63</ele>
        <time>2021-09-26T17:22:26.000Z</time>
      </trkpt>
      <trkpt lat="47.13787" lon="-1.62773">
        <ele>64</ele>
        <time>2021-09-26T17:22:28.000Z</time>
      </trkpt>
      <trkpt lat="47.13791" lon="-1.62787">
        <ele>64</ele>
        <time>2021-09-26T17:22:30.000Z</time>
      </trkpt>
      <trkpt lat="47.13796" lon="-1.62802">
        <ele>65</ele>
        <time>2021-09-26T17:22:32.000Z</time>
      </trkpt>
      <trkpt lat="47.13802" lon="-1.62816">
        <ele>65</ele>
        <time>2021-09-26T17:22:34.000Z</time>
      </trkpt>
      <trkpt lat="47.13807" lon="-1.6283">
        <ele>65</ele>
        <time>2021-09-26T17:22:36.000Z</time>
      </trkpt>
      <trkpt lat="47.13812" lon="-1.62845">
        <ele>65</ele>
        <time>2021-09-26T17:22:38.000Z</time>
      </trkpt>
      <trkpt lat="47.13817" lon="-1.62859">
        <ele>65</ele>
        <time>2021-09-26T17:22:40.000Z</time>
      </trkpt>
      <trkpt lat="47.13822" lon="-1.62873">
        <ele>65</ele>
        <time>2021-09-26T17:22:42.000Z</time>
      </trkpt>
      <trkpt lat="47.13825" lon="-1.62887">
        <ele>65</ele>
        <time>2021-09-26T17:22:44.000Z</time>
      </trkpt>
      <trkpt lat="47.13826" lon="-1.62904">
        <ele>65</ele>
        <time>2021-09-26T17:22:46.000Z</time>
      </trkpt>
      <trkpt lat="47.13825" lon="-1.62922">
        <ele>65</ele>
        <time>2021-09-26T17:22:48.000Z</time>
      </trkpt>
      <trkpt lat="47.13824" lon="-1.62941">
        <ele>64</ele>
        <time>2021-09-26T17:22:50.000Z</time>
      </trkpt>
      <trkpt lat="47.13822" lon="-1.62959">
        <ele>64</ele>
        <time>2021-09-26T17:22:52.000Z</time>
      </trkpt>
      <trkpt lat="47.1382" lon="-1.62979">
        <ele>64</ele>
        <time>2021-09-26T17:22:54.000Z</time>
      </trkpt>
      <trkpt lat="47.13818" lon="-1.62998">
        <ele>63</ele>
        <time>2021-09-26T17:22:56.000Z</time>
      </trkpt>
      <trkpt lat="47.13818" lon="-1.63017">
        <ele>62</ele>
        <time>2021-09-26T17:22:58.000Z</time>
      </trkpt>
      <trkpt lat="47.13819" lon="-1.63037">
        <ele>62</ele>
        <time>2021-09-26T17:23:00.000Z</time>
      </trkpt>
      <trkpt lat="47.13822" lon="-1.63052">
        <ele>62</ele>
        <time>2021-09-26T17:23:02.000Z</time>
      </trkpt>
      <trkpt lat="47.13832" lon="-1.63058">
        <ele>62</ele>
        <time>2021-09-26T17:23:04.000Z</time>
      </trkpt>
      <trkpt lat="47.13843" lon="-1.63057">
        <ele>63</ele>
        <time>2021-09-26T17:23:06.000Z</time>
      </trkpt>
      <trkpt lat="47.13855" lon="-1.63054">
        <ele>64</ele>
        <time>2021-09-26T17:23:08.000Z</time>
      </trkpt>
      <trkpt lat="47.13867" lon="-1.63051">
        <ele>64</ele>
        <time>2021-09-26T17:23:10.000Z</time>
      </trkpt>
      <trkpt lat="47.13879" lon="-1.6305">
        <ele>64</ele>
        <time>2021-09-26T17:23:12.000Z</time>
      </trkpt>
      <trkpt lat="47.13891" lon="-1.63048">
        <ele>65</ele>
        <time>2021-09-26T17:23:14.000Z</time>
      </trkpt>
      <trkpt lat="47.13903" lon="-1.63044">
        <ele>65</ele>
        <time>2021-09-26T17:23:16.000Z</time>
      </trkpt>
      <trkpt lat="47.13915" lon="-1.6304">
        <ele>66</ele>
        <time>2021-09-26T17:23:18.000Z</time>
      </trkpt>
      <trkpt lat="47.13927" lon="-1.63035">
        <ele>66</ele>
        <time>2021-09-26T17:23:20.000Z</time>
      </trkpt>
      <trkpt lat="47.13938" lon="-1.63029">
        <ele>66</ele>
        <time>2021-09-26T17:23:22.000Z</time>
      </trkpt>
      <trkpt lat="47.13949" lon="-1.63023">
        <ele>66</ele>
        <time>2021-09-26T17:23:24.000Z</time>
      </trkpt>
      <trkpt lat="47.1396" lon="-1.63016">
        <ele>67</ele>
        <time>2021-09-26T17:23:26.000Z</time>
      </trkpt>
      <trkpt lat="47.13971" lon="-1.63009">
        <ele>67</ele>
        <time>2021-09-26T17:23:28.000Z</time>
      </trkpt>
      <trkpt lat="47.13982" lon="-1.63002">
        <ele>67</ele>
        <time>2021-09-26T17:23:30.000Z</time>
      </trkpt>
      <trkpt lat="47.13994" lon="-1.62994">
        <ele>67</ele>
        <time>2021-09-26T17:23:32.000Z</time>
      </trkpt>
      <trkpt lat="47.14005" lon="-1.62989">
        <ele>68</ele>
        <time>2021-09-26T17:23:34.000Z</time>
      </trkpt>
      <trkpt lat="47.14018" lon="-1.62986">
        <ele>67</ele>
        <time>2021-09-26T17:23:36.000Z</time>
      </trkpt>
      <trkpt lat="47.1403" lon="-1.62982">
        <ele>66</ele>
        <time>2021-09-26T17:23:38.000Z</time>
      </trkpt>
      <trkpt lat="47.14042" lon="-1.62979">
        <ele>66</ele>
        <time>2021-09-26T17:23:40.000Z</time>
      </trkpt>
      <trkpt lat="47.14054" lon="-1.62977">
        <ele>66</ele>
        <time>2021-09-26T17:23:42.000Z</time>
      </trkpt>
      <trkpt lat="47.14066" lon="-1.62976">
        <ele>66</ele>
        <time>2021-09-26T17:23:44.000Z</time>
      </trkpt>
      <trkpt lat="47.14077" lon="-1.62975">
        <ele>66</ele>
        <time>2021-09-26T17:23:46.000Z</time>
      </trkpt>
      <trkpt lat="47.14089" lon="-1.62977">
        <ele>66</ele>
        <time>2021-09-26T17:23:48.000Z</time>
      </trkpt>
      <trkpt lat="47.141" lon="-1.62979">
        <ele>66</ele>
        <time>2021-09-26T17:23:50.000Z</time>
      </trkpt>
      <trkpt lat="47.14111" lon="-1.62982">
        <ele>66</ele>
        <time>2021-09-26T17:23:52.000Z</time>
      </trkpt>
      <trkpt lat="47.14123" lon="-1.62986">
        <ele>67</ele>
        <time>2021-09-26T17:23:54.000Z</time>
      </trkpt>
      <trkpt lat="47.14134" lon="-1.62989">
        <ele>67</ele>
        <time>2021-09-26T17:23:56.000Z</time>
      </trkpt>
      <trkpt lat="47.14145" lon="-1.62995">
        <ele>67</ele>
        <time>2021-09-26T17:23:58.000Z</time>
      </trkpt>
      <trkpt lat="47.14162" lon="-1.63003">
        <ele>66</ele>
        <time>2021-09-26T17:24:01.000Z</time>
      </trkpt>
      <trkpt lat="47.14173" lon="-1.63008">
        <ele>66</ele>
        <time>2021-09-26T17:24:03.000Z</time>
      </trkpt>
      <trkpt lat="47.14184" lon="-1.63013">
        <ele>66</ele>
        <time>2021-09-26T17:24:05.000Z</time>
      </trkpt>
      <trkpt lat="47.14201" lon="-1.63022">
        <ele>66</ele>
        <time>2021-09-26T17:24:08.000Z</time>
      </trkpt>
      <trkpt lat="47.14213" lon="-1.63028">
        <ele>66</ele>
        <time>2021-09-26T17:24:10.000Z</time>
      </trkpt>
      <trkpt lat="47.14225" lon="-1.63034">
        <ele>66</ele>
        <time>2021-09-26T17:24:12.000Z</time>
      </trkpt>
      <trkpt lat="47.14236" lon="-1.6304">
        <ele>66</ele>
        <time>2021-09-26T17:24:14.000Z</time>
      </trkpt>
      <trkpt lat="47.14247" lon="-1.63046">
        <ele>66</ele>
        <time>2021-09-26T17:24:16.000Z</time>
      </trkpt>
      <trkpt lat="47.14259" lon="-1.63052">
        <ele>66</ele>
        <time>2021-09-26T17:24:18.000Z</time>
      </trkpt>
      <trkpt lat="47.1427" lon="-1.63058">
        <ele>65</ele>
        <time>2021-09-26T17:24:20.000Z</time>
      </trkpt>
      <trkpt lat="47.14282" lon="-1.63064">
        <ele>66</ele>
        <time>2021-09-26T17:24:22.000Z</time>
      </trkpt>
      <trkpt lat="47.14293" lon="-1.6307">
        <ele>65</ele>
        <time>2021-09-26T17:24:24.000Z</time>
      </trkpt>
      <trkpt lat="47.14304" lon="-1.63074">
        <ele>66</ele>
        <time>2021-09-26T17:24:26.000Z</time>
      </trkpt>
      <trkpt lat="47.14315" lon="-1.63079">
        <ele>66</ele>
        <time>2021-09-26T17:24:28.000Z</time>
      </trkpt>
      <trkpt lat="47.14327" lon="-1.63084">
        <ele>65</ele>
        <time>2021-09-26T17:24:30.000Z</time>
      </trkpt>
      <trkpt lat="47.14338" lon="-1.6309">
        <ele>65</ele>
        <time>2021-09-26T17:24:32.000Z</time>
      </trkpt>
      <trkpt lat="47.14349" lon="-1.63097">
        <ele>65</ele>
        <time>2021-09-26T17:24:34.000Z</time>
      </trkpt>
      <trkpt lat="47.14361" lon="-1.63104">
        <ele>65</ele>
        <time>2021-09-26T17:24:36.000Z</time>
      </trkpt>
      <trkpt lat="47.14373" lon="-1.63113">
        <ele>65</ele>
        <time>2021-09-26T17:24:38.000Z</time>
      </trkpt>
      <trkpt lat="47.14384" lon="-1.6312">
        <ele>65</ele>
        <time>2021-09-26T17:24:40.000Z</time>
      </trkpt>
      <trkpt lat="47.14396" lon="-1.63123">
        <ele>66</ele>
        <time>2021-09-26T17:24:42.000Z</time>
      </trkpt>
      <trkpt lat="47.14408" lon="-1.63128">
        <ele>66</ele>
        <time>2021-09-26T17:24:44.000Z</time>
      </trkpt>
      <trkpt lat="47.14419" lon="-1.63135">
        <ele>66</ele>
        <time>2021-09-26T17:24:46.000Z</time>
      </trkpt>
      <trkpt lat="47.14431" lon="-1.6314">
        <ele>66</ele>
        <time>2021-09-26T17:24:48.000Z</time>
      </trkpt>
      <trkpt lat="47.14442" lon="-1.63145">
        <ele>65</ele>
        <time>2021-09-26T17:24:50.000Z</time>
      </trkpt>
      <trkpt lat="47.14454" lon="-1.63148">
        <ele>65</ele>
        <time>2021-09-26T17:24:52.000Z</time>
      </trkpt>
      <trkpt lat="47.14467" lon="-1.63147">
        <ele>65</ele>
        <time>2021-09-26T17:24:54.000Z</time>
      </trkpt>
      <trkpt lat="47.14479" lon="-1.63147">
        <ele>65</ele>
        <time>2021-09-26T17:24:56.000Z</time>
      </trkpt>
      <trkpt lat="47.14491" lon="-1.63147">
        <ele>65</ele>
        <time>2021-09-26T17:24:58.000Z</time>
      </trkpt>
      <trkpt lat="47.14503" lon="-1.63147">
        <ele>66</ele>
        <time>2021-09-26T17:25:00.000Z</time>
      </trkpt>
      <trkpt lat="47.14515" lon="-1.63147">
        <ele>66</ele>
        <time>2021-09-26T17:25:02.000Z</time>
      </trkpt>
      <trkpt lat="47.14527" lon="-1.63147">
        <ele>66</ele>
        <time>2021-09-26T17:25:04.000Z</time>
      </trkpt>
      <trkpt lat="47.14539" lon="-1.63147">
        <ele>67</ele>
        <time>2021-09-26T17:25:06.000Z</time>
      </trkpt>
      <trkpt lat="47.1455" lon="-1.63145">
        <ele>67</ele>
        <time>2021-09-26T17:25:08.000Z</time>
      </trkpt>
      <trkpt lat="47.14561" lon="-1.63143">
        <ele>68</ele>
        <time>2021-09-26T17:25:10.000Z</time>
      </trkpt>
      <trkpt lat="47.14572" lon="-1.63138">
        <ele>68</ele>
        <time>2021-09-26T17:25:12.000Z</time>
      </trkpt>
      <trkpt lat="47.14583" lon="-1.63132">
        <ele>69</ele>
        <time>2021-09-26T17:25:14.000Z</time>
      </trkpt>
      <trkpt lat="47.14594" lon="-1.63125">
        <ele>70</ele>
        <time>2021-09-26T17:25:16.000Z</time>
      </trkpt>
      <trkpt lat="47.14605" lon="-1.63118">
        <ele>70</ele>
        <time>2021-09-26T17:25:18.000Z</time>
      </trkpt>
      <trkpt lat="47.14616" lon="-1.6311">
        <ele>70</ele>
        <time>2021-09-26T17:25:20.000Z</time>
      </trkpt>
      <trkpt lat="47.14628" lon="-1.63102">
        <ele>69</ele>
        <time>2021-09-26T17:25:22.000Z</time>
      </trkpt>
      <trkpt lat="47.14639" lon="-1.63095">
        <ele>69</ele>
        <time>2021-09-26T17:25:24.000Z</time>
      </trkpt>
      <trkpt lat="47.1465" lon="-1.63088">
        <ele>68</ele>
        <time>2021-09-26T17:25:26.000Z</time>
      </trkpt>
      <trkpt lat="47.14662" lon="-1.63082">
        <ele>68</ele>
        <time>2021-09-26T17:25:28.000Z</time>
      </trkpt>
      <trkpt lat="47.14673" lon="-1.63077">
        <ele>67</ele>
        <time>2021-09-26T17:25:30.000Z</time>
      </trkpt>
      <trkpt lat="47.14685" lon="-1.63074">
        <ele>67</ele>
        <time>2021-09-26T17:25:32.000Z</time>
      </trkpt>
      <trkpt lat="47.14698" lon="-1.63071">
        <ele>67</ele>
        <time>2021-09-26T17:25:34.000Z</time>
      </trkpt>
      <trkpt lat="47.1471" lon="-1.6307">
        <ele>67</ele>
        <time>2021-09-26T17:25:36.000Z</time>
      </trkpt>
      <trkpt lat="47.14721" lon="-1.6307">
        <ele>67</ele>
        <time>2021-09-26T17:25:38.000Z</time>
      </trkpt>
      <trkpt lat="47.14733" lon="-1.6307">
        <ele>68</ele>
        <time>2021-09-26T17:25:40.000Z</time>
      </trkpt>
      <trkpt lat="47.14744" lon="-1.6307">
        <ele>68</ele>
        <time>2021-09-26T17:25:42.000Z</time>
      </trkpt>
      <trkpt lat="47.14757" lon="-1.63069">
        <ele>68</ele>
        <time>2021-09-26T17:25:44.000Z</time>
      </trkpt>
      <trkpt lat="47.14769" lon="-1.63069">
        <ele>69</ele>
        <time>2021-09-26T17:25:46.000Z</time>
      </trkpt>
      <trkpt lat="47.14781" lon="-1.63068">
        <ele>69</ele>
        <time>2021-09-26T17:25:48.000Z</time>
      </trkpt>
      <trkpt lat="47.14794" lon="-1.63067">
        <ele>69</ele>
        <time>2021-09-26T17:25:50.000Z</time>
      </trkpt>
      <trkpt lat="47.14805" lon="-1.63066">
        <ele>70</ele>
        <time>2021-09-26T17:25:52.000Z</time>
      </trkpt>
      <trkpt lat="47.14817" lon="-1.63065">
        <ele>70</ele>
        <time>2021-09-26T17:25:54.000Z</time>
      </trkpt>
      <trkpt lat="47.1483" lon="-1.63064">
        <ele>70</ele>
        <time>2021-09-26T17:25:56.000Z</time>
      </trkpt>
      <trkpt lat="47.14842" lon="-1.63064">
        <ele>71</ele>
        <time>2021-09-26T17:25:58.000Z</time>
      </trkpt>
      <trkpt lat="47.14853" lon="-1.63063">
        <ele>71</ele>
        <time>2021-09-26T17:26:00.000Z</time>
      </trkpt>
      <trkpt lat="47.14864" lon="-1.63063">
        <ele>71</ele>
        <time>2021-09-26T17:26:02.000Z</time>
      </trkpt>
      <trkpt lat="47.14875" lon="-1.63063">
        <ele>71</ele>
        <time>2021-09-26T17:26:04.000Z</time>
      </trkpt>
      <trkpt lat="47.14885" lon="-1.63073">
        <ele>72</ele>
        <time>2021-09-26T17:26:07.000Z</time>
      </trkpt>
      <trkpt lat="47.14886" lon="-1.63089">
        <ele>72</ele>
        <time>2021-09-26T17:26:09.000Z</time>
      </trkpt>
      <trkpt lat="47.14883" lon="-1.63105">
        <ele>72</ele>
        <time>2021-09-26T17:26:11.000Z</time>
      </trkpt>
      <trkpt lat="47.14881" lon="-1.63121">
        <ele>71</ele>
        <time>2021-09-26T17:26:13.000Z</time>
      </trkpt>
      <trkpt lat="47.14878" lon="-1.63139">
        <ele>72</ele>
        <time>2021-09-26T17:26:15.000Z</time>
      </trkpt>
      <trkpt lat="47.14876" lon="-1.63158">
        <ele>72</ele>
        <time>2021-09-26T17:26:17.000Z</time>
      </trkpt>
      <trkpt lat="47.14875" lon="-1.63175">
        <ele>72</ele>
        <time>2021-09-26T17:26:19.000Z</time>
      </trkpt>
      <trkpt lat="47.14875" lon="-1.63194">
        <ele>72</ele>
        <time>2021-09-26T17:26:21.000Z</time>
      </trkpt>
      <trkpt lat="47.14875" lon="-1.63212">
        <ele>72</ele>
        <time>2021-09-26T17:26:23.000Z</time>
      </trkpt>
      <trkpt lat="47.14874" lon="-1.6323">
        <ele>73</ele>
        <time>2021-09-26T17:26:25.000Z</time>
      </trkpt>
      <trkpt lat="47.14874" lon="-1.63249">
        <ele>72</ele>
        <time>2021-09-26T17:26:27.000Z</time>
      </trkpt>
      <trkpt lat="47.14874" lon="-1.63267">
        <ele>72</ele>
        <time>2021-09-26T17:26:29.000Z</time>
      </trkpt>
      <trkpt lat="47.14874" lon="-1.63284">
        <ele>72</ele>
        <time>2021-09-26T17:26:31.000Z</time>
      </trkpt>
      <trkpt lat="47.14874" lon="-1.63301">
        <ele>72</ele>
        <time>2021-09-26T17:26:33.000Z</time>
      </trkpt>
      <trkpt lat="47.14874" lon="-1.63319">
        <ele>72</ele>
        <time>2021-09-26T17:26:35.000Z</time>
      </trkpt>
      <trkpt lat="47.14873" lon="-1.63337">
        <ele>72</ele>
        <time>2021-09-26T17:26:37.000Z</time>
      </trkpt>
      <trkpt lat="47.14873" lon="-1.63355">
        <ele>72</ele>
        <time>2021-09-26T17:26:39.000Z</time>
      </trkpt>
      <trkpt lat="47.14874" lon="-1.63374">
        <ele>72</ele>
        <time>2021-09-26T17:26:41.000Z</time>
      </trkpt>
      <trkpt lat="47.14873" lon="-1.63392">
        <ele>72</ele>
        <time>2021-09-26T17:26:43.000Z</time>
      </trkpt>
      <trkpt lat="47.14873" lon="-1.63411">
        <ele>71</ele>
        <time>2021-09-26T17:26:45.000Z</time>
      </trkpt>
      <trkpt lat="47.14874" lon="-1.6343">
        <ele>71</ele>
        <time>2021-09-26T17:26:47.000Z</time>
      </trkpt>
      <trkpt lat="47.14874" lon="-1.63449">
        <ele>71</ele>
        <time>2021-09-26T17:26:49.000Z</time>
      </trkpt>
      <trkpt lat="47.14874" lon="-1.63468">
        <ele>71</ele>
        <time>2021-09-26T17:26:51.000Z</time>
      </trkpt>
      <trkpt lat="47.14874" lon="-1.63487">
        <ele>71</ele>
        <time>2021-09-26T17:26:53.000Z</time>
      </trkpt>
      <trkpt lat="47.14874" lon="-1.63505">
        <ele>71</ele>
        <time>2021-09-26T17:26:55.000Z</time>
      </trkpt>
      <trkpt lat="47.14873" lon="-1.63522">
        <ele>71</ele>
        <time>2021-09-26T17:26:57.000Z</time>
      </trkpt>
      <trkpt lat="47.14873" lon="-1.6354">
        <ele>72</ele>
        <time>2021-09-26T17:26:59.000Z</time>
      </trkpt>
      <trkpt lat="47.14873" lon="-1.63557">
        <ele>72</ele>
        <time>2021-09-26T17:27:01.000Z</time>
      </trkpt>
      <trkpt lat="47.14872" lon="-1.63574">
        <ele>71</ele>
        <time>2021-09-26T17:27:03.000Z</time>
      </trkpt>
      <trkpt lat="47.14872" lon="-1.63592">
        <ele>71</ele>
        <time>2021-09-26T17:27:05.000Z</time>
      </trkpt>
      <trkpt lat="47.14872" lon="-1.63609">
        <ele>71</ele>
        <time>2021-09-26T17:27:07.000Z</time>
      </trkpt>
      <trkpt lat="47.14872" lon="-1.63628">
        <ele>71</ele>
        <time>2021-09-26T17:27:09.000Z</time>
      </trkpt>
      <trkpt lat="47.14872" lon="-1.63646">
        <ele>71</ele>
        <time>2021-09-26T17:27:11.000Z</time>
      </trkpt>
      <trkpt lat="47.14872" lon="-1.63665">
        <ele>70</ele>
        <time>2021-09-26T17:27:13.000Z</time>
      </trkpt>
      <trkpt lat="47.14873" lon="-1.63684">
        <ele>70</ele>
        <time>2021-09-26T17:27:15.000Z</time>
      </trkpt>
      <trkpt lat="47.14873" lon="-1.63702">
        <ele>69</ele>
        <time>2021-09-26T17:27:17.000Z</time>
      </trkpt>
      <trkpt lat="47.14873" lon="-1.6372">
        <ele>69</ele>
        <time>2021-09-26T17:27:19.000Z</time>
      </trkpt>
      <trkpt lat="47.14873" lon="-1.63737">
        <ele>69</ele>
        <time>2021-09-26T17:27:21.000Z</time>
      </trkpt>
      <trkpt lat="47.14873" lon="-1.63753">
        <ele>69</ele>
        <time>2021-09-26T17:27:23.000Z</time>
      </trkpt>
      <trkpt lat="47.14872" lon="-1.63771">
        <ele>69</ele>
        <time>2021-09-26T17:27:25.000Z</time>
      </trkpt>
      <trkpt lat="47.14872" lon="-1.63788">
        <ele>69</ele>
        <time>2021-09-26T17:27:27.000Z</time>
      </trkpt>
      <trkpt lat="47.14873" lon="-1.63805">
        <ele>69</ele>
        <time>2021-09-26T17:27:29.000Z</time>
      </trkpt>
      <trkpt lat="47.14873" lon="-1.63822">
        <ele>69</ele>
        <time>2021-09-26T17:27:31.000Z</time>
      </trkpt>
      <trkpt lat="47.14873" lon="-1.63839">
        <ele>69</ele>
        <time>2021-09-26T17:27:33.000Z</time>
      </trkpt>
      <trkpt lat="47.14872" lon="-1.63856">
        <ele>69</ele>
        <time>2021-09-26T17:27:35.000Z</time>
      </trkpt>
      <trkpt lat="47.14871" lon="-1.6387">
        <ele>69</ele>
        <time>2021-09-26T17:27:37.000Z</time>
      </trkpt>
      <trkpt lat="47.14869" lon="-1.63885">
        <ele>69</ele>
        <time>2021-09-26T17:27:39.000Z</time>
      </trkpt>
      <trkpt lat="47.14867" lon="-1.639">
        <ele>69</ele>
        <time>2021-09-26T17:27:41.000Z</time>
      </trkpt>
      <trkpt lat="47.14865" lon="-1.63915">
        <ele>69</ele>
        <time>2021-09-26T17:27:43.000Z</time>
      </trkpt>
      <trkpt lat="47.14863" lon="-1.6393">
        <ele>69</ele>
        <time>2021-09-26T17:27:45.000Z</time>
      </trkpt>
      <trkpt lat="47.14861" lon="-1.63944">
        <ele>69</ele>
        <time>2021-09-26T17:27:47.000Z</time>
      </trkpt>
      <trkpt lat="47.14859" lon="-1.63961">
        <ele>70</ele>
        <time>2021-09-26T17:27:50.000Z</time>
      </trkpt>
      <trkpt lat="47.14861" lon="-1.63974">
        <ele>70</ele>
        <time>2021-09-26T17:27:52.000Z</time>
      </trkpt>
      <trkpt lat="47.14866" lon="-1.63988">
        <ele>69</ele>
        <time>2021-09-26T17:27:54.000Z</time>
      </trkpt>
      <trkpt lat="47.14872" lon="-1.64">
        <ele>70</ele>
        <time>2021-09-26T17:27:56.000Z</time>
      </trkpt>
      <trkpt lat="47.14879" lon="-1.64011">
        <ele>70</ele>
        <time>2021-09-26T17:27:58.000Z</time>
      </trkpt>
      <trkpt lat="47.14888" lon="-1.64019">
        <ele>70</ele>
        <time>2021-09-26T17:28:00.000Z</time>
      </trkpt>
      <trkpt lat="47.14899" lon="-1.64021">
        <ele>71</ele>
        <time>2021-09-26T17:28:02.000Z</time>
      </trkpt>
      <trkpt lat="47.14909" lon="-1.64016">
        <ele>71</ele>
        <time>2021-09-26T17:28:04.000Z</time>
      </trkpt>
      <trkpt lat="47.14914" lon="-1.64003">
        <ele>71</ele>
        <time>2021-09-26T17:28:06.000Z</time>
      </trkpt>
      <trkpt lat="47.14919" lon="-1.63989">
        <ele>71</ele>
        <time>2021-09-26T17:28:08.000Z</time>
      </trkpt>
      <trkpt lat="47.14927" lon="-1.63975">
        <ele>71</ele>
        <time>2021-09-26T17:28:10.000Z</time>
      </trkpt>
      <trkpt lat="47.14934" lon="-1.63961">
        <ele>71</ele>
        <time>2021-09-26T17:28:12.000Z</time>
      </trkpt>
      <trkpt lat="47.14943" lon="-1.63949">
        <ele>71</ele>
        <time>2021-09-26T17:28:14.000Z</time>
      </trkpt>
      <trkpt lat="47.14951" lon="-1.63937">
        <ele>70</ele>
        <time>2021-09-26T17:28:16.000Z</time>
      </trkpt>
      <trkpt lat="47.14961" lon="-1.63924">
        <ele>70</ele>
        <time>2021-09-26T17:28:18.000Z</time>
      </trkpt>
      <trkpt lat="47.1497" lon="-1.6391">
        <ele>70</ele>
        <time>2021-09-26T17:28:20.000Z</time>
      </trkpt>
      <trkpt lat="47.1498" lon="-1.63896">
        <ele>70</ele>
        <time>2021-09-26T17:28:22.000Z</time>
      </trkpt>
      <trkpt lat="47.1499" lon="-1.63882">
        <ele>70</ele>
        <time>2021-09-26T17:28:24.000Z</time>
      </trkpt>
      <trkpt lat="47.15" lon="-1.63868">
        <ele>69</ele>
        <time>2021-09-26T17:28:26.000Z</time>
      </trkpt>
      <trkpt lat="47.15011" lon="-1.63853">
        <ele>68</ele>
        <time>2021-09-26T17:28:28.000Z</time>
      </trkpt>
      <trkpt lat="47.15021" lon="-1.63838">
        <ele>67</ele>
        <time>2021-09-26T17:28:30.000Z</time>
      </trkpt>
      <trkpt lat="47.15032" lon="-1.63824">
        <ele>67</ele>
        <time>2021-09-26T17:28:32.000Z</time>
      </trkpt>
      <trkpt lat="47.15042" lon="-1.6381">
        <ele>67</ele>
        <time>2021-09-26T17:28:34.000Z</time>
      </trkpt>
      <trkpt lat="47.15052" lon="-1.63796">
        <ele>66</ele>
        <time>2021-09-26T17:28:36.000Z</time>
      </trkpt>
      <trkpt lat="47.15063" lon="-1.63782">
        <ele>66</ele>
        <time>2021-09-26T17:28:38.000Z</time>
      </trkpt>
      <trkpt lat="47.15075" lon="-1.63769">
        <ele>66</ele>
        <time>2021-09-26T17:28:40.000Z</time>
      </trkpt>
      <trkpt lat="47.15087" lon="-1.63756">
        <ele>67</ele>
        <time>2021-09-26T17:28:42.000Z</time>
      </trkpt>
      <trkpt lat="47.15098" lon="-1.63742">
        <ele>67</ele>
        <time>2021-09-26T17:28:44.000Z</time>
      </trkpt>
      <trkpt lat="47.15109" lon="-1.6373">
        <ele>68</ele>
        <time>2021-09-26T17:28:46.000Z</time>
      </trkpt>
      <trkpt lat="47.15121" lon="-1.63719">
        <ele>68</ele>
        <time>2021-09-26T17:28:48.000Z</time>
      </trkpt>
      <trkpt lat="47.15133" lon="-1.63707">
        <ele>68</ele>
        <time>2021-09-26T17:28:50.000Z</time>
      </trkpt>
      <trkpt lat="47.15145" lon="-1.63694">
        <ele>68</ele>
        <time>2021-09-26T17:28:52.000Z</time>
      </trkpt>
      <trkpt lat="47.15157" lon="-1.63683">
        <ele>69</ele>
        <time>2021-09-26T17:28:54.000Z</time>
      </trkpt>
      <trkpt lat="47.15169" lon="-1.63672">
        <ele>69</ele>
        <time>2021-09-26T17:28:56.000Z</time>
      </trkpt>
      <trkpt lat="47.15182" lon="-1.6366">
        <ele>69</ele>
        <time>2021-09-26T17:28:58.000Z</time>
      </trkpt>
      <trkpt lat="47.15195" lon="-1.63649">
        <ele>69</ele>
        <time>2021-09-26T17:29:00.000Z</time>
      </trkpt>
      <trkpt lat="47.15207" lon="-1.63638">
        <ele>70</ele>
        <time>2021-09-26T17:29:02.000Z</time>
      </trkpt>
      <trkpt lat="47.15219" lon="-1.63627">
        <ele>69</ele>
        <time>2021-09-26T17:29:04.000Z</time>
      </trkpt>
      <trkpt lat="47.15231" lon="-1.63616">
        <ele>70</ele>
        <time>2021-09-26T17:29:06.000Z</time>
      </trkpt>
      <trkpt lat="47.15243" lon="-1.63604">
        <ele>70</ele>
        <time>2021-09-26T17:29:08.000Z</time>
      </trkpt>
      <trkpt lat="47.15255" lon="-1.63593">
        <ele>70</ele>
        <time>2021-09-26T17:29:10.000Z</time>
      </trkpt>
      <trkpt lat="47.15267" lon="-1.63582">
        <ele>70</ele>
        <time>2021-09-26T17:29:12.000Z</time>
      </trkpt>
      <trkpt lat="47.15278" lon="-1.63571">
        <ele>71</ele>
        <time>2021-09-26T17:29:14.000Z</time>
      </trkpt>
      <trkpt lat="47.1529" lon="-1.6356">
        <ele>71</ele>
        <time>2021-09-26T17:29:16.000Z</time>
      </trkpt>
      <trkpt lat="47.15302" lon="-1.63549">
        <ele>71</ele>
        <time>2021-09-26T17:29:18.000Z</time>
      </trkpt>
      <trkpt lat="47.15314" lon="-1.63538">
        <ele>70</ele>
        <time>2021-09-26T17:29:20.000Z</time>
      </trkpt>
      <trkpt lat="47.15326" lon="-1.63527">
        <ele>70</ele>
        <time>2021-09-26T17:29:22.000Z</time>
      </trkpt>
      <trkpt lat="47.15338" lon="-1.63516">
        <ele>70</ele>
        <time>2021-09-26T17:29:24.000Z</time>
      </trkpt>
      <trkpt lat="47.1535" lon="-1.63505">
        <ele>70</ele>
        <time>2021-09-26T17:29:26.000Z</time>
      </trkpt>
      <trkpt lat="47.15362" lon="-1.63495">
        <ele>70</ele>
        <time>2021-09-26T17:29:28.000Z</time>
      </trkpt>
      <trkpt lat="47.15375" lon="-1.63484">
        <ele>70</ele>
        <time>2021-09-26T17:29:30.000Z</time>
      </trkpt>
      <trkpt lat="47.15387" lon="-1.63473">
        <ele>70</ele>
        <time>2021-09-26T17:29:32.000Z</time>
      </trkpt>
      <trkpt lat="47.15399" lon="-1.63463">
        <ele>70</ele>
        <time>2021-09-26T17:29:34.000Z</time>
      </trkpt>
      <trkpt lat="47.15411" lon="-1.63453">
        <ele>70</ele>
        <time>2021-09-26T17:29:36.000Z</time>
      </trkpt>
      <trkpt lat="47.15423" lon="-1.63442">
        <ele>70</ele>
        <time>2021-09-26T17:29:38.000Z</time>
      </trkpt>
      <trkpt lat="47.15435" lon="-1.6343">
        <ele>69</ele>
        <time>2021-09-26T17:29:40.000Z</time>
      </trkpt>
      <trkpt lat="47.15447" lon="-1.63417">
        <ele>68</ele>
        <time>2021-09-26T17:29:42.000Z</time>
      </trkpt>
      <trkpt lat="47.15459" lon="-1.63406">
        <ele>68</ele>
        <time>2021-09-26T17:29:44.000Z</time>
      </trkpt>
      <trkpt lat="47.15471" lon="-1.63396">
        <ele>68</ele>
        <time>2021-09-26T17:29:46.000Z</time>
      </trkpt>
      <trkpt lat="47.15484" lon="-1.63388">
        <ele>68</ele>
        <time>2021-09-26T17:29:48.000Z</time>
      </trkpt>
      <trkpt lat="47.15498" lon="-1.63378">
        <ele>68</ele>
        <time>2021-09-26T17:29:50.000Z</time>
      </trkpt>
      <trkpt lat="47.15511" lon="-1.63367">
        <ele>67</ele>
        <time>2021-09-26T17:29:52.000Z</time>
      </trkpt>
      <trkpt lat="47.15524" lon="-1.63356">
        <ele>66</ele>
        <time>2021-09-26T17:29:54.000Z</time>
      </trkpt>
      <trkpt lat="47.15537" lon="-1.63344">
        <ele>66</ele>
        <time>2021-09-26T17:29:56.000Z</time>
      </trkpt>
      <trkpt lat="47.1555" lon="-1.63332">
        <ele>66</ele>
        <time>2021-09-26T17:29:58.000Z</time>
      </trkpt>
      <trkpt lat="47.15563" lon="-1.6332">
        <ele>65</ele>
        <time>2021-09-26T17:30:00.000Z</time>
      </trkpt>
      <trkpt lat="47.15577" lon="-1.63308">
        <ele>64</ele>
        <time>2021-09-26T17:30:02.000Z</time>
      </trkpt>
      <trkpt lat="47.15591" lon="-1.63296">
        <ele>64</ele>
        <time>2021-09-26T17:30:04.000Z</time>
      </trkpt>
      <trkpt lat="47.15605" lon="-1.63284">
        <ele>63</ele>
        <time>2021-09-26T17:30:06.000Z</time>
      </trkpt>
      <trkpt lat="47.15618" lon="-1.63272">
        <ele>64</ele>
        <time>2021-09-26T17:30:08.000Z</time>
      </trkpt>
      <trkpt lat="47.15631" lon="-1.63261">
        <ele>63</ele>
        <time>2021-09-26T17:30:10.000Z</time>
      </trkpt>
      <trkpt lat="47.15644" lon="-1.63249">
        <ele>63</ele>
        <time>2021-09-26T17:30:12.000Z</time>
      </trkpt>
      <trkpt lat="47.15656" lon="-1.63238">
        <ele>63</ele>
        <time>2021-09-26T17:30:14.000Z</time>
      </trkpt>
      <trkpt lat="47.15668" lon="-1.63228">
        <ele>64</ele>
        <time>2021-09-26T17:30:16.000Z</time>
      </trkpt>
      <trkpt lat="47.1568" lon="-1.63218">
        <ele>64</ele>
        <time>2021-09-26T17:30:18.000Z</time>
      </trkpt>
      <trkpt lat="47.15691" lon="-1.63208">
        <ele>65</ele>
        <time>2021-09-26T17:30:20.000Z</time>
      </trkpt>
      <trkpt lat="47.15704" lon="-1.63197">
        <ele>64</ele>
        <time>2021-09-26T17:30:22.000Z</time>
      </trkpt>
      <trkpt lat="47.15716" lon="-1.63186">
        <ele>64</ele>
        <time>2021-09-26T17:30:24.000Z</time>
      </trkpt>
      <trkpt lat="47.15728" lon="-1.63175">
        <ele>64</ele>
        <time>2021-09-26T17:30:26.000Z</time>
      </trkpt>
      <trkpt lat="47.1574" lon="-1.63163">
        <ele>65</ele>
        <time>2021-09-26T17:30:28.000Z</time>
      </trkpt>
      <trkpt lat="47.1575" lon="-1.63149">
        <ele>64</ele>
        <time>2021-09-26T17:30:30.000Z</time>
      </trkpt>
      <trkpt lat="47.15763" lon="-1.63144">
        <ele>63</ele>
        <time>2021-09-26T17:30:32.000Z</time>
      </trkpt>
      <trkpt lat="47.15776" lon="-1.63135">
        <ele>63</ele>
        <time>2021-09-26T17:30:34.000Z</time>
      </trkpt>
      <trkpt lat="47.15788" lon="-1.63123">
        <ele>62</ele>
        <time>2021-09-26T17:30:36.000Z</time>
      </trkpt>
      <trkpt lat="47.158" lon="-1.63111">
        <ele>62</ele>
        <time>2021-09-26T17:30:38.000Z</time>
      </trkpt>
      <trkpt lat="47.15814" lon="-1.631">
        <ele>62</ele>
        <time>2021-09-26T17:30:40.000Z</time>
      </trkpt>
      <trkpt lat="47.15827" lon="-1.63087">
        <ele>62</ele>
        <time>2021-09-26T17:30:42.000Z</time>
      </trkpt>
      <trkpt lat="47.15841" lon="-1.63075">
        <ele>61</ele>
        <time>2021-09-26T17:30:44.000Z</time>
      </trkpt>
      <trkpt lat="47.15854" lon="-1.63063">
        <ele>61</ele>
        <time>2021-09-26T17:30:46.000Z</time>
      </trkpt>
      <trkpt lat="47.15868" lon="-1.63051">
        <ele>61</ele>
        <time>2021-09-26T17:30:48.000Z</time>
      </trkpt>
      <trkpt lat="47.15881" lon="-1.6304">
        <ele>60</ele>
        <time>2021-09-26T17:30:50.000Z</time>
      </trkpt>
      <trkpt lat="47.15895" lon="-1.63028">
        <ele>60</ele>
        <time>2021-09-26T17:30:52.000Z</time>
      </trkpt>
      <trkpt lat="47.15908" lon="-1.63016">
        <ele>60</ele>
        <time>2021-09-26T17:30:54.000Z</time>
      </trkpt>
      <trkpt lat="47.1592" lon="-1.63005">
        <ele>61</ele>
        <time>2021-09-26T17:30:56.000Z</time>
      </trkpt>
      <trkpt lat="47.15932" lon="-1.62994">
        <ele>61</ele>
        <time>2021-09-26T17:30:58.000Z</time>
      </trkpt>
      <trkpt lat="47.15944" lon="-1.62985">
        <ele>61</ele>
        <time>2021-09-26T17:31:00.000Z</time>
      </trkpt>
      <trkpt lat="47.15955" lon="-1.62977">
        <ele>62</ele>
        <time>2021-09-26T17:31:02.000Z</time>
      </trkpt>
      <trkpt lat="47.15965" lon="-1.62968">
        <ele>63</ele>
        <time>2021-09-26T17:31:04.000Z</time>
      </trkpt>
      <trkpt lat="47.15976" lon="-1.6296">
        <ele>64</ele>
        <time>2021-09-26T17:31:06.000Z</time>
      </trkpt>
      <trkpt lat="47.15986" lon="-1.62951">
        <ele>64</ele>
        <time>2021-09-26T17:31:08.000Z</time>
      </trkpt>
      <trkpt lat="47.15996" lon="-1.6294">
        <ele>65</ele>
        <time>2021-09-26T17:31:10.000Z</time>
      </trkpt>
      <trkpt lat="47.16007" lon="-1.62931">
        <ele>65</ele>
        <time>2021-09-26T17:31:12.000Z</time>
      </trkpt>
      <trkpt lat="47.16017" lon="-1.62921">
        <ele>65</ele>
        <time>2021-09-26T17:31:14.000Z</time>
      </trkpt>
      <trkpt lat="47.16027" lon="-1.62912">
        <ele>66</ele>
        <time>2021-09-26T17:31:16.000Z</time>
      </trkpt>
      <trkpt lat="47.16037" lon="-1.62903">
        <ele>66</ele>
        <time>2021-09-26T17:31:18.000Z</time>
      </trkpt>
      <trkpt lat="47.16047" lon="-1.62895">
        <ele>66</ele>
        <time>2021-09-26T17:31:20.000Z</time>
      </trkpt>
      <trkpt lat="47.16057" lon="-1.62886">
        <ele>67</ele>
        <time>2021-09-26T17:31:22.000Z</time>
      </trkpt>
      <trkpt lat="47.16067" lon="-1.62877">
        <ele>67</ele>
        <time>2021-09-26T17:31:24.000Z</time>
      </trkpt>
      <trkpt lat="47.16077" lon="-1.62869">
        <ele>68</ele>
        <time>2021-09-26T17:31:26.000Z</time>
      </trkpt>
      <trkpt lat="47.16087" lon="-1.6286">
        <ele>68</ele>
        <time>2021-09-26T17:31:28.000Z</time>
      </trkpt>
      <trkpt lat="47.16098" lon="-1.62851">
        <ele>68</ele>
        <time>2021-09-26T17:31:30.000Z</time>
      </trkpt>
      <trkpt lat="47.16108" lon="-1.62843">
        <ele>69</ele>
        <time>2021-09-26T17:31:32.000Z</time>
      </trkpt>
      <trkpt lat="47.16118" lon="-1.62834">
        <ele>69</ele>
        <time>2021-09-26T17:31:34.000Z</time>
      </trkpt>
      <trkpt lat="47.16128" lon="-1.62825">
        <ele>69</ele>
        <time>2021-09-26T17:31:36.000Z</time>
      </trkpt>
      <trkpt lat="47.16139" lon="-1.62817">
        <ele>70</ele>
        <time>2021-09-26T17:31:38.000Z</time>
      </trkpt>
      <trkpt lat="47.16149" lon="-1.62808">
        <ele>70</ele>
        <time>2021-09-26T17:31:40.000Z</time>
      </trkpt>
      <trkpt lat="47.16159" lon="-1.62797">
        <ele>70</ele>
        <time>2021-09-26T17:31:42.000Z</time>
      </trkpt>
      <trkpt lat="47.1617" lon="-1.62786">
        <ele>70</ele>
        <time>2021-09-26T17:31:44.000Z</time>
      </trkpt>
      <trkpt lat="47.1618" lon="-1.62775">
        <ele>71</ele>
        <time>2021-09-26T17:31:46.000Z</time>
      </trkpt>
      <trkpt lat="47.16189" lon="-1.62765">
        <ele>71</ele>
        <time>2021-09-26T17:31:48.000Z</time>
      </trkpt>
      <trkpt lat="47.16199" lon="-1.62756">
        <ele>71</ele>
        <time>2021-09-26T17:31:50.000Z</time>
      </trkpt>
      <trkpt lat="47.16208" lon="-1.62748">
        <ele>71</ele>
        <time>2021-09-26T17:31:52.000Z</time>
      </trkpt>
      <trkpt lat="47.16218" lon="-1.6274">
        <ele>72</ele>
        <time>2021-09-26T17:31:54.000Z</time>
      </trkpt>
      <trkpt lat="47.16228" lon="-1.62731">
        <ele>72</ele>
        <time>2021-09-26T17:31:56.000Z</time>
      </trkpt>
      <trkpt lat="47.16237" lon="-1.62723">
        <ele>72</ele>
        <time>2021-09-26T17:31:58.000Z</time>
      </trkpt>
      <trkpt lat="47.16246" lon="-1.62716">
        <ele>72</ele>
        <time>2021-09-26T17:32:00.000Z</time>
      </trkpt>
      <trkpt lat="47.16256" lon="-1.62708">
        <ele>72</ele>
        <time>2021-09-26T17:32:02.000Z</time>
      </trkpt>
      <trkpt lat="47.16265" lon="-1.62701">
        <ele>73</ele>
        <time>2021-09-26T17:32:04.000Z</time>
      </trkpt>
      <trkpt lat="47.16274" lon="-1.62694">
        <ele>73</ele>
        <time>2021-09-26T17:32:06.000Z</time>
      </trkpt>
      <trkpt lat="47.16276" lon="-1.62673">
        <ele>73</ele>
        <time>2021-09-26T17:32:09.000Z</time>
      </trkpt>
      <trkpt lat="47.16277" lon="-1.62656">
        <ele>72</ele>
        <time>2021-09-26T17:32:11.000Z</time>
      </trkpt>
      <trkpt lat="47.16279" lon="-1.62639">
        <ele>72</ele>
        <time>2021-09-26T17:32:13.000Z</time>
      </trkpt>
      <trkpt lat="47.16282" lon="-1.62622">
        <ele>71</ele>
        <time>2021-09-26T17:32:15.000Z</time>
      </trkpt>
      <trkpt lat="47.16286" lon="-1.62605">
        <ele>71</ele>
        <time>2021-09-26T17:32:17.000Z</time>
      </trkpt>
      <trkpt lat="47.16291" lon="-1.6259">
        <ele>71</ele>
        <time>2021-09-26T17:32:19.000Z</time>
      </trkpt>
      <trkpt lat="47.16298" lon="-1.62578">
        <ele>71</ele>
        <time>2021-09-26T17:32:21.000Z</time>
      </trkpt>
      <trkpt lat="47.16309" lon="-1.62571">
        <ele>71</ele>
        <time>2021-09-26T17:32:23.000Z</time>
      </trkpt>
      <trkpt lat="47.16321" lon="-1.6257">
        <ele>71</ele>
        <time>2021-09-26T17:32:25.000Z</time>
      </trkpt>
      <trkpt lat="47.16333" lon="-1.62574">
        <ele>72</ele>
        <time>2021-09-26T17:32:27.000Z</time>
      </trkpt>
      <trkpt lat="47.16345" lon="-1.62579">
        <ele>72</ele>
        <time>2021-09-26T17:32:29.000Z</time>
      </trkpt>
      <trkpt lat="47.16357" lon="-1.62583">
        <ele>72</ele>
        <time>2021-09-26T17:32:31.000Z</time>
      </trkpt>
      <trkpt lat="47.1637" lon="-1.62584">
        <ele>72</ele>
        <time>2021-09-26T17:32:33.000Z</time>
      </trkpt>
      <trkpt lat="47.16382" lon="-1.62584">
        <ele>73</ele>
        <time>2021-09-26T17:32:35.000Z</time>
      </trkpt>
      <trkpt lat="47.16393" lon="-1.62579">
        <ele>73</ele>
        <time>2021-09-26T17:32:37.000Z</time>
      </trkpt>
      <trkpt lat="47.16403" lon="-1.62571">
        <ele>74</ele>
        <time>2021-09-26T17:32:39.000Z</time>
      </trkpt>
      <trkpt lat="47.16413" lon="-1.62561">
        <ele>74</ele>
        <time>2021-09-26T17:32:41.000Z</time>
      </trkpt>
      <trkpt lat="47.16423" lon="-1.62551">
        <ele>75</ele>
        <time>2021-09-26T17:32:43.000Z</time>
      </trkpt>
      <trkpt lat="47.16434" lon="-1.62543">
        <ele>74</ele>
        <time>2021-09-26T17:32:45.000Z</time>
      </trkpt>
      <trkpt lat="47.16446" lon="-1.62542">
        <ele>74</ele>
        <time>2021-09-26T17:32:47.000Z</time>
      </trkpt>
      <trkpt lat="47.16458" lon="-1.62544">
        <ele>74</ele>
        <time>2021-09-26T17:32:49.000Z</time>
      </trkpt>
      <trkpt lat="47.1647" lon="-1.62548">
        <ele>74</ele>
        <time>2021-09-26T17:32:51.000Z</time>
      </trkpt>
      <trkpt lat="47.16483" lon="-1.62552">
        <ele>73</ele>
        <time>2021-09-26T17:32:53.000Z</time>
      </trkpt>
      <trkpt lat="47.16496" lon="-1.62556">
        <ele>73</ele>
        <time>2021-09-26T17:32:55.000Z</time>
      </trkpt>
      <trkpt lat="47.16509" lon="-1.6256">
        <ele>73</ele>
        <time>2021-09-26T17:32:57.000Z</time>
      </trkpt>
      <trkpt lat="47.16522" lon="-1.62564">
        <ele>73</ele>
        <time>2021-09-26T17:32:59.000Z</time>
      </trkpt>
      <trkpt lat="47.16535" lon="-1.62563">
        <ele>73</ele>
        <time>2021-09-26T17:33:01.000Z</time>
      </trkpt>
      <trkpt lat="47.16545" lon="-1.62554">
        <ele>73</ele>
        <time>2021-09-26T17:33:03.000Z</time>
      </trkpt>
      <trkpt lat="47.16555" lon="-1.62542">
        <ele>74</ele>
        <time>2021-09-26T17:33:05.000Z</time>
      </trkpt>
      <trkpt lat="47.16564" lon="-1.62529">
        <ele>74</ele>
        <time>2021-09-26T17:33:07.000Z</time>
      </trkpt>
      <trkpt lat="47.16571" lon="-1.62514">
        <ele>75</ele>
        <time>2021-09-26T17:33:09.000Z</time>
      </trkpt>
      <trkpt lat="47.16578" lon="-1.62496">
        <ele>75</ele>
        <time>2021-09-26T17:33:11.000Z</time>
      </trkpt>
      <trkpt lat="47.16585" lon="-1.62478">
        <ele>75</ele>
        <time>2021-09-26T17:33:13.000Z</time>
      </trkpt>
      <trkpt lat="47.16592" lon="-1.62459">
        <ele>74</ele>
        <time>2021-09-26T17:33:15.000Z</time>
      </trkpt>
      <trkpt lat="47.166" lon="-1.6244">
        <ele>73</ele>
        <time>2021-09-26T17:33:17.000Z</time>
      </trkpt>
      <trkpt lat="47.1661" lon="-1.62422">
        <ele>73</ele>
        <time>2021-09-26T17:33:19.000Z</time>
      </trkpt>
      <trkpt lat="47.1662" lon="-1.62405">
        <ele>72</ele>
        <time>2021-09-26T17:33:21.000Z</time>
      </trkpt>
      <trkpt lat="47.1663" lon="-1.62389">
        <ele>71</ele>
        <time>2021-09-26T17:33:23.000Z</time>
      </trkpt>
      <trkpt lat="47.16642" lon="-1.62376">
        <ele>71</ele>
        <time>2021-09-26T17:33:25.000Z</time>
      </trkpt>
      <trkpt lat="47.16654" lon="-1.62366">
        <ele>71</ele>
        <time>2021-09-26T17:33:27.000Z</time>
      </trkpt>
      <trkpt lat="47.16667" lon="-1.62361">
        <ele>71</ele>
        <time>2021-09-26T17:33:29.000Z</time>
      </trkpt>
      <trkpt lat="47.16682" lon="-1.62364">
        <ele>70</ele>
        <time>2021-09-26T17:33:31.000Z</time>
      </trkpt>
      <trkpt lat="47.16695" lon="-1.62373">
        <ele>70</ele>
        <time>2021-09-26T17:33:33.000Z</time>
      </trkpt>
      <trkpt lat="47.16706" lon="-1.62385">
        <ele>69</ele>
        <time>2021-09-26T17:33:35.000Z</time>
      </trkpt>
      <trkpt lat="47.16713" lon="-1.62395">
        <ele>69</ele>
        <time>2021-09-26T17:33:37.000Z</time>
      </trkpt>
      <trkpt lat="47.16719" lon="-1.62406">
        <ele>70</ele>
        <time>2021-09-26T17:33:40.000Z</time>
      </trkpt>
      <trkpt lat="47.16729" lon="-1.6242">
        <ele>70</ele>
        <time>2021-09-26T17:33:43.000Z</time>
      </trkpt>
      <trkpt lat="47.16728" lon="-1.62436">
        <ele>70</ele>
        <time>2021-09-26T17:33:45.000Z</time>
      </trkpt>
      <trkpt lat="47.16723" lon="-1.62452">
        <ele>69</ele>
        <time>2021-09-26T17:33:47.000Z</time>
      </trkpt>
      <trkpt lat="47.1672" lon="-1.62469">
        <ele>68</ele>
        <time>2021-09-26T17:33:49.000Z</time>
      </trkpt>
      <trkpt lat="47.16718" lon="-1.62486">
        <ele>67</ele>
        <time>2021-09-26T17:33:51.000Z</time>
      </trkpt>
      <trkpt lat="47.16723" lon="-1.62498">
        <ele>67</ele>
        <time>2021-09-26T17:33:53.000Z</time>
      </trkpt>
      <trkpt lat="47.16734" lon="-1.62503">
        <ele>66</ele>
        <time>2021-09-26T17:33:55.000Z</time>
      </trkpt>
      <trkpt lat="47.16745" lon="-1.62507">
        <ele>66</ele>
        <time>2021-09-26T17:33:57.000Z</time>
      </trkpt>
      <trkpt lat="47.16756" lon="-1.62514">
        <ele>67</ele>
        <time>2021-09-26T17:33:59.000Z</time>
      </trkpt>
      <trkpt lat="47.16767" lon="-1.62521">
        <ele>68</ele>
        <time>2021-09-26T17:34:01.000Z</time>
      </trkpt>
      <trkpt lat="47.16778" lon="-1.62528">
        <ele>68</ele>
        <time>2021-09-26T17:34:03.000Z</time>
      </trkpt>
      <trkpt lat="47.16788" lon="-1.62535">
        <ele>69</ele>
        <time>2021-09-26T17:34:05.000Z</time>
      </trkpt>
      <trkpt lat="47.168" lon="-1.62542">
        <ele>69</ele>
        <time>2021-09-26T17:34:07.000Z</time>
      </trkpt>
      <trkpt lat="47.16809" lon="-1.6255">
        <ele>69</ele>
        <time>2021-09-26T17:34:09.000Z</time>
      </trkpt>
      <trkpt lat="47.16819" lon="-1.62559">
        <ele>69</ele>
        <time>2021-09-26T17:34:11.000Z</time>
      </trkpt>
      <trkpt lat="47.16828" lon="-1.6257">
        <ele>68</ele>
        <time>2021-09-26T17:34:13.000Z</time>
      </trkpt>
      <trkpt lat="47.16831" lon="-1.62585">
        <ele>68</ele>
        <time>2021-09-26T17:34:15.000Z</time>
      </trkpt>
      <trkpt lat="47.16824" lon="-1.62598">
        <ele>69</ele>
        <time>2021-09-26T17:34:17.000Z</time>
      </trkpt>
      <trkpt lat="47.16816" lon="-1.6261">
        <ele>69</ele>
        <time>2021-09-26T17:34:19.000Z</time>
      </trkpt>
      <trkpt lat="47.16809" lon="-1.62622">
        <ele>68</ele>
        <time>2021-09-26T17:34:21.000Z</time>
      </trkpt>
      <trkpt lat="47.16802" lon="-1.62635">
        <ele>68</ele>
        <time>2021-09-26T17:34:23.000Z</time>
      </trkpt>
      <trkpt lat="47.16796" lon="-1.62645">
        <ele>68</ele>
        <time>2021-09-26T17:34:25.000Z</time>
      </trkpt>
      <trkpt lat="47.16789" lon="-1.62657">
        <ele>68</ele>
        <time>2021-09-26T17:34:28.000Z</time>
      </trkpt>
      <trkpt lat="47.16779" lon="-1.62657">
        <ele>68</ele>
        <time>2021-09-26T17:34:32.000Z</time>
      </trkpt>
    </trkseg>
  </trk>
</gpx>